<?xml version="1.0" encoding="UTF-8" standalone="no" ?>
<gpx xmlns="http://www.topografix.com/GPX/1/1" xmlns:xsi="http://www.w3.org/2001/XMLSchema-instance" xsi:schemaLocation="http://www.topografix.com/GPX/1/1 http://www.topografix.com/GPX/1/1/gpx.xsd" version="1.1" creator="VisuGPX - https://www.visugpx.com">
  <metadata>
    <name>Ahuy - Val Suzon</name>
    <desc><![CDATA[Randonnée pédestre effectuée le 14 avril 2022 ]]></desc>
  </metadata>
  <trk>
    <name><![CDATA[Ahuy 24 km 20220414.]]></name>
    <extensions>
      <line xmlns="http://www.topografix.com/GPX/gpx_style/0/2">
        <color>0000FF</color>
        <width>4</width>
      </line>
    </extensions>
    <trkseg>
      <trkpt lat="47.37036" lon="5.01884">
        <ele>297</ele>
        <time>2022-04-14T06:45:34.253Z</time>
      </trkpt>
      <trkpt lat="47.37033" lon="5.01889">
        <ele>297</ele>
        <time>2022-04-14T06:45:35.271Z</time>
      </trkpt>
      <trkpt lat="47.37029" lon="5.01902">
        <ele>297</ele>
        <time>2022-04-14T06:45:40.370Z</time>
      </trkpt>
      <trkpt lat="47.3703" lon="5.01902">
        <ele>297</ele>
        <time>2022-04-14T06:45:58.452Z</time>
      </trkpt>
      <trkpt lat="47.3703" lon="5.01903">
        <ele>297</ele>
        <time>2022-04-14T06:46:03.449Z</time>
      </trkpt>
      <trkpt lat="47.37033" lon="5.01901">
        <ele>297</ele>
        <time>2022-04-14T06:54:50.442Z</time>
      </trkpt>
      <trkpt lat="47.37029" lon="5.01906">
        <ele>298</ele>
        <time>2022-04-14T06:54:55.450Z</time>
      </trkpt>
      <trkpt lat="47.37027" lon="5.01911">
        <ele>298</ele>
        <time>2022-04-14T06:55:00.452Z</time>
      </trkpt>
      <trkpt lat="47.37026" lon="5.01913">
        <ele>298</ele>
        <time>2022-04-14T06:55:05.486Z</time>
      </trkpt>
      <trkpt lat="47.37024" lon="5.0192">
        <ele>298</ele>
        <time>2022-04-14T06:55:10.434Z</time>
      </trkpt>
      <trkpt lat="47.37025" lon="5.01911">
        <ele>298</ele>
        <time>2022-04-14T06:56:49.406Z</time>
      </trkpt>
      <trkpt lat="47.37021" lon="5.01909">
        <ele>298</ele>
        <time>2022-04-14T06:56:54.441Z</time>
      </trkpt>
      <trkpt lat="47.3702" lon="5.0191">
        <ele>298</ele>
        <time>2022-04-14T06:56:59.380Z</time>
      </trkpt>
      <trkpt lat="47.3702" lon="5.01909">
        <ele>298</ele>
        <time>2022-04-14T06:57:03.386Z</time>
      </trkpt>
      <trkpt lat="47.37019" lon="5.01908">
        <ele>298</ele>
        <time>2022-04-14T06:57:07.451Z</time>
      </trkpt>
      <trkpt lat="47.37017" lon="5.01904">
        <ele>298</ele>
        <time>2022-04-14T06:57:12.388Z</time>
      </trkpt>
      <trkpt lat="47.37017" lon="5.01904">
        <ele>298</ele>
        <time>2022-04-14T06:57:17.385Z</time>
      </trkpt>
      <trkpt lat="47.37015" lon="5.01901">
        <ele>297</ele>
        <time>2022-04-14T06:57:22.444Z</time>
      </trkpt>
      <trkpt lat="47.37016" lon="5.01893">
        <ele>297</ele>
        <time>2022-04-14T06:57:27.392Z</time>
      </trkpt>
      <trkpt lat="47.37017" lon="5.01885">
        <ele>297</ele>
        <time>2022-04-14T06:57:32.383Z</time>
      </trkpt>
      <trkpt lat="47.37016" lon="5.01878">
        <ele>297</ele>
        <time>2022-04-14T06:57:37.406Z</time>
      </trkpt>
      <trkpt lat="47.37012" lon="5.01874">
        <ele>293</ele>
        <time>2022-04-14T06:57:42.384Z</time>
      </trkpt>
      <trkpt lat="47.37009" lon="5.01874">
        <ele>293</ele>
        <time>2022-04-14T06:57:46.454Z</time>
      </trkpt>
      <trkpt lat="47.37003" lon="5.01877">
        <ele>293</ele>
        <time>2022-04-14T06:57:51.448Z</time>
      </trkpt>
      <trkpt lat="47.36996" lon="5.0188">
        <ele>293</ele>
        <time>2022-04-14T06:57:56.450Z</time>
      </trkpt>
      <trkpt lat="47.36991" lon="5.01883">
        <ele>293</ele>
        <time>2022-04-14T06:58:00.476Z</time>
      </trkpt>
      <trkpt lat="47.36986" lon="5.01886">
        <ele>289</ele>
        <time>2022-04-14T06:58:05.458Z</time>
      </trkpt>
      <trkpt lat="47.36981" lon="5.01888">
        <ele>289</ele>
        <time>2022-04-14T06:58:09.504Z</time>
      </trkpt>
      <trkpt lat="47.36975" lon="5.01886">
        <ele>289</ele>
        <time>2022-04-14T06:58:14.464Z</time>
      </trkpt>
      <trkpt lat="47.3697" lon="5.01881">
        <ele>289</ele>
        <time>2022-04-14T06:58:19.407Z</time>
      </trkpt>
      <trkpt lat="47.36964" lon="5.01884">
        <ele>289</ele>
        <time>2022-04-14T06:58:23.478Z</time>
      </trkpt>
      <trkpt lat="47.36958" lon="5.01884">
        <ele>287</ele>
        <time>2022-04-14T06:58:28.421Z</time>
      </trkpt>
      <trkpt lat="47.36951" lon="5.01883">
        <ele>287</ele>
        <time>2022-04-14T06:58:33.385Z</time>
      </trkpt>
      <trkpt lat="47.36947" lon="5.01881">
        <ele>287</ele>
        <time>2022-04-14T06:58:37.403Z</time>
      </trkpt>
      <trkpt lat="47.36942" lon="5.01881">
        <ele>287</ele>
        <time>2022-04-14T06:58:42.396Z</time>
      </trkpt>
      <trkpt lat="47.36939" lon="5.01874">
        <ele>288</ele>
        <time>2022-04-14T06:58:47.424Z</time>
      </trkpt>
      <trkpt lat="47.36937" lon="5.01867">
        <ele>288</ele>
        <time>2022-04-14T06:58:51.455Z</time>
      </trkpt>
      <trkpt lat="47.36936" lon="5.01859">
        <ele>288</ele>
        <time>2022-04-14T06:58:56.444Z</time>
      </trkpt>
      <trkpt lat="47.36933" lon="5.01852">
        <ele>288</ele>
        <time>2022-04-14T06:59:01.469Z</time>
      </trkpt>
      <trkpt lat="47.36933" lon="5.01844">
        <ele>291</ele>
        <time>2022-04-14T06:59:06.477Z</time>
      </trkpt>
      <trkpt lat="47.36931" lon="5.01835">
        <ele>291</ele>
        <time>2022-04-14T06:59:11.444Z</time>
      </trkpt>
      <trkpt lat="47.36931" lon="5.01828">
        <ele>289</ele>
        <time>2022-04-14T06:59:16.455Z</time>
      </trkpt>
      <trkpt lat="47.3693" lon="5.01824">
        <ele>289</ele>
        <time>2022-04-14T06:59:20.464Z</time>
      </trkpt>
      <trkpt lat="47.36931" lon="5.01817">
        <ele>292</ele>
        <time>2022-04-14T06:59:25.483Z</time>
      </trkpt>
      <trkpt lat="47.36933" lon="5.01808">
        <ele>292</ele>
        <time>2022-04-14T06:59:30.474Z</time>
      </trkpt>
      <trkpt lat="47.36931" lon="5.01801">
        <ele>292</ele>
        <time>2022-04-14T06:59:35.442Z</time>
      </trkpt>
      <trkpt lat="47.36931" lon="5.01795">
        <ele>292</ele>
        <time>2022-04-14T06:59:39.503Z</time>
      </trkpt>
      <trkpt lat="47.36932" lon="5.01789">
        <ele>294</ele>
        <time>2022-04-14T06:59:44.431Z</time>
      </trkpt>
      <trkpt lat="47.36932" lon="5.01782">
        <ele>294</ele>
        <time>2022-04-14T06:59:49.450Z</time>
      </trkpt>
      <trkpt lat="47.36931" lon="5.01774">
        <ele>294</ele>
        <time>2022-04-14T06:59:54.414Z</time>
      </trkpt>
      <trkpt lat="47.36932" lon="5.01769">
        <ele>294</ele>
        <time>2022-04-14T06:59:58.474Z</time>
      </trkpt>
      <trkpt lat="47.36932" lon="5.01761">
        <ele>295</ele>
        <time>2022-04-14T07:00:03.473Z</time>
      </trkpt>
      <trkpt lat="47.36931" lon="5.01752">
        <ele>290</ele>
        <time>2022-04-14T07:00:08.467Z</time>
      </trkpt>
      <trkpt lat="47.3693" lon="5.01744">
        <ele>290</ele>
        <time>2022-04-14T07:00:13.471Z</time>
      </trkpt>
      <trkpt lat="47.36931" lon="5.01737">
        <ele>295</ele>
        <time>2022-04-14T07:00:18.462Z</time>
      </trkpt>
      <trkpt lat="47.36931" lon="5.01729">
        <ele>295</ele>
        <time>2022-04-14T07:00:23.464Z</time>
      </trkpt>
      <trkpt lat="47.36932" lon="5.0172">
        <ele>295</ele>
        <time>2022-04-14T07:00:28.436Z</time>
      </trkpt>
      <trkpt lat="47.36931" lon="5.01711">
        <ele>295</ele>
        <time>2022-04-14T07:00:33.450Z</time>
      </trkpt>
      <trkpt lat="47.36931" lon="5.01703">
        <ele>295</ele>
        <time>2022-04-14T07:00:38.444Z</time>
      </trkpt>
      <trkpt lat="47.36931" lon="5.01695">
        <ele>295</ele>
        <time>2022-04-14T07:00:43.448Z</time>
      </trkpt>
      <trkpt lat="47.36931" lon="5.01691">
        <ele>295</ele>
        <time>2022-04-14T07:00:48.473Z</time>
      </trkpt>
      <trkpt lat="47.36932" lon="5.01684">
        <ele>295</ele>
        <time>2022-04-14T07:00:53.467Z</time>
      </trkpt>
      <trkpt lat="47.36932" lon="5.01678">
        <ele>296</ele>
        <time>2022-04-14T07:00:58.441Z</time>
      </trkpt>
      <trkpt lat="47.36934" lon="5.01672">
        <ele>296</ele>
        <time>2022-04-14T07:01:02.480Z</time>
      </trkpt>
      <trkpt lat="47.36935" lon="5.01662">
        <ele>296</ele>
        <time>2022-04-14T07:01:07.469Z</time>
      </trkpt>
      <trkpt lat="47.36935" lon="5.01653">
        <ele>296</ele>
        <time>2022-04-14T07:01:12.474Z</time>
      </trkpt>
      <trkpt lat="47.36938" lon="5.01645">
        <ele>297</ele>
        <time>2022-04-14T07:01:17.475Z</time>
      </trkpt>
      <trkpt lat="47.36939" lon="5.01635">
        <ele>297</ele>
        <time>2022-04-14T07:01:22.413Z</time>
      </trkpt>
      <trkpt lat="47.3694" lon="5.01629">
        <ele>297</ele>
        <time>2022-04-14T07:01:26.483Z</time>
      </trkpt>
      <trkpt lat="47.36941" lon="5.01621">
        <ele>297</ele>
        <time>2022-04-14T07:01:31.485Z</time>
      </trkpt>
      <trkpt lat="47.36942" lon="5.01615">
        <ele>297</ele>
        <time>2022-04-14T07:01:36.462Z</time>
      </trkpt>
      <trkpt lat="47.36943" lon="5.01605">
        <ele>297</ele>
        <time>2022-04-14T07:01:41.486Z</time>
      </trkpt>
      <trkpt lat="47.36946" lon="5.01596">
        <ele>297</ele>
        <time>2022-04-14T07:01:46.463Z</time>
      </trkpt>
      <trkpt lat="47.36948" lon="5.01589">
        <ele>297</ele>
        <time>2022-04-14T07:01:51.482Z</time>
      </trkpt>
      <trkpt lat="47.36952" lon="5.0158">
        <ele>297</ele>
        <time>2022-04-14T07:01:56.438Z</time>
      </trkpt>
      <trkpt lat="47.36953" lon="5.01571">
        <ele>297</ele>
        <time>2022-04-14T07:02:01.453Z</time>
      </trkpt>
      <trkpt lat="47.36952" lon="5.01566">
        <ele>297</ele>
        <time>2022-04-14T07:02:05.473Z</time>
      </trkpt>
      <trkpt lat="47.36953" lon="5.01559">
        <ele>297</ele>
        <time>2022-04-14T07:02:10.461Z</time>
      </trkpt>
      <trkpt lat="47.36953" lon="5.01548">
        <ele>297</ele>
        <time>2022-04-14T07:02:15.492Z</time>
      </trkpt>
      <trkpt lat="47.36953" lon="5.01538">
        <ele>296</ele>
        <time>2022-04-14T07:02:20.444Z</time>
      </trkpt>
      <trkpt lat="47.36953" lon="5.01531">
        <ele>296</ele>
        <time>2022-04-14T07:02:24.430Z</time>
      </trkpt>
      <trkpt lat="47.36954" lon="5.01523">
        <ele>296</ele>
        <time>2022-04-14T07:02:29.474Z</time>
      </trkpt>
      <trkpt lat="47.36957" lon="5.01513">
        <ele>296</ele>
        <time>2022-04-14T07:02:34.455Z</time>
      </trkpt>
      <trkpt lat="47.36959" lon="5.01506">
        <ele>297</ele>
        <time>2022-04-14T07:02:39.406Z</time>
      </trkpt>
      <trkpt lat="47.3696" lon="5.01499">
        <ele>297</ele>
        <time>2022-04-14T07:02:43.490Z</time>
      </trkpt>
      <trkpt lat="47.36964" lon="5.01491">
        <ele>297</ele>
        <time>2022-04-14T07:02:48.419Z</time>
      </trkpt>
      <trkpt lat="47.36966" lon="5.01487">
        <ele>297</ele>
        <time>2022-04-14T07:02:52.445Z</time>
      </trkpt>
      <trkpt lat="47.36967" lon="5.01479">
        <ele>298</ele>
        <time>2022-04-14T07:02:57.445Z</time>
      </trkpt>
      <trkpt lat="47.36969" lon="5.01473">
        <ele>298</ele>
        <time>2022-04-14T07:03:01.490Z</time>
      </trkpt>
      <trkpt lat="47.3697" lon="5.01463">
        <ele>298</ele>
        <time>2022-04-14T07:03:06.444Z</time>
      </trkpt>
      <trkpt lat="47.36973" lon="5.01456">
        <ele>298</ele>
        <time>2022-04-14T07:03:11.487Z</time>
      </trkpt>
      <trkpt lat="47.36975" lon="5.01447">
        <ele>298</ele>
        <time>2022-04-14T07:03:16.445Z</time>
      </trkpt>
      <trkpt lat="47.36977" lon="5.01442">
        <ele>298</ele>
        <time>2022-04-14T07:03:20.458Z</time>
      </trkpt>
      <trkpt lat="47.36978" lon="5.01435">
        <ele>298</ele>
        <time>2022-04-14T07:03:25.471Z</time>
      </trkpt>
      <trkpt lat="47.36979" lon="5.01427">
        <ele>299</ele>
        <time>2022-04-14T07:03:30.431Z</time>
      </trkpt>
      <trkpt lat="47.36981" lon="5.01419">
        <ele>299</ele>
        <time>2022-04-14T07:03:35.391Z</time>
      </trkpt>
      <trkpt lat="47.36983" lon="5.01413">
        <ele>299</ele>
        <time>2022-04-14T07:03:39.441Z</time>
      </trkpt>
      <trkpt lat="47.36984" lon="5.01407">
        <ele>299</ele>
        <time>2022-04-14T07:03:43.472Z</time>
      </trkpt>
      <trkpt lat="47.36986" lon="5.01399">
        <ele>299</ele>
        <time>2022-04-14T07:03:48.485Z</time>
      </trkpt>
      <trkpt lat="47.36988" lon="5.0139">
        <ele>304</ele>
        <time>2022-04-14T07:03:53.457Z</time>
      </trkpt>
      <trkpt lat="47.3699" lon="5.0138">
        <ele>304</ele>
        <time>2022-04-14T07:03:58.408Z</time>
      </trkpt>
      <trkpt lat="47.36991" lon="5.01372">
        <ele>304</ele>
        <time>2022-04-14T07:04:03.473Z</time>
      </trkpt>
      <trkpt lat="47.36992" lon="5.01365">
        <ele>304</ele>
        <time>2022-04-14T07:04:08.439Z</time>
      </trkpt>
      <trkpt lat="47.36993" lon="5.01357">
        <ele>304</ele>
        <time>2022-04-14T07:04:13.485Z</time>
      </trkpt>
      <trkpt lat="47.36994" lon="5.01347">
        <ele>303</ele>
        <time>2022-04-14T07:04:18.425Z</time>
      </trkpt>
      <trkpt lat="47.36997" lon="5.01338">
        <ele>303</ele>
        <time>2022-04-14T07:04:23.463Z</time>
      </trkpt>
      <trkpt lat="47.37001" lon="5.01329">
        <ele>303</ele>
        <time>2022-04-14T07:04:28.428Z</time>
      </trkpt>
      <trkpt lat="47.37002" lon="5.01329">
        <ele>303</ele>
        <time>2022-04-14T07:04:32.437Z</time>
      </trkpt>
      <trkpt lat="47.37002" lon="5.01322">
        <ele>303</ele>
        <time>2022-04-14T07:05:11.467Z</time>
      </trkpt>
      <trkpt lat="47.37003" lon="5.01321">
        <ele>303</ele>
        <time>2022-04-14T07:05:16.431Z</time>
      </trkpt>
      <trkpt lat="47.37003" lon="5.01321">
        <ele>303</ele>
        <time>2022-04-14T07:05:21.468Z</time>
      </trkpt>
      <trkpt lat="47.37003" lon="5.01318">
        <ele>303</ele>
        <time>2022-04-14T07:05:56.435Z</time>
      </trkpt>
      <trkpt lat="47.37003" lon="5.01318">
        <ele>303</ele>
        <time>2022-04-14T07:06:01.448Z</time>
      </trkpt>
      <trkpt lat="47.37003" lon="5.01316">
        <ele>303</ele>
        <time>2022-04-14T07:09:51.397Z</time>
      </trkpt>
      <trkpt lat="47.37003" lon="5.01316">
        <ele>303</ele>
        <time>2022-04-14T07:09:55.490Z</time>
      </trkpt>
      <trkpt lat="47.37003" lon="5.01315">
        <ele>303</ele>
        <time>2022-04-14T07:10:14.452Z</time>
      </trkpt>
      <trkpt lat="47.37004" lon="5.01308">
        <ele>303</ele>
        <time>2022-04-14T07:10:19.475Z</time>
      </trkpt>
      <trkpt lat="47.37004" lon="5.01301">
        <ele>303</ele>
        <time>2022-04-14T07:10:24.447Z</time>
      </trkpt>
      <trkpt lat="47.37009" lon="5.01303">
        <ele>303</ele>
        <time>2022-04-14T07:10:54.452Z</time>
      </trkpt>
      <trkpt lat="47.37008" lon="5.01308">
        <ele>303</ele>
        <time>2022-04-14T07:10:59.423Z</time>
      </trkpt>
      <trkpt lat="47.37007" lon="5.0131">
        <ele>303</ele>
        <time>2022-04-14T07:11:03.450Z</time>
      </trkpt>
      <trkpt lat="47.37006" lon="5.01312">
        <ele>303</ele>
        <time>2022-04-14T07:11:08.419Z</time>
      </trkpt>
      <trkpt lat="47.37005" lon="5.01315">
        <ele>303</ele>
        <time>2022-04-14T07:11:13.432Z</time>
      </trkpt>
      <trkpt lat="47.37006" lon="5.01318">
        <ele>303</ele>
        <time>2022-04-14T07:11:26.427Z</time>
      </trkpt>
      <trkpt lat="47.37006" lon="5.01318">
        <ele>303</ele>
        <time>2022-04-14T07:11:50.449Z</time>
      </trkpt>
      <trkpt lat="47.37007" lon="5.01318">
        <ele>303</ele>
        <time>2022-04-14T07:11:55.454Z</time>
      </trkpt>
      <trkpt lat="47.3701" lon="5.01317">
        <ele>303</ele>
        <time>2022-04-14T07:12:00.442Z</time>
      </trkpt>
      <trkpt lat="47.37014" lon="5.01311">
        <ele>303</ele>
        <time>2022-04-14T07:12:05.434Z</time>
      </trkpt>
      <trkpt lat="47.37014" lon="5.01305">
        <ele>307</ele>
        <time>2022-04-14T07:12:09.496Z</time>
      </trkpt>
      <trkpt lat="47.37014" lon="5.01297">
        <ele>307</ele>
        <time>2022-04-14T07:12:14.422Z</time>
      </trkpt>
      <trkpt lat="47.37016" lon="5.01293">
        <ele>307</ele>
        <time>2022-04-14T07:12:18.458Z</time>
      </trkpt>
      <trkpt lat="47.37012" lon="5.01291">
        <ele>304</ele>
        <time>2022-04-14T07:12:23.420Z</time>
      </trkpt>
      <trkpt lat="47.3701" lon="5.01292">
        <ele>303</ele>
        <time>2022-04-14T07:12:27.452Z</time>
      </trkpt>
      <trkpt lat="47.37005" lon="5.01294">
        <ele>303</ele>
        <time>2022-04-14T07:12:32.414Z</time>
      </trkpt>
      <trkpt lat="47.37003" lon="5.01292">
        <ele>303</ele>
        <time>2022-04-14T07:12:36.442Z</time>
      </trkpt>
      <trkpt lat="47.37003" lon="5.01283">
        <ele>304</ele>
        <time>2022-04-14T07:12:41.477Z</time>
      </trkpt>
      <trkpt lat="47.37003" lon="5.01276">
        <ele>304</ele>
        <time>2022-04-14T07:12:46.466Z</time>
      </trkpt>
      <trkpt lat="47.37005" lon="5.01268">
        <ele>304</ele>
        <time>2022-04-14T07:12:51.443Z</time>
      </trkpt>
      <trkpt lat="47.37007" lon="5.01262">
        <ele>307</ele>
        <time>2022-04-14T07:12:56.434Z</time>
      </trkpt>
      <trkpt lat="47.37008" lon="5.01257">
        <ele>307</ele>
        <time>2022-04-14T07:13:00.473Z</time>
      </trkpt>
      <trkpt lat="47.37009" lon="5.01249">
        <ele>307</ele>
        <time>2022-04-14T07:13:05.451Z</time>
      </trkpt>
      <trkpt lat="47.3701" lon="5.01244">
        <ele>307</ele>
        <time>2022-04-14T07:13:09.457Z</time>
      </trkpt>
      <trkpt lat="47.37011" lon="5.01238">
        <ele>307</ele>
        <time>2022-04-14T07:13:14.450Z</time>
      </trkpt>
      <trkpt lat="47.37012" lon="5.01233">
        <ele>309</ele>
        <time>2022-04-14T07:13:19.464Z</time>
      </trkpt>
      <trkpt lat="47.37013" lon="5.01225">
        <ele>309</ele>
        <time>2022-04-14T07:13:24.448Z</time>
      </trkpt>
      <trkpt lat="47.37015" lon="5.01215">
        <ele>309</ele>
        <time>2022-04-14T07:13:29.468Z</time>
      </trkpt>
      <trkpt lat="47.37017" lon="5.01207">
        <ele>310</ele>
        <time>2022-04-14T07:13:34.455Z</time>
      </trkpt>
      <trkpt lat="47.37019" lon="5.01198">
        <ele>310</ele>
        <time>2022-04-14T07:13:39.479Z</time>
      </trkpt>
      <trkpt lat="47.37022" lon="5.01191">
        <ele>310</ele>
        <time>2022-04-14T07:13:44.443Z</time>
      </trkpt>
      <trkpt lat="47.37024" lon="5.01183">
        <ele>310</ele>
        <time>2022-04-14T07:13:49.484Z</time>
      </trkpt>
      <trkpt lat="47.37025" lon="5.01176">
        <ele>311</ele>
        <time>2022-04-14T07:13:54.451Z</time>
      </trkpt>
      <trkpt lat="47.37024" lon="5.01167">
        <ele>311</ele>
        <time>2022-04-14T07:13:59.448Z</time>
      </trkpt>
      <trkpt lat="47.37024" lon="5.01158">
        <ele>311</ele>
        <time>2022-04-14T07:14:04.462Z</time>
      </trkpt>
      <trkpt lat="47.37024" lon="5.01149">
        <ele>313</ele>
        <time>2022-04-14T07:14:09.443Z</time>
      </trkpt>
      <trkpt lat="47.37023" lon="5.01142">
        <ele>313</ele>
        <time>2022-04-14T07:14:14.474Z</time>
      </trkpt>
      <trkpt lat="47.37023" lon="5.01133">
        <ele>313</ele>
        <time>2022-04-14T07:14:19.435Z</time>
      </trkpt>
      <trkpt lat="47.37023" lon="5.01124">
        <ele>314</ele>
        <time>2022-04-14T07:14:24.450Z</time>
      </trkpt>
      <trkpt lat="47.37023" lon="5.01117">
        <ele>314</ele>
        <time>2022-04-14T07:14:28.467Z</time>
      </trkpt>
      <trkpt lat="47.37023" lon="5.01109">
        <ele>314</ele>
        <time>2022-04-14T07:14:33.419Z</time>
      </trkpt>
      <trkpt lat="47.37024" lon="5.01103">
        <ele>314</ele>
        <time>2022-04-14T07:14:37.438Z</time>
      </trkpt>
      <trkpt lat="47.37025" lon="5.01095">
        <ele>315</ele>
        <time>2022-04-14T07:14:41.462Z</time>
      </trkpt>
      <trkpt lat="47.37023" lon="5.01085">
        <ele>315</ele>
        <time>2022-04-14T07:14:46.458Z</time>
      </trkpt>
      <trkpt lat="47.37024" lon="5.01077">
        <ele>315</ele>
        <time>2022-04-14T07:14:51.451Z</time>
      </trkpt>
      <trkpt lat="47.37025" lon="5.0107">
        <ele>315</ele>
        <time>2022-04-14T07:14:56.390Z</time>
      </trkpt>
      <trkpt lat="47.37024" lon="5.01063">
        <ele>315</ele>
        <time>2022-04-14T07:15:00.474Z</time>
      </trkpt>
      <trkpt lat="47.37024" lon="5.01053">
        <ele>315</ele>
        <time>2022-04-14T07:15:05.472Z</time>
      </trkpt>
      <trkpt lat="47.37024" lon="5.01043">
        <ele>315</ele>
        <time>2022-04-14T07:15:10.462Z</time>
      </trkpt>
      <trkpt lat="47.37024" lon="5.01033">
        <ele>314</ele>
        <time>2022-04-14T07:15:15.463Z</time>
      </trkpt>
      <trkpt lat="47.37024" lon="5.01024">
        <ele>314</ele>
        <time>2022-04-14T07:15:20.475Z</time>
      </trkpt>
      <trkpt lat="47.37024" lon="5.01013">
        <ele>315</ele>
        <time>2022-04-14T07:15:25.465Z</time>
      </trkpt>
      <trkpt lat="47.37023" lon="5.01001">
        <ele>315</ele>
        <time>2022-04-14T07:15:30.444Z</time>
      </trkpt>
      <trkpt lat="47.37023" lon="5.00995">
        <ele>315</ele>
        <time>2022-04-14T07:15:35.465Z</time>
      </trkpt>
      <trkpt lat="47.37023" lon="5.00985">
        <ele>316</ele>
        <time>2022-04-14T07:15:40.422Z</time>
      </trkpt>
      <trkpt lat="47.37024" lon="5.00976">
        <ele>316</ele>
        <time>2022-04-14T07:15:44.481Z</time>
      </trkpt>
      <trkpt lat="47.37024" lon="5.00966">
        <ele>316</ele>
        <time>2022-04-14T07:15:49.496Z</time>
      </trkpt>
      <trkpt lat="47.37024" lon="5.00956">
        <ele>317</ele>
        <time>2022-04-14T07:15:54.490Z</time>
      </trkpt>
      <trkpt lat="47.37023" lon="5.00947">
        <ele>317</ele>
        <time>2022-04-14T07:15:59.493Z</time>
      </trkpt>
      <trkpt lat="47.37021" lon="5.00936">
        <ele>317</ele>
        <time>2022-04-14T07:16:04.489Z</time>
      </trkpt>
      <trkpt lat="47.37019" lon="5.00925">
        <ele>318</ele>
        <time>2022-04-14T07:16:09.459Z</time>
      </trkpt>
      <trkpt lat="47.37017" lon="5.00918">
        <ele>318</ele>
        <time>2022-04-14T07:16:14.438Z</time>
      </trkpt>
      <trkpt lat="47.37015" lon="5.0091">
        <ele>318</ele>
        <time>2022-04-14T07:16:18.462Z</time>
      </trkpt>
      <trkpt lat="47.37012" lon="5.00904">
        <ele>315</ele>
        <time>2022-04-14T07:16:22.512Z</time>
      </trkpt>
      <trkpt lat="47.37011" lon="5.00895">
        <ele>316</ele>
        <time>2022-04-14T07:16:27.471Z</time>
      </trkpt>
      <trkpt lat="47.3701" lon="5.00888">
        <ele>316</ele>
        <time>2022-04-14T07:16:32.449Z</time>
      </trkpt>
      <trkpt lat="47.3701" lon="5.00879">
        <ele>316</ele>
        <time>2022-04-14T07:16:37.483Z</time>
      </trkpt>
      <trkpt lat="47.37007" lon="5.0087">
        <ele>318</ele>
        <time>2022-04-14T07:16:42.454Z</time>
      </trkpt>
      <trkpt lat="47.37006" lon="5.00862">
        <ele>318</ele>
        <time>2022-04-14T07:16:47.408Z</time>
      </trkpt>
      <trkpt lat="47.37006" lon="5.00854">
        <ele>318</ele>
        <time>2022-04-14T07:16:51.460Z</time>
      </trkpt>
      <trkpt lat="47.37004" lon="5.00843">
        <ele>319</ele>
        <time>2022-04-14T07:16:56.438Z</time>
      </trkpt>
      <trkpt lat="47.37004" lon="5.00835">
        <ele>319</ele>
        <time>2022-04-14T07:17:01.474Z</time>
      </trkpt>
      <trkpt lat="47.37003" lon="5.00827">
        <ele>319</ele>
        <time>2022-04-14T07:17:06.505Z</time>
      </trkpt>
      <trkpt lat="47.37003" lon="5.00818">
        <ele>320</ele>
        <time>2022-04-14T07:17:11.460Z</time>
      </trkpt>
      <trkpt lat="47.37002" lon="5.0081">
        <ele>320</ele>
        <time>2022-04-14T07:17:16.446Z</time>
      </trkpt>
      <trkpt lat="47.37" lon="5.00803">
        <ele>320</ele>
        <time>2022-04-14T07:17:20.498Z</time>
      </trkpt>
      <trkpt lat="47.37" lon="5.00796">
        <ele>320</ele>
        <time>2022-04-14T07:17:25.499Z</time>
      </trkpt>
      <trkpt lat="47.37002" lon="5.00784">
        <ele>321</ele>
        <time>2022-04-14T07:17:30.436Z</time>
      </trkpt>
      <trkpt lat="47.37002" lon="5.00777">
        <ele>321</ele>
        <time>2022-04-14T07:17:34.469Z</time>
      </trkpt>
      <trkpt lat="47.37001" lon="5.00767">
        <ele>321</ele>
        <time>2022-04-14T07:17:39.461Z</time>
      </trkpt>
      <trkpt lat="47.37001" lon="5.0076">
        <ele>322</ele>
        <time>2022-04-14T07:17:43.472Z</time>
      </trkpt>
      <trkpt lat="47.37001" lon="5.00752">
        <ele>322</ele>
        <time>2022-04-14T07:17:48.509Z</time>
      </trkpt>
      <trkpt lat="47.37002" lon="5.00742">
        <ele>322</ele>
        <time>2022-04-14T07:17:53.462Z</time>
      </trkpt>
      <trkpt lat="47.37002" lon="5.00732">
        <ele>323</ele>
        <time>2022-04-14T07:17:58.460Z</time>
      </trkpt>
      <trkpt lat="47.37003" lon="5.00724">
        <ele>323</ele>
        <time>2022-04-14T07:18:03.455Z</time>
      </trkpt>
      <trkpt lat="47.37003" lon="5.00718">
        <ele>323</ele>
        <time>2022-04-14T07:18:07.483Z</time>
      </trkpt>
      <trkpt lat="47.37004" lon="5.00711">
        <ele>323</ele>
        <time>2022-04-14T07:18:12.483Z</time>
      </trkpt>
      <trkpt lat="47.37003" lon="5.00702">
        <ele>322</ele>
        <time>2022-04-14T07:18:17.453Z</time>
      </trkpt>
      <trkpt lat="47.37002" lon="5.00695">
        <ele>322</ele>
        <time>2022-04-14T07:18:21.472Z</time>
      </trkpt>
      <trkpt lat="47.37003" lon="5.00686">
        <ele>322</ele>
        <time>2022-04-14T07:18:26.453Z</time>
      </trkpt>
      <trkpt lat="47.37003" lon="5.00678">
        <ele>322</ele>
        <time>2022-04-14T07:18:31.451Z</time>
      </trkpt>
      <trkpt lat="47.37" lon="5.00671">
        <ele>322</ele>
        <time>2022-04-14T07:18:36.421Z</time>
      </trkpt>
      <trkpt lat="47.37" lon="5.00663">
        <ele>322</ele>
        <time>2022-04-14T07:18:40.486Z</time>
      </trkpt>
      <trkpt lat="47.36998" lon="5.00656">
        <ele>322</ele>
        <time>2022-04-14T07:18:45.441Z</time>
      </trkpt>
      <trkpt lat="47.36999" lon="5.00649">
        <ele>322</ele>
        <time>2022-04-14T07:18:50.452Z</time>
      </trkpt>
      <trkpt lat="47.36997" lon="5.00642">
        <ele>322</ele>
        <time>2022-04-14T07:18:55.449Z</time>
      </trkpt>
      <trkpt lat="47.36997" lon="5.00633">
        <ele>322</ele>
        <time>2022-04-14T07:19:00.417Z</time>
      </trkpt>
      <trkpt lat="47.36998" lon="5.00623">
        <ele>323</ele>
        <time>2022-04-14T07:19:04.444Z</time>
      </trkpt>
      <trkpt lat="47.36997" lon="5.00613">
        <ele>323</ele>
        <time>2022-04-14T07:19:09.427Z</time>
      </trkpt>
      <trkpt lat="47.36996" lon="5.00603">
        <ele>323</ele>
        <time>2022-04-14T07:19:14.385Z</time>
      </trkpt>
      <trkpt lat="47.36995" lon="5.00598">
        <ele>323</ele>
        <time>2022-04-14T07:19:18.410Z</time>
      </trkpt>
      <trkpt lat="47.36993" lon="5.0059">
        <ele>326</ele>
        <time>2022-04-14T07:19:23.448Z</time>
      </trkpt>
      <trkpt lat="47.36992" lon="5.00581">
        <ele>326</ele>
        <time>2022-04-14T07:19:28.431Z</time>
      </trkpt>
      <trkpt lat="47.3699" lon="5.00572">
        <ele>326</ele>
        <time>2022-04-14T07:19:33.438Z</time>
      </trkpt>
      <trkpt lat="47.36989" lon="5.00566">
        <ele>329</ele>
        <time>2022-04-14T07:19:38.456Z</time>
      </trkpt>
      <trkpt lat="47.36986" lon="5.00559">
        <ele>329</ele>
        <time>2022-04-14T07:19:43.464Z</time>
      </trkpt>
      <trkpt lat="47.36985" lon="5.00552">
        <ele>327</ele>
        <time>2022-04-14T07:19:48.431Z</time>
      </trkpt>
      <trkpt lat="47.36984" lon="5.00545">
        <ele>327</ele>
        <time>2022-04-14T07:19:52.474Z</time>
      </trkpt>
      <trkpt lat="47.36986" lon="5.00537">
        <ele>329</ele>
        <time>2022-04-14T07:19:57.419Z</time>
      </trkpt>
      <trkpt lat="47.36989" lon="5.00532">
        <ele>330</ele>
        <time>2022-04-14T07:20:01.476Z</time>
      </trkpt>
      <trkpt lat="47.36988" lon="5.00524">
        <ele>330</ele>
        <time>2022-04-14T07:20:06.467Z</time>
      </trkpt>
      <trkpt lat="47.36986" lon="5.00516">
        <ele>330</ele>
        <time>2022-04-14T07:20:11.425Z</time>
      </trkpt>
      <trkpt lat="47.36987" lon="5.0051">
        <ele>331</ele>
        <time>2022-04-14T07:20:16.491Z</time>
      </trkpt>
      <trkpt lat="47.36987" lon="5.00501">
        <ele>331</ele>
        <time>2022-04-14T07:20:21.463Z</time>
      </trkpt>
      <trkpt lat="47.36988" lon="5.00494">
        <ele>331</ele>
        <time>2022-04-14T07:20:25.479Z</time>
      </trkpt>
      <trkpt lat="47.36988" lon="5.00486">
        <ele>330</ele>
        <time>2022-04-14T07:20:30.437Z</time>
      </trkpt>
      <trkpt lat="47.36991" lon="5.00478">
        <ele>330</ele>
        <time>2022-04-14T07:20:35.496Z</time>
      </trkpt>
      <trkpt lat="47.3699" lon="5.00472">
        <ele>330</ele>
        <time>2022-04-14T07:20:40.461Z</time>
      </trkpt>
      <trkpt lat="47.36989" lon="5.00466">
        <ele>330</ele>
        <time>2022-04-14T07:20:45.483Z</time>
      </trkpt>
      <trkpt lat="47.36989" lon="5.00458">
        <ele>331</ele>
        <time>2022-04-14T07:20:50.435Z</time>
      </trkpt>
      <trkpt lat="47.36988" lon="5.00451">
        <ele>331</ele>
        <time>2022-04-14T07:20:54.475Z</time>
      </trkpt>
      <trkpt lat="47.36992" lon="5.00443">
        <ele>331</ele>
        <time>2022-04-14T07:20:59.474Z</time>
      </trkpt>
      <trkpt lat="47.36989" lon="5.00435">
        <ele>331</ele>
        <time>2022-04-14T07:21:04.487Z</time>
      </trkpt>
      <trkpt lat="47.36986" lon="5.00429">
        <ele>334</ele>
        <time>2022-04-14T07:21:09.422Z</time>
      </trkpt>
      <trkpt lat="47.36983" lon="5.00422">
        <ele>334</ele>
        <time>2022-04-14T07:21:13.473Z</time>
      </trkpt>
      <trkpt lat="47.36981" lon="5.00414">
        <ele>334</ele>
        <time>2022-04-14T07:21:18.468Z</time>
      </trkpt>
      <trkpt lat="47.36979" lon="5.00406">
        <ele>334</ele>
        <time>2022-04-14T07:21:23.458Z</time>
      </trkpt>
      <trkpt lat="47.36977" lon="5.00399">
        <ele>335</ele>
        <time>2022-04-14T07:21:27.458Z</time>
      </trkpt>
      <trkpt lat="47.36974" lon="5.00392">
        <ele>335</ele>
        <time>2022-04-14T07:21:32.428Z</time>
      </trkpt>
      <trkpt lat="47.36972" lon="5.00386">
        <ele>335</ele>
        <time>2022-04-14T07:21:36.437Z</time>
      </trkpt>
      <trkpt lat="47.36969" lon="5.00378">
        <ele>335</ele>
        <time>2022-04-14T07:21:41.493Z</time>
      </trkpt>
      <trkpt lat="47.36965" lon="5.00371">
        <ele>336</ele>
        <time>2022-04-14T07:21:46.444Z</time>
      </trkpt>
      <trkpt lat="47.36961" lon="5.00367">
        <ele>336</ele>
        <time>2022-04-14T07:21:51.478Z</time>
      </trkpt>
      <trkpt lat="47.36955" lon="5.00361">
        <ele>337</ele>
        <time>2022-04-14T07:21:56.491Z</time>
      </trkpt>
      <trkpt lat="47.36951" lon="5.00353">
        <ele>337</ele>
        <time>2022-04-14T07:22:01.489Z</time>
      </trkpt>
      <trkpt lat="47.36949" lon="5.0035">
        <ele>337</ele>
        <time>2022-04-14T07:22:06.453Z</time>
      </trkpt>
      <trkpt lat="47.36946" lon="5.00344">
        <ele>338</ele>
        <time>2022-04-14T07:22:11.425Z</time>
      </trkpt>
      <trkpt lat="47.36942" lon="5.00339">
        <ele>338</ele>
        <time>2022-04-14T07:22:15.473Z</time>
      </trkpt>
      <trkpt lat="47.36938" lon="5.00335">
        <ele>338</ele>
        <time>2022-04-14T07:22:20.410Z</time>
      </trkpt>
      <trkpt lat="47.36935" lon="5.00331">
        <ele>338</ele>
        <time>2022-04-14T07:22:25.402Z</time>
      </trkpt>
      <trkpt lat="47.36933" lon="5.00328">
        <ele>338</ele>
        <time>2022-04-14T07:22:29.460Z</time>
      </trkpt>
      <trkpt lat="47.36929" lon="5.00324">
        <ele>341</ele>
        <time>2022-04-14T07:22:34.452Z</time>
      </trkpt>
      <trkpt lat="47.36926" lon="5.00319">
        <ele>339</ele>
        <time>2022-04-14T07:22:39.470Z</time>
      </trkpt>
      <trkpt lat="47.36924" lon="5.00315">
        <ele>339</ele>
        <time>2022-04-14T07:22:44.442Z</time>
      </trkpt>
      <trkpt lat="47.36919" lon="5.00307">
        <ele>339</ele>
        <time>2022-04-14T07:22:49.426Z</time>
      </trkpt>
      <trkpt lat="47.36916" lon="5.00299">
        <ele>339</ele>
        <time>2022-04-14T07:22:54.397Z</time>
      </trkpt>
      <trkpt lat="47.36914" lon="5.00291">
        <ele>339</ele>
        <time>2022-04-14T07:22:58.443Z</time>
      </trkpt>
      <trkpt lat="47.36912" lon="5.00284">
        <ele>339</ele>
        <time>2022-04-14T07:23:03.445Z</time>
      </trkpt>
      <trkpt lat="47.36912" lon="5.00278">
        <ele>339</ele>
        <time>2022-04-14T07:23:08.437Z</time>
      </trkpt>
      <trkpt lat="47.36908" lon="5.00273">
        <ele>339</ele>
        <time>2022-04-14T07:23:13.444Z</time>
      </trkpt>
      <trkpt lat="47.36904" lon="5.00265">
        <ele>339</ele>
        <time>2022-04-14T07:23:18.453Z</time>
      </trkpt>
      <trkpt lat="47.36904" lon="5.00257">
        <ele>339</ele>
        <time>2022-04-14T07:23:23.421Z</time>
      </trkpt>
      <trkpt lat="47.36902" lon="5.00248">
        <ele>340</ele>
        <time>2022-04-14T07:23:28.446Z</time>
      </trkpt>
      <trkpt lat="47.36898" lon="5.00241">
        <ele>340</ele>
        <time>2022-04-14T07:23:33.452Z</time>
      </trkpt>
      <trkpt lat="47.36898" lon="5.00235">
        <ele>340</ele>
        <time>2022-04-14T07:23:38.427Z</time>
      </trkpt>
      <trkpt lat="47.36895" lon="5.00228">
        <ele>340</ele>
        <time>2022-04-14T07:23:43.457Z</time>
      </trkpt>
      <trkpt lat="47.36893" lon="5.00222">
        <ele>340</ele>
        <time>2022-04-14T07:23:48.403Z</time>
      </trkpt>
      <trkpt lat="47.36891" lon="5.00213">
        <ele>340</ele>
        <time>2022-04-14T07:23:53.409Z</time>
      </trkpt>
      <trkpt lat="47.36891" lon="5.00207">
        <ele>341</ele>
        <time>2022-04-14T07:23:57.463Z</time>
      </trkpt>
      <trkpt lat="47.36891" lon="5.00207">
        <ele>341</ele>
        <time>2022-04-14T07:24:02.471Z</time>
      </trkpt>
      <trkpt lat="47.36889" lon="5.00198">
        <ele>341</ele>
        <time>2022-04-14T07:24:07.422Z</time>
      </trkpt>
      <trkpt lat="47.36888" lon="5.00193">
        <ele>341</ele>
        <time>2022-04-14T07:24:12.468Z</time>
      </trkpt>
      <trkpt lat="47.36887" lon="5.00183">
        <ele>341</ele>
        <time>2022-04-14T07:24:17.434Z</time>
      </trkpt>
      <trkpt lat="47.36886" lon="5.00177">
        <ele>342</ele>
        <time>2022-04-14T07:24:21.467Z</time>
      </trkpt>
      <trkpt lat="47.36886" lon="5.00169">
        <ele>342</ele>
        <time>2022-04-14T07:24:26.460Z</time>
      </trkpt>
      <trkpt lat="47.3689" lon="5.00158">
        <ele>342</ele>
        <time>2022-04-14T07:24:31.461Z</time>
      </trkpt>
      <trkpt lat="47.36891" lon="5.0015">
        <ele>342</ele>
        <time>2022-04-14T07:24:35.497Z</time>
      </trkpt>
      <trkpt lat="47.3689" lon="5.0014">
        <ele>342</ele>
        <time>2022-04-14T07:24:40.463Z</time>
      </trkpt>
      <trkpt lat="47.36891" lon="5.00131">
        <ele>342</ele>
        <time>2022-04-14T07:24:45.458Z</time>
      </trkpt>
      <trkpt lat="47.36892" lon="5.00124">
        <ele>344</ele>
        <time>2022-04-14T07:24:49.481Z</time>
      </trkpt>
      <trkpt lat="47.36892" lon="5.00115">
        <ele>344</ele>
        <time>2022-04-14T07:24:54.465Z</time>
      </trkpt>
      <trkpt lat="47.3689" lon="5.00109">
        <ele>344</ele>
        <time>2022-04-14T07:24:58.482Z</time>
      </trkpt>
      <trkpt lat="47.36885" lon="5.001">
        <ele>344</ele>
        <time>2022-04-14T07:25:03.480Z</time>
      </trkpt>
      <trkpt lat="47.36885" lon="5.00093">
        <ele>347</ele>
        <time>2022-04-14T07:25:08.445Z</time>
      </trkpt>
      <trkpt lat="47.36885" lon="5.00087">
        <ele>347</ele>
        <time>2022-04-14T07:25:12.461Z</time>
      </trkpt>
      <trkpt lat="47.36884" lon="5.0008">
        <ele>347</ele>
        <time>2022-04-14T07:25:16.470Z</time>
      </trkpt>
      <trkpt lat="47.36883" lon="5.00073">
        <ele>347</ele>
        <time>2022-04-14T07:25:21.468Z</time>
      </trkpt>
      <trkpt lat="47.36881" lon="5.00066">
        <ele>349</ele>
        <time>2022-04-14T07:25:26.423Z</time>
      </trkpt>
      <trkpt lat="47.36884" lon="5.00059">
        <ele>349</ele>
        <time>2022-04-14T07:25:31.386Z</time>
      </trkpt>
      <trkpt lat="47.36883" lon="5.00052">
        <ele>349</ele>
        <time>2022-04-14T07:25:36.434Z</time>
      </trkpt>
      <trkpt lat="47.36884" lon="5.00044">
        <ele>349</ele>
        <time>2022-04-14T07:25:40.451Z</time>
      </trkpt>
      <trkpt lat="47.36882" lon="5.00033">
        <ele>351</ele>
        <time>2022-04-14T07:25:45.514Z</time>
      </trkpt>
      <trkpt lat="47.3688" lon="5.00024">
        <ele>351</ele>
        <time>2022-04-14T07:25:50.453Z</time>
      </trkpt>
      <trkpt lat="47.36881" lon="5.00017">
        <ele>351</ele>
        <time>2022-04-14T07:25:54.519Z</time>
      </trkpt>
      <trkpt lat="47.36879" lon="5.00007">
        <ele>352</ele>
        <time>2022-04-14T07:25:59.450Z</time>
      </trkpt>
      <trkpt lat="47.36878" lon="4.99999">
        <ele>352</ele>
        <time>2022-04-14T07:26:04.481Z</time>
      </trkpt>
      <trkpt lat="47.36876" lon="4.99991">
        <ele>352</ele>
        <time>2022-04-14T07:26:09.442Z</time>
      </trkpt>
      <trkpt lat="47.36876" lon="4.99987">
        <ele>352</ele>
        <time>2022-04-14T07:26:13.506Z</time>
      </trkpt>
      <trkpt lat="47.36876" lon="4.99982">
        <ele>353</ele>
        <time>2022-04-14T07:26:18.400Z</time>
      </trkpt>
      <trkpt lat="47.36877" lon="4.99976">
        <ele>353</ele>
        <time>2022-04-14T07:26:22.474Z</time>
      </trkpt>
      <trkpt lat="47.3688" lon="4.99971">
        <ele>353</ele>
        <time>2022-04-14T07:26:27.446Z</time>
      </trkpt>
      <trkpt lat="47.36881" lon="4.99966">
        <ele>353</ele>
        <time>2022-04-14T07:26:31.478Z</time>
      </trkpt>
      <trkpt lat="47.36881" lon="4.99958">
        <ele>354</ele>
        <time>2022-04-14T07:26:36.447Z</time>
      </trkpt>
      <trkpt lat="47.36882" lon="4.9995">
        <ele>354</ele>
        <time>2022-04-14T07:26:41.460Z</time>
      </trkpt>
      <trkpt lat="47.36879" lon="4.99943">
        <ele>354</ele>
        <time>2022-04-14T07:26:46.453Z</time>
      </trkpt>
      <trkpt lat="47.3688" lon="4.99934">
        <ele>354</ele>
        <time>2022-04-14T07:26:51.486Z</time>
      </trkpt>
      <trkpt lat="47.36879" lon="4.99927">
        <ele>356</ele>
        <time>2022-04-14T07:26:56.453Z</time>
      </trkpt>
      <trkpt lat="47.3688" lon="4.99919">
        <ele>356</ele>
        <time>2022-04-14T07:27:00.449Z</time>
      </trkpt>
      <trkpt lat="47.3688" lon="4.99909">
        <ele>356</ele>
        <time>2022-04-14T07:27:05.455Z</time>
      </trkpt>
      <trkpt lat="47.36882" lon="4.99901">
        <ele>357</ele>
        <time>2022-04-14T07:27:10.441Z</time>
      </trkpt>
      <trkpt lat="47.36887" lon="4.99893">
        <ele>357</ele>
        <time>2022-04-14T07:27:15.481Z</time>
      </trkpt>
      <trkpt lat="47.36889" lon="4.99888">
        <ele>357</ele>
        <time>2022-04-14T07:27:20.457Z</time>
      </trkpt>
      <trkpt lat="47.36889" lon="4.99883">
        <ele>357</ele>
        <time>2022-04-14T07:27:24.495Z</time>
      </trkpt>
      <trkpt lat="47.36888" lon="4.99879">
        <ele>357</ele>
        <time>2022-04-14T07:27:29.382Z</time>
      </trkpt>
      <trkpt lat="47.36888" lon="4.99872">
        <ele>358</ele>
        <time>2022-04-14T07:27:33.491Z</time>
      </trkpt>
      <trkpt lat="47.3689" lon="4.99865">
        <ele>358</ele>
        <time>2022-04-14T07:27:38.480Z</time>
      </trkpt>
      <trkpt lat="47.36894" lon="4.9986">
        <ele>358</ele>
        <time>2022-04-14T07:27:43.480Z</time>
      </trkpt>
      <trkpt lat="47.36898" lon="4.99853">
        <ele>358</ele>
        <time>2022-04-14T07:27:48.451Z</time>
      </trkpt>
      <trkpt lat="47.36901" lon="4.99849">
        <ele>358</ele>
        <time>2022-04-14T07:27:52.486Z</time>
      </trkpt>
      <trkpt lat="47.36905" lon="4.99844">
        <ele>359</ele>
        <time>2022-04-14T07:27:57.453Z</time>
      </trkpt>
      <trkpt lat="47.36908" lon="4.99842">
        <ele>359</ele>
        <time>2022-04-14T07:28:02.402Z</time>
      </trkpt>
      <trkpt lat="47.3691" lon="4.99837">
        <ele>359</ele>
        <time>2022-04-14T07:28:07.448Z</time>
      </trkpt>
      <trkpt lat="47.36911" lon="4.99834">
        <ele>359</ele>
        <time>2022-04-14T07:28:12.484Z</time>
      </trkpt>
      <trkpt lat="47.36913" lon="4.99832">
        <ele>359</ele>
        <time>2022-04-14T07:28:17.470Z</time>
      </trkpt>
      <trkpt lat="47.36916" lon="4.99831">
        <ele>359</ele>
        <time>2022-04-14T07:28:22.461Z</time>
      </trkpt>
      <trkpt lat="47.36924" lon="4.99825">
        <ele>359</ele>
        <time>2022-04-14T07:28:37.429Z</time>
      </trkpt>
      <trkpt lat="47.36925" lon="4.99824">
        <ele>359</ele>
        <time>2022-04-14T07:28:42.495Z</time>
      </trkpt>
      <trkpt lat="47.36926" lon="4.99823">
        <ele>359</ele>
        <time>2022-04-14T07:28:47.503Z</time>
      </trkpt>
      <trkpt lat="47.36927" lon="4.99826">
        <ele>359</ele>
        <time>2022-04-14T07:28:52.475Z</time>
      </trkpt>
      <trkpt lat="47.3693" lon="4.99825">
        <ele>359</ele>
        <time>2022-04-14T07:28:57.498Z</time>
      </trkpt>
      <trkpt lat="47.36929" lon="4.99824">
        <ele>359</ele>
        <time>2022-04-14T07:30:18.415Z</time>
      </trkpt>
      <trkpt lat="47.36928" lon="4.9982">
        <ele>359</ele>
        <time>2022-04-14T07:30:22.467Z</time>
      </trkpt>
      <trkpt lat="47.36928" lon="4.99816">
        <ele>362</ele>
        <time>2022-04-14T07:30:27.413Z</time>
      </trkpt>
      <trkpt lat="47.36928" lon="4.99814">
        <ele>362</ele>
        <time>2022-04-14T07:30:31.432Z</time>
      </trkpt>
      <trkpt lat="47.36927" lon="4.99809">
        <ele>362</ele>
        <time>2022-04-14T07:30:36.411Z</time>
      </trkpt>
      <trkpt lat="47.36928" lon="4.9981">
        <ele>362</ele>
        <time>2022-04-14T07:30:46.417Z</time>
      </trkpt>
      <trkpt lat="47.36931" lon="4.99808">
        <ele>362</ele>
        <time>2022-04-14T07:30:50.428Z</time>
      </trkpt>
      <trkpt lat="47.36931" lon="4.99804">
        <ele>363</ele>
        <time>2022-04-14T07:30:55.386Z</time>
      </trkpt>
      <trkpt lat="47.36933" lon="4.99803">
        <ele>363</ele>
        <time>2022-04-14T07:30:59.452Z</time>
      </trkpt>
      <trkpt lat="47.36935" lon="4.99803">
        <ele>363</ele>
        <time>2022-04-14T07:31:04.385Z</time>
      </trkpt>
      <trkpt lat="47.36936" lon="4.99803">
        <ele>363</ele>
        <time>2022-04-14T07:31:09.484Z</time>
      </trkpt>
      <trkpt lat="47.36938" lon="4.99798">
        <ele>363</ele>
        <time>2022-04-14T07:31:46.396Z</time>
      </trkpt>
      <trkpt lat="47.36938" lon="4.99797">
        <ele>363</ele>
        <time>2022-04-14T07:31:50.420Z</time>
      </trkpt>
      <trkpt lat="47.36942" lon="4.99794">
        <ele>363</ele>
        <time>2022-04-14T07:31:54.469Z</time>
      </trkpt>
      <trkpt lat="47.36945" lon="4.99792">
        <ele>365</ele>
        <time>2022-04-14T07:31:59.471Z</time>
      </trkpt>
      <trkpt lat="47.3695" lon="4.99787">
        <ele>365</ele>
        <time>2022-04-14T07:32:04.431Z</time>
      </trkpt>
      <trkpt lat="47.36952" lon="4.99784">
        <ele>365</ele>
        <time>2022-04-14T07:32:09.444Z</time>
      </trkpt>
      <trkpt lat="47.36957" lon="4.99782">
        <ele>365</ele>
        <time>2022-04-14T07:32:13.465Z</time>
      </trkpt>
      <trkpt lat="47.3696" lon="4.99779">
        <ele>364</ele>
        <time>2022-04-14T07:32:18.443Z</time>
      </trkpt>
      <trkpt lat="47.36964" lon="4.99776">
        <ele>364</ele>
        <time>2022-04-14T07:32:23.403Z</time>
      </trkpt>
      <trkpt lat="47.36966" lon="4.99774">
        <ele>364</ele>
        <time>2022-04-14T07:32:27.429Z</time>
      </trkpt>
      <trkpt lat="47.3697" lon="4.99769">
        <ele>364</ele>
        <time>2022-04-14T07:32:32.448Z</time>
      </trkpt>
      <trkpt lat="47.36974" lon="4.99764">
        <ele>364</ele>
        <time>2022-04-14T07:32:37.454Z</time>
      </trkpt>
      <trkpt lat="47.36977" lon="4.99761">
        <ele>365</ele>
        <time>2022-04-14T07:32:42.445Z</time>
      </trkpt>
      <trkpt lat="47.3698" lon="4.99757">
        <ele>365</ele>
        <time>2022-04-14T07:32:46.460Z</time>
      </trkpt>
      <trkpt lat="47.36985" lon="4.99752">
        <ele>365</ele>
        <time>2022-04-14T07:32:51.414Z</time>
      </trkpt>
      <trkpt lat="47.36988" lon="4.99747">
        <ele>366</ele>
        <time>2022-04-14T07:32:55.427Z</time>
      </trkpt>
      <trkpt lat="47.3699" lon="4.99741">
        <ele>366</ele>
        <time>2022-04-14T07:33:00.459Z</time>
      </trkpt>
      <trkpt lat="47.36992" lon="4.99733">
        <ele>368</ele>
        <time>2022-04-14T07:33:05.434Z</time>
      </trkpt>
      <trkpt lat="47.36995" lon="4.99727">
        <ele>368</ele>
        <time>2022-04-14T07:33:10.427Z</time>
      </trkpt>
      <trkpt lat="47.36998" lon="4.9972">
        <ele>368</ele>
        <time>2022-04-14T07:33:15.427Z</time>
      </trkpt>
      <trkpt lat="47.37001" lon="4.99714">
        <ele>368</ele>
        <time>2022-04-14T07:33:20.449Z</time>
      </trkpt>
      <trkpt lat="47.37004" lon="4.99705">
        <ele>371</ele>
        <time>2022-04-14T07:33:25.435Z</time>
      </trkpt>
      <trkpt lat="47.37008" lon="4.99697">
        <ele>371</ele>
        <time>2022-04-14T07:33:30.444Z</time>
      </trkpt>
      <trkpt lat="47.37008" lon="4.9969">
        <ele>371</ele>
        <time>2022-04-14T07:33:35.381Z</time>
      </trkpt>
      <trkpt lat="47.3701" lon="4.99685">
        <ele>371</ele>
        <time>2022-04-14T07:33:39.435Z</time>
      </trkpt>
      <trkpt lat="47.3701" lon="4.99678">
        <ele>373</ele>
        <time>2022-04-14T07:33:44.470Z</time>
      </trkpt>
      <trkpt lat="47.37011" lon="4.99669">
        <ele>373</ele>
        <time>2022-04-14T07:33:49.457Z</time>
      </trkpt>
      <trkpt lat="47.37014" lon="4.99659">
        <ele>373</ele>
        <time>2022-04-14T07:33:54.452Z</time>
      </trkpt>
      <trkpt lat="47.37016" lon="4.99651">
        <ele>373</ele>
        <time>2022-04-14T07:33:59.432Z</time>
      </trkpt>
      <trkpt lat="47.37017" lon="4.99642">
        <ele>373</ele>
        <time>2022-04-14T07:34:04.447Z</time>
      </trkpt>
      <trkpt lat="47.37019" lon="4.99634">
        <ele>373</ele>
        <time>2022-04-14T07:34:09.405Z</time>
      </trkpt>
      <trkpt lat="47.3702" lon="4.99628">
        <ele>373</ele>
        <time>2022-04-14T07:34:13.455Z</time>
      </trkpt>
      <trkpt lat="47.37021" lon="4.99623">
        <ele>374</ele>
        <time>2022-04-14T07:34:18.426Z</time>
      </trkpt>
      <trkpt lat="47.37022" lon="4.99616">
        <ele>374</ele>
        <time>2022-04-14T07:34:22.467Z</time>
      </trkpt>
      <trkpt lat="47.37025" lon="4.99608">
        <ele>374</ele>
        <time>2022-04-14T07:34:27.469Z</time>
      </trkpt>
      <trkpt lat="47.37026" lon="4.99604">
        <ele>374</ele>
        <time>2022-04-14T07:34:32.450Z</time>
      </trkpt>
      <trkpt lat="47.37029" lon="4.99593">
        <ele>375</ele>
        <time>2022-04-14T07:34:37.434Z</time>
      </trkpt>
      <trkpt lat="47.37031" lon="4.99583">
        <ele>375</ele>
        <time>2022-04-14T07:34:42.443Z</time>
      </trkpt>
      <trkpt lat="47.37032" lon="4.99574">
        <ele>375</ele>
        <time>2022-04-14T07:34:47.464Z</time>
      </trkpt>
      <trkpt lat="47.37033" lon="4.99566">
        <ele>376</ele>
        <time>2022-04-14T07:34:52.406Z</time>
      </trkpt>
      <trkpt lat="47.37037" lon="4.99559">
        <ele>376</ele>
        <time>2022-04-14T07:34:57.425Z</time>
      </trkpt>
      <trkpt lat="47.3704" lon="4.99552">
        <ele>376</ele>
        <time>2022-04-14T07:35:02.394Z</time>
      </trkpt>
      <trkpt lat="47.37041" lon="4.99552">
        <ele>376</ele>
        <time>2022-04-14T07:35:07.447Z</time>
      </trkpt>
      <trkpt lat="47.37044" lon="4.99551">
        <ele>376</ele>
        <time>2022-04-14T07:35:12.403Z</time>
      </trkpt>
      <trkpt lat="47.37047" lon="4.99553">
        <ele>376</ele>
        <time>2022-04-14T07:35:16.408Z</time>
      </trkpt>
      <trkpt lat="47.3705" lon="4.99557">
        <ele>376</ele>
        <time>2022-04-14T07:35:20.463Z</time>
      </trkpt>
      <trkpt lat="47.37052" lon="4.99564">
        <ele>376</ele>
        <time>2022-04-14T07:35:25.391Z</time>
      </trkpt>
      <trkpt lat="47.37054" lon="4.9957">
        <ele>375</ele>
        <time>2022-04-14T07:35:29.493Z</time>
      </trkpt>
      <trkpt lat="47.37057" lon="4.99577">
        <ele>375</ele>
        <time>2022-04-14T07:35:34.468Z</time>
      </trkpt>
      <trkpt lat="47.3706" lon="4.99585">
        <ele>375</ele>
        <time>2022-04-14T07:35:39.473Z</time>
      </trkpt>
      <trkpt lat="47.37062" lon="4.9959">
        <ele>375</ele>
        <time>2022-04-14T07:35:43.485Z</time>
      </trkpt>
      <trkpt lat="47.37065" lon="4.99598">
        <ele>375</ele>
        <time>2022-04-14T07:35:48.449Z</time>
      </trkpt>
      <trkpt lat="47.3707" lon="4.99605">
        <ele>378</ele>
        <time>2022-04-14T07:35:53.465Z</time>
      </trkpt>
      <trkpt lat="47.37075" lon="4.99612">
        <ele>378</ele>
        <time>2022-04-14T07:35:58.494Z</time>
      </trkpt>
      <trkpt lat="47.37079" lon="4.99618">
        <ele>378</ele>
        <time>2022-04-14T07:36:03.483Z</time>
      </trkpt>
      <trkpt lat="47.37084" lon="4.99626">
        <ele>378</ele>
        <time>2022-04-14T07:36:08.417Z</time>
      </trkpt>
      <trkpt lat="47.37087" lon="4.99632">
        <ele>378</ele>
        <time>2022-04-14T07:36:12.493Z</time>
      </trkpt>
      <trkpt lat="47.37091" lon="4.9964">
        <ele>378</ele>
        <time>2022-04-14T07:36:17.445Z</time>
      </trkpt>
      <trkpt lat="47.37095" lon="4.99646">
        <ele>378</ele>
        <time>2022-04-14T07:36:22.393Z</time>
      </trkpt>
      <trkpt lat="47.37098" lon="4.99649">
        <ele>379</ele>
        <time>2022-04-14T07:36:26.413Z</time>
      </trkpt>
      <trkpt lat="47.37102" lon="4.99654">
        <ele>377</ele>
        <time>2022-04-14T07:36:30.417Z</time>
      </trkpt>
      <trkpt lat="47.37104" lon="4.99661">
        <ele>377</ele>
        <time>2022-04-14T07:36:35.459Z</time>
      </trkpt>
      <trkpt lat="47.37108" lon="4.99666">
        <ele>377</ele>
        <time>2022-04-14T07:36:40.399Z</time>
      </trkpt>
      <trkpt lat="47.37114" lon="4.99669">
        <ele>377</ele>
        <time>2022-04-14T07:36:45.465Z</time>
      </trkpt>
      <trkpt lat="47.37121" lon="4.99679">
        <ele>377</ele>
        <time>2022-04-14T07:37:17.454Z</time>
      </trkpt>
      <trkpt lat="47.3712" lon="4.9968">
        <ele>377</ele>
        <time>2022-04-14T07:37:22.475Z</time>
      </trkpt>
      <trkpt lat="47.3712" lon="4.99683">
        <ele>376</ele>
        <time>2022-04-14T07:41:41.402Z</time>
      </trkpt>
      <trkpt lat="47.3712" lon="4.99684">
        <ele>376</ele>
        <time>2022-04-14T07:41:45.484Z</time>
      </trkpt>
      <trkpt lat="47.3712" lon="4.99685">
        <ele>376</ele>
        <time>2022-04-14T07:41:50.453Z</time>
      </trkpt>
      <trkpt lat="47.37121" lon="4.99686">
        <ele>376</ele>
        <time>2022-04-14T07:43:25.515Z</time>
      </trkpt>
      <trkpt lat="47.3712" lon="4.99688">
        <ele>376</ele>
        <time>2022-04-14T07:43:30.475Z</time>
      </trkpt>
      <trkpt lat="47.37121" lon="4.9968">
        <ele>377</ele>
        <time>2022-04-14T07:43:40.445Z</time>
      </trkpt>
      <trkpt lat="47.3712" lon="4.99674">
        <ele>377</ele>
        <time>2022-04-14T07:43:44.447Z</time>
      </trkpt>
      <trkpt lat="47.37117" lon="4.99668">
        <ele>377</ele>
        <time>2022-04-14T07:43:49.455Z</time>
      </trkpt>
      <trkpt lat="47.37113" lon="4.99666">
        <ele>377</ele>
        <time>2022-04-14T07:43:54.426Z</time>
      </trkpt>
      <trkpt lat="47.37109" lon="4.99662">
        <ele>377</ele>
        <time>2022-04-14T07:43:58.458Z</time>
      </trkpt>
      <trkpt lat="47.37105" lon="4.99655">
        <ele>377</ele>
        <time>2022-04-14T07:44:03.462Z</time>
      </trkpt>
      <trkpt lat="47.37101" lon="4.99649">
        <ele>379</ele>
        <time>2022-04-14T07:44:08.453Z</time>
      </trkpt>
      <trkpt lat="47.37097" lon="4.99642">
        <ele>379</ele>
        <time>2022-04-14T07:44:13.462Z</time>
      </trkpt>
      <trkpt lat="47.37094" lon="4.99635">
        <ele>378</ele>
        <time>2022-04-14T07:44:18.463Z</time>
      </trkpt>
      <trkpt lat="47.37091" lon="4.99629">
        <ele>378</ele>
        <time>2022-04-14T07:44:22.489Z</time>
      </trkpt>
      <trkpt lat="47.37086" lon="4.99623">
        <ele>378</ele>
        <time>2022-04-14T07:44:27.409Z</time>
      </trkpt>
      <trkpt lat="47.37081" lon="4.99615">
        <ele>378</ele>
        <time>2022-04-14T07:45:00.449Z</time>
      </trkpt>
      <trkpt lat="47.37079" lon="4.99611">
        <ele>378</ele>
        <time>2022-04-14T07:45:04.482Z</time>
      </trkpt>
      <trkpt lat="47.37076" lon="4.99606">
        <ele>378</ele>
        <time>2022-04-14T07:45:09.481Z</time>
      </trkpt>
      <trkpt lat="47.37073" lon="4.996">
        <ele>378</ele>
        <time>2022-04-14T07:45:14.483Z</time>
      </trkpt>
      <trkpt lat="47.3707" lon="4.99595">
        <ele>377</ele>
        <time>2022-04-14T07:45:18.487Z</time>
      </trkpt>
      <trkpt lat="47.37066" lon="4.99588">
        <ele>375</ele>
        <time>2022-04-14T07:45:23.481Z</time>
      </trkpt>
      <trkpt lat="47.37063" lon="4.9958">
        <ele>375</ele>
        <time>2022-04-14T07:45:28.483Z</time>
      </trkpt>
      <trkpt lat="47.37059" lon="4.99573">
        <ele>375</ele>
        <time>2022-04-14T07:45:33.414Z</time>
      </trkpt>
      <trkpt lat="47.37056" lon="4.99567">
        <ele>376</ele>
        <time>2022-04-14T07:45:37.463Z</time>
      </trkpt>
      <trkpt lat="47.37053" lon="4.9956">
        <ele>376</ele>
        <time>2022-04-14T07:45:42.430Z</time>
      </trkpt>
      <trkpt lat="47.37052" lon="4.99554">
        <ele>376</ele>
        <time>2022-04-14T07:45:46.484Z</time>
      </trkpt>
      <trkpt lat="47.37048" lon="4.99548">
        <ele>376</ele>
        <time>2022-04-14T07:45:51.448Z</time>
      </trkpt>
      <trkpt lat="47.37044" lon="4.99542">
        <ele>376</ele>
        <time>2022-04-14T07:45:55.489Z</time>
      </trkpt>
      <trkpt lat="47.3704" lon="4.99536">
        <ele>377</ele>
        <time>2022-04-14T07:46:00.415Z</time>
      </trkpt>
      <trkpt lat="47.37037" lon="4.99531">
        <ele>377</ele>
        <time>2022-04-14T07:46:04.461Z</time>
      </trkpt>
      <trkpt lat="47.37032" lon="4.99524">
        <ele>377</ele>
        <time>2022-04-14T07:46:09.446Z</time>
      </trkpt>
      <trkpt lat="47.37028" lon="4.99518">
        <ele>377</ele>
        <time>2022-04-14T07:46:14.459Z</time>
      </trkpt>
      <trkpt lat="47.37025" lon="4.99513">
        <ele>378</ele>
        <time>2022-04-14T07:46:18.471Z</time>
      </trkpt>
      <trkpt lat="47.37021" lon="4.99507">
        <ele>378</ele>
        <time>2022-04-14T07:46:23.428Z</time>
      </trkpt>
      <trkpt lat="47.37017" lon="4.99503">
        <ele>378</ele>
        <time>2022-04-14T07:46:27.480Z</time>
      </trkpt>
      <trkpt lat="47.37012" lon="4.99499">
        <ele>378</ele>
        <time>2022-04-14T07:46:32.494Z</time>
      </trkpt>
      <trkpt lat="47.37008" lon="4.99494">
        <ele>378</ele>
        <time>2022-04-14T07:46:37.377Z</time>
      </trkpt>
      <trkpt lat="47.37003" lon="4.99487">
        <ele>378</ele>
        <time>2022-04-14T07:46:42.397Z</time>
      </trkpt>
      <trkpt lat="47.36999" lon="4.99481">
        <ele>378</ele>
        <time>2022-04-14T07:46:46.448Z</time>
      </trkpt>
      <trkpt lat="47.36996" lon="4.99477">
        <ele>378</ele>
        <time>2022-04-14T07:46:50.458Z</time>
      </trkpt>
      <trkpt lat="47.36989" lon="4.99473">
        <ele>378</ele>
        <time>2022-04-14T07:46:55.451Z</time>
      </trkpt>
      <trkpt lat="47.36985" lon="4.9947">
        <ele>379</ele>
        <time>2022-04-14T07:46:59.484Z</time>
      </trkpt>
      <trkpt lat="47.3698" lon="4.99466">
        <ele>379</ele>
        <time>2022-04-14T07:47:04.442Z</time>
      </trkpt>
      <trkpt lat="47.36976" lon="4.99461">
        <ele>379</ele>
        <time>2022-04-14T07:47:09.444Z</time>
      </trkpt>
      <trkpt lat="47.36971" lon="4.99459">
        <ele>379</ele>
        <time>2022-04-14T07:47:13.503Z</time>
      </trkpt>
      <trkpt lat="47.36964" lon="4.99454">
        <ele>379</ele>
        <time>2022-04-14T07:47:18.482Z</time>
      </trkpt>
      <trkpt lat="47.36958" lon="4.99451">
        <ele>378</ele>
        <time>2022-04-14T07:47:23.498Z</time>
      </trkpt>
      <trkpt lat="47.36953" lon="4.99447">
        <ele>378</ele>
        <time>2022-04-14T07:47:28.445Z</time>
      </trkpt>
      <trkpt lat="47.36947" lon="4.99442">
        <ele>378</ele>
        <time>2022-04-14T07:47:33.468Z</time>
      </trkpt>
      <trkpt lat="47.36942" lon="4.99438">
        <ele>378</ele>
        <time>2022-04-14T07:47:38.387Z</time>
      </trkpt>
      <trkpt lat="47.36937" lon="4.99435">
        <ele>378</ele>
        <time>2022-04-14T07:47:42.448Z</time>
      </trkpt>
      <trkpt lat="47.36933" lon="4.99431">
        <ele>378</ele>
        <time>2022-04-14T07:47:46.457Z</time>
      </trkpt>
      <trkpt lat="47.36926" lon="4.99427">
        <ele>379</ele>
        <time>2022-04-14T07:47:51.467Z</time>
      </trkpt>
      <trkpt lat="47.36921" lon="4.99423">
        <ele>379</ele>
        <time>2022-04-14T07:47:56.472Z</time>
      </trkpt>
      <trkpt lat="47.36917" lon="4.99419">
        <ele>379</ele>
        <time>2022-04-14T07:48:01.474Z</time>
      </trkpt>
      <trkpt lat="47.36912" lon="4.99412">
        <ele>379</ele>
        <time>2022-04-14T07:48:06.435Z</time>
      </trkpt>
      <trkpt lat="47.36907" lon="4.99408">
        <ele>379</ele>
        <time>2022-04-14T07:48:10.471Z</time>
      </trkpt>
      <trkpt lat="47.36901" lon="4.99404">
        <ele>378</ele>
        <time>2022-04-14T07:48:15.480Z</time>
      </trkpt>
      <trkpt lat="47.36895" lon="4.99401">
        <ele>379</ele>
        <time>2022-04-14T07:48:20.451Z</time>
      </trkpt>
      <trkpt lat="47.36888" lon="4.99398">
        <ele>379</ele>
        <time>2022-04-14T07:48:25.471Z</time>
      </trkpt>
      <trkpt lat="47.36883" lon="4.99391">
        <ele>379</ele>
        <time>2022-04-14T07:48:30.479Z</time>
      </trkpt>
      <trkpt lat="47.36878" lon="4.99388">
        <ele>379</ele>
        <time>2022-04-14T07:48:35.450Z</time>
      </trkpt>
      <trkpt lat="47.36874" lon="4.99385">
        <ele>378</ele>
        <time>2022-04-14T07:48:39.477Z</time>
      </trkpt>
      <trkpt lat="47.3687" lon="4.9938">
        <ele>378</ele>
        <time>2022-04-14T07:48:44.450Z</time>
      </trkpt>
      <trkpt lat="47.36865" lon="4.99377">
        <ele>378</ele>
        <time>2022-04-14T07:48:48.478Z</time>
      </trkpt>
      <trkpt lat="47.36859" lon="4.99374">
        <ele>378</ele>
        <time>2022-04-14T07:48:53.437Z</time>
      </trkpt>
      <trkpt lat="47.36853" lon="4.99367">
        <ele>378</ele>
        <time>2022-04-14T07:48:58.383Z</time>
      </trkpt>
      <trkpt lat="47.3685" lon="4.99363">
        <ele>378</ele>
        <time>2022-04-14T07:49:02.419Z</time>
      </trkpt>
      <trkpt lat="47.36844" lon="4.99357">
        <ele>377</ele>
        <time>2022-04-14T07:49:07.380Z</time>
      </trkpt>
      <trkpt lat="47.3684" lon="4.99352">
        <ele>377</ele>
        <time>2022-04-14T07:49:11.481Z</time>
      </trkpt>
      <trkpt lat="47.36836" lon="4.99344">
        <ele>378</ele>
        <time>2022-04-14T07:49:16.477Z</time>
      </trkpt>
      <trkpt lat="47.36831" lon="4.99339">
        <ele>378</ele>
        <time>2022-04-14T07:49:21.486Z</time>
      </trkpt>
      <trkpt lat="47.36828" lon="4.99333">
        <ele>378</ele>
        <time>2022-04-14T07:49:25.501Z</time>
      </trkpt>
      <trkpt lat="47.36825" lon="4.99325">
        <ele>378</ele>
        <time>2022-04-14T07:49:30.487Z</time>
      </trkpt>
      <trkpt lat="47.36823" lon="4.99315">
        <ele>378</ele>
        <time>2022-04-14T07:49:35.471Z</time>
      </trkpt>
      <trkpt lat="47.36821" lon="4.99307">
        <ele>378</ele>
        <time>2022-04-14T07:49:40.408Z</time>
      </trkpt>
      <trkpt lat="47.36817" lon="4.993">
        <ele>378</ele>
        <time>2022-04-14T07:49:45.402Z</time>
      </trkpt>
      <trkpt lat="47.36814" lon="4.99291">
        <ele>379</ele>
        <time>2022-04-14T07:49:50.425Z</time>
      </trkpt>
      <trkpt lat="47.36813" lon="4.99285">
        <ele>379</ele>
        <time>2022-04-14T07:49:54.442Z</time>
      </trkpt>
      <trkpt lat="47.36815" lon="4.99279">
        <ele>379</ele>
        <time>2022-04-14T07:49:58.461Z</time>
      </trkpt>
      <trkpt lat="47.36818" lon="4.99272">
        <ele>379</ele>
        <time>2022-04-14T07:50:03.493Z</time>
      </trkpt>
      <trkpt lat="47.36822" lon="4.99269">
        <ele>379</ele>
        <time>2022-04-14T07:50:08.471Z</time>
      </trkpt>
      <trkpt lat="47.36827" lon="4.99266">
        <ele>379</ele>
        <time>2022-04-14T07:50:13.430Z</time>
      </trkpt>
      <trkpt lat="47.36831" lon="4.99264">
        <ele>380</ele>
        <time>2022-04-14T07:50:18.520Z</time>
      </trkpt>
      <trkpt lat="47.36836" lon="4.99261">
        <ele>380</ele>
        <time>2022-04-14T07:50:23.409Z</time>
      </trkpt>
      <trkpt lat="47.36842" lon="4.99259">
        <ele>380</ele>
        <time>2022-04-14T07:50:28.423Z</time>
      </trkpt>
      <trkpt lat="47.36848" lon="4.99257">
        <ele>382</ele>
        <time>2022-04-14T07:50:33.413Z</time>
      </trkpt>
      <trkpt lat="47.36852" lon="4.99254">
        <ele>382</ele>
        <time>2022-04-14T07:50:37.448Z</time>
      </trkpt>
      <trkpt lat="47.36859" lon="4.99251">
        <ele>382</ele>
        <time>2022-04-14T07:50:42.431Z</time>
      </trkpt>
      <trkpt lat="47.36864" lon="4.99248">
        <ele>382</ele>
        <time>2022-04-14T07:50:47.462Z</time>
      </trkpt>
      <trkpt lat="47.36869" lon="4.99246">
        <ele>382</ele>
        <time>2022-04-14T07:50:51.509Z</time>
      </trkpt>
      <trkpt lat="47.36875" lon="4.99243">
        <ele>383</ele>
        <time>2022-04-14T07:50:56.399Z</time>
      </trkpt>
      <trkpt lat="47.36879" lon="4.99238">
        <ele>383</ele>
        <time>2022-04-14T07:51:01.389Z</time>
      </trkpt>
      <trkpt lat="47.36885" lon="4.99237">
        <ele>383</ele>
        <time>2022-04-14T07:51:06.410Z</time>
      </trkpt>
      <trkpt lat="47.3689" lon="4.99234">
        <ele>384</ele>
        <time>2022-04-14T07:51:11.416Z</time>
      </trkpt>
      <trkpt lat="47.36895" lon="4.9923">
        <ele>384</ele>
        <time>2022-04-14T07:51:16.406Z</time>
      </trkpt>
      <trkpt lat="47.36901" lon="4.99226">
        <ele>384</ele>
        <time>2022-04-14T07:51:21.401Z</time>
      </trkpt>
      <trkpt lat="47.36907" lon="4.99223">
        <ele>384</ele>
        <time>2022-04-14T07:51:26.403Z</time>
      </trkpt>
      <trkpt lat="47.36913" lon="4.99219">
        <ele>384</ele>
        <time>2022-04-14T07:51:30.488Z</time>
      </trkpt>
      <trkpt lat="47.36918" lon="4.99218">
        <ele>384</ele>
        <time>2022-04-14T07:51:34.492Z</time>
      </trkpt>
      <trkpt lat="47.36924" lon="4.99215">
        <ele>384</ele>
        <time>2022-04-14T07:51:39.471Z</time>
      </trkpt>
      <trkpt lat="47.36928" lon="4.99212">
        <ele>384</ele>
        <time>2022-04-14T07:51:44.462Z</time>
      </trkpt>
      <trkpt lat="47.36934" lon="4.99209">
        <ele>385</ele>
        <time>2022-04-14T07:51:49.407Z</time>
      </trkpt>
      <trkpt lat="47.3694" lon="4.99207">
        <ele>386</ele>
        <time>2022-04-14T07:51:54.486Z</time>
      </trkpt>
      <trkpt lat="47.36946" lon="4.99203">
        <ele>386</ele>
        <time>2022-04-14T07:51:59.454Z</time>
      </trkpt>
      <trkpt lat="47.36952" lon="4.992">
        <ele>386</ele>
        <time>2022-04-14T07:52:04.403Z</time>
      </trkpt>
      <trkpt lat="47.36955" lon="4.99197">
        <ele>386</ele>
        <time>2022-04-14T07:52:09.384Z</time>
      </trkpt>
      <trkpt lat="47.36961" lon="4.99195">
        <ele>388</ele>
        <time>2022-04-14T07:52:14.401Z</time>
      </trkpt>
      <trkpt lat="47.36966" lon="4.99191">
        <ele>388</ele>
        <time>2022-04-14T07:52:19.465Z</time>
      </trkpt>
      <trkpt lat="47.36971" lon="4.99188">
        <ele>388</ele>
        <time>2022-04-14T07:52:24.387Z</time>
      </trkpt>
      <trkpt lat="47.36977" lon="4.99185">
        <ele>388</ele>
        <time>2022-04-14T07:52:29.497Z</time>
      </trkpt>
      <trkpt lat="47.36983" lon="4.99183">
        <ele>388</ele>
        <time>2022-04-14T07:52:34.483Z</time>
      </trkpt>
      <trkpt lat="47.36988" lon="4.99182">
        <ele>389</ele>
        <time>2022-04-14T07:52:39.459Z</time>
      </trkpt>
      <trkpt lat="47.36994" lon="4.99179">
        <ele>390</ele>
        <time>2022-04-14T07:52:44.467Z</time>
      </trkpt>
      <trkpt lat="47.37" lon="4.99177">
        <ele>390</ele>
        <time>2022-04-14T07:52:49.406Z</time>
      </trkpt>
      <trkpt lat="47.37006" lon="4.99173">
        <ele>390</ele>
        <time>2022-04-14T07:52:54.391Z</time>
      </trkpt>
      <trkpt lat="47.37012" lon="4.9917">
        <ele>390</ele>
        <time>2022-04-14T07:52:59.446Z</time>
      </trkpt>
      <trkpt lat="47.37017" lon="4.99166">
        <ele>391</ele>
        <time>2022-04-14T07:53:04.479Z</time>
      </trkpt>
      <trkpt lat="47.37023" lon="4.99162">
        <ele>391</ele>
        <time>2022-04-14T07:53:09.435Z</time>
      </trkpt>
      <trkpt lat="47.37028" lon="4.99158">
        <ele>391</ele>
        <time>2022-04-14T07:53:14.458Z</time>
      </trkpt>
      <trkpt lat="47.37033" lon="4.99154">
        <ele>391</ele>
        <time>2022-04-14T07:53:18.477Z</time>
      </trkpt>
      <trkpt lat="47.37038" lon="4.9915">
        <ele>391</ele>
        <time>2022-04-14T07:53:23.481Z</time>
      </trkpt>
      <trkpt lat="47.37043" lon="4.99146">
        <ele>390</ele>
        <time>2022-04-14T07:53:28.393Z</time>
      </trkpt>
      <trkpt lat="47.37048" lon="4.99143">
        <ele>390</ele>
        <time>2022-04-14T07:53:32.408Z</time>
      </trkpt>
      <trkpt lat="47.37052" lon="4.99137">
        <ele>390</ele>
        <time>2022-04-14T07:53:37.395Z</time>
      </trkpt>
      <trkpt lat="47.37057" lon="4.99132">
        <ele>390</ele>
        <time>2022-04-14T07:53:42.413Z</time>
      </trkpt>
      <trkpt lat="47.37061" lon="4.99126">
        <ele>390</ele>
        <time>2022-04-14T07:53:47.401Z</time>
      </trkpt>
      <trkpt lat="47.37065" lon="4.9912">
        <ele>391</ele>
        <time>2022-04-14T07:53:52.406Z</time>
      </trkpt>
      <trkpt lat="47.3707" lon="4.99115">
        <ele>391</ele>
        <time>2022-04-14T07:53:57.407Z</time>
      </trkpt>
      <trkpt lat="47.37073" lon="4.99111">
        <ele>391</ele>
        <time>2022-04-14T07:54:01.397Z</time>
      </trkpt>
      <trkpt lat="47.37077" lon="4.99108">
        <ele>391</ele>
        <time>2022-04-14T07:54:05.454Z</time>
      </trkpt>
      <trkpt lat="47.37082" lon="4.99102">
        <ele>391</ele>
        <time>2022-04-14T07:54:10.451Z</time>
      </trkpt>
      <trkpt lat="47.37087" lon="4.99096">
        <ele>393</ele>
        <time>2022-04-14T07:54:15.458Z</time>
      </trkpt>
      <trkpt lat="47.37092" lon="4.99089">
        <ele>393</ele>
        <time>2022-04-14T07:54:20.467Z</time>
      </trkpt>
      <trkpt lat="47.37097" lon="4.99083">
        <ele>393</ele>
        <time>2022-04-14T07:54:25.465Z</time>
      </trkpt>
      <trkpt lat="47.37101" lon="4.99078">
        <ele>394</ele>
        <time>2022-04-14T07:54:30.423Z</time>
      </trkpt>
      <trkpt lat="47.37105" lon="4.99071">
        <ele>394</ele>
        <time>2022-04-14T07:54:35.430Z</time>
      </trkpt>
      <trkpt lat="47.37109" lon="4.99065">
        <ele>395</ele>
        <time>2022-04-14T07:54:40.396Z</time>
      </trkpt>
      <trkpt lat="47.37112" lon="4.9906">
        <ele>395</ele>
        <time>2022-04-14T07:54:44.403Z</time>
      </trkpt>
      <trkpt lat="47.37115" lon="4.99054">
        <ele>395</ele>
        <time>2022-04-14T07:54:48.459Z</time>
      </trkpt>
      <trkpt lat="47.37119" lon="4.99049">
        <ele>395</ele>
        <time>2022-04-14T07:54:52.482Z</time>
      </trkpt>
      <trkpt lat="47.37123" lon="4.99043">
        <ele>395</ele>
        <time>2022-04-14T07:54:57.489Z</time>
      </trkpt>
      <trkpt lat="47.37128" lon="4.99036">
        <ele>396</ele>
        <time>2022-04-14T07:55:02.411Z</time>
      </trkpt>
      <trkpt lat="47.37131" lon="4.9903">
        <ele>396</ele>
        <time>2022-04-14T07:55:06.466Z</time>
      </trkpt>
      <trkpt lat="47.37133" lon="4.99024">
        <ele>396</ele>
        <time>2022-04-14T07:55:11.482Z</time>
      </trkpt>
      <trkpt lat="47.37136" lon="4.99016">
        <ele>396</ele>
        <time>2022-04-14T07:55:16.403Z</time>
      </trkpt>
      <trkpt lat="47.37138" lon="4.9901">
        <ele>397</ele>
        <time>2022-04-14T07:55:21.378Z</time>
      </trkpt>
      <trkpt lat="47.37142" lon="4.99005">
        <ele>397</ele>
        <time>2022-04-14T07:55:25.409Z</time>
      </trkpt>
      <trkpt lat="47.37145" lon="4.98999">
        <ele>397</ele>
        <time>2022-04-14T07:55:30.383Z</time>
      </trkpt>
      <trkpt lat="47.37149" lon="4.98991">
        <ele>397</ele>
        <time>2022-04-14T07:55:35.398Z</time>
      </trkpt>
      <trkpt lat="47.37152" lon="4.98984">
        <ele>398</ele>
        <time>2022-04-14T07:55:40.399Z</time>
      </trkpt>
      <trkpt lat="47.37155" lon="4.98977">
        <ele>399</ele>
        <time>2022-04-14T07:55:44.439Z</time>
      </trkpt>
      <trkpt lat="47.37157" lon="4.98971">
        <ele>399</ele>
        <time>2022-04-14T07:55:48.465Z</time>
      </trkpt>
      <trkpt lat="47.37159" lon="4.98963">
        <ele>399</ele>
        <time>2022-04-14T07:55:53.480Z</time>
      </trkpt>
      <trkpt lat="47.37161" lon="4.98957">
        <ele>399</ele>
        <time>2022-04-14T07:55:57.463Z</time>
      </trkpt>
      <trkpt lat="47.37163" lon="4.9895">
        <ele>399</ele>
        <time>2022-04-14T07:56:02.491Z</time>
      </trkpt>
      <trkpt lat="47.37167" lon="4.9894">
        <ele>399</ele>
        <time>2022-04-14T07:56:07.451Z</time>
      </trkpt>
      <trkpt lat="47.3717" lon="4.98933">
        <ele>399</ele>
        <time>2022-04-14T07:56:12.474Z</time>
      </trkpt>
      <trkpt lat="47.37173" lon="4.98925">
        <ele>399</ele>
        <time>2022-04-14T07:56:17.420Z</time>
      </trkpt>
      <trkpt lat="47.37175" lon="4.98919">
        <ele>399</ele>
        <time>2022-04-14T07:56:21.464Z</time>
      </trkpt>
      <trkpt lat="47.37177" lon="4.98913">
        <ele>399</ele>
        <time>2022-04-14T07:56:25.469Z</time>
      </trkpt>
      <trkpt lat="47.37179" lon="4.98904">
        <ele>399</ele>
        <time>2022-04-14T07:56:30.470Z</time>
      </trkpt>
      <trkpt lat="47.37182" lon="4.98895">
        <ele>399</ele>
        <time>2022-04-14T07:56:35.469Z</time>
      </trkpt>
      <trkpt lat="47.37185" lon="4.98887">
        <ele>399</ele>
        <time>2022-04-14T07:56:40.440Z</time>
      </trkpt>
      <trkpt lat="47.37188" lon="4.9888">
        <ele>399</ele>
        <time>2022-04-14T07:56:44.487Z</time>
      </trkpt>
      <trkpt lat="47.37189" lon="4.98873">
        <ele>399</ele>
        <time>2022-04-14T07:56:49.483Z</time>
      </trkpt>
      <trkpt lat="47.37191" lon="4.98865">
        <ele>399</ele>
        <time>2022-04-14T07:56:54.471Z</time>
      </trkpt>
      <trkpt lat="47.37194" lon="4.98856">
        <ele>399</ele>
        <time>2022-04-14T07:56:59.474Z</time>
      </trkpt>
      <trkpt lat="47.37197" lon="4.98847">
        <ele>399</ele>
        <time>2022-04-14T07:57:04.490Z</time>
      </trkpt>
      <trkpt lat="47.37199" lon="4.9884">
        <ele>400</ele>
        <time>2022-04-14T07:57:09.465Z</time>
      </trkpt>
      <trkpt lat="47.37202" lon="4.9883">
        <ele>400</ele>
        <time>2022-04-14T07:57:14.460Z</time>
      </trkpt>
      <trkpt lat="47.37205" lon="4.98821">
        <ele>400</ele>
        <time>2022-04-14T07:57:19.486Z</time>
      </trkpt>
      <trkpt lat="47.37209" lon="4.98813">
        <ele>401</ele>
        <time>2022-04-14T07:57:24.471Z</time>
      </trkpt>
      <trkpt lat="47.37211" lon="4.98806">
        <ele>401</ele>
        <time>2022-04-14T07:57:29.431Z</time>
      </trkpt>
      <trkpt lat="47.37214" lon="4.98797">
        <ele>401</ele>
        <time>2022-04-14T07:57:34.458Z</time>
      </trkpt>
      <trkpt lat="47.37217" lon="4.98788">
        <ele>402</ele>
        <time>2022-04-14T07:57:39.466Z</time>
      </trkpt>
      <trkpt lat="47.3722" lon="4.98782">
        <ele>402</ele>
        <time>2022-04-14T07:57:43.472Z</time>
      </trkpt>
      <trkpt lat="47.37224" lon="4.98775">
        <ele>402</ele>
        <time>2022-04-14T07:57:48.478Z</time>
      </trkpt>
      <trkpt lat="47.37228" lon="4.9877">
        <ele>402</ele>
        <time>2022-04-14T07:57:53.411Z</time>
      </trkpt>
      <trkpt lat="47.3723" lon="4.98765">
        <ele>402</ele>
        <time>2022-04-14T07:57:57.438Z</time>
      </trkpt>
      <trkpt lat="47.37234" lon="4.9876">
        <ele>403</ele>
        <time>2022-04-14T07:58:06.462Z</time>
      </trkpt>
      <trkpt lat="47.3723" lon="4.98753">
        <ele>403</ele>
        <time>2022-04-14T07:58:11.445Z</time>
      </trkpt>
      <trkpt lat="47.37228" lon="4.98753">
        <ele>403</ele>
        <time>2022-04-14T07:58:16.485Z</time>
      </trkpt>
      <trkpt lat="47.37228" lon="4.98753">
        <ele>403</ele>
        <time>2022-04-14T07:58:21.472Z</time>
      </trkpt>
      <trkpt lat="47.37228" lon="4.98748">
        <ele>403</ele>
        <time>2022-04-14T07:58:31.435Z</time>
      </trkpt>
      <trkpt lat="47.37226" lon="4.98743">
        <ele>403</ele>
        <time>2022-04-14T07:58:36.403Z</time>
      </trkpt>
      <trkpt lat="47.37225" lon="4.9874">
        <ele>403</ele>
        <time>2022-04-14T07:58:40.433Z</time>
      </trkpt>
      <trkpt lat="47.37221" lon="4.98737">
        <ele>403</ele>
        <time>2022-04-14T07:58:45.404Z</time>
      </trkpt>
      <trkpt lat="47.37219" lon="4.98736">
        <ele>403</ele>
        <time>2022-04-14T07:58:49.417Z</time>
      </trkpt>
      <trkpt lat="47.37213" lon="4.98735">
        <ele>403</ele>
        <time>2022-04-14T07:58:53.448Z</time>
      </trkpt>
      <trkpt lat="47.37208" lon="4.98732">
        <ele>404</ele>
        <time>2022-04-14T07:58:58.425Z</time>
      </trkpt>
      <trkpt lat="47.37203" lon="4.98729">
        <ele>404</ele>
        <time>2022-04-14T07:59:03.406Z</time>
      </trkpt>
      <trkpt lat="47.37198" lon="4.98727">
        <ele>404</ele>
        <time>2022-04-14T07:59:08.435Z</time>
      </trkpt>
      <trkpt lat="47.37192" lon="4.98724">
        <ele>404</ele>
        <time>2022-04-14T07:59:13.433Z</time>
      </trkpt>
      <trkpt lat="47.37188" lon="4.98722">
        <ele>404</ele>
        <time>2022-04-14T07:59:17.458Z</time>
      </trkpt>
      <trkpt lat="47.37182" lon="4.98721">
        <ele>404</ele>
        <time>2022-04-14T07:59:22.442Z</time>
      </trkpt>
      <trkpt lat="47.37178" lon="4.98718">
        <ele>405</ele>
        <time>2022-04-14T07:59:26.479Z</time>
      </trkpt>
      <trkpt lat="47.37172" lon="4.98716">
        <ele>405</ele>
        <time>2022-04-14T07:59:31.470Z</time>
      </trkpt>
      <trkpt lat="47.37167" lon="4.98713">
        <ele>405</ele>
        <time>2022-04-14T07:59:36.457Z</time>
      </trkpt>
      <trkpt lat="47.37161" lon="4.98712">
        <ele>405</ele>
        <time>2022-04-14T07:59:41.432Z</time>
      </trkpt>
      <trkpt lat="47.37156" lon="4.9871">
        <ele>405</ele>
        <time>2022-04-14T07:59:45.462Z</time>
      </trkpt>
      <trkpt lat="47.3715" lon="4.98706">
        <ele>406</ele>
        <time>2022-04-14T07:59:50.481Z</time>
      </trkpt>
      <trkpt lat="47.37145" lon="4.98703">
        <ele>406</ele>
        <time>2022-04-14T07:59:55.479Z</time>
      </trkpt>
      <trkpt lat="47.37139" lon="4.98701">
        <ele>406</ele>
        <time>2022-04-14T08:00:00.475Z</time>
      </trkpt>
      <trkpt lat="47.37134" lon="4.98699">
        <ele>406</ele>
        <time>2022-04-14T08:00:05.501Z</time>
      </trkpt>
      <trkpt lat="47.37128" lon="4.98696">
        <ele>406</ele>
        <time>2022-04-14T08:00:10.471Z</time>
      </trkpt>
      <trkpt lat="47.37123" lon="4.98694">
        <ele>409</ele>
        <time>2022-04-14T08:00:15.453Z</time>
      </trkpt>
      <trkpt lat="47.37118" lon="4.98693">
        <ele>409</ele>
        <time>2022-04-14T08:00:20.444Z</time>
      </trkpt>
      <trkpt lat="47.37113" lon="4.98692">
        <ele>409</ele>
        <time>2022-04-14T08:00:24.482Z</time>
      </trkpt>
      <trkpt lat="47.37108" lon="4.98691">
        <ele>409</ele>
        <time>2022-04-14T08:00:29.436Z</time>
      </trkpt>
      <trkpt lat="47.37103" lon="4.98689">
        <ele>409</ele>
        <time>2022-04-14T08:00:33.483Z</time>
      </trkpt>
      <trkpt lat="47.37097" lon="4.98688">
        <ele>410</ele>
        <time>2022-04-14T08:00:38.473Z</time>
      </trkpt>
      <trkpt lat="47.37091" lon="4.98688">
        <ele>410</ele>
        <time>2022-04-14T08:00:43.468Z</time>
      </trkpt>
      <trkpt lat="47.37085" lon="4.98688">
        <ele>410</ele>
        <time>2022-04-14T08:00:48.473Z</time>
      </trkpt>
      <trkpt lat="47.37079" lon="4.98687">
        <ele>410</ele>
        <time>2022-04-14T08:00:53.473Z</time>
      </trkpt>
      <trkpt lat="47.37073" lon="4.98686">
        <ele>410</ele>
        <time>2022-04-14T08:00:58.467Z</time>
      </trkpt>
      <trkpt lat="47.37067" lon="4.98685">
        <ele>409</ele>
        <time>2022-04-14T08:01:03.407Z</time>
      </trkpt>
      <trkpt lat="47.37062" lon="4.98685">
        <ele>409</ele>
        <time>2022-04-14T08:01:07.453Z</time>
      </trkpt>
      <trkpt lat="47.37056" lon="4.98684">
        <ele>409</ele>
        <time>2022-04-14T08:01:12.470Z</time>
      </trkpt>
      <trkpt lat="47.37049" lon="4.98684">
        <ele>409</ele>
        <time>2022-04-14T08:01:17.463Z</time>
      </trkpt>
      <trkpt lat="47.37043" lon="4.98683">
        <ele>409</ele>
        <time>2022-04-14T08:01:22.454Z</time>
      </trkpt>
      <trkpt lat="47.37038" lon="4.98682">
        <ele>409</ele>
        <time>2022-04-14T08:01:27.466Z</time>
      </trkpt>
      <trkpt lat="47.37033" lon="4.98682">
        <ele>409</ele>
        <time>2022-04-14T08:01:32.467Z</time>
      </trkpt>
      <trkpt lat="47.37027" lon="4.98679">
        <ele>410</ele>
        <time>2022-04-14T08:01:37.478Z</time>
      </trkpt>
      <trkpt lat="47.3702" lon="4.98677">
        <ele>410</ele>
        <time>2022-04-14T08:01:42.464Z</time>
      </trkpt>
      <trkpt lat="47.37014" lon="4.98676">
        <ele>410</ele>
        <time>2022-04-14T08:01:47.455Z</time>
      </trkpt>
      <trkpt lat="47.37007" lon="4.98675">
        <ele>410</ele>
        <time>2022-04-14T08:01:52.419Z</time>
      </trkpt>
      <trkpt lat="47.37002" lon="4.98674">
        <ele>410</ele>
        <time>2022-04-14T08:01:56.443Z</time>
      </trkpt>
      <trkpt lat="47.36997" lon="4.98672">
        <ele>410</ele>
        <time>2022-04-14T08:02:01.438Z</time>
      </trkpt>
      <trkpt lat="47.36991" lon="4.98669">
        <ele>410</ele>
        <time>2022-04-14T08:02:05.476Z</time>
      </trkpt>
      <trkpt lat="47.36985" lon="4.98668">
        <ele>410</ele>
        <time>2022-04-14T08:02:10.440Z</time>
      </trkpt>
      <trkpt lat="47.36979" lon="4.98667">
        <ele>410</ele>
        <time>2022-04-14T08:02:15.466Z</time>
      </trkpt>
      <trkpt lat="47.36973" lon="4.98665">
        <ele>410</ele>
        <time>2022-04-14T08:02:20.482Z</time>
      </trkpt>
      <trkpt lat="47.36967" lon="4.98664">
        <ele>410</ele>
        <time>2022-04-14T08:02:25.419Z</time>
      </trkpt>
      <trkpt lat="47.36963" lon="4.98663">
        <ele>410</ele>
        <time>2022-04-14T08:02:29.508Z</time>
      </trkpt>
      <trkpt lat="47.36956" lon="4.98661">
        <ele>409</ele>
        <time>2022-04-14T08:02:34.486Z</time>
      </trkpt>
      <trkpt lat="47.36951" lon="4.98659">
        <ele>409</ele>
        <time>2022-04-14T08:02:38.491Z</time>
      </trkpt>
      <trkpt lat="47.36944" lon="4.98657">
        <ele>409</ele>
        <time>2022-04-14T08:02:43.475Z</time>
      </trkpt>
      <trkpt lat="47.36938" lon="4.98656">
        <ele>409</ele>
        <time>2022-04-14T08:02:48.489Z</time>
      </trkpt>
      <trkpt lat="47.36931" lon="4.98655">
        <ele>409</ele>
        <time>2022-04-14T08:02:53.430Z</time>
      </trkpt>
      <trkpt lat="47.36925" lon="4.98653">
        <ele>408</ele>
        <time>2022-04-14T08:02:58.435Z</time>
      </trkpt>
      <trkpt lat="47.3692" lon="4.98652">
        <ele>411</ele>
        <time>2022-04-14T08:03:02.463Z</time>
      </trkpt>
      <trkpt lat="47.36914" lon="4.9865">
        <ele>411</ele>
        <time>2022-04-14T08:03:07.450Z</time>
      </trkpt>
      <trkpt lat="47.36907" lon="4.98647">
        <ele>411</ele>
        <time>2022-04-14T08:03:12.459Z</time>
      </trkpt>
      <trkpt lat="47.36901" lon="4.98644">
        <ele>411</ele>
        <time>2022-04-14T08:03:17.466Z</time>
      </trkpt>
      <trkpt lat="47.36897" lon="4.98638">
        <ele>411</ele>
        <time>2022-04-14T08:03:22.478Z</time>
      </trkpt>
      <trkpt lat="47.36896" lon="4.98629">
        <ele>411</ele>
        <time>2022-04-14T08:03:27.467Z</time>
      </trkpt>
      <trkpt lat="47.36898" lon="4.98621">
        <ele>413</ele>
        <time>2022-04-14T08:03:32.465Z</time>
      </trkpt>
      <trkpt lat="47.36901" lon="4.98612">
        <ele>413</ele>
        <time>2022-04-14T08:03:37.428Z</time>
      </trkpt>
      <trkpt lat="47.36903" lon="4.98602">
        <ele>413</ele>
        <time>2022-04-14T08:03:42.467Z</time>
      </trkpt>
      <trkpt lat="47.36905" lon="4.98594">
        <ele>414</ele>
        <time>2022-04-14T08:03:47.423Z</time>
      </trkpt>
      <trkpt lat="47.36907" lon="4.98587">
        <ele>414</ele>
        <time>2022-04-14T08:03:52.437Z</time>
      </trkpt>
      <trkpt lat="47.3691" lon="4.98579">
        <ele>414</ele>
        <time>2022-04-14T08:03:57.447Z</time>
      </trkpt>
      <trkpt lat="47.36911" lon="4.98573">
        <ele>414</ele>
        <time>2022-04-14T08:04:01.469Z</time>
      </trkpt>
      <trkpt lat="47.36914" lon="4.98565">
        <ele>414</ele>
        <time>2022-04-14T08:04:06.475Z</time>
      </trkpt>
      <trkpt lat="47.36917" lon="4.98558">
        <ele>414</ele>
        <time>2022-04-14T08:04:11.455Z</time>
      </trkpt>
      <trkpt lat="47.36918" lon="4.9855">
        <ele>414</ele>
        <time>2022-04-14T08:04:16.450Z</time>
      </trkpt>
      <trkpt lat="47.3692" lon="4.98542">
        <ele>414</ele>
        <time>2022-04-14T08:04:21.481Z</time>
      </trkpt>
      <trkpt lat="47.36923" lon="4.98535">
        <ele>415</ele>
        <time>2022-04-14T08:04:26.463Z</time>
      </trkpt>
      <trkpt lat="47.36925" lon="4.98527">
        <ele>415</ele>
        <time>2022-04-14T08:04:31.425Z</time>
      </trkpt>
      <trkpt lat="47.36926" lon="4.98519">
        <ele>415</ele>
        <time>2022-04-14T08:04:35.486Z</time>
      </trkpt>
      <trkpt lat="47.36929" lon="4.98511">
        <ele>417</ele>
        <time>2022-04-14T08:04:40.465Z</time>
      </trkpt>
      <trkpt lat="47.36932" lon="4.98503">
        <ele>417</ele>
        <time>2022-04-14T08:04:45.457Z</time>
      </trkpt>
      <trkpt lat="47.36934" lon="4.98494">
        <ele>417</ele>
        <time>2022-04-14T08:04:50.478Z</time>
      </trkpt>
      <trkpt lat="47.36936" lon="4.98485">
        <ele>419</ele>
        <time>2022-04-14T08:04:55.441Z</time>
      </trkpt>
      <trkpt lat="47.36937" lon="4.98476">
        <ele>419</ele>
        <time>2022-04-14T08:05:00.477Z</time>
      </trkpt>
      <trkpt lat="47.36939" lon="4.98467">
        <ele>419</ele>
        <time>2022-04-14T08:05:05.453Z</time>
      </trkpt>
      <trkpt lat="47.3694" lon="4.98459">
        <ele>419</ele>
        <time>2022-04-14T08:05:10.445Z</time>
      </trkpt>
      <trkpt lat="47.36942" lon="4.9845">
        <ele>419</ele>
        <time>2022-04-14T08:05:15.391Z</time>
      </trkpt>
      <trkpt lat="47.36943" lon="4.98443">
        <ele>419</ele>
        <time>2022-04-14T08:05:19.437Z</time>
      </trkpt>
      <trkpt lat="47.36944" lon="4.98436">
        <ele>419</ele>
        <time>2022-04-14T08:05:23.486Z</time>
      </trkpt>
      <trkpt lat="47.36947" lon="4.98426">
        <ele>419</ele>
        <time>2022-04-14T08:05:28.471Z</time>
      </trkpt>
      <trkpt lat="47.36949" lon="4.98417">
        <ele>419</ele>
        <time>2022-04-14T08:05:33.421Z</time>
      </trkpt>
      <trkpt lat="47.3695" lon="4.98409">
        <ele>419</ele>
        <time>2022-04-14T08:05:38.467Z</time>
      </trkpt>
      <trkpt lat="47.36952" lon="4.984">
        <ele>419</ele>
        <time>2022-04-14T08:05:43.453Z</time>
      </trkpt>
      <trkpt lat="47.36953" lon="4.98391">
        <ele>419</ele>
        <time>2022-04-14T08:05:48.422Z</time>
      </trkpt>
      <trkpt lat="47.36954" lon="4.98383">
        <ele>419</ele>
        <time>2022-04-14T08:05:53.455Z</time>
      </trkpt>
      <trkpt lat="47.36956" lon="4.98375">
        <ele>418</ele>
        <time>2022-04-14T08:05:57.465Z</time>
      </trkpt>
      <trkpt lat="47.36959" lon="4.98365">
        <ele>417</ele>
        <time>2022-04-14T08:06:02.461Z</time>
      </trkpt>
      <trkpt lat="47.36961" lon="4.98355">
        <ele>417</ele>
        <time>2022-04-14T08:06:07.455Z</time>
      </trkpt>
      <trkpt lat="47.36961" lon="4.98348">
        <ele>417</ele>
        <time>2022-04-14T08:06:11.466Z</time>
      </trkpt>
      <trkpt lat="47.36963" lon="4.98339">
        <ele>416</ele>
        <time>2022-04-14T08:06:16.453Z</time>
      </trkpt>
      <trkpt lat="47.36964" lon="4.98332">
        <ele>416</ele>
        <time>2022-04-14T08:06:20.476Z</time>
      </trkpt>
      <trkpt lat="47.36967" lon="4.98323">
        <ele>416</ele>
        <time>2022-04-14T08:06:25.464Z</time>
      </trkpt>
      <trkpt lat="47.3697" lon="4.98313">
        <ele>415</ele>
        <time>2022-04-14T08:06:30.490Z</time>
      </trkpt>
      <trkpt lat="47.36972" lon="4.98305">
        <ele>415</ele>
        <time>2022-04-14T08:06:35.412Z</time>
      </trkpt>
      <trkpt lat="47.36973" lon="4.98298">
        <ele>415</ele>
        <time>2022-04-14T08:06:39.459Z</time>
      </trkpt>
      <trkpt lat="47.36974" lon="4.98288">
        <ele>415</ele>
        <time>2022-04-14T08:06:44.460Z</time>
      </trkpt>
      <trkpt lat="47.36976" lon="4.9828">
        <ele>415</ele>
        <time>2022-04-14T08:06:49.443Z</time>
      </trkpt>
      <trkpt lat="47.36978" lon="4.98272">
        <ele>415</ele>
        <time>2022-04-14T08:06:54.423Z</time>
      </trkpt>
      <trkpt lat="47.36979" lon="4.98265">
        <ele>415</ele>
        <time>2022-04-14T08:06:58.462Z</time>
      </trkpt>
      <trkpt lat="47.36982" lon="4.98256">
        <ele>414</ele>
        <time>2022-04-14T08:07:03.419Z</time>
      </trkpt>
      <trkpt lat="47.36983" lon="4.98247">
        <ele>414</ele>
        <time>2022-04-14T08:07:08.440Z</time>
      </trkpt>
      <trkpt lat="47.36985" lon="4.98238">
        <ele>414</ele>
        <time>2022-04-14T08:07:13.418Z</time>
      </trkpt>
      <trkpt lat="47.36986" lon="4.98229">
        <ele>414</ele>
        <time>2022-04-14T08:07:18.468Z</time>
      </trkpt>
      <trkpt lat="47.36986" lon="4.98219">
        <ele>414</ele>
        <time>2022-04-14T08:07:23.429Z</time>
      </trkpt>
      <trkpt lat="47.36987" lon="4.9821">
        <ele>414</ele>
        <time>2022-04-14T08:07:28.453Z</time>
      </trkpt>
      <trkpt lat="47.36989" lon="4.98203">
        <ele>414</ele>
        <time>2022-04-14T08:07:32.493Z</time>
      </trkpt>
      <trkpt lat="47.3699" lon="4.98194">
        <ele>414</ele>
        <time>2022-04-14T08:07:37.420Z</time>
      </trkpt>
      <trkpt lat="47.36992" lon="4.98185">
        <ele>414</ele>
        <time>2022-04-14T08:07:42.433Z</time>
      </trkpt>
      <trkpt lat="47.36992" lon="4.98175">
        <ele>414</ele>
        <time>2022-04-14T08:07:47.402Z</time>
      </trkpt>
      <trkpt lat="47.36993" lon="4.98168">
        <ele>414</ele>
        <time>2022-04-14T08:07:51.455Z</time>
      </trkpt>
      <trkpt lat="47.36995" lon="4.98159">
        <ele>414</ele>
        <time>2022-04-14T08:07:56.456Z</time>
      </trkpt>
      <trkpt lat="47.36996" lon="4.98152">
        <ele>413</ele>
        <time>2022-04-14T08:08:00.444Z</time>
      </trkpt>
      <trkpt lat="47.36995" lon="4.98145">
        <ele>413</ele>
        <time>2022-04-14T08:08:04.445Z</time>
      </trkpt>
      <trkpt lat="47.36997" lon="4.98136">
        <ele>413</ele>
        <time>2022-04-14T08:08:09.436Z</time>
      </trkpt>
      <trkpt lat="47.36999" lon="4.98126">
        <ele>413</ele>
        <time>2022-04-14T08:08:14.491Z</time>
      </trkpt>
      <trkpt lat="47.36999" lon="4.98117">
        <ele>411</ele>
        <time>2022-04-14T08:08:19.434Z</time>
      </trkpt>
      <trkpt lat="47.37002" lon="4.98108">
        <ele>411</ele>
        <time>2022-04-14T08:08:24.466Z</time>
      </trkpt>
      <trkpt lat="47.37003" lon="4.98098">
        <ele>411</ele>
        <time>2022-04-14T08:08:29.430Z</time>
      </trkpt>
      <trkpt lat="47.37005" lon="4.98089">
        <ele>412</ele>
        <time>2022-04-14T08:08:34.497Z</time>
      </trkpt>
      <trkpt lat="47.37006" lon="4.98081">
        <ele>412</ele>
        <time>2022-04-14T08:08:39.435Z</time>
      </trkpt>
      <trkpt lat="47.37008" lon="4.98072">
        <ele>412</ele>
        <time>2022-04-14T08:08:44.448Z</time>
      </trkpt>
      <trkpt lat="47.3701" lon="4.98064">
        <ele>413</ele>
        <time>2022-04-14T08:08:49.420Z</time>
      </trkpt>
      <trkpt lat="47.37011" lon="4.98054">
        <ele>413</ele>
        <time>2022-04-14T08:08:54.429Z</time>
      </trkpt>
      <trkpt lat="47.37012" lon="4.98047">
        <ele>413</ele>
        <time>2022-04-14T08:08:58.448Z</time>
      </trkpt>
      <trkpt lat="47.37013" lon="4.98038">
        <ele>415</ele>
        <time>2022-04-14T08:09:03.425Z</time>
      </trkpt>
      <trkpt lat="47.37015" lon="4.98029">
        <ele>413</ele>
        <time>2022-04-14T08:09:08.437Z</time>
      </trkpt>
      <trkpt lat="47.37016" lon="4.98021">
        <ele>413</ele>
        <time>2022-04-14T08:09:12.488Z</time>
      </trkpt>
      <trkpt lat="47.37018" lon="4.98011">
        <ele>414</ele>
        <time>2022-04-14T08:09:17.454Z</time>
      </trkpt>
      <trkpt lat="47.37019" lon="4.98003">
        <ele>414</ele>
        <time>2022-04-14T08:09:22.479Z</time>
      </trkpt>
      <trkpt lat="47.3702" lon="4.97995">
        <ele>414</ele>
        <time>2022-04-14T08:09:27.416Z</time>
      </trkpt>
      <trkpt lat="47.37021" lon="4.97987">
        <ele>414</ele>
        <time>2022-04-14T08:09:31.447Z</time>
      </trkpt>
      <trkpt lat="47.37023" lon="4.9798">
        <ele>413</ele>
        <time>2022-04-14T08:09:36.444Z</time>
      </trkpt>
      <trkpt lat="47.37025" lon="4.97971">
        <ele>413</ele>
        <time>2022-04-14T08:09:41.424Z</time>
      </trkpt>
      <trkpt lat="47.37026" lon="4.97963">
        <ele>413</ele>
        <time>2022-04-14T08:09:45.425Z</time>
      </trkpt>
      <trkpt lat="47.37028" lon="4.97953">
        <ele>412</ele>
        <time>2022-04-14T08:09:50.461Z</time>
      </trkpt>
      <trkpt lat="47.3703" lon="4.97945">
        <ele>412</ele>
        <time>2022-04-14T08:09:55.427Z</time>
      </trkpt>
      <trkpt lat="47.37031" lon="4.97936">
        <ele>412</ele>
        <time>2022-04-14T08:10:00.427Z</time>
      </trkpt>
      <trkpt lat="47.37032" lon="4.9793">
        <ele>412</ele>
        <time>2022-04-14T08:10:04.495Z</time>
      </trkpt>
      <trkpt lat="47.37034" lon="4.9792">
        <ele>412</ele>
        <time>2022-04-14T08:10:09.410Z</time>
      </trkpt>
      <trkpt lat="47.37036" lon="4.97911">
        <ele>412</ele>
        <time>2022-04-14T08:10:14.440Z</time>
      </trkpt>
      <trkpt lat="47.37036" lon="4.97904">
        <ele>412</ele>
        <time>2022-04-14T08:10:18.480Z</time>
      </trkpt>
      <trkpt lat="47.37037" lon="4.97897">
        <ele>413</ele>
        <time>2022-04-14T08:10:23.417Z</time>
      </trkpt>
      <trkpt lat="47.37039" lon="4.97889">
        <ele>413</ele>
        <time>2022-04-14T08:10:27.434Z</time>
      </trkpt>
      <trkpt lat="47.37039" lon="4.97881">
        <ele>413</ele>
        <time>2022-04-14T08:10:32.456Z</time>
      </trkpt>
      <trkpt lat="47.3704" lon="4.97873">
        <ele>414</ele>
        <time>2022-04-14T08:10:37.438Z</time>
      </trkpt>
      <trkpt lat="47.37042" lon="4.97863">
        <ele>412</ele>
        <time>2022-04-14T08:10:42.455Z</time>
      </trkpt>
      <trkpt lat="47.37043" lon="4.97854">
        <ele>412</ele>
        <time>2022-04-14T08:10:47.430Z</time>
      </trkpt>
      <trkpt lat="47.37046" lon="4.97844">
        <ele>411</ele>
        <time>2022-04-14T08:10:52.462Z</time>
      </trkpt>
      <trkpt lat="47.37048" lon="4.97834">
        <ele>411</ele>
        <time>2022-04-14T08:10:57.430Z</time>
      </trkpt>
      <trkpt lat="47.37049" lon="4.97827">
        <ele>411</ele>
        <time>2022-04-14T08:11:02.449Z</time>
      </trkpt>
      <trkpt lat="47.3705" lon="4.97818">
        <ele>411</ele>
        <time>2022-04-14T08:11:07.429Z</time>
      </trkpt>
      <trkpt lat="47.37052" lon="4.97809">
        <ele>411</ele>
        <time>2022-04-14T08:11:12.413Z</time>
      </trkpt>
      <trkpt lat="47.37053" lon="4.97803">
        <ele>411</ele>
        <time>2022-04-14T08:11:16.446Z</time>
      </trkpt>
      <trkpt lat="47.37053" lon="4.97793">
        <ele>411</ele>
        <time>2022-04-14T08:11:21.433Z</time>
      </trkpt>
      <trkpt lat="47.37054" lon="4.97786">
        <ele>412</ele>
        <time>2022-04-14T08:11:25.428Z</time>
      </trkpt>
      <trkpt lat="47.37053" lon="4.97775">
        <ele>412</ele>
        <time>2022-04-14T08:11:30.441Z</time>
      </trkpt>
      <trkpt lat="47.37053" lon="4.97768">
        <ele>412</ele>
        <time>2022-04-14T08:11:35.433Z</time>
      </trkpt>
      <trkpt lat="47.37053" lon="4.97759">
        <ele>414</ele>
        <time>2022-04-14T08:11:40.444Z</time>
      </trkpt>
      <trkpt lat="47.37052" lon="4.97752">
        <ele>414</ele>
        <time>2022-04-14T08:11:45.428Z</time>
      </trkpt>
      <trkpt lat="47.37051" lon="4.97745">
        <ele>414</ele>
        <time>2022-04-14T08:11:50.428Z</time>
      </trkpt>
      <trkpt lat="47.3705" lon="4.97738">
        <ele>414</ele>
        <time>2022-04-14T08:11:54.457Z</time>
      </trkpt>
      <trkpt lat="47.37049" lon="4.9773">
        <ele>415</ele>
        <time>2022-04-14T08:11:59.438Z</time>
      </trkpt>
      <trkpt lat="47.37049" lon="4.97722">
        <ele>415</ele>
        <time>2022-04-14T08:12:04.437Z</time>
      </trkpt>
      <trkpt lat="47.37047" lon="4.97713">
        <ele>415</ele>
        <time>2022-04-14T08:12:09.440Z</time>
      </trkpt>
      <trkpt lat="47.37047" lon="4.97705">
        <ele>416</ele>
        <time>2022-04-14T08:12:14.452Z</time>
      </trkpt>
      <trkpt lat="47.37045" lon="4.97696">
        <ele>416</ele>
        <time>2022-04-14T08:12:19.424Z</time>
      </trkpt>
      <trkpt lat="47.37043" lon="4.97687">
        <ele>416</ele>
        <time>2022-04-14T08:12:24.437Z</time>
      </trkpt>
      <trkpt lat="47.37043" lon="4.97678">
        <ele>416</ele>
        <time>2022-04-14T08:12:29.443Z</time>
      </trkpt>
      <trkpt lat="47.37042" lon="4.9767">
        <ele>416</ele>
        <time>2022-04-14T08:12:34.425Z</time>
      </trkpt>
      <trkpt lat="47.37043" lon="4.97663">
        <ele>416</ele>
        <time>2022-04-14T08:12:38.467Z</time>
      </trkpt>
      <trkpt lat="47.37041" lon="4.97652">
        <ele>416</ele>
        <time>2022-04-14T08:12:43.411Z</time>
      </trkpt>
      <trkpt lat="47.37041" lon="4.97645">
        <ele>416</ele>
        <time>2022-04-14T08:12:47.433Z</time>
      </trkpt>
      <trkpt lat="47.3704" lon="4.97637">
        <ele>416</ele>
        <time>2022-04-14T08:12:52.466Z</time>
      </trkpt>
      <trkpt lat="47.37039" lon="4.97628">
        <ele>416</ele>
        <time>2022-04-14T08:12:57.423Z</time>
      </trkpt>
      <trkpt lat="47.37039" lon="4.97618">
        <ele>418</ele>
        <time>2022-04-14T08:13:02.466Z</time>
      </trkpt>
      <trkpt lat="47.37037" lon="4.97609">
        <ele>418</ele>
        <time>2022-04-14T08:13:07.399Z</time>
      </trkpt>
      <trkpt lat="47.37037" lon="4.97602">
        <ele>418</ele>
        <time>2022-04-14T08:13:11.449Z</time>
      </trkpt>
      <trkpt lat="47.37034" lon="4.97594">
        <ele>419</ele>
        <time>2022-04-14T08:13:16.455Z</time>
      </trkpt>
      <trkpt lat="47.37033" lon="4.97588">
        <ele>419</ele>
        <time>2022-04-14T08:13:20.476Z</time>
      </trkpt>
      <trkpt lat="47.37032" lon="4.97581">
        <ele>419</ele>
        <time>2022-04-14T08:13:25.444Z</time>
      </trkpt>
      <trkpt lat="47.37031" lon="4.97573">
        <ele>419</ele>
        <time>2022-04-14T08:13:30.457Z</time>
      </trkpt>
      <trkpt lat="47.37029" lon="4.97567">
        <ele>420</ele>
        <time>2022-04-14T08:13:34.457Z</time>
      </trkpt>
      <trkpt lat="47.37027" lon="4.97558">
        <ele>420</ele>
        <time>2022-04-14T08:13:39.424Z</time>
      </trkpt>
      <trkpt lat="47.37026" lon="4.97551">
        <ele>420</ele>
        <time>2022-04-14T08:13:43.460Z</time>
      </trkpt>
      <trkpt lat="47.37025" lon="4.97543">
        <ele>420</ele>
        <time>2022-04-14T08:13:48.443Z</time>
      </trkpt>
      <trkpt lat="47.37022" lon="4.97537">
        <ele>421</ele>
        <time>2022-04-14T08:13:53.439Z</time>
      </trkpt>
      <trkpt lat="47.37021" lon="4.97529">
        <ele>421</ele>
        <time>2022-04-14T08:13:58.442Z</time>
      </trkpt>
      <trkpt lat="47.37019" lon="4.97521">
        <ele>421</ele>
        <time>2022-04-14T08:14:03.450Z</time>
      </trkpt>
      <trkpt lat="47.37018" lon="4.97513">
        <ele>421</ele>
        <time>2022-04-14T08:14:08.498Z</time>
      </trkpt>
      <trkpt lat="47.37015" lon="4.97504">
        <ele>421</ele>
        <time>2022-04-14T08:14:13.387Z</time>
      </trkpt>
      <trkpt lat="47.37015" lon="4.97497">
        <ele>421</ele>
        <time>2022-04-14T08:14:17.450Z</time>
      </trkpt>
      <trkpt lat="47.37014" lon="4.97488">
        <ele>421</ele>
        <time>2022-04-14T08:14:22.465Z</time>
      </trkpt>
      <trkpt lat="47.37015" lon="4.97481">
        <ele>419</ele>
        <time>2022-04-14T08:14:27.443Z</time>
      </trkpt>
      <trkpt lat="47.37015" lon="4.97481">
        <ele>419</ele>
        <time>2022-04-14T08:15:00.402Z</time>
      </trkpt>
      <trkpt lat="47.37013" lon="4.97476">
        <ele>421</ele>
        <time>2022-04-14T08:15:18.418Z</time>
      </trkpt>
      <trkpt lat="47.37013" lon="4.9747">
        <ele>421</ele>
        <time>2022-04-14T08:15:23.436Z</time>
      </trkpt>
      <trkpt lat="47.37013" lon="4.9747">
        <ele>421</ele>
        <time>2022-04-14T08:15:27.449Z</time>
      </trkpt>
      <trkpt lat="47.37012" lon="4.97465">
        <ele>421</ele>
        <time>2022-04-14T08:15:42.415Z</time>
      </trkpt>
      <trkpt lat="47.37011" lon="4.97458">
        <ele>421</ele>
        <time>2022-04-14T08:15:47.398Z</time>
      </trkpt>
      <trkpt lat="47.37011" lon="4.97452">
        <ele>421</ele>
        <time>2022-04-14T08:15:51.394Z</time>
      </trkpt>
      <trkpt lat="47.37011" lon="4.97445">
        <ele>421</ele>
        <time>2022-04-14T08:15:56.448Z</time>
      </trkpt>
      <trkpt lat="47.3701" lon="4.97436">
        <ele>421</ele>
        <time>2022-04-14T08:16:01.423Z</time>
      </trkpt>
      <trkpt lat="47.3701" lon="4.97427">
        <ele>421</ele>
        <time>2022-04-14T08:16:06.383Z</time>
      </trkpt>
      <trkpt lat="47.3701" lon="4.97418">
        <ele>421</ele>
        <time>2022-04-14T08:16:11.414Z</time>
      </trkpt>
      <trkpt lat="47.37008" lon="4.9741">
        <ele>421</ele>
        <time>2022-04-14T08:16:16.389Z</time>
      </trkpt>
      <trkpt lat="47.37007" lon="4.97403">
        <ele>421</ele>
        <time>2022-04-14T08:16:20.420Z</time>
      </trkpt>
      <trkpt lat="47.37005" lon="4.97393">
        <ele>421</ele>
        <time>2022-04-14T08:16:25.420Z</time>
      </trkpt>
      <trkpt lat="47.37003" lon="4.97386">
        <ele>421</ele>
        <time>2022-04-14T08:16:29.471Z</time>
      </trkpt>
      <trkpt lat="47.37002" lon="4.97376">
        <ele>421</ele>
        <time>2022-04-14T08:16:34.438Z</time>
      </trkpt>
      <trkpt lat="47.37" lon="4.97367">
        <ele>421</ele>
        <time>2022-04-14T08:16:39.448Z</time>
      </trkpt>
      <trkpt lat="47.36996" lon="4.97358">
        <ele>421</ele>
        <time>2022-04-14T08:16:44.482Z</time>
      </trkpt>
      <trkpt lat="47.36993" lon="4.9735">
        <ele>421</ele>
        <time>2022-04-14T08:16:49.464Z</time>
      </trkpt>
      <trkpt lat="47.3699" lon="4.9734">
        <ele>422</ele>
        <time>2022-04-14T08:16:54.433Z</time>
      </trkpt>
      <trkpt lat="47.36987" lon="4.97332">
        <ele>422</ele>
        <time>2022-04-14T08:16:59.464Z</time>
      </trkpt>
      <trkpt lat="47.36984" lon="4.97325">
        <ele>423</ele>
        <time>2022-04-14T08:17:04.409Z</time>
      </trkpt>
      <trkpt lat="47.36981" lon="4.97317">
        <ele>424</ele>
        <time>2022-04-14T08:17:09.391Z</time>
      </trkpt>
      <trkpt lat="47.36978" lon="4.97309">
        <ele>424</ele>
        <time>2022-04-14T08:17:14.393Z</time>
      </trkpt>
      <trkpt lat="47.36975" lon="4.97303">
        <ele>424</ele>
        <time>2022-04-14T08:17:18.473Z</time>
      </trkpt>
      <trkpt lat="47.36971" lon="4.97296">
        <ele>424</ele>
        <time>2022-04-14T08:17:23.433Z</time>
      </trkpt>
      <trkpt lat="47.36966" lon="4.97287">
        <ele>423</ele>
        <time>2022-04-14T08:17:28.405Z</time>
      </trkpt>
      <trkpt lat="47.36961" lon="4.97281">
        <ele>423</ele>
        <time>2022-04-14T08:17:33.449Z</time>
      </trkpt>
      <trkpt lat="47.36957" lon="4.97272">
        <ele>427</ele>
        <time>2022-04-14T08:17:38.485Z</time>
      </trkpt>
      <trkpt lat="47.36955" lon="4.97265">
        <ele>427</ele>
        <time>2022-04-14T08:17:43.444Z</time>
      </trkpt>
      <trkpt lat="47.36953" lon="4.97257">
        <ele>427</ele>
        <time>2022-04-14T08:17:47.460Z</time>
      </trkpt>
      <trkpt lat="47.3695" lon="4.97248">
        <ele>427</ele>
        <time>2022-04-14T08:17:52.386Z</time>
      </trkpt>
      <trkpt lat="47.36949" lon="4.9724">
        <ele>427</ele>
        <time>2022-04-14T08:17:56.424Z</time>
      </trkpt>
      <trkpt lat="47.36946" lon="4.97235">
        <ele>425</ele>
        <time>2022-04-14T08:18:00.475Z</time>
      </trkpt>
      <trkpt lat="47.36942" lon="4.97226">
        <ele>425</ele>
        <time>2022-04-14T08:18:05.427Z</time>
      </trkpt>
      <trkpt lat="47.3694" lon="4.97217">
        <ele>425</ele>
        <time>2022-04-14T08:18:09.453Z</time>
      </trkpt>
      <trkpt lat="47.36936" lon="4.97211">
        <ele>425</ele>
        <time>2022-04-14T08:18:13.463Z</time>
      </trkpt>
      <trkpt lat="47.36934" lon="4.97203">
        <ele>424</ele>
        <time>2022-04-14T08:18:18.450Z</time>
      </trkpt>
      <trkpt lat="47.36931" lon="4.97193">
        <ele>424</ele>
        <time>2022-04-14T08:18:23.441Z</time>
      </trkpt>
      <trkpt lat="47.36931" lon="4.97184">
        <ele>424</ele>
        <time>2022-04-14T08:18:28.391Z</time>
      </trkpt>
      <trkpt lat="47.3693" lon="4.97174">
        <ele>425</ele>
        <time>2022-04-14T08:18:33.414Z</time>
      </trkpt>
      <trkpt lat="47.36929" lon="4.97164">
        <ele>425</ele>
        <time>2022-04-14T08:18:38.427Z</time>
      </trkpt>
      <trkpt lat="47.36929" lon="4.97154">
        <ele>425</ele>
        <time>2022-04-14T08:18:43.447Z</time>
      </trkpt>
      <trkpt lat="47.36928" lon="4.97144">
        <ele>425</ele>
        <time>2022-04-14T08:18:48.469Z</time>
      </trkpt>
      <trkpt lat="47.36929" lon="4.97135">
        <ele>425</ele>
        <time>2022-04-14T08:18:53.453Z</time>
      </trkpt>
      <trkpt lat="47.36929" lon="4.97125">
        <ele>424</ele>
        <time>2022-04-14T08:18:58.446Z</time>
      </trkpt>
      <trkpt lat="47.3693" lon="4.97116">
        <ele>424</ele>
        <time>2022-04-14T08:19:02.473Z</time>
      </trkpt>
      <trkpt lat="47.36932" lon="4.97106">
        <ele>421</ele>
        <time>2022-04-14T08:19:07.399Z</time>
      </trkpt>
      <trkpt lat="47.36933" lon="4.97097">
        <ele>421</ele>
        <time>2022-04-14T08:19:12.393Z</time>
      </trkpt>
      <trkpt lat="47.36934" lon="4.97088">
        <ele>420</ele>
        <time>2022-04-14T08:19:17.391Z</time>
      </trkpt>
      <trkpt lat="47.36937" lon="4.97079">
        <ele>420</ele>
        <time>2022-04-14T08:19:22.380Z</time>
      </trkpt>
      <trkpt lat="47.36939" lon="4.97071">
        <ele>420</ele>
        <time>2022-04-14T08:19:26.454Z</time>
      </trkpt>
      <trkpt lat="47.36943" lon="4.97062">
        <ele>420</ele>
        <time>2022-04-14T08:19:31.456Z</time>
      </trkpt>
      <trkpt lat="47.36945" lon="4.97053">
        <ele>420</ele>
        <time>2022-04-14T08:19:36.417Z</time>
      </trkpt>
      <trkpt lat="47.36948" lon="4.97044">
        <ele>420</ele>
        <time>2022-04-14T08:19:41.462Z</time>
      </trkpt>
      <trkpt lat="47.3695" lon="4.97037">
        <ele>421</ele>
        <time>2022-04-14T08:19:45.493Z</time>
      </trkpt>
      <trkpt lat="47.36953" lon="4.97028">
        <ele>421</ele>
        <time>2022-04-14T08:19:50.461Z</time>
      </trkpt>
      <trkpt lat="47.36956" lon="4.97019">
        <ele>421</ele>
        <time>2022-04-14T08:19:55.407Z</time>
      </trkpt>
      <trkpt lat="47.36958" lon="4.97011">
        <ele>421</ele>
        <time>2022-04-14T08:19:59.425Z</time>
      </trkpt>
      <trkpt lat="47.36961" lon="4.97003">
        <ele>419</ele>
        <time>2022-04-14T08:20:04.436Z</time>
      </trkpt>
      <trkpt lat="47.36963" lon="4.96994">
        <ele>419</ele>
        <time>2022-04-14T08:20:09.383Z</time>
      </trkpt>
      <trkpt lat="47.36966" lon="4.96984">
        <ele>420</ele>
        <time>2022-04-14T08:20:14.404Z</time>
      </trkpt>
      <trkpt lat="47.36969" lon="4.96975">
        <ele>420</ele>
        <time>2022-04-14T08:20:19.460Z</time>
      </trkpt>
      <trkpt lat="47.36971" lon="4.96967">
        <ele>420</ele>
        <time>2022-04-14T08:20:24.426Z</time>
      </trkpt>
      <trkpt lat="47.36975" lon="4.96958">
        <ele>421</ele>
        <time>2022-04-14T08:20:29.424Z</time>
      </trkpt>
      <trkpt lat="47.36977" lon="4.96951">
        <ele>421</ele>
        <time>2022-04-14T08:20:33.502Z</time>
      </trkpt>
      <trkpt lat="47.36981" lon="4.96941">
        <ele>421</ele>
        <time>2022-04-14T08:20:38.467Z</time>
      </trkpt>
      <trkpt lat="47.36984" lon="4.96931">
        <ele>421</ele>
        <time>2022-04-14T08:20:43.429Z</time>
      </trkpt>
      <trkpt lat="47.36987" lon="4.96922">
        <ele>421</ele>
        <time>2022-04-14T08:20:48.405Z</time>
      </trkpt>
      <trkpt lat="47.36991" lon="4.96915">
        <ele>421</ele>
        <time>2022-04-14T08:20:52.426Z</time>
      </trkpt>
      <trkpt lat="47.36994" lon="4.96908">
        <ele>421</ele>
        <time>2022-04-14T08:20:57.405Z</time>
      </trkpt>
      <trkpt lat="47.36996" lon="4.96901">
        <ele>422</ele>
        <time>2022-04-14T08:21:02.403Z</time>
      </trkpt>
      <trkpt lat="47.36999" lon="4.96895">
        <ele>422</ele>
        <time>2022-04-14T08:21:06.432Z</time>
      </trkpt>
      <trkpt lat="47.37001" lon="4.96889">
        <ele>422</ele>
        <time>2022-04-14T08:21:10.470Z</time>
      </trkpt>
      <trkpt lat="47.37003" lon="4.9688">
        <ele>422</ele>
        <time>2022-04-14T08:21:15.468Z</time>
      </trkpt>
      <trkpt lat="47.37004" lon="4.96877">
        <ele>422</ele>
        <time>2022-04-14T08:21:20.466Z</time>
      </trkpt>
      <trkpt lat="47.37009" lon="4.96881">
        <ele>422</ele>
        <time>2022-04-14T08:21:25.495Z</time>
      </trkpt>
      <trkpt lat="47.37009" lon="4.9688">
        <ele>422</ele>
        <time>2022-04-14T08:21:30.444Z</time>
      </trkpt>
      <trkpt lat="47.37009" lon="4.96876">
        <ele>422</ele>
        <time>2022-04-14T08:22:47.474Z</time>
      </trkpt>
      <trkpt lat="47.37008" lon="4.96869">
        <ele>422</ele>
        <time>2022-04-14T08:22:52.403Z</time>
      </trkpt>
      <trkpt lat="47.37006" lon="4.96865">
        <ele>422</ele>
        <time>2022-04-14T08:22:56.426Z</time>
      </trkpt>
      <trkpt lat="47.37004" lon="4.96862">
        <ele>422</ele>
        <time>2022-04-14T08:25:24.416Z</time>
      </trkpt>
      <trkpt lat="47.37004" lon="4.9686">
        <ele>422</ele>
        <time>2022-04-14T08:25:29.405Z</time>
      </trkpt>
      <trkpt lat="47.37006" lon="4.96856">
        <ele>422</ele>
        <time>2022-04-14T08:25:33.463Z</time>
      </trkpt>
      <trkpt lat="47.37007" lon="4.96848">
        <ele>422</ele>
        <time>2022-04-14T08:25:38.400Z</time>
      </trkpt>
      <trkpt lat="47.37009" lon="4.96843">
        <ele>422</ele>
        <time>2022-04-14T08:25:42.473Z</time>
      </trkpt>
      <trkpt lat="47.37011" lon="4.96835">
        <ele>422</ele>
        <time>2022-04-14T08:25:47.473Z</time>
      </trkpt>
      <trkpt lat="47.37011" lon="4.96828">
        <ele>422</ele>
        <time>2022-04-14T08:25:52.460Z</time>
      </trkpt>
      <trkpt lat="47.37013" lon="4.96823">
        <ele>422</ele>
        <time>2022-04-14T08:25:57.514Z</time>
      </trkpt>
      <trkpt lat="47.37015" lon="4.96817">
        <ele>420</ele>
        <time>2022-04-14T08:26:02.492Z</time>
      </trkpt>
      <trkpt lat="47.37021" lon="4.96814">
        <ele>420</ele>
        <time>2022-04-14T08:26:07.466Z</time>
      </trkpt>
      <trkpt lat="47.37027" lon="4.96814">
        <ele>420</ele>
        <time>2022-04-14T08:26:12.444Z</time>
      </trkpt>
      <trkpt lat="47.37031" lon="4.96814">
        <ele>420</ele>
        <time>2022-04-14T08:26:17.448Z</time>
      </trkpt>
      <trkpt lat="47.37035" lon="4.96814">
        <ele>420</ele>
        <time>2022-04-14T08:26:21.501Z</time>
      </trkpt>
      <trkpt lat="47.37041" lon="4.9681">
        <ele>420</ele>
        <time>2022-04-14T08:26:26.438Z</time>
      </trkpt>
      <trkpt lat="47.37047" lon="4.96805">
        <ele>418</ele>
        <time>2022-04-14T08:26:30.474Z</time>
      </trkpt>
      <trkpt lat="47.37051" lon="4.96799">
        <ele>418</ele>
        <time>2022-04-14T08:26:35.414Z</time>
      </trkpt>
      <trkpt lat="47.37056" lon="4.96796">
        <ele>418</ele>
        <time>2022-04-14T08:26:39.455Z</time>
      </trkpt>
      <trkpt lat="47.3706" lon="4.96794">
        <ele>418</ele>
        <time>2022-04-14T08:26:44.439Z</time>
      </trkpt>
      <trkpt lat="47.37064" lon="4.96789">
        <ele>417</ele>
        <time>2022-04-14T08:26:48.465Z</time>
      </trkpt>
      <trkpt lat="47.37069" lon="4.96786">
        <ele>417</ele>
        <time>2022-04-14T08:26:53.466Z</time>
      </trkpt>
      <trkpt lat="47.37075" lon="4.96786">
        <ele>415</ele>
        <time>2022-04-14T08:26:58.482Z</time>
      </trkpt>
      <trkpt lat="47.37081" lon="4.9679">
        <ele>415</ele>
        <time>2022-04-14T08:27:03.482Z</time>
      </trkpt>
      <trkpt lat="47.37087" lon="4.96795">
        <ele>416</ele>
        <time>2022-04-14T08:27:08.403Z</time>
      </trkpt>
      <trkpt lat="47.37089" lon="4.96796">
        <ele>416</ele>
        <time>2022-04-14T08:27:12.460Z</time>
      </trkpt>
      <trkpt lat="47.37093" lon="4.96795">
        <ele>416</ele>
        <time>2022-04-14T08:27:17.433Z</time>
      </trkpt>
      <trkpt lat="47.37096" lon="4.96794">
        <ele>416</ele>
        <time>2022-04-14T08:27:22.449Z</time>
      </trkpt>
      <trkpt lat="47.37101" lon="4.96797">
        <ele>416</ele>
        <time>2022-04-14T08:27:27.429Z</time>
      </trkpt>
      <trkpt lat="47.37103" lon="4.96792">
        <ele>416</ele>
        <time>2022-04-14T08:27:32.399Z</time>
      </trkpt>
      <trkpt lat="47.37106" lon="4.96786">
        <ele>414</ele>
        <time>2022-04-14T08:27:37.416Z</time>
      </trkpt>
      <trkpt lat="47.37109" lon="4.96781">
        <ele>414</ele>
        <time>2022-04-14T08:27:42.437Z</time>
      </trkpt>
      <trkpt lat="47.37114" lon="4.96773">
        <ele>414</ele>
        <time>2022-04-14T08:27:47.464Z</time>
      </trkpt>
      <trkpt lat="47.37116" lon="4.96767">
        <ele>414</ele>
        <time>2022-04-14T08:27:52.472Z</time>
      </trkpt>
      <trkpt lat="47.37122" lon="4.96759">
        <ele>412</ele>
        <time>2022-04-14T08:27:57.480Z</time>
      </trkpt>
      <trkpt lat="47.37129" lon="4.96753">
        <ele>412</ele>
        <time>2022-04-14T08:28:02.505Z</time>
      </trkpt>
      <trkpt lat="47.37134" lon="4.96747">
        <ele>412</ele>
        <time>2022-04-14T08:28:07.451Z</time>
      </trkpt>
      <trkpt lat="47.37137" lon="4.96743">
        <ele>412</ele>
        <time>2022-04-14T08:28:12.393Z</time>
      </trkpt>
      <trkpt lat="47.37141" lon="4.96737">
        <ele>412</ele>
        <time>2022-04-14T08:28:17.414Z</time>
      </trkpt>
      <trkpt lat="47.37148" lon="4.96731">
        <ele>412</ele>
        <time>2022-04-14T08:28:22.490Z</time>
      </trkpt>
      <trkpt lat="47.37155" lon="4.96725">
        <ele>412</ele>
        <time>2022-04-14T08:28:27.475Z</time>
      </trkpt>
      <trkpt lat="47.37161" lon="4.9672">
        <ele>412</ele>
        <time>2022-04-14T08:28:32.426Z</time>
      </trkpt>
      <trkpt lat="47.37166" lon="4.96717">
        <ele>412</ele>
        <time>2022-04-14T08:28:37.457Z</time>
      </trkpt>
      <trkpt lat="47.37173" lon="4.96716">
        <ele>412</ele>
        <time>2022-04-14T08:28:42.432Z</time>
      </trkpt>
      <trkpt lat="47.37176" lon="4.96714">
        <ele>412</ele>
        <time>2022-04-14T08:28:47.460Z</time>
      </trkpt>
      <trkpt lat="47.3718" lon="4.96714">
        <ele>412</ele>
        <time>2022-04-14T08:28:51.486Z</time>
      </trkpt>
      <trkpt lat="47.37185" lon="4.96713">
        <ele>412</ele>
        <time>2022-04-14T08:28:56.455Z</time>
      </trkpt>
      <trkpt lat="47.37191" lon="4.96712">
        <ele>412</ele>
        <time>2022-04-14T08:29:01.381Z</time>
      </trkpt>
      <trkpt lat="47.37197" lon="4.9671">
        <ele>412</ele>
        <time>2022-04-14T08:29:06.389Z</time>
      </trkpt>
      <trkpt lat="47.37201" lon="4.96708">
        <ele>415</ele>
        <time>2022-04-14T08:29:10.413Z</time>
      </trkpt>
      <trkpt lat="47.37206" lon="4.96706">
        <ele>415</ele>
        <time>2022-04-14T08:29:15.397Z</time>
      </trkpt>
      <trkpt lat="47.37211" lon="4.96705">
        <ele>416</ele>
        <time>2022-04-14T08:29:20.409Z</time>
      </trkpt>
      <trkpt lat="47.37214" lon="4.96703">
        <ele>416</ele>
        <time>2022-04-14T08:29:24.465Z</time>
      </trkpt>
      <trkpt lat="47.37223" lon="4.96701">
        <ele>416</ele>
        <time>2022-04-14T08:29:29.446Z</time>
      </trkpt>
      <trkpt lat="47.37228" lon="4.96698">
        <ele>416</ele>
        <time>2022-04-14T08:29:33.494Z</time>
      </trkpt>
      <trkpt lat="47.37233" lon="4.96696">
        <ele>416</ele>
        <time>2022-04-14T08:29:38.432Z</time>
      </trkpt>
      <trkpt lat="47.37238" lon="4.96694">
        <ele>417</ele>
        <time>2022-04-14T08:29:42.470Z</time>
      </trkpt>
      <trkpt lat="47.37244" lon="4.96691">
        <ele>417</ele>
        <time>2022-04-14T08:29:47.482Z</time>
      </trkpt>
      <trkpt lat="47.3725" lon="4.96689">
        <ele>417</ele>
        <time>2022-04-14T08:29:52.476Z</time>
      </trkpt>
      <trkpt lat="47.37256" lon="4.96688">
        <ele>417</ele>
        <time>2022-04-14T08:29:57.438Z</time>
      </trkpt>
      <trkpt lat="47.37261" lon="4.96689">
        <ele>417</ele>
        <time>2022-04-14T08:30:02.500Z</time>
      </trkpt>
      <trkpt lat="47.37267" lon="4.9669">
        <ele>415</ele>
        <time>2022-04-14T08:30:07.468Z</time>
      </trkpt>
      <trkpt lat="47.37272" lon="4.96689">
        <ele>415</ele>
        <time>2022-04-14T08:30:12.485Z</time>
      </trkpt>
      <trkpt lat="47.37278" lon="4.96689">
        <ele>415</ele>
        <time>2022-04-14T08:30:17.438Z</time>
      </trkpt>
      <trkpt lat="47.37281" lon="4.96686">
        <ele>415</ele>
        <time>2022-04-14T08:30:21.455Z</time>
      </trkpt>
      <trkpt lat="47.37283" lon="4.96683">
        <ele>415</ele>
        <time>2022-04-14T08:30:26.422Z</time>
      </trkpt>
      <trkpt lat="47.37289" lon="4.96679">
        <ele>416</ele>
        <time>2022-04-14T08:30:30.476Z</time>
      </trkpt>
      <trkpt lat="47.37295" lon="4.96674">
        <ele>412</ele>
        <time>2022-04-14T08:30:35.505Z</time>
      </trkpt>
      <trkpt lat="47.373" lon="4.96668">
        <ele>412</ele>
        <time>2022-04-14T08:30:40.495Z</time>
      </trkpt>
      <trkpt lat="47.37306" lon="4.96663">
        <ele>412</ele>
        <time>2022-04-14T08:30:45.460Z</time>
      </trkpt>
      <trkpt lat="47.3731" lon="4.96659">
        <ele>412</ele>
        <time>2022-04-14T08:30:49.474Z</time>
      </trkpt>
      <trkpt lat="47.37315" lon="4.96655">
        <ele>412</ele>
        <time>2022-04-14T08:30:54.486Z</time>
      </trkpt>
      <trkpt lat="47.37317" lon="4.96654">
        <ele>412</ele>
        <time>2022-04-14T08:30:58.498Z</time>
      </trkpt>
      <trkpt lat="47.37322" lon="4.96656">
        <ele>408</ele>
        <time>2022-04-14T08:31:03.446Z</time>
      </trkpt>
      <trkpt lat="47.37327" lon="4.96652">
        <ele>411</ele>
        <time>2022-04-14T08:31:07.466Z</time>
      </trkpt>
      <trkpt lat="47.37333" lon="4.96644">
        <ele>411</ele>
        <time>2022-04-14T08:31:12.486Z</time>
      </trkpt>
      <trkpt lat="47.37338" lon="4.96636">
        <ele>411</ele>
        <time>2022-04-14T08:31:17.458Z</time>
      </trkpt>
      <trkpt lat="47.37341" lon="4.96629">
        <ele>411</ele>
        <time>2022-04-14T08:31:21.467Z</time>
      </trkpt>
      <trkpt lat="47.37345" lon="4.96622">
        <ele>413</ele>
        <time>2022-04-14T08:31:26.407Z</time>
      </trkpt>
      <trkpt lat="47.37347" lon="4.96615">
        <ele>413</ele>
        <time>2022-04-14T08:31:30.473Z</time>
      </trkpt>
      <trkpt lat="47.37348" lon="4.96607">
        <ele>412</ele>
        <time>2022-04-14T08:31:35.451Z</time>
      </trkpt>
      <trkpt lat="47.3735" lon="4.966">
        <ele>412</ele>
        <time>2022-04-14T08:31:40.491Z</time>
      </trkpt>
      <trkpt lat="47.37351" lon="4.96593">
        <ele>413</ele>
        <time>2022-04-14T08:31:45.467Z</time>
      </trkpt>
      <trkpt lat="47.37354" lon="4.96591">
        <ele>413</ele>
        <time>2022-04-14T08:31:50.444Z</time>
      </trkpt>
      <trkpt lat="47.37358" lon="4.96591">
        <ele>413</ele>
        <time>2022-04-14T08:31:54.492Z</time>
      </trkpt>
      <trkpt lat="47.37362" lon="4.96594">
        <ele>413</ele>
        <time>2022-04-14T08:31:59.485Z</time>
      </trkpt>
      <trkpt lat="47.37366" lon="4.96599">
        <ele>412</ele>
        <time>2022-04-14T08:32:04.499Z</time>
      </trkpt>
      <trkpt lat="47.37371" lon="4.96603">
        <ele>412</ele>
        <time>2022-04-14T08:32:09.475Z</time>
      </trkpt>
      <trkpt lat="47.37376" lon="4.96605">
        <ele>413</ele>
        <time>2022-04-14T08:32:14.490Z</time>
      </trkpt>
      <trkpt lat="47.3738" lon="4.96607">
        <ele>413</ele>
        <time>2022-04-14T08:32:19.470Z</time>
      </trkpt>
      <trkpt lat="47.37386" lon="4.96609">
        <ele>413</ele>
        <time>2022-04-14T08:32:24.484Z</time>
      </trkpt>
      <trkpt lat="47.37393" lon="4.96613">
        <ele>413</ele>
        <time>2022-04-14T08:32:29.459Z</time>
      </trkpt>
      <trkpt lat="47.37398" lon="4.96616">
        <ele>413</ele>
        <time>2022-04-14T08:32:33.487Z</time>
      </trkpt>
      <trkpt lat="47.37404" lon="4.96618">
        <ele>416</ele>
        <time>2022-04-14T08:32:38.489Z</time>
      </trkpt>
      <trkpt lat="47.37409" lon="4.96624">
        <ele>416</ele>
        <time>2022-04-14T08:32:43.471Z</time>
      </trkpt>
      <trkpt lat="47.37414" lon="4.96627">
        <ele>414</ele>
        <time>2022-04-14T08:32:48.476Z</time>
      </trkpt>
      <trkpt lat="47.37419" lon="4.96627">
        <ele>414</ele>
        <time>2022-04-14T08:32:53.469Z</time>
      </trkpt>
      <trkpt lat="47.37424" lon="4.9663">
        <ele>414</ele>
        <time>2022-04-14T08:32:57.460Z</time>
      </trkpt>
      <trkpt lat="47.37428" lon="4.96633">
        <ele>414</ele>
        <time>2022-04-14T08:33:02.447Z</time>
      </trkpt>
      <trkpt lat="47.37434" lon="4.96636">
        <ele>417</ele>
        <time>2022-04-14T08:33:07.475Z</time>
      </trkpt>
      <trkpt lat="47.37442" lon="4.96637">
        <ele>417</ele>
        <time>2022-04-14T08:33:12.523Z</time>
      </trkpt>
      <trkpt lat="47.37448" lon="4.96641">
        <ele>417</ele>
        <time>2022-04-14T08:33:17.500Z</time>
      </trkpt>
      <trkpt lat="47.37452" lon="4.96645">
        <ele>417</ele>
        <time>2022-04-14T08:33:22.431Z</time>
      </trkpt>
      <trkpt lat="47.37457" lon="4.96649">
        <ele>417</ele>
        <time>2022-04-14T08:33:27.494Z</time>
      </trkpt>
      <trkpt lat="47.37463" lon="4.96651">
        <ele>419</ele>
        <time>2022-04-14T08:33:32.514Z</time>
      </trkpt>
      <trkpt lat="47.3747" lon="4.96654">
        <ele>417</ele>
        <time>2022-04-14T08:33:37.497Z</time>
      </trkpt>
      <trkpt lat="47.37476" lon="4.96657">
        <ele>417</ele>
        <time>2022-04-14T08:33:42.484Z</time>
      </trkpt>
      <trkpt lat="47.37482" lon="4.9666">
        <ele>417</ele>
        <time>2022-04-14T08:33:47.446Z</time>
      </trkpt>
      <trkpt lat="47.37489" lon="4.96662">
        <ele>418</ele>
        <time>2022-04-14T08:33:52.434Z</time>
      </trkpt>
      <trkpt lat="47.37494" lon="4.96665">
        <ele>418</ele>
        <time>2022-04-14T08:33:57.449Z</time>
      </trkpt>
      <trkpt lat="47.375" lon="4.96668">
        <ele>418</ele>
        <time>2022-04-14T08:34:02.410Z</time>
      </trkpt>
      <trkpt lat="47.37505" lon="4.9667">
        <ele>418</ele>
        <time>2022-04-14T08:34:06.433Z</time>
      </trkpt>
      <trkpt lat="47.3751" lon="4.96672">
        <ele>418</ele>
        <time>2022-04-14T08:34:10.467Z</time>
      </trkpt>
      <trkpt lat="47.37515" lon="4.96673">
        <ele>419</ele>
        <time>2022-04-14T08:34:15.456Z</time>
      </trkpt>
      <trkpt lat="47.3752" lon="4.96676">
        <ele>419</ele>
        <time>2022-04-14T08:34:20.487Z</time>
      </trkpt>
      <trkpt lat="47.37526" lon="4.96679">
        <ele>419</ele>
        <time>2022-04-14T08:34:25.446Z</time>
      </trkpt>
      <trkpt lat="47.37531" lon="4.96682">
        <ele>417</ele>
        <time>2022-04-14T08:34:29.506Z</time>
      </trkpt>
      <trkpt lat="47.37536" lon="4.96686">
        <ele>417</ele>
        <time>2022-04-14T08:34:34.486Z</time>
      </trkpt>
      <trkpt lat="47.37543" lon="4.96689">
        <ele>419</ele>
        <time>2022-04-14T08:34:39.504Z</time>
      </trkpt>
      <trkpt lat="47.3755" lon="4.96688">
        <ele>419</ele>
        <time>2022-04-14T08:34:44.429Z</time>
      </trkpt>
      <trkpt lat="47.37555" lon="4.96689">
        <ele>419</ele>
        <time>2022-04-14T08:34:48.474Z</time>
      </trkpt>
      <trkpt lat="47.37562" lon="4.9669">
        <ele>419</ele>
        <time>2022-04-14T08:34:53.489Z</time>
      </trkpt>
      <trkpt lat="47.37568" lon="4.96689">
        <ele>419</ele>
        <time>2022-04-14T08:34:58.468Z</time>
      </trkpt>
      <trkpt lat="47.37574" lon="4.96688">
        <ele>421</ele>
        <time>2022-04-14T08:35:03.451Z</time>
      </trkpt>
      <trkpt lat="47.37578" lon="4.96684">
        <ele>421</ele>
        <time>2022-04-14T08:35:08.458Z</time>
      </trkpt>
      <trkpt lat="47.3758" lon="4.96679">
        <ele>426</ele>
        <time>2022-04-14T08:35:12.481Z</time>
      </trkpt>
      <trkpt lat="47.37585" lon="4.96675">
        <ele>426</ele>
        <time>2022-04-14T08:35:17.471Z</time>
      </trkpt>
      <trkpt lat="47.37591" lon="4.96677">
        <ele>426</ele>
        <time>2022-04-14T08:35:22.468Z</time>
      </trkpt>
      <trkpt lat="47.37599" lon="4.96678">
        <ele>427</ele>
        <time>2022-04-14T08:35:27.444Z</time>
      </trkpt>
      <trkpt lat="47.37606" lon="4.96677">
        <ele>427</ele>
        <time>2022-04-14T08:35:32.428Z</time>
      </trkpt>
      <trkpt lat="47.37613" lon="4.96677">
        <ele>427</ele>
        <time>2022-04-14T08:35:37.442Z</time>
      </trkpt>
      <trkpt lat="47.37619" lon="4.96678">
        <ele>427</ele>
        <time>2022-04-14T08:35:41.465Z</time>
      </trkpt>
      <trkpt lat="47.37626" lon="4.96678">
        <ele>426</ele>
        <time>2022-04-14T08:35:46.441Z</time>
      </trkpt>
      <trkpt lat="47.37631" lon="4.96678">
        <ele>426</ele>
        <time>2022-04-14T08:35:50.481Z</time>
      </trkpt>
      <trkpt lat="47.37638" lon="4.96679">
        <ele>426</ele>
        <time>2022-04-14T08:35:55.472Z</time>
      </trkpt>
      <trkpt lat="47.37646" lon="4.96681">
        <ele>422</ele>
        <time>2022-04-14T08:36:00.484Z</time>
      </trkpt>
      <trkpt lat="47.37652" lon="4.96681">
        <ele>422</ele>
        <time>2022-04-14T08:36:05.467Z</time>
      </trkpt>
      <trkpt lat="47.37657" lon="4.96683">
        <ele>419</ele>
        <time>2022-04-14T08:36:10.491Z</time>
      </trkpt>
      <trkpt lat="47.37662" lon="4.96686">
        <ele>419</ele>
        <time>2022-04-14T08:36:15.454Z</time>
      </trkpt>
      <trkpt lat="47.37667" lon="4.96687">
        <ele>419</ele>
        <time>2022-04-14T08:36:19.479Z</time>
      </trkpt>
      <trkpt lat="47.37674" lon="4.96687">
        <ele>419</ele>
        <time>2022-04-14T08:36:24.435Z</time>
      </trkpt>
      <trkpt lat="47.37681" lon="4.96689">
        <ele>418</ele>
        <time>2022-04-14T08:36:29.487Z</time>
      </trkpt>
      <trkpt lat="47.37687" lon="4.9669">
        <ele>418</ele>
        <time>2022-04-14T08:36:34.469Z</time>
      </trkpt>
      <trkpt lat="47.37691" lon="4.96692">
        <ele>418</ele>
        <time>2022-04-14T08:36:39.480Z</time>
      </trkpt>
      <trkpt lat="47.37698" lon="4.96695">
        <ele>418</ele>
        <time>2022-04-14T08:36:44.438Z</time>
      </trkpt>
      <trkpt lat="47.37702" lon="4.96695">
        <ele>418</ele>
        <time>2022-04-14T08:36:48.469Z</time>
      </trkpt>
      <trkpt lat="47.37706" lon="4.96695">
        <ele>418</ele>
        <time>2022-04-14T08:36:52.494Z</time>
      </trkpt>
      <trkpt lat="47.37712" lon="4.96694">
        <ele>419</ele>
        <time>2022-04-14T08:36:57.474Z</time>
      </trkpt>
      <trkpt lat="47.37716" lon="4.96695">
        <ele>419</ele>
        <time>2022-04-14T08:37:02.505Z</time>
      </trkpt>
      <trkpt lat="47.37721" lon="4.96698">
        <ele>419</ele>
        <time>2022-04-14T08:37:07.490Z</time>
      </trkpt>
      <trkpt lat="47.37729" lon="4.967">
        <ele>419</ele>
        <time>2022-04-14T08:37:12.487Z</time>
      </trkpt>
      <trkpt lat="47.37735" lon="4.96702">
        <ele>419</ele>
        <time>2022-04-14T08:37:17.483Z</time>
      </trkpt>
      <trkpt lat="47.3774" lon="4.96706">
        <ele>420</ele>
        <time>2022-04-14T08:37:22.466Z</time>
      </trkpt>
      <trkpt lat="47.37745" lon="4.96708">
        <ele>420</ele>
        <time>2022-04-14T08:37:27.476Z</time>
      </trkpt>
      <trkpt lat="47.37752" lon="4.96709">
        <ele>417</ele>
        <time>2022-04-14T08:37:32.449Z</time>
      </trkpt>
      <trkpt lat="47.37757" lon="4.96712">
        <ele>417</ele>
        <time>2022-04-14T08:37:37.447Z</time>
      </trkpt>
      <trkpt lat="47.37764" lon="4.96715">
        <ele>417</ele>
        <time>2022-04-14T08:37:42.442Z</time>
      </trkpt>
      <trkpt lat="47.3777" lon="4.96716">
        <ele>417</ele>
        <time>2022-04-14T08:37:47.460Z</time>
      </trkpt>
      <trkpt lat="47.37776" lon="4.96717">
        <ele>417</ele>
        <time>2022-04-14T08:37:52.464Z</time>
      </trkpt>
      <trkpt lat="47.37782" lon="4.96719">
        <ele>417</ele>
        <time>2022-04-14T08:37:57.477Z</time>
      </trkpt>
      <trkpt lat="47.37786" lon="4.9672">
        <ele>417</ele>
        <time>2022-04-14T08:38:01.511Z</time>
      </trkpt>
      <trkpt lat="47.37793" lon="4.96722">
        <ele>416</ele>
        <time>2022-04-14T08:38:06.437Z</time>
      </trkpt>
      <trkpt lat="47.37798" lon="4.96724">
        <ele>416</ele>
        <time>2022-04-14T08:38:10.476Z</time>
      </trkpt>
      <trkpt lat="47.37803" lon="4.96725">
        <ele>416</ele>
        <time>2022-04-14T08:38:15.427Z</time>
      </trkpt>
      <trkpt lat="47.37808" lon="4.96729">
        <ele>416</ele>
        <time>2022-04-14T08:38:19.476Z</time>
      </trkpt>
      <trkpt lat="47.37814" lon="4.96731">
        <ele>416</ele>
        <time>2022-04-14T08:38:23.468Z</time>
      </trkpt>
      <trkpt lat="47.37819" lon="4.96734">
        <ele>416</ele>
        <time>2022-04-14T08:38:28.483Z</time>
      </trkpt>
      <trkpt lat="47.37825" lon="4.96736">
        <ele>414</ele>
        <time>2022-04-14T08:38:33.470Z</time>
      </trkpt>
      <trkpt lat="47.37831" lon="4.96742">
        <ele>414</ele>
        <time>2022-04-14T08:38:38.503Z</time>
      </trkpt>
      <trkpt lat="47.37836" lon="4.96745">
        <ele>414</ele>
        <time>2022-04-14T08:38:43.478Z</time>
      </trkpt>
      <trkpt lat="47.3784" lon="4.96748">
        <ele>414</ele>
        <time>2022-04-14T08:38:47.506Z</time>
      </trkpt>
      <trkpt lat="47.37843" lon="4.96751">
        <ele>414</ele>
        <time>2022-04-14T08:38:52.496Z</time>
      </trkpt>
      <trkpt lat="47.37847" lon="4.9676">
        <ele>414</ele>
        <time>2022-04-14T08:38:57.479Z</time>
      </trkpt>
      <trkpt lat="47.37849" lon="4.96769">
        <ele>412</ele>
        <time>2022-04-14T08:39:02.492Z</time>
      </trkpt>
      <trkpt lat="47.3785" lon="4.96775">
        <ele>412</ele>
        <time>2022-04-14T08:39:07.480Z</time>
      </trkpt>
      <trkpt lat="47.37851" lon="4.96783">
        <ele>412</ele>
        <time>2022-04-14T08:39:12.471Z</time>
      </trkpt>
      <trkpt lat="47.37849" lon="4.96793">
        <ele>411</ele>
        <time>2022-04-14T08:39:17.481Z</time>
      </trkpt>
      <trkpt lat="47.37849" lon="4.96801">
        <ele>411</ele>
        <time>2022-04-14T08:39:22.472Z</time>
      </trkpt>
      <trkpt lat="47.37848" lon="4.96809">
        <ele>411</ele>
        <time>2022-04-14T08:39:27.426Z</time>
      </trkpt>
      <trkpt lat="47.37852" lon="4.96817">
        <ele>411</ele>
        <time>2022-04-14T08:39:40.455Z</time>
      </trkpt>
      <trkpt lat="47.37852" lon="4.96817">
        <ele>411</ele>
        <time>2022-04-14T08:39:45.470Z</time>
      </trkpt>
      <trkpt lat="47.37854" lon="4.96817">
        <ele>411</ele>
        <time>2022-04-14T08:39:50.431Z</time>
      </trkpt>
      <trkpt lat="47.37857" lon="4.96815">
        <ele>411</ele>
        <time>2022-04-14T08:39:55.457Z</time>
      </trkpt>
      <trkpt lat="47.3786" lon="4.96813">
        <ele>411</ele>
        <time>2022-04-14T08:40:00.472Z</time>
      </trkpt>
      <trkpt lat="47.37864" lon="4.96809">
        <ele>411</ele>
        <time>2022-04-14T08:40:05.428Z</time>
      </trkpt>
      <trkpt lat="47.37867" lon="4.96804">
        <ele>411</ele>
        <time>2022-04-14T08:40:09.489Z</time>
      </trkpt>
      <trkpt lat="47.37869" lon="4.96799">
        <ele>411</ele>
        <time>2022-04-14T08:40:14.446Z</time>
      </trkpt>
      <trkpt lat="47.37871" lon="4.96795">
        <ele>411</ele>
        <time>2022-04-14T08:40:18.513Z</time>
      </trkpt>
      <trkpt lat="47.37875" lon="4.96789">
        <ele>412</ele>
        <time>2022-04-14T08:40:23.472Z</time>
      </trkpt>
      <trkpt lat="47.3788" lon="4.96784">
        <ele>412</ele>
        <time>2022-04-14T08:40:28.491Z</time>
      </trkpt>
      <trkpt lat="47.37883" lon="4.96778">
        <ele>412</ele>
        <time>2022-04-14T08:40:33.469Z</time>
      </trkpt>
      <trkpt lat="47.37887" lon="4.96771">
        <ele>412</ele>
        <time>2022-04-14T08:40:38.433Z</time>
      </trkpt>
      <trkpt lat="47.37892" lon="4.96765">
        <ele>412</ele>
        <time>2022-04-14T08:40:43.467Z</time>
      </trkpt>
      <trkpt lat="47.37895" lon="4.96758">
        <ele>413</ele>
        <time>2022-04-14T08:40:48.461Z</time>
      </trkpt>
      <trkpt lat="47.37898" lon="4.96752">
        <ele>413</ele>
        <time>2022-04-14T08:40:52.481Z</time>
      </trkpt>
      <trkpt lat="47.37903" lon="4.96748">
        <ele>413</ele>
        <time>2022-04-14T08:40:57.491Z</time>
      </trkpt>
      <trkpt lat="47.37906" lon="4.96743">
        <ele>413</ele>
        <time>2022-04-14T08:41:02.439Z</time>
      </trkpt>
      <trkpt lat="47.3791" lon="4.96737">
        <ele>413</ele>
        <time>2022-04-14T08:41:07.480Z</time>
      </trkpt>
      <trkpt lat="47.37914" lon="4.96732">
        <ele>415</ele>
        <time>2022-04-14T08:41:12.473Z</time>
      </trkpt>
      <trkpt lat="47.37917" lon="4.96729">
        <ele>415</ele>
        <time>2022-04-14T08:41:17.464Z</time>
      </trkpt>
      <trkpt lat="47.37919" lon="4.96726">
        <ele>415</ele>
        <time>2022-04-14T08:41:21.504Z</time>
      </trkpt>
      <trkpt lat="47.37923" lon="4.96721">
        <ele>415</ele>
        <time>2022-04-14T08:41:26.444Z</time>
      </trkpt>
      <trkpt lat="47.37925" lon="4.96717">
        <ele>415</ele>
        <time>2022-04-14T08:41:30.475Z</time>
      </trkpt>
      <trkpt lat="47.37929" lon="4.96711">
        <ele>415</ele>
        <time>2022-04-14T08:41:35.466Z</time>
      </trkpt>
      <trkpt lat="47.37933" lon="4.96703">
        <ele>415</ele>
        <time>2022-04-14T08:41:40.493Z</time>
      </trkpt>
      <trkpt lat="47.37937" lon="4.96698">
        <ele>415</ele>
        <time>2022-04-14T08:41:45.487Z</time>
      </trkpt>
      <trkpt lat="47.37941" lon="4.96692">
        <ele>415</ele>
        <time>2022-04-14T08:41:50.485Z</time>
      </trkpt>
      <trkpt lat="47.37946" lon="4.96687">
        <ele>415</ele>
        <time>2022-04-14T08:41:55.422Z</time>
      </trkpt>
      <trkpt lat="47.37949" lon="4.96681">
        <ele>415</ele>
        <time>2022-04-14T08:41:59.478Z</time>
      </trkpt>
      <trkpt lat="47.37952" lon="4.96676">
        <ele>419</ele>
        <time>2022-04-14T08:42:04.443Z</time>
      </trkpt>
      <trkpt lat="47.37957" lon="4.9667">
        <ele>419</ele>
        <time>2022-04-14T08:42:09.446Z</time>
      </trkpt>
      <trkpt lat="47.3796" lon="4.96663">
        <ele>417</ele>
        <time>2022-04-14T08:42:14.467Z</time>
      </trkpt>
      <trkpt lat="47.37962" lon="4.96657">
        <ele>417</ele>
        <time>2022-04-14T08:42:19.478Z</time>
      </trkpt>
      <trkpt lat="47.37966" lon="4.9665">
        <ele>420</ele>
        <time>2022-04-14T08:42:24.477Z</time>
      </trkpt>
      <trkpt lat="47.37971" lon="4.96646">
        <ele>420</ele>
        <time>2022-04-14T08:42:29.436Z</time>
      </trkpt>
      <trkpt lat="47.37976" lon="4.96641">
        <ele>420</ele>
        <time>2022-04-14T08:42:34.427Z</time>
      </trkpt>
      <trkpt lat="47.37979" lon="4.96638">
        <ele>420</ele>
        <time>2022-04-14T08:42:38.483Z</time>
      </trkpt>
      <trkpt lat="47.37985" lon="4.96633">
        <ele>420</ele>
        <time>2022-04-14T08:42:43.483Z</time>
      </trkpt>
      <trkpt lat="47.3799" lon="4.96628">
        <ele>418</ele>
        <time>2022-04-14T08:42:48.476Z</time>
      </trkpt>
      <trkpt lat="47.37997" lon="4.96624">
        <ele>420</ele>
        <time>2022-04-14T08:42:53.473Z</time>
      </trkpt>
      <trkpt lat="47.38003" lon="4.9662">
        <ele>420</ele>
        <time>2022-04-14T08:42:58.507Z</time>
      </trkpt>
      <trkpt lat="47.38009" lon="4.96617">
        <ele>420</ele>
        <time>2022-04-14T08:43:03.487Z</time>
      </trkpt>
      <trkpt lat="47.38015" lon="4.96614">
        <ele>421</ele>
        <time>2022-04-14T08:43:08.384Z</time>
      </trkpt>
      <trkpt lat="47.38021" lon="4.96612">
        <ele>421</ele>
        <time>2022-04-14T08:43:13.439Z</time>
      </trkpt>
      <trkpt lat="47.38027" lon="4.9661">
        <ele>421</ele>
        <time>2022-04-14T08:43:18.485Z</time>
      </trkpt>
      <trkpt lat="47.38033" lon="4.96608">
        <ele>421</ele>
        <time>2022-04-14T08:43:23.460Z</time>
      </trkpt>
      <trkpt lat="47.38038" lon="4.96607">
        <ele>421</ele>
        <time>2022-04-14T08:43:28.413Z</time>
      </trkpt>
      <trkpt lat="47.38039" lon="4.96608">
        <ele>421</ele>
        <time>2022-04-14T08:43:32.484Z</time>
      </trkpt>
      <trkpt lat="47.3804" lon="4.96606">
        <ele>421</ele>
        <time>2022-04-14T08:43:37.482Z</time>
      </trkpt>
      <trkpt lat="47.3804" lon="4.96606">
        <ele>421</ele>
        <time>2022-04-14T08:43:42.482Z</time>
      </trkpt>
      <trkpt lat="47.38044" lon="4.96607">
        <ele>422</ele>
        <time>2022-04-14T08:43:52.457Z</time>
      </trkpt>
      <trkpt lat="47.38049" lon="4.96606">
        <ele>422</ele>
        <time>2022-04-14T08:43:57.455Z</time>
      </trkpt>
      <trkpt lat="47.38055" lon="4.96605">
        <ele>422</ele>
        <time>2022-04-14T08:44:02.474Z</time>
      </trkpt>
      <trkpt lat="47.3806" lon="4.96605">
        <ele>422</ele>
        <time>2022-04-14T08:44:07.430Z</time>
      </trkpt>
      <trkpt lat="47.38064" lon="4.96605">
        <ele>422</ele>
        <time>2022-04-14T08:44:11.480Z</time>
      </trkpt>
      <trkpt lat="47.38069" lon="4.96607">
        <ele>422</ele>
        <time>2022-04-14T08:44:16.441Z</time>
      </trkpt>
      <trkpt lat="47.38072" lon="4.96607">
        <ele>420</ele>
        <time>2022-04-14T08:44:20.486Z</time>
      </trkpt>
      <trkpt lat="47.38076" lon="4.96604">
        <ele>420</ele>
        <time>2022-04-14T08:44:25.516Z</time>
      </trkpt>
      <trkpt lat="47.38081" lon="4.96602">
        <ele>420</ele>
        <time>2022-04-14T08:44:30.494Z</time>
      </trkpt>
      <trkpt lat="47.38085" lon="4.96601">
        <ele>420</ele>
        <time>2022-04-14T08:44:35.446Z</time>
      </trkpt>
      <trkpt lat="47.3809" lon="4.966">
        <ele>420</ele>
        <time>2022-04-14T08:44:40.418Z</time>
      </trkpt>
      <trkpt lat="47.38094" lon="4.966">
        <ele>420</ele>
        <time>2022-04-14T08:44:44.456Z</time>
      </trkpt>
      <trkpt lat="47.38097" lon="4.96598">
        <ele>420</ele>
        <time>2022-04-14T08:44:48.475Z</time>
      </trkpt>
      <trkpt lat="47.38102" lon="4.96594">
        <ele>418</ele>
        <time>2022-04-14T08:44:53.460Z</time>
      </trkpt>
      <trkpt lat="47.38108" lon="4.96592">
        <ele>418</ele>
        <time>2022-04-14T08:44:57.513Z</time>
      </trkpt>
      <trkpt lat="47.38114" lon="4.96588">
        <ele>418</ele>
        <time>2022-04-14T08:45:02.483Z</time>
      </trkpt>
      <trkpt lat="47.38119" lon="4.96587">
        <ele>418</ele>
        <time>2022-04-14T08:45:07.435Z</time>
      </trkpt>
      <trkpt lat="47.38123" lon="4.96583">
        <ele>418</ele>
        <time>2022-04-14T08:45:11.477Z</time>
      </trkpt>
      <trkpt lat="47.38128" lon="4.96579">
        <ele>416</ele>
        <time>2022-04-14T08:45:16.442Z</time>
      </trkpt>
      <trkpt lat="47.38133" lon="4.96575">
        <ele>416</ele>
        <time>2022-04-14T08:45:20.494Z</time>
      </trkpt>
      <trkpt lat="47.38137" lon="4.96571">
        <ele>416</ele>
        <time>2022-04-14T08:45:25.494Z</time>
      </trkpt>
      <trkpt lat="47.38143" lon="4.96566">
        <ele>415</ele>
        <time>2022-04-14T08:45:30.476Z</time>
      </trkpt>
      <trkpt lat="47.38148" lon="4.9656">
        <ele>415</ele>
        <time>2022-04-14T08:45:35.471Z</time>
      </trkpt>
      <trkpt lat="47.38151" lon="4.96556">
        <ele>415</ele>
        <time>2022-04-14T08:45:39.485Z</time>
      </trkpt>
      <trkpt lat="47.38154" lon="4.9655">
        <ele>414</ele>
        <time>2022-04-14T08:45:44.476Z</time>
      </trkpt>
      <trkpt lat="47.38156" lon="4.96545">
        <ele>414</ele>
        <time>2022-04-14T08:45:49.492Z</time>
      </trkpt>
      <trkpt lat="47.38159" lon="4.96538">
        <ele>414</ele>
        <time>2022-04-14T08:45:54.487Z</time>
      </trkpt>
      <trkpt lat="47.38162" lon="4.96533">
        <ele>414</ele>
        <time>2022-04-14T08:45:58.501Z</time>
      </trkpt>
      <trkpt lat="47.38165" lon="4.96527">
        <ele>414</ele>
        <time>2022-04-14T08:46:03.474Z</time>
      </trkpt>
      <trkpt lat="47.38171" lon="4.96524">
        <ele>414</ele>
        <time>2022-04-14T08:46:08.432Z</time>
      </trkpt>
      <trkpt lat="47.38176" lon="4.96517">
        <ele>414</ele>
        <time>2022-04-14T08:46:13.445Z</time>
      </trkpt>
      <trkpt lat="47.3818" lon="4.96513">
        <ele>413</ele>
        <time>2022-04-14T08:46:17.486Z</time>
      </trkpt>
      <trkpt lat="47.38185" lon="4.96509">
        <ele>413</ele>
        <time>2022-04-14T08:46:22.491Z</time>
      </trkpt>
      <trkpt lat="47.38191" lon="4.96503">
        <ele>413</ele>
        <time>2022-04-14T08:46:27.505Z</time>
      </trkpt>
      <trkpt lat="47.38197" lon="4.965">
        <ele>413</ele>
        <time>2022-04-14T08:46:32.501Z</time>
      </trkpt>
      <trkpt lat="47.38202" lon="4.96499">
        <ele>413</ele>
        <time>2022-04-14T08:46:37.448Z</time>
      </trkpt>
      <trkpt lat="47.38205" lon="4.96497">
        <ele>413</ele>
        <time>2022-04-14T08:46:41.455Z</time>
      </trkpt>
      <trkpt lat="47.38208" lon="4.96494">
        <ele>410</ele>
        <time>2022-04-14T08:46:46.409Z</time>
      </trkpt>
      <trkpt lat="47.38212" lon="4.9649">
        <ele>410</ele>
        <time>2022-04-14T08:46:50.447Z</time>
      </trkpt>
      <trkpt lat="47.38217" lon="4.96488">
        <ele>410</ele>
        <time>2022-04-14T08:46:54.488Z</time>
      </trkpt>
      <trkpt lat="47.38224" lon="4.96487">
        <ele>410</ele>
        <time>2022-04-14T08:46:59.507Z</time>
      </trkpt>
      <trkpt lat="47.38229" lon="4.96485">
        <ele>411</ele>
        <time>2022-04-14T08:47:04.476Z</time>
      </trkpt>
      <trkpt lat="47.38234" lon="4.96482">
        <ele>411</ele>
        <time>2022-04-14T08:47:09.482Z</time>
      </trkpt>
      <trkpt lat="47.38239" lon="4.96479">
        <ele>407</ele>
        <time>2022-04-14T08:47:14.437Z</time>
      </trkpt>
      <trkpt lat="47.38243" lon="4.96478">
        <ele>407</ele>
        <time>2022-04-14T08:47:19.438Z</time>
      </trkpt>
      <trkpt lat="47.38248" lon="4.96478">
        <ele>407</ele>
        <time>2022-04-14T08:47:23.511Z</time>
      </trkpt>
      <trkpt lat="47.38255" lon="4.96477">
        <ele>407</ele>
        <time>2022-04-14T08:47:28.403Z</time>
      </trkpt>
      <trkpt lat="47.3826" lon="4.96474">
        <ele>407</ele>
        <time>2022-04-14T08:47:32.449Z</time>
      </trkpt>
      <trkpt lat="47.38266" lon="4.96474">
        <ele>403</ele>
        <time>2022-04-14T08:47:37.449Z</time>
      </trkpt>
      <trkpt lat="47.38271" lon="4.96476">
        <ele>403</ele>
        <time>2022-04-14T08:47:41.477Z</time>
      </trkpt>
      <trkpt lat="47.38275" lon="4.96476">
        <ele>403</ele>
        <time>2022-04-14T08:47:46.428Z</time>
      </trkpt>
      <trkpt lat="47.3828" lon="4.96475">
        <ele>403</ele>
        <time>2022-04-14T08:47:50.460Z</time>
      </trkpt>
      <trkpt lat="47.38285" lon="4.96476">
        <ele>403</ele>
        <time>2022-04-14T08:47:54.487Z</time>
      </trkpt>
      <trkpt lat="47.38291" lon="4.96478">
        <ele>403</ele>
        <time>2022-04-14T08:47:59.460Z</time>
      </trkpt>
      <trkpt lat="47.38296" lon="4.96481">
        <ele>401</ele>
        <time>2022-04-14T08:48:04.450Z</time>
      </trkpt>
      <trkpt lat="47.38302" lon="4.96484">
        <ele>401</ele>
        <time>2022-04-14T08:48:09.476Z</time>
      </trkpt>
      <trkpt lat="47.38309" lon="4.96487">
        <ele>400</ele>
        <time>2022-04-14T08:48:14.494Z</time>
      </trkpt>
      <trkpt lat="47.38313" lon="4.96488">
        <ele>400</ele>
        <time>2022-04-14T08:48:19.422Z</time>
      </trkpt>
      <trkpt lat="47.38318" lon="4.9649">
        <ele>400</ele>
        <time>2022-04-14T08:48:23.487Z</time>
      </trkpt>
      <trkpt lat="47.38323" lon="4.96494">
        <ele>399</ele>
        <time>2022-04-14T08:48:28.470Z</time>
      </trkpt>
      <trkpt lat="47.38328" lon="4.96497">
        <ele>399</ele>
        <time>2022-04-14T08:48:33.457Z</time>
      </trkpt>
      <trkpt lat="47.38332" lon="4.965">
        <ele>399</ele>
        <time>2022-04-14T08:48:37.475Z</time>
      </trkpt>
      <trkpt lat="47.38335" lon="4.96501">
        <ele>399</ele>
        <time>2022-04-14T08:48:42.430Z</time>
      </trkpt>
      <trkpt lat="47.38341" lon="4.96503">
        <ele>399</ele>
        <time>2022-04-14T08:48:47.499Z</time>
      </trkpt>
      <trkpt lat="47.38345" lon="4.96506">
        <ele>399</ele>
        <time>2022-04-14T08:48:52.431Z</time>
      </trkpt>
      <trkpt lat="47.38352" lon="4.96509">
        <ele>398</ele>
        <time>2022-04-14T08:48:57.453Z</time>
      </trkpt>
      <trkpt lat="47.38357" lon="4.96511">
        <ele>398</ele>
        <time>2022-04-14T08:49:02.458Z</time>
      </trkpt>
      <trkpt lat="47.3836" lon="4.96514">
        <ele>399</ele>
        <time>2022-04-14T08:49:07.456Z</time>
      </trkpt>
      <trkpt lat="47.38367" lon="4.96515">
        <ele>399</ele>
        <time>2022-04-14T08:49:12.463Z</time>
      </trkpt>
      <trkpt lat="47.38373" lon="4.96518">
        <ele>399</ele>
        <time>2022-04-14T08:49:17.492Z</time>
      </trkpt>
      <trkpt lat="47.3838" lon="4.9652">
        <ele>396</ele>
        <time>2022-04-14T08:49:22.474Z</time>
      </trkpt>
      <trkpt lat="47.38386" lon="4.96522">
        <ele>396</ele>
        <time>2022-04-14T08:49:27.491Z</time>
      </trkpt>
      <trkpt lat="47.38391" lon="4.96523">
        <ele>396</ele>
        <time>2022-04-14T08:49:32.417Z</time>
      </trkpt>
      <trkpt lat="47.38397" lon="4.96524">
        <ele>396</ele>
        <time>2022-04-14T08:49:37.470Z</time>
      </trkpt>
      <trkpt lat="47.38402" lon="4.96527">
        <ele>396</ele>
        <time>2022-04-14T08:49:42.456Z</time>
      </trkpt>
      <trkpt lat="47.38409" lon="4.96528">
        <ele>391</ele>
        <time>2022-04-14T08:49:47.469Z</time>
      </trkpt>
      <trkpt lat="47.38416" lon="4.96529">
        <ele>391</ele>
        <time>2022-04-14T08:49:52.509Z</time>
      </trkpt>
      <trkpt lat="47.38422" lon="4.96531">
        <ele>391</ele>
        <time>2022-04-14T08:49:57.438Z</time>
      </trkpt>
      <trkpt lat="47.3843" lon="4.96533">
        <ele>391</ele>
        <time>2022-04-14T08:50:12.455Z</time>
      </trkpt>
      <trkpt lat="47.3843" lon="4.96534">
        <ele>391</ele>
        <time>2022-04-14T08:50:17.449Z</time>
      </trkpt>
      <trkpt lat="47.38432" lon="4.96533">
        <ele>390</ele>
        <time>2022-04-14T08:50:27.456Z</time>
      </trkpt>
      <trkpt lat="47.38434" lon="4.96533">
        <ele>390</ele>
        <time>2022-04-14T08:50:32.466Z</time>
      </trkpt>
      <trkpt lat="47.38435" lon="4.96536">
        <ele>390</ele>
        <time>2022-04-14T08:50:47.445Z</time>
      </trkpt>
      <trkpt lat="47.38436" lon="4.96535">
        <ele>390</ele>
        <time>2022-04-14T08:53:28.501Z</time>
      </trkpt>
      <trkpt lat="47.38438" lon="4.96536">
        <ele>390</ele>
        <time>2022-04-14T08:53:38.472Z</time>
      </trkpt>
      <trkpt lat="47.3844" lon="4.96538">
        <ele>390</ele>
        <time>2022-04-14T08:53:43.446Z</time>
      </trkpt>
      <trkpt lat="47.38444" lon="4.96542">
        <ele>390</ele>
        <time>2022-04-14T08:53:48.425Z</time>
      </trkpt>
      <trkpt lat="47.38445" lon="4.96544">
        <ele>391</ele>
        <time>2022-04-14T08:53:52.505Z</time>
      </trkpt>
      <trkpt lat="47.38448" lon="4.96549">
        <ele>391</ele>
        <time>2022-04-14T08:53:57.453Z</time>
      </trkpt>
      <trkpt lat="47.38452" lon="4.96553">
        <ele>391</ele>
        <time>2022-04-14T08:54:02.497Z</time>
      </trkpt>
      <trkpt lat="47.38455" lon="4.96555">
        <ele>391</ele>
        <time>2022-04-14T08:54:07.472Z</time>
      </trkpt>
      <trkpt lat="47.3846" lon="4.96559">
        <ele>389</ele>
        <time>2022-04-14T08:54:12.481Z</time>
      </trkpt>
      <trkpt lat="47.38465" lon="4.96564">
        <ele>389</ele>
        <time>2022-04-14T08:54:17.459Z</time>
      </trkpt>
      <trkpt lat="47.38469" lon="4.96568">
        <ele>389</ele>
        <time>2022-04-14T08:54:22.481Z</time>
      </trkpt>
      <trkpt lat="47.38473" lon="4.96572">
        <ele>390</ele>
        <time>2022-04-14T08:54:27.453Z</time>
      </trkpt>
      <trkpt lat="47.38477" lon="4.96575">
        <ele>390</ele>
        <time>2022-04-14T08:54:31.508Z</time>
      </trkpt>
      <trkpt lat="47.38483" lon="4.96581">
        <ele>390</ele>
        <time>2022-04-14T08:54:36.454Z</time>
      </trkpt>
      <trkpt lat="47.38487" lon="4.96585">
        <ele>387</ele>
        <time>2022-04-14T08:54:40.496Z</time>
      </trkpt>
      <trkpt lat="47.3849" lon="4.9659">
        <ele>387</ele>
        <time>2022-04-14T08:54:45.490Z</time>
      </trkpt>
      <trkpt lat="47.38496" lon="4.96597">
        <ele>387</ele>
        <time>2022-04-14T08:54:50.479Z</time>
      </trkpt>
      <trkpt lat="47.38499" lon="4.96601">
        <ele>387</ele>
        <time>2022-04-14T08:54:55.472Z</time>
      </trkpt>
      <trkpt lat="47.38503" lon="4.96608">
        <ele>387</ele>
        <time>2022-04-14T08:55:00.519Z</time>
      </trkpt>
      <trkpt lat="47.38507" lon="4.96612">
        <ele>387</ele>
        <time>2022-04-14T08:55:05.406Z</time>
      </trkpt>
      <trkpt lat="47.3851" lon="4.96617">
        <ele>387</ele>
        <time>2022-04-14T08:55:09.477Z</time>
      </trkpt>
      <trkpt lat="47.38513" lon="4.96624">
        <ele>387</ele>
        <time>2022-04-14T08:55:14.467Z</time>
      </trkpt>
      <trkpt lat="47.38519" lon="4.9663">
        <ele>385</ele>
        <time>2022-04-14T08:55:19.476Z</time>
      </trkpt>
      <trkpt lat="47.38522" lon="4.96637">
        <ele>385</ele>
        <time>2022-04-14T08:55:24.491Z</time>
      </trkpt>
      <trkpt lat="47.38523" lon="4.96642">
        <ele>385</ele>
        <time>2022-04-14T08:55:28.497Z</time>
      </trkpt>
      <trkpt lat="47.38526" lon="4.96651">
        <ele>385</ele>
        <time>2022-04-14T08:55:33.485Z</time>
      </trkpt>
      <trkpt lat="47.38529" lon="4.96658">
        <ele>386</ele>
        <time>2022-04-14T08:55:38.445Z</time>
      </trkpt>
      <trkpt lat="47.3853" lon="4.96663">
        <ele>386</ele>
        <time>2022-04-14T08:55:43.449Z</time>
      </trkpt>
      <trkpt lat="47.38532" lon="4.9667">
        <ele>386</ele>
        <time>2022-04-14T08:55:48.467Z</time>
      </trkpt>
      <trkpt lat="47.38534" lon="4.96674">
        <ele>386</ele>
        <time>2022-04-14T08:55:52.509Z</time>
      </trkpt>
      <trkpt lat="47.38536" lon="4.96683">
        <ele>385</ele>
        <time>2022-04-14T08:55:57.483Z</time>
      </trkpt>
      <trkpt lat="47.3854" lon="4.96692">
        <ele>385</ele>
        <time>2022-04-14T08:56:02.480Z</time>
      </trkpt>
      <trkpt lat="47.38542" lon="4.96697">
        <ele>383</ele>
        <time>2022-04-14T08:56:07.494Z</time>
      </trkpt>
      <trkpt lat="47.38543" lon="4.96704">
        <ele>383</ele>
        <time>2022-04-14T08:56:12.458Z</time>
      </trkpt>
      <trkpt lat="47.38546" lon="4.96711">
        <ele>381</ele>
        <time>2022-04-14T08:56:17.503Z</time>
      </trkpt>
      <trkpt lat="47.3855" lon="4.9672">
        <ele>381</ele>
        <time>2022-04-14T08:56:22.423Z</time>
      </trkpt>
      <trkpt lat="47.38554" lon="4.96729">
        <ele>381</ele>
        <time>2022-04-14T08:56:27.474Z</time>
      </trkpt>
      <trkpt lat="47.38557" lon="4.96738">
        <ele>381</ele>
        <time>2022-04-14T08:56:32.491Z</time>
      </trkpt>
      <trkpt lat="47.38559" lon="4.96747">
        <ele>381</ele>
        <time>2022-04-14T08:56:37.484Z</time>
      </trkpt>
      <trkpt lat="47.38562" lon="4.96757">
        <ele>381</ele>
        <time>2022-04-14T08:56:42.445Z</time>
      </trkpt>
      <trkpt lat="47.38564" lon="4.96768">
        <ele>382</ele>
        <time>2022-04-14T08:56:47.484Z</time>
      </trkpt>
      <trkpt lat="47.38568" lon="4.96777">
        <ele>382</ele>
        <time>2022-04-14T08:56:52.461Z</time>
      </trkpt>
      <trkpt lat="47.3857" lon="4.96785">
        <ele>382</ele>
        <time>2022-04-14T08:56:57.450Z</time>
      </trkpt>
      <trkpt lat="47.38572" lon="4.96791">
        <ele>382</ele>
        <time>2022-04-14T08:57:02.495Z</time>
      </trkpt>
      <trkpt lat="47.38576" lon="4.96799">
        <ele>381</ele>
        <time>2022-04-14T08:57:07.458Z</time>
      </trkpt>
      <trkpt lat="47.38581" lon="4.96805">
        <ele>381</ele>
        <time>2022-04-14T08:57:12.464Z</time>
      </trkpt>
      <trkpt lat="47.38586" lon="4.96813">
        <ele>381</ele>
        <time>2022-04-14T08:57:17.408Z</time>
      </trkpt>
      <trkpt lat="47.38589" lon="4.96818">
        <ele>381</ele>
        <time>2022-04-14T08:57:21.457Z</time>
      </trkpt>
      <trkpt lat="47.38593" lon="4.96822">
        <ele>382</ele>
        <time>2022-04-14T08:57:25.490Z</time>
      </trkpt>
      <trkpt lat="47.38597" lon="4.96827">
        <ele>382</ele>
        <time>2022-04-14T08:57:30.474Z</time>
      </trkpt>
      <trkpt lat="47.38603" lon="4.96833">
        <ele>378</ele>
        <time>2022-04-14T08:57:35.499Z</time>
      </trkpt>
      <trkpt lat="47.38608" lon="4.96839">
        <ele>378</ele>
        <time>2022-04-14T08:57:40.462Z</time>
      </trkpt>
      <trkpt lat="47.38614" lon="4.96845">
        <ele>378</ele>
        <time>2022-04-14T08:57:45.449Z</time>
      </trkpt>
      <trkpt lat="47.38619" lon="4.9685">
        <ele>380</ele>
        <time>2022-04-14T08:57:49.484Z</time>
      </trkpt>
      <trkpt lat="47.38625" lon="4.96855">
        <ele>380</ele>
        <time>2022-04-14T08:57:54.466Z</time>
      </trkpt>
      <trkpt lat="47.38631" lon="4.9686">
        <ele>377</ele>
        <time>2022-04-14T08:57:59.485Z</time>
      </trkpt>
      <trkpt lat="47.38637" lon="4.96862">
        <ele>377</ele>
        <time>2022-04-14T08:58:04.505Z</time>
      </trkpt>
      <trkpt lat="47.38644" lon="4.96866">
        <ele>377</ele>
        <time>2022-04-14T08:58:09.470Z</time>
      </trkpt>
      <trkpt lat="47.3865" lon="4.96868">
        <ele>377</ele>
        <time>2022-04-14T08:58:14.491Z</time>
      </trkpt>
      <trkpt lat="47.38656" lon="4.96868">
        <ele>377</ele>
        <time>2022-04-14T08:58:19.474Z</time>
      </trkpt>
      <trkpt lat="47.38663" lon="4.96872">
        <ele>377</ele>
        <time>2022-04-14T08:58:24.438Z</time>
      </trkpt>
      <trkpt lat="47.38668" lon="4.96876">
        <ele>379</ele>
        <time>2022-04-14T08:58:28.472Z</time>
      </trkpt>
      <trkpt lat="47.38674" lon="4.9688">
        <ele>379</ele>
        <time>2022-04-14T08:58:33.442Z</time>
      </trkpt>
      <trkpt lat="47.38682" lon="4.96878">
        <ele>377</ele>
        <time>2022-04-14T08:58:38.437Z</time>
      </trkpt>
      <trkpt lat="47.38687" lon="4.96879">
        <ele>377</ele>
        <time>2022-04-14T08:58:43.412Z</time>
      </trkpt>
      <trkpt lat="47.38694" lon="4.9688">
        <ele>377</ele>
        <time>2022-04-14T08:58:48.416Z</time>
      </trkpt>
      <trkpt lat="47.38702" lon="4.96882">
        <ele>377</ele>
        <time>2022-04-14T08:58:53.429Z</time>
      </trkpt>
      <trkpt lat="47.38708" lon="4.96885">
        <ele>375</ele>
        <time>2022-04-14T08:58:58.384Z</time>
      </trkpt>
      <trkpt lat="47.38715" lon="4.9689">
        <ele>375</ele>
        <time>2022-04-14T08:59:02.426Z</time>
      </trkpt>
      <trkpt lat="47.38723" lon="4.96893">
        <ele>375</ele>
        <time>2022-04-14T08:59:07.469Z</time>
      </trkpt>
      <trkpt lat="47.38729" lon="4.96895">
        <ele>375</ele>
        <time>2022-04-14T08:59:12.478Z</time>
      </trkpt>
      <trkpt lat="47.38735" lon="4.96897">
        <ele>375</ele>
        <time>2022-04-14T08:59:17.415Z</time>
      </trkpt>
      <trkpt lat="47.38738" lon="4.96899">
        <ele>372</ele>
        <time>2022-04-14T08:59:21.463Z</time>
      </trkpt>
      <trkpt lat="47.38745" lon="4.96901">
        <ele>372</ele>
        <time>2022-04-14T08:59:26.471Z</time>
      </trkpt>
      <trkpt lat="47.38752" lon="4.96902">
        <ele>372</ele>
        <time>2022-04-14T08:59:31.486Z</time>
      </trkpt>
      <trkpt lat="47.38758" lon="4.96902">
        <ele>372</ele>
        <time>2022-04-14T08:59:36.441Z</time>
      </trkpt>
      <trkpt lat="47.38761" lon="4.969">
        <ele>372</ele>
        <time>2022-04-14T08:59:40.434Z</time>
      </trkpt>
      <trkpt lat="47.38763" lon="4.96899">
        <ele>372</ele>
        <time>2022-04-14T08:59:44.462Z</time>
      </trkpt>
      <trkpt lat="47.38769" lon="4.96899">
        <ele>371</ele>
        <time>2022-04-14T08:59:49.469Z</time>
      </trkpt>
      <trkpt lat="47.38776" lon="4.969">
        <ele>371</ele>
        <time>2022-04-14T08:59:54.443Z</time>
      </trkpt>
      <trkpt lat="47.38783" lon="4.96902">
        <ele>371</ele>
        <time>2022-04-14T08:59:58.502Z</time>
      </trkpt>
      <trkpt lat="47.38793" lon="4.96902">
        <ele>370</ele>
        <time>2022-04-14T09:00:03.462Z</time>
      </trkpt>
      <trkpt lat="47.38801" lon="4.96901">
        <ele>370</ele>
        <time>2022-04-14T09:00:08.477Z</time>
      </trkpt>
      <trkpt lat="47.38806" lon="4.96902">
        <ele>370</ele>
        <time>2022-04-14T09:00:13.448Z</time>
      </trkpt>
      <trkpt lat="47.38812" lon="4.969">
        <ele>370</ele>
        <time>2022-04-14T09:00:18.468Z</time>
      </trkpt>
      <trkpt lat="47.38816" lon="4.969">
        <ele>370</ele>
        <time>2022-04-14T09:00:23.459Z</time>
      </trkpt>
      <trkpt lat="47.38821" lon="4.969">
        <ele>368</ele>
        <time>2022-04-14T09:00:27.510Z</time>
      </trkpt>
      <trkpt lat="47.38827" lon="4.96903">
        <ele>370</ele>
        <time>2022-04-14T09:00:32.474Z</time>
      </trkpt>
      <trkpt lat="47.38833" lon="4.96904">
        <ele>370</ele>
        <time>2022-04-14T09:00:37.486Z</time>
      </trkpt>
      <trkpt lat="47.38841" lon="4.96908">
        <ele>370</ele>
        <time>2022-04-14T09:00:42.450Z</time>
      </trkpt>
      <trkpt lat="47.38848" lon="4.9691">
        <ele>366</ele>
        <time>2022-04-14T09:00:47.469Z</time>
      </trkpt>
      <trkpt lat="47.38854" lon="4.96909">
        <ele>366</ele>
        <time>2022-04-14T09:00:51.478Z</time>
      </trkpt>
      <trkpt lat="47.3886" lon="4.96914">
        <ele>366</ele>
        <time>2022-04-14T09:00:56.418Z</time>
      </trkpt>
      <trkpt lat="47.38866" lon="4.96915">
        <ele>366</ele>
        <time>2022-04-14T09:01:00.429Z</time>
      </trkpt>
      <trkpt lat="47.38871" lon="4.96918">
        <ele>366</ele>
        <time>2022-04-14T09:01:04.464Z</time>
      </trkpt>
      <trkpt lat="47.38877" lon="4.9692">
        <ele>363</ele>
        <time>2022-04-14T09:01:09.467Z</time>
      </trkpt>
      <trkpt lat="47.38884" lon="4.96923">
        <ele>363</ele>
        <time>2022-04-14T09:01:14.443Z</time>
      </trkpt>
      <trkpt lat="47.38888" lon="4.96927">
        <ele>363</ele>
        <time>2022-04-14T09:01:19.462Z</time>
      </trkpt>
      <trkpt lat="47.38893" lon="4.96927">
        <ele>363</ele>
        <time>2022-04-14T09:01:23.485Z</time>
      </trkpt>
      <trkpt lat="47.38901" lon="4.96929">
        <ele>363</ele>
        <time>2022-04-14T09:01:28.482Z</time>
      </trkpt>
      <trkpt lat="47.38908" lon="4.96933">
        <ele>362</ele>
        <time>2022-04-14T09:01:33.464Z</time>
      </trkpt>
      <trkpt lat="47.38914" lon="4.96937">
        <ele>362</ele>
        <time>2022-04-14T09:01:38.490Z</time>
      </trkpt>
      <trkpt lat="47.3892" lon="4.96938">
        <ele>362</ele>
        <time>2022-04-14T09:01:42.497Z</time>
      </trkpt>
      <trkpt lat="47.38926" lon="4.96941">
        <ele>362</ele>
        <time>2022-04-14T09:01:47.510Z</time>
      </trkpt>
      <trkpt lat="47.38932" lon="4.96945">
        <ele>360</ele>
        <time>2022-04-14T09:01:52.483Z</time>
      </trkpt>
      <trkpt lat="47.38934" lon="4.96946">
        <ele>360</ele>
        <time>2022-04-14T09:01:57.495Z</time>
      </trkpt>
      <trkpt lat="47.38939" lon="4.9695">
        <ele>360</ele>
        <time>2022-04-14T09:02:02.446Z</time>
      </trkpt>
      <trkpt lat="47.38944" lon="4.96954">
        <ele>360</ele>
        <time>2022-04-14T09:02:07.472Z</time>
      </trkpt>
      <trkpt lat="47.38948" lon="4.96955">
        <ele>360</ele>
        <time>2022-04-14T09:02:11.486Z</time>
      </trkpt>
      <trkpt lat="47.38956" lon="4.96956">
        <ele>360</ele>
        <time>2022-04-14T09:02:16.443Z</time>
      </trkpt>
      <trkpt lat="47.38961" lon="4.9696">
        <ele>359</ele>
        <time>2022-04-14T09:02:20.474Z</time>
      </trkpt>
      <trkpt lat="47.38966" lon="4.96962">
        <ele>359</ele>
        <time>2022-04-14T09:02:25.446Z</time>
      </trkpt>
      <trkpt lat="47.38973" lon="4.96964">
        <ele>359</ele>
        <time>2022-04-14T09:02:30.468Z</time>
      </trkpt>
      <trkpt lat="47.38978" lon="4.96968">
        <ele>359</ele>
        <time>2022-04-14T09:02:34.482Z</time>
      </trkpt>
      <trkpt lat="47.38984" lon="4.96971">
        <ele>359</ele>
        <time>2022-04-14T09:02:39.482Z</time>
      </trkpt>
      <trkpt lat="47.38989" lon="4.96973">
        <ele>358</ele>
        <time>2022-04-14T09:02:44.491Z</time>
      </trkpt>
      <trkpt lat="47.38996" lon="4.96976">
        <ele>358</ele>
        <time>2022-04-14T09:02:49.477Z</time>
      </trkpt>
      <trkpt lat="47.39001" lon="4.96981">
        <ele>358</ele>
        <time>2022-04-14T09:02:54.464Z</time>
      </trkpt>
      <trkpt lat="47.39005" lon="4.96983">
        <ele>358</ele>
        <time>2022-04-14T09:02:58.483Z</time>
      </trkpt>
      <trkpt lat="47.3901" lon="4.96984">
        <ele>358</ele>
        <time>2022-04-14T09:03:03.471Z</time>
      </trkpt>
      <trkpt lat="47.39016" lon="4.9699">
        <ele>357</ele>
        <time>2022-04-14T09:03:08.468Z</time>
      </trkpt>
      <trkpt lat="47.39023" lon="4.96994">
        <ele>357</ele>
        <time>2022-04-14T09:03:13.433Z</time>
      </trkpt>
      <trkpt lat="47.39029" lon="4.96997">
        <ele>357</ele>
        <time>2022-04-14T09:03:17.462Z</time>
      </trkpt>
      <trkpt lat="47.39035" lon="4.97">
        <ele>357</ele>
        <time>2022-04-14T09:03:22.489Z</time>
      </trkpt>
      <trkpt lat="47.39041" lon="4.97005">
        <ele>357</ele>
        <time>2022-04-14T09:03:27.475Z</time>
      </trkpt>
      <trkpt lat="47.39046" lon="4.97009">
        <ele>360</ele>
        <time>2022-04-14T09:03:32.459Z</time>
      </trkpt>
      <trkpt lat="47.39051" lon="4.97015">
        <ele>356</ele>
        <time>2022-04-14T09:03:37.481Z</time>
      </trkpt>
      <trkpt lat="47.39054" lon="4.9702">
        <ele>356</ele>
        <time>2022-04-14T09:03:42.489Z</time>
      </trkpt>
      <trkpt lat="47.39059" lon="4.97027">
        <ele>356</ele>
        <time>2022-04-14T09:03:47.480Z</time>
      </trkpt>
      <trkpt lat="47.39062" lon="4.97032">
        <ele>356</ele>
        <time>2022-04-14T09:03:52.425Z</time>
      </trkpt>
      <trkpt lat="47.39066" lon="4.97038">
        <ele>356</ele>
        <time>2022-04-14T09:03:57.444Z</time>
      </trkpt>
      <trkpt lat="47.39069" lon="4.97042">
        <ele>354</ele>
        <time>2022-04-14T09:04:01.497Z</time>
      </trkpt>
      <trkpt lat="47.39073" lon="4.97048">
        <ele>356</ele>
        <time>2022-04-14T09:04:06.443Z</time>
      </trkpt>
      <trkpt lat="47.39077" lon="4.97054">
        <ele>356</ele>
        <time>2022-04-14T09:04:10.499Z</time>
      </trkpt>
      <trkpt lat="47.39081" lon="4.97062">
        <ele>356</ele>
        <time>2022-04-14T09:04:15.484Z</time>
      </trkpt>
      <trkpt lat="47.39086" lon="4.97069">
        <ele>356</ele>
        <time>2022-04-14T09:04:20.478Z</time>
      </trkpt>
      <trkpt lat="47.39087" lon="4.9708">
        <ele>354</ele>
        <time>2022-04-14T09:04:25.474Z</time>
      </trkpt>
      <trkpt lat="47.39089" lon="4.97088">
        <ele>354</ele>
        <time>2022-04-14T09:04:30.510Z</time>
      </trkpt>
      <trkpt lat="47.39092" lon="4.97096">
        <ele>354</ele>
        <time>2022-04-14T09:04:35.405Z</time>
      </trkpt>
      <trkpt lat="47.39096" lon="4.97103">
        <ele>354</ele>
        <time>2022-04-14T09:04:39.478Z</time>
      </trkpt>
      <trkpt lat="47.39096" lon="4.97112">
        <ele>354</ele>
        <time>2022-04-14T09:04:43.483Z</time>
      </trkpt>
      <trkpt lat="47.39097" lon="4.97121">
        <ele>357</ele>
        <time>2022-04-14T09:04:48.456Z</time>
      </trkpt>
      <trkpt lat="47.39101" lon="4.97129">
        <ele>356</ele>
        <time>2022-04-14T09:04:53.468Z</time>
      </trkpt>
      <trkpt lat="47.39101" lon="4.97138">
        <ele>356</ele>
        <time>2022-04-14T09:04:58.405Z</time>
      </trkpt>
      <trkpt lat="47.39102" lon="4.97145">
        <ele>356</ele>
        <time>2022-04-14T09:05:02.395Z</time>
      </trkpt>
      <trkpt lat="47.39104" lon="4.97151">
        <ele>356</ele>
        <time>2022-04-14T09:05:06.421Z</time>
      </trkpt>
      <trkpt lat="47.39105" lon="4.97157">
        <ele>356</ele>
        <time>2022-04-14T09:05:10.483Z</time>
      </trkpt>
      <trkpt lat="47.39106" lon="4.97167">
        <ele>356</ele>
        <time>2022-04-14T09:05:15.474Z</time>
      </trkpt>
      <trkpt lat="47.39108" lon="4.97175">
        <ele>356</ele>
        <time>2022-04-14T09:05:20.463Z</time>
      </trkpt>
      <trkpt lat="47.39111" lon="4.97183">
        <ele>356</ele>
        <time>2022-04-14T09:05:25.481Z</time>
      </trkpt>
      <trkpt lat="47.39115" lon="4.97191">
        <ele>356</ele>
        <time>2022-04-14T09:05:30.419Z</time>
      </trkpt>
      <trkpt lat="47.39118" lon="4.97199">
        <ele>356</ele>
        <time>2022-04-14T09:05:34.484Z</time>
      </trkpt>
      <trkpt lat="47.3912" lon="4.97205">
        <ele>356</ele>
        <time>2022-04-14T09:05:39.503Z</time>
      </trkpt>
      <trkpt lat="47.39124" lon="4.97212">
        <ele>357</ele>
        <time>2022-04-14T09:05:44.490Z</time>
      </trkpt>
      <trkpt lat="47.39127" lon="4.97221">
        <ele>355</ele>
        <time>2022-04-14T09:05:49.474Z</time>
      </trkpt>
      <trkpt lat="47.3913" lon="4.9723">
        <ele>355</ele>
        <time>2022-04-14T09:05:54.470Z</time>
      </trkpt>
      <trkpt lat="47.39134" lon="4.9724">
        <ele>352</ele>
        <time>2022-04-14T09:05:59.481Z</time>
      </trkpt>
      <trkpt lat="47.39136" lon="4.97247">
        <ele>352</ele>
        <time>2022-04-14T09:06:04.452Z</time>
      </trkpt>
      <trkpt lat="47.3914" lon="4.97253">
        <ele>352</ele>
        <time>2022-04-14T09:06:08.496Z</time>
      </trkpt>
      <trkpt lat="47.39144" lon="4.97259">
        <ele>352</ele>
        <time>2022-04-14T09:06:13.409Z</time>
      </trkpt>
      <trkpt lat="47.39147" lon="4.97263">
        <ele>352</ele>
        <time>2022-04-14T09:06:17.482Z</time>
      </trkpt>
      <trkpt lat="47.39151" lon="4.97269">
        <ele>355</ele>
        <time>2022-04-14T09:06:21.490Z</time>
      </trkpt>
      <trkpt lat="47.39155" lon="4.97277">
        <ele>352</ele>
        <time>2022-04-14T09:06:26.459Z</time>
      </trkpt>
      <trkpt lat="47.3916" lon="4.97285">
        <ele>352</ele>
        <time>2022-04-14T09:06:31.456Z</time>
      </trkpt>
      <trkpt lat="47.39165" lon="4.9729">
        <ele>352</ele>
        <time>2022-04-14T09:06:35.491Z</time>
      </trkpt>
      <trkpt lat="47.3917" lon="4.97298">
        <ele>355</ele>
        <time>2022-04-14T09:06:40.412Z</time>
      </trkpt>
      <trkpt lat="47.39174" lon="4.97302">
        <ele>355</ele>
        <time>2022-04-14T09:06:45.447Z</time>
      </trkpt>
      <trkpt lat="47.39178" lon="4.97306">
        <ele>355</ele>
        <time>2022-04-14T09:06:49.463Z</time>
      </trkpt>
      <trkpt lat="47.39184" lon="4.97311">
        <ele>353</ele>
        <time>2022-04-14T09:06:54.454Z</time>
      </trkpt>
      <trkpt lat="47.39189" lon="4.97315">
        <ele>353</ele>
        <time>2022-04-14T09:06:59.498Z</time>
      </trkpt>
      <trkpt lat="47.39193" lon="4.97319">
        <ele>353</ele>
        <time>2022-04-14T09:07:04.489Z</time>
      </trkpt>
      <trkpt lat="47.39199" lon="4.97324">
        <ele>356</ele>
        <time>2022-04-14T09:07:09.451Z</time>
      </trkpt>
      <trkpt lat="47.39203" lon="4.97326">
        <ele>356</ele>
        <time>2022-04-14T09:07:13.466Z</time>
      </trkpt>
      <trkpt lat="47.39209" lon="4.97328">
        <ele>354</ele>
        <time>2022-04-14T09:07:18.474Z</time>
      </trkpt>
      <trkpt lat="47.39214" lon="4.97328">
        <ele>354</ele>
        <time>2022-04-14T09:07:22.479Z</time>
      </trkpt>
      <trkpt lat="47.3922" lon="4.97329">
        <ele>354</ele>
        <time>2022-04-14T09:07:27.423Z</time>
      </trkpt>
      <trkpt lat="47.39222" lon="4.97329">
        <ele>354</ele>
        <time>2022-04-14T09:07:31.488Z</time>
      </trkpt>
      <trkpt lat="47.39226" lon="4.97331">
        <ele>354</ele>
        <time>2022-04-14T09:07:36.426Z</time>
      </trkpt>
      <trkpt lat="47.39231" lon="4.97334">
        <ele>354</ele>
        <time>2022-04-14T09:07:40.467Z</time>
      </trkpt>
      <trkpt lat="47.39237" lon="4.97336">
        <ele>350</ele>
        <time>2022-04-14T09:07:45.435Z</time>
      </trkpt>
      <trkpt lat="47.39243" lon="4.97338">
        <ele>350</ele>
        <time>2022-04-14T09:07:50.469Z</time>
      </trkpt>
      <trkpt lat="47.3925" lon="4.9734">
        <ele>350</ele>
        <time>2022-04-14T09:07:55.474Z</time>
      </trkpt>
      <trkpt lat="47.39257" lon="4.97342">
        <ele>350</ele>
        <time>2022-04-14T09:08:00.473Z</time>
      </trkpt>
      <trkpt lat="47.39265" lon="4.97343">
        <ele>346</ele>
        <time>2022-04-14T09:08:05.499Z</time>
      </trkpt>
      <trkpt lat="47.39272" lon="4.97343">
        <ele>346</ele>
        <time>2022-04-14T09:08:10.455Z</time>
      </trkpt>
      <trkpt lat="47.39278" lon="4.97344">
        <ele>346</ele>
        <time>2022-04-14T09:08:15.414Z</time>
      </trkpt>
      <trkpt lat="47.39282" lon="4.97345">
        <ele>346</ele>
        <time>2022-04-14T09:08:19.492Z</time>
      </trkpt>
      <trkpt lat="47.39288" lon="4.97347">
        <ele>346</ele>
        <time>2022-04-14T09:08:24.418Z</time>
      </trkpt>
      <trkpt lat="47.39294" lon="4.97349">
        <ele>344</ele>
        <time>2022-04-14T09:08:29.444Z</time>
      </trkpt>
      <trkpt lat="47.39299" lon="4.97351">
        <ele>344</ele>
        <time>2022-04-14T09:08:34.402Z</time>
      </trkpt>
      <trkpt lat="47.39301" lon="4.97352">
        <ele>344</ele>
        <time>2022-04-14T09:08:38.454Z</time>
      </trkpt>
      <trkpt lat="47.39306" lon="4.97351">
        <ele>344</ele>
        <time>2022-04-14T09:08:42.470Z</time>
      </trkpt>
      <trkpt lat="47.39311" lon="4.9735">
        <ele>344</ele>
        <time>2022-04-14T09:08:47.423Z</time>
      </trkpt>
      <trkpt lat="47.39319" lon="4.97341">
        <ele>343</ele>
        <time>2022-04-14T09:09:01.466Z</time>
      </trkpt>
      <trkpt lat="47.3932" lon="4.9734">
        <ele>342</ele>
        <time>2022-04-14T09:09:20.397Z</time>
      </trkpt>
      <trkpt lat="47.3932" lon="4.9734">
        <ele>342</ele>
        <time>2022-04-14T09:09:25.434Z</time>
      </trkpt>
      <trkpt lat="47.39322" lon="4.9734">
        <ele>342</ele>
        <time>2022-04-14T09:09:39.457Z</time>
      </trkpt>
      <trkpt lat="47.39324" lon="4.9734">
        <ele>342</ele>
        <time>2022-04-14T09:10:55.476Z</time>
      </trkpt>
      <trkpt lat="47.39325" lon="4.97339">
        <ele>342</ele>
        <time>2022-04-14T09:11:00.453Z</time>
      </trkpt>
      <trkpt lat="47.39327" lon="4.97335">
        <ele>342</ele>
        <time>2022-04-14T09:11:04.490Z</time>
      </trkpt>
      <trkpt lat="47.39329" lon="4.97332">
        <ele>342</ele>
        <time>2022-04-14T09:11:09.429Z</time>
      </trkpt>
      <trkpt lat="47.39332" lon="4.97326">
        <ele>342</ele>
        <time>2022-04-14T09:11:13.463Z</time>
      </trkpt>
      <trkpt lat="47.39334" lon="4.97321">
        <ele>342</ele>
        <time>2022-04-14T09:11:18.473Z</time>
      </trkpt>
      <trkpt lat="47.39338" lon="4.97317">
        <ele>344</ele>
        <time>2022-04-14T09:11:23.484Z</time>
      </trkpt>
      <trkpt lat="47.3934" lon="4.97309">
        <ele>344</ele>
        <time>2022-04-14T09:11:28.397Z</time>
      </trkpt>
      <trkpt lat="47.39343" lon="4.97306">
        <ele>344</ele>
        <time>2022-04-14T09:11:32.426Z</time>
      </trkpt>
      <trkpt lat="47.39347" lon="4.97301">
        <ele>344</ele>
        <time>2022-04-14T09:11:36.384Z</time>
      </trkpt>
      <trkpt lat="47.39348" lon="4.97298">
        <ele>345</ele>
        <time>2022-04-14T09:11:41.403Z</time>
      </trkpt>
      <trkpt lat="47.39348" lon="4.97298">
        <ele>345</ele>
        <time>2022-04-14T09:11:45.468Z</time>
      </trkpt>
      <trkpt lat="47.39352" lon="4.97295">
        <ele>345</ele>
        <time>2022-04-14T09:11:49.506Z</time>
      </trkpt>
      <trkpt lat="47.39355" lon="4.97288">
        <ele>346</ele>
        <time>2022-04-14T09:11:54.447Z</time>
      </trkpt>
      <trkpt lat="47.39357" lon="4.97278">
        <ele>346</ele>
        <time>2022-04-14T09:11:59.449Z</time>
      </trkpt>
      <trkpt lat="47.3936" lon="4.9727">
        <ele>346</ele>
        <time>2022-04-14T09:12:03.477Z</time>
      </trkpt>
      <trkpt lat="47.39364" lon="4.97262">
        <ele>348</ele>
        <time>2022-04-14T09:12:08.477Z</time>
      </trkpt>
      <trkpt lat="47.39367" lon="4.97256">
        <ele>348</ele>
        <time>2022-04-14T09:12:13.503Z</time>
      </trkpt>
      <trkpt lat="47.39369" lon="4.97248">
        <ele>348</ele>
        <time>2022-04-14T09:12:18.495Z</time>
      </trkpt>
      <trkpt lat="47.3937" lon="4.97244">
        <ele>348</ele>
        <time>2022-04-14T09:12:23.484Z</time>
      </trkpt>
      <trkpt lat="47.39372" lon="4.97242">
        <ele>348</ele>
        <time>2022-04-14T09:12:48.420Z</time>
      </trkpt>
      <trkpt lat="47.39374" lon="4.97242">
        <ele>348</ele>
        <time>2022-04-14T09:12:52.475Z</time>
      </trkpt>
      <trkpt lat="47.3938" lon="4.97239">
        <ele>351</ele>
        <time>2022-04-14T09:12:57.451Z</time>
      </trkpt>
      <trkpt lat="47.39386" lon="4.97237">
        <ele>351</ele>
        <time>2022-04-14T09:13:02.471Z</time>
      </trkpt>
      <trkpt lat="47.39389" lon="4.97231">
        <ele>351</ele>
        <time>2022-04-14T09:13:07.509Z</time>
      </trkpt>
      <trkpt lat="47.39392" lon="4.97228">
        <ele>351</ele>
        <time>2022-04-14T09:13:12.488Z</time>
      </trkpt>
      <trkpt lat="47.39399" lon="4.97225">
        <ele>351</ele>
        <time>2022-04-14T09:13:17.477Z</time>
      </trkpt>
      <trkpt lat="47.39403" lon="4.97223">
        <ele>351</ele>
        <time>2022-04-14T09:13:22.491Z</time>
      </trkpt>
      <trkpt lat="47.39406" lon="4.97222">
        <ele>358</ele>
        <time>2022-04-14T09:13:27.496Z</time>
      </trkpt>
      <trkpt lat="47.39411" lon="4.97222">
        <ele>358</ele>
        <time>2022-04-14T09:13:32.456Z</time>
      </trkpt>
      <trkpt lat="47.39413" lon="4.97225">
        <ele>358</ele>
        <time>2022-04-14T09:13:37.455Z</time>
      </trkpt>
      <trkpt lat="47.39416" lon="4.97217">
        <ele>358</ele>
        <time>2022-04-14T09:13:46.464Z</time>
      </trkpt>
      <trkpt lat="47.39415" lon="4.97214">
        <ele>358</ele>
        <time>2022-04-14T09:13:51.482Z</time>
      </trkpt>
      <trkpt lat="47.39417" lon="4.9721">
        <ele>358</ele>
        <time>2022-04-14T09:13:56.401Z</time>
      </trkpt>
      <trkpt lat="47.39418" lon="4.97208">
        <ele>358</ele>
        <time>2022-04-14T09:14:00.451Z</time>
      </trkpt>
      <trkpt lat="47.39419" lon="4.97208">
        <ele>357</ele>
        <time>2022-04-14T09:14:04.468Z</time>
      </trkpt>
      <trkpt lat="47.39419" lon="4.97208">
        <ele>357</ele>
        <time>2022-04-14T09:14:13.482Z</time>
      </trkpt>
      <trkpt lat="47.39419" lon="4.97207">
        <ele>357</ele>
        <time>2022-04-14T09:14:18.475Z</time>
      </trkpt>
      <trkpt lat="47.39419" lon="4.97203">
        <ele>357</ele>
        <time>2022-04-14T09:14:23.487Z</time>
      </trkpt>
      <trkpt lat="47.3942" lon="4.97197">
        <ele>357</ele>
        <time>2022-04-14T09:14:28.446Z</time>
      </trkpt>
      <trkpt lat="47.39419" lon="4.97193">
        <ele>357</ele>
        <time>2022-04-14T09:14:32.446Z</time>
      </trkpt>
      <trkpt lat="47.39418" lon="4.97192">
        <ele>357</ele>
        <time>2022-04-14T09:14:37.442Z</time>
      </trkpt>
      <trkpt lat="47.39415" lon="4.97195">
        <ele>357</ele>
        <time>2022-04-14T09:14:42.439Z</time>
      </trkpt>
      <trkpt lat="47.39412" lon="4.97199">
        <ele>357</ele>
        <time>2022-04-14T09:14:46.449Z</time>
      </trkpt>
      <trkpt lat="47.39411" lon="4.97205">
        <ele>357</ele>
        <time>2022-04-14T09:14:50.456Z</time>
      </trkpt>
      <trkpt lat="47.3941" lon="4.97212">
        <ele>358</ele>
        <time>2022-04-14T09:16:44.452Z</time>
      </trkpt>
      <trkpt lat="47.39408" lon="4.97212">
        <ele>358</ele>
        <time>2022-04-14T09:16:49.445Z</time>
      </trkpt>
      <trkpt lat="47.39407" lon="4.97212">
        <ele>358</ele>
        <time>2022-04-14T09:16:54.448Z</time>
      </trkpt>
      <trkpt lat="47.39405" lon="4.97212">
        <ele>358</ele>
        <time>2022-04-14T09:16:59.407Z</time>
      </trkpt>
      <trkpt lat="47.39401" lon="4.97215">
        <ele>351</ele>
        <time>2022-04-14T09:17:03.484Z</time>
      </trkpt>
      <trkpt lat="47.39396" lon="4.97217">
        <ele>351</ele>
        <time>2022-04-14T09:17:08.487Z</time>
      </trkpt>
      <trkpt lat="47.39393" lon="4.9722">
        <ele>351</ele>
        <time>2022-04-14T09:17:13.505Z</time>
      </trkpt>
      <trkpt lat="47.3939" lon="4.97222">
        <ele>351</ele>
        <time>2022-04-14T09:17:18.421Z</time>
      </trkpt>
      <trkpt lat="47.39388" lon="4.97226">
        <ele>351</ele>
        <time>2022-04-14T09:17:22.473Z</time>
      </trkpt>
      <trkpt lat="47.39385" lon="4.97227">
        <ele>351</ele>
        <time>2022-04-14T09:17:27.459Z</time>
      </trkpt>
      <trkpt lat="47.39381" lon="4.97225">
        <ele>351</ele>
        <time>2022-04-14T09:17:32.462Z</time>
      </trkpt>
      <trkpt lat="47.3938" lon="4.97221">
        <ele>351</ele>
        <time>2022-04-14T09:17:37.452Z</time>
      </trkpt>
      <trkpt lat="47.3938" lon="4.97219">
        <ele>351</ele>
        <time>2022-04-14T09:17:41.494Z</time>
      </trkpt>
      <trkpt lat="47.39381" lon="4.97215">
        <ele>351</ele>
        <time>2022-04-14T09:17:46.491Z</time>
      </trkpt>
      <trkpt lat="47.39383" lon="4.9721">
        <ele>351</ele>
        <time>2022-04-14T09:17:51.498Z</time>
      </trkpt>
      <trkpt lat="47.39383" lon="4.97205">
        <ele>350</ele>
        <time>2022-04-14T09:17:56.450Z</time>
      </trkpt>
      <trkpt lat="47.39385" lon="4.97199">
        <ele>350</ele>
        <time>2022-04-14T09:18:00.474Z</time>
      </trkpt>
      <trkpt lat="47.39387" lon="4.97192">
        <ele>350</ele>
        <time>2022-04-14T09:18:05.444Z</time>
      </trkpt>
      <trkpt lat="47.3939" lon="4.97182">
        <ele>350</ele>
        <time>2022-04-14T09:18:10.496Z</time>
      </trkpt>
      <trkpt lat="47.39391" lon="4.97173">
        <ele>352</ele>
        <time>2022-04-14T09:18:15.441Z</time>
      </trkpt>
      <trkpt lat="47.39394" lon="4.97164">
        <ele>352</ele>
        <time>2022-04-14T09:18:20.443Z</time>
      </trkpt>
      <trkpt lat="47.39395" lon="4.97157">
        <ele>352</ele>
        <time>2022-04-14T09:18:24.486Z</time>
      </trkpt>
      <trkpt lat="47.39395" lon="4.97147">
        <ele>351</ele>
        <time>2022-04-14T09:18:29.496Z</time>
      </trkpt>
      <trkpt lat="47.39397" lon="4.97139">
        <ele>351</ele>
        <time>2022-04-14T09:18:34.444Z</time>
      </trkpt>
      <trkpt lat="47.39398" lon="4.97133">
        <ele>351</ele>
        <time>2022-04-14T09:18:39.506Z</time>
      </trkpt>
      <trkpt lat="47.39402" lon="4.97124">
        <ele>352</ele>
        <time>2022-04-14T09:18:44.440Z</time>
      </trkpt>
      <trkpt lat="47.39403" lon="4.97118">
        <ele>352</ele>
        <time>2022-04-14T09:18:49.488Z</time>
      </trkpt>
      <trkpt lat="47.39405" lon="4.97108">
        <ele>356</ele>
        <time>2022-04-14T09:18:54.490Z</time>
      </trkpt>
      <trkpt lat="47.39406" lon="4.97098">
        <ele>356</ele>
        <time>2022-04-14T09:18:59.435Z</time>
      </trkpt>
      <trkpt lat="47.3941" lon="4.97093">
        <ele>355</ele>
        <time>2022-04-14T09:19:03.467Z</time>
      </trkpt>
      <trkpt lat="47.39414" lon="4.97088">
        <ele>355</ele>
        <time>2022-04-14T09:19:08.469Z</time>
      </trkpt>
      <trkpt lat="47.39417" lon="4.97079">
        <ele>355</ele>
        <time>2022-04-14T09:19:13.433Z</time>
      </trkpt>
      <trkpt lat="47.3942" lon="4.9707">
        <ele>355</ele>
        <time>2022-04-14T09:19:18.460Z</time>
      </trkpt>
      <trkpt lat="47.39422" lon="4.97063">
        <ele>354</ele>
        <time>2022-04-14T09:19:22.474Z</time>
      </trkpt>
      <trkpt lat="47.39424" lon="4.97056">
        <ele>354</ele>
        <time>2022-04-14T09:19:27.452Z</time>
      </trkpt>
      <trkpt lat="47.39429" lon="4.97048">
        <ele>354</ele>
        <time>2022-04-14T09:19:32.431Z</time>
      </trkpt>
      <trkpt lat="47.3943" lon="4.97039">
        <ele>353</ele>
        <time>2022-04-14T09:19:36.437Z</time>
      </trkpt>
      <trkpt lat="47.39431" lon="4.9703">
        <ele>359</ele>
        <time>2022-04-14T09:19:40.458Z</time>
      </trkpt>
      <trkpt lat="47.39433" lon="4.9702">
        <ele>359</ele>
        <time>2022-04-14T09:19:45.459Z</time>
      </trkpt>
      <trkpt lat="47.39433" lon="4.97014">
        <ele>359</ele>
        <time>2022-04-14T09:19:49.480Z</time>
      </trkpt>
      <trkpt lat="47.39434" lon="4.97007">
        <ele>358</ele>
        <time>2022-04-14T09:19:54.435Z</time>
      </trkpt>
      <trkpt lat="47.39435" lon="4.96999">
        <ele>358</ele>
        <time>2022-04-14T09:19:58.484Z</time>
      </trkpt>
      <trkpt lat="47.39437" lon="4.96991">
        <ele>358</ele>
        <time>2022-04-14T09:20:03.506Z</time>
      </trkpt>
      <trkpt lat="47.3944" lon="4.96981">
        <ele>357</ele>
        <time>2022-04-14T09:20:08.467Z</time>
      </trkpt>
      <trkpt lat="47.39441" lon="4.96972">
        <ele>357</ele>
        <time>2022-04-14T09:20:13.448Z</time>
      </trkpt>
      <trkpt lat="47.39443" lon="4.96964">
        <ele>357</ele>
        <time>2022-04-14T09:20:18.450Z</time>
      </trkpt>
      <trkpt lat="47.39444" lon="4.96956">
        <ele>356</ele>
        <time>2022-04-14T09:20:23.488Z</time>
      </trkpt>
      <trkpt lat="47.39443" lon="4.96946">
        <ele>356</ele>
        <time>2022-04-14T09:20:28.441Z</time>
      </trkpt>
      <trkpt lat="47.39443" lon="4.96939">
        <ele>356</ele>
        <time>2022-04-14T09:20:32.442Z</time>
      </trkpt>
      <trkpt lat="47.39443" lon="4.96931">
        <ele>356</ele>
        <time>2022-04-14T09:20:37.464Z</time>
      </trkpt>
      <trkpt lat="47.39444" lon="4.96921">
        <ele>356</ele>
        <time>2022-04-14T09:20:42.422Z</time>
      </trkpt>
      <trkpt lat="47.39444" lon="4.96913">
        <ele>356</ele>
        <time>2022-04-14T09:20:47.456Z</time>
      </trkpt>
      <trkpt lat="47.39442" lon="4.96905">
        <ele>356</ele>
        <time>2022-04-14T09:20:52.421Z</time>
      </trkpt>
      <trkpt lat="47.39443" lon="4.96896">
        <ele>358</ele>
        <time>2022-04-14T09:20:57.453Z</time>
      </trkpt>
      <trkpt lat="47.39442" lon="4.96886">
        <ele>358</ele>
        <time>2022-04-14T09:21:02.423Z</time>
      </trkpt>
      <trkpt lat="47.39443" lon="4.9688">
        <ele>358</ele>
        <time>2022-04-14T09:21:06.463Z</time>
      </trkpt>
      <trkpt lat="47.39442" lon="4.96872">
        <ele>360</ele>
        <time>2022-04-14T09:21:11.476Z</time>
      </trkpt>
      <trkpt lat="47.39443" lon="4.96865">
        <ele>360</ele>
        <time>2022-04-14T09:21:16.440Z</time>
      </trkpt>
      <trkpt lat="47.39441" lon="4.96857">
        <ele>360</ele>
        <time>2022-04-14T09:21:21.463Z</time>
      </trkpt>
      <trkpt lat="47.39442" lon="4.96848">
        <ele>360</ele>
        <time>2022-04-14T09:21:26.465Z</time>
      </trkpt>
      <trkpt lat="47.39441" lon="4.96842">
        <ele>361</ele>
        <time>2022-04-14T09:21:31.453Z</time>
      </trkpt>
      <trkpt lat="47.3944" lon="4.96835">
        <ele>361</ele>
        <time>2022-04-14T09:21:35.494Z</time>
      </trkpt>
      <trkpt lat="47.39439" lon="4.96825">
        <ele>361</ele>
        <time>2022-04-14T09:21:40.421Z</time>
      </trkpt>
      <trkpt lat="47.39438" lon="4.96817">
        <ele>362</ele>
        <time>2022-04-14T09:21:44.464Z</time>
      </trkpt>
      <trkpt lat="47.39436" lon="4.96809">
        <ele>362</ele>
        <time>2022-04-14T09:21:49.422Z</time>
      </trkpt>
      <trkpt lat="47.39434" lon="4.968">
        <ele>362</ele>
        <time>2022-04-14T09:21:54.437Z</time>
      </trkpt>
      <trkpt lat="47.39431" lon="4.96792">
        <ele>362</ele>
        <time>2022-04-14T09:21:59.462Z</time>
      </trkpt>
      <trkpt lat="47.3943" lon="4.96785">
        <ele>359</ele>
        <time>2022-04-14T09:22:03.493Z</time>
      </trkpt>
      <trkpt lat="47.39428" lon="4.96777">
        <ele>359</ele>
        <time>2022-04-14T09:22:08.409Z</time>
      </trkpt>
      <trkpt lat="47.39424" lon="4.96768">
        <ele>359</ele>
        <time>2022-04-14T09:22:13.440Z</time>
      </trkpt>
      <trkpt lat="47.3942" lon="4.9676">
        <ele>360</ele>
        <time>2022-04-14T09:22:18.446Z</time>
      </trkpt>
      <trkpt lat="47.39418" lon="4.96753">
        <ele>360</ele>
        <time>2022-04-14T09:22:23.456Z</time>
      </trkpt>
      <trkpt lat="47.39415" lon="4.96746">
        <ele>360</ele>
        <time>2022-04-14T09:22:28.414Z</time>
      </trkpt>
      <trkpt lat="47.39413" lon="4.96741">
        <ele>360</ele>
        <time>2022-04-14T09:22:32.431Z</time>
      </trkpt>
      <trkpt lat="47.3941" lon="4.96733">
        <ele>364</ele>
        <time>2022-04-14T09:22:37.493Z</time>
      </trkpt>
      <trkpt lat="47.39405" lon="4.96725">
        <ele>364</ele>
        <time>2022-04-14T09:22:42.437Z</time>
      </trkpt>
      <trkpt lat="47.39399" lon="4.96717">
        <ele>362</ele>
        <time>2022-04-14T09:22:47.436Z</time>
      </trkpt>
      <trkpt lat="47.39396" lon="4.96711">
        <ele>362</ele>
        <time>2022-04-14T09:22:51.453Z</time>
      </trkpt>
      <trkpt lat="47.39391" lon="4.96704">
        <ele>363</ele>
        <time>2022-04-14T09:22:56.493Z</time>
      </trkpt>
      <trkpt lat="47.39388" lon="4.96695">
        <ele>363</ele>
        <time>2022-04-14T09:23:01.441Z</time>
      </trkpt>
      <trkpt lat="47.39387" lon="4.96691">
        <ele>363</ele>
        <time>2022-04-14T09:23:05.479Z</time>
      </trkpt>
      <trkpt lat="47.39385" lon="4.96685">
        <ele>363</ele>
        <time>2022-04-14T09:23:09.475Z</time>
      </trkpt>
      <trkpt lat="47.39383" lon="4.96679">
        <ele>365</ele>
        <time>2022-04-14T09:23:14.426Z</time>
      </trkpt>
      <trkpt lat="47.3938" lon="4.96671">
        <ele>365</ele>
        <time>2022-04-14T09:23:19.480Z</time>
      </trkpt>
      <trkpt lat="47.39377" lon="4.96664">
        <ele>365</ele>
        <time>2022-04-14T09:23:24.437Z</time>
      </trkpt>
      <trkpt lat="47.39373" lon="4.96657">
        <ele>363</ele>
        <time>2022-04-14T09:23:29.511Z</time>
      </trkpt>
      <trkpt lat="47.3937" lon="4.96649">
        <ele>365</ele>
        <time>2022-04-14T09:23:34.427Z</time>
      </trkpt>
      <trkpt lat="47.39367" lon="4.96642">
        <ele>365</ele>
        <time>2022-04-14T09:23:39.451Z</time>
      </trkpt>
      <trkpt lat="47.39364" lon="4.96632">
        <ele>365</ele>
        <time>2022-04-14T09:23:44.431Z</time>
      </trkpt>
      <trkpt lat="47.39361" lon="4.96625">
        <ele>367</ele>
        <time>2022-04-14T09:23:49.457Z</time>
      </trkpt>
      <trkpt lat="47.39356" lon="4.96618">
        <ele>367</ele>
        <time>2022-04-14T09:23:53.467Z</time>
      </trkpt>
      <trkpt lat="47.39354" lon="4.96609">
        <ele>367</ele>
        <time>2022-04-14T09:23:58.411Z</time>
      </trkpt>
      <trkpt lat="47.39352" lon="4.96603">
        <ele>367</ele>
        <time>2022-04-14T09:24:02.462Z</time>
      </trkpt>
      <trkpt lat="47.39347" lon="4.96596">
        <ele>368</ele>
        <time>2022-04-14T09:24:07.434Z</time>
      </trkpt>
      <trkpt lat="47.39344" lon="4.9659">
        <ele>368</ele>
        <time>2022-04-14T09:24:11.482Z</time>
      </trkpt>
      <trkpt lat="47.39341" lon="4.96582">
        <ele>368</ele>
        <time>2022-04-14T09:24:16.431Z</time>
      </trkpt>
      <trkpt lat="47.39338" lon="4.96576">
        <ele>368</ele>
        <time>2022-04-14T09:24:21.462Z</time>
      </trkpt>
      <trkpt lat="47.39334" lon="4.96568">
        <ele>369</ele>
        <time>2022-04-14T09:24:26.447Z</time>
      </trkpt>
      <trkpt lat="47.39332" lon="4.96559">
        <ele>369</ele>
        <time>2022-04-14T09:24:31.463Z</time>
      </trkpt>
      <trkpt lat="47.39328" lon="4.96553">
        <ele>369</ele>
        <time>2022-04-14T09:24:36.462Z</time>
      </trkpt>
      <trkpt lat="47.39325" lon="4.96543">
        <ele>369</ele>
        <time>2022-04-14T09:24:41.450Z</time>
      </trkpt>
      <trkpt lat="47.39322" lon="4.96535">
        <ele>371</ele>
        <time>2022-04-14T09:24:46.426Z</time>
      </trkpt>
      <trkpt lat="47.39321" lon="4.96527">
        <ele>371</ele>
        <time>2022-04-14T09:24:50.452Z</time>
      </trkpt>
      <trkpt lat="47.3932" lon="4.96518">
        <ele>371</ele>
        <time>2022-04-14T09:24:55.452Z</time>
      </trkpt>
      <trkpt lat="47.39317" lon="4.96513">
        <ele>370</ele>
        <time>2022-04-14T09:24:59.513Z</time>
      </trkpt>
      <trkpt lat="47.39314" lon="4.96505">
        <ele>370</ele>
        <time>2022-04-14T09:25:04.438Z</time>
      </trkpt>
      <trkpt lat="47.39314" lon="4.96497">
        <ele>370</ele>
        <time>2022-04-14T09:25:09.467Z</time>
      </trkpt>
      <trkpt lat="47.39311" lon="4.96488">
        <ele>370</ele>
        <time>2022-04-14T09:25:14.431Z</time>
      </trkpt>
      <trkpt lat="47.39308" lon="4.9648">
        <ele>370</ele>
        <time>2022-04-14T09:25:19.512Z</time>
      </trkpt>
      <trkpt lat="47.39307" lon="4.96471">
        <ele>370</ele>
        <time>2022-04-14T09:25:24.426Z</time>
      </trkpt>
      <trkpt lat="47.39305" lon="4.96461">
        <ele>370</ele>
        <time>2022-04-14T09:25:29.485Z</time>
      </trkpt>
      <trkpt lat="47.39306" lon="4.96452">
        <ele>371</ele>
        <time>2022-04-14T09:25:34.431Z</time>
      </trkpt>
      <trkpt lat="47.39302" lon="4.96444">
        <ele>371</ele>
        <time>2022-04-14T09:25:39.451Z</time>
      </trkpt>
      <trkpt lat="47.393" lon="4.96438">
        <ele>371</ele>
        <time>2022-04-14T09:25:43.454Z</time>
      </trkpt>
      <trkpt lat="47.39298" lon="4.96429">
        <ele>373</ele>
        <time>2022-04-14T09:25:48.426Z</time>
      </trkpt>
      <trkpt lat="47.39296" lon="4.96423">
        <ele>373</ele>
        <time>2022-04-14T09:25:52.468Z</time>
      </trkpt>
      <trkpt lat="47.39295" lon="4.96413">
        <ele>373</ele>
        <time>2022-04-14T09:25:57.402Z</time>
      </trkpt>
      <trkpt lat="47.39294" lon="4.96405">
        <ele>373</ele>
        <time>2022-04-14T09:26:01.425Z</time>
      </trkpt>
      <trkpt lat="47.39292" lon="4.96398">
        <ele>376</ele>
        <time>2022-04-14T09:26:05.511Z</time>
      </trkpt>
      <trkpt lat="47.39291" lon="4.96391">
        <ele>375</ele>
        <time>2022-04-14T09:26:10.434Z</time>
      </trkpt>
      <trkpt lat="47.39289" lon="4.96383">
        <ele>375</ele>
        <time>2022-04-14T09:26:15.468Z</time>
      </trkpt>
      <trkpt lat="47.39287" lon="4.96374">
        <ele>376</ele>
        <time>2022-04-14T09:26:20.441Z</time>
      </trkpt>
      <trkpt lat="47.39286" lon="4.96365">
        <ele>376</ele>
        <time>2022-04-14T09:26:25.442Z</time>
      </trkpt>
      <trkpt lat="47.39284" lon="4.96355">
        <ele>376</ele>
        <time>2022-04-14T09:26:30.402Z</time>
      </trkpt>
      <trkpt lat="47.39284" lon="4.96349">
        <ele>376</ele>
        <time>2022-04-14T09:26:34.443Z</time>
      </trkpt>
      <trkpt lat="47.39285" lon="4.96341">
        <ele>376</ele>
        <time>2022-04-14T09:26:39.486Z</time>
      </trkpt>
      <trkpt lat="47.39285" lon="4.96331">
        <ele>376</ele>
        <time>2022-04-14T09:26:44.425Z</time>
      </trkpt>
      <trkpt lat="47.39284" lon="4.96324">
        <ele>376</ele>
        <time>2022-04-14T09:26:49.450Z</time>
      </trkpt>
      <trkpt lat="47.39284" lon="4.96318">
        <ele>377</ele>
        <time>2022-04-14T09:26:53.451Z</time>
      </trkpt>
      <trkpt lat="47.39282" lon="4.96309">
        <ele>377</ele>
        <time>2022-04-14T09:26:58.442Z</time>
      </trkpt>
      <trkpt lat="47.39282" lon="4.963">
        <ele>377</ele>
        <time>2022-04-14T09:27:03.482Z</time>
      </trkpt>
      <trkpt lat="47.39283" lon="4.96292">
        <ele>377</ele>
        <time>2022-04-14T09:27:08.452Z</time>
      </trkpt>
      <trkpt lat="47.39283" lon="4.96283">
        <ele>378</ele>
        <time>2022-04-14T09:27:13.485Z</time>
      </trkpt>
      <trkpt lat="47.39284" lon="4.96274">
        <ele>378</ele>
        <time>2022-04-14T09:27:18.422Z</time>
      </trkpt>
      <trkpt lat="47.39285" lon="4.96267">
        <ele>378</ele>
        <time>2022-04-14T09:27:22.446Z</time>
      </trkpt>
      <trkpt lat="47.39285" lon="4.96259">
        <ele>379</ele>
        <time>2022-04-14T09:27:26.473Z</time>
      </trkpt>
      <trkpt lat="47.39284" lon="4.96251">
        <ele>379</ele>
        <time>2022-04-14T09:27:31.470Z</time>
      </trkpt>
      <trkpt lat="47.39284" lon="4.96242">
        <ele>379</ele>
        <time>2022-04-14T09:27:36.450Z</time>
      </trkpt>
      <trkpt lat="47.39284" lon="4.96233">
        <ele>382</ele>
        <time>2022-04-14T09:27:41.478Z</time>
      </trkpt>
      <trkpt lat="47.39283" lon="4.96223">
        <ele>382</ele>
        <time>2022-04-14T09:27:46.449Z</time>
      </trkpt>
      <trkpt lat="47.39284" lon="4.96215">
        <ele>382</ele>
        <time>2022-04-14T09:27:51.456Z</time>
      </trkpt>
      <trkpt lat="47.39283" lon="4.96208">
        <ele>383</ele>
        <time>2022-04-14T09:27:56.428Z</time>
      </trkpt>
      <trkpt lat="47.39284" lon="4.96201">
        <ele>383</ele>
        <time>2022-04-14T09:28:01.458Z</time>
      </trkpt>
      <trkpt lat="47.39286" lon="4.962">
        <ele>383</ele>
        <time>2022-04-14T09:28:05.466Z</time>
      </trkpt>
      <trkpt lat="47.39288" lon="4.96192">
        <ele>383</ele>
        <time>2022-04-14T09:28:25.484Z</time>
      </trkpt>
      <trkpt lat="47.39288" lon="4.96185">
        <ele>383</ele>
        <time>2022-04-14T09:28:30.432Z</time>
      </trkpt>
      <trkpt lat="47.3929" lon="4.96181">
        <ele>383</ele>
        <time>2022-04-14T09:28:35.459Z</time>
      </trkpt>
      <trkpt lat="47.3929" lon="4.96176">
        <ele>385</ele>
        <time>2022-04-14T09:28:40.393Z</time>
      </trkpt>
      <trkpt lat="47.39291" lon="4.96172">
        <ele>385</ele>
        <time>2022-04-14T09:28:44.411Z</time>
      </trkpt>
      <trkpt lat="47.39291" lon="4.96165">
        <ele>385</ele>
        <time>2022-04-14T09:28:49.387Z</time>
      </trkpt>
      <trkpt lat="47.39288" lon="4.96157">
        <ele>385</ele>
        <time>2022-04-14T09:28:54.447Z</time>
      </trkpt>
      <trkpt lat="47.39286" lon="4.96148">
        <ele>386</ele>
        <time>2022-04-14T09:28:59.458Z</time>
      </trkpt>
      <trkpt lat="47.39286" lon="4.96139">
        <ele>386</ele>
        <time>2022-04-14T09:29:04.440Z</time>
      </trkpt>
      <trkpt lat="47.39287" lon="4.9613">
        <ele>386</ele>
        <time>2022-04-14T09:29:09.467Z</time>
      </trkpt>
      <trkpt lat="47.3929" lon="4.96122">
        <ele>387</ele>
        <time>2022-04-14T09:29:14.454Z</time>
      </trkpt>
      <trkpt lat="47.3929" lon="4.96119">
        <ele>387</ele>
        <time>2022-04-14T09:29:19.430Z</time>
      </trkpt>
      <trkpt lat="47.3929" lon="4.96109">
        <ele>387</ele>
        <time>2022-04-14T09:29:24.443Z</time>
      </trkpt>
      <trkpt lat="47.39291" lon="4.96101">
        <ele>387</ele>
        <time>2022-04-14T09:29:29.419Z</time>
      </trkpt>
      <trkpt lat="47.39292" lon="4.96095">
        <ele>386</ele>
        <time>2022-04-14T09:29:33.451Z</time>
      </trkpt>
      <trkpt lat="47.3929" lon="4.96089">
        <ele>386</ele>
        <time>2022-04-14T09:29:38.430Z</time>
      </trkpt>
      <trkpt lat="47.3929" lon="4.9608">
        <ele>386</ele>
        <time>2022-04-14T09:29:43.380Z</time>
      </trkpt>
      <trkpt lat="47.3929" lon="4.96073">
        <ele>386</ele>
        <time>2022-04-14T09:29:47.453Z</time>
      </trkpt>
      <trkpt lat="47.39292" lon="4.96058">
        <ele>389</ele>
        <time>2022-04-14T09:30:14.441Z</time>
      </trkpt>
      <trkpt lat="47.39293" lon="4.96053">
        <ele>389</ele>
        <time>2022-04-14T09:30:19.417Z</time>
      </trkpt>
      <trkpt lat="47.39295" lon="4.96046">
        <ele>389</ele>
        <time>2022-04-14T09:30:24.404Z</time>
      </trkpt>
      <trkpt lat="47.39299" lon="4.96036">
        <ele>388</ele>
        <time>2022-04-14T09:30:29.401Z</time>
      </trkpt>
      <trkpt lat="47.393" lon="4.9603">
        <ele>388</ele>
        <time>2022-04-14T09:30:33.410Z</time>
      </trkpt>
      <trkpt lat="47.39302" lon="4.96021">
        <ele>388</ele>
        <time>2022-04-14T09:30:38.405Z</time>
      </trkpt>
      <trkpt lat="47.39305" lon="4.96015">
        <ele>388</ele>
        <time>2022-04-14T09:30:43.471Z</time>
      </trkpt>
      <trkpt lat="47.39307" lon="4.96009">
        <ele>388</ele>
        <time>2022-04-14T09:30:48.402Z</time>
      </trkpt>
      <trkpt lat="47.39309" lon="4.96004">
        <ele>388</ele>
        <time>2022-04-14T09:30:52.446Z</time>
      </trkpt>
      <trkpt lat="47.39314" lon="4.95997">
        <ele>388</ele>
        <time>2022-04-14T09:31:10.388Z</time>
      </trkpt>
      <trkpt lat="47.39314" lon="4.95997">
        <ele>388</ele>
        <time>2022-04-14T09:31:14.436Z</time>
      </trkpt>
      <trkpt lat="47.39316" lon="4.95994">
        <ele>388</ele>
        <time>2022-04-14T09:31:19.441Z</time>
      </trkpt>
      <trkpt lat="47.39317" lon="4.95991">
        <ele>388</ele>
        <time>2022-04-14T09:31:24.460Z</time>
      </trkpt>
      <trkpt lat="47.3932" lon="4.95992">
        <ele>394</ele>
        <time>2022-04-14T09:31:29.456Z</time>
      </trkpt>
      <trkpt lat="47.3932" lon="4.95994">
        <ele>394</ele>
        <time>2022-04-14T09:32:35.474Z</time>
      </trkpt>
      <trkpt lat="47.39322" lon="4.95995">
        <ele>394</ele>
        <time>2022-04-14T09:32:40.433Z</time>
      </trkpt>
      <trkpt lat="47.39322" lon="4.95997">
        <ele>394</ele>
        <time>2022-04-14T09:32:49.459Z</time>
      </trkpt>
      <trkpt lat="47.39324" lon="4.95998">
        <ele>394</ele>
        <time>2022-04-14T09:32:54.485Z</time>
      </trkpt>
      <trkpt lat="47.39328" lon="4.95999">
        <ele>394</ele>
        <time>2022-04-14T09:32:59.420Z</time>
      </trkpt>
      <trkpt lat="47.3933" lon="4.96003">
        <ele>394</ele>
        <time>2022-04-14T09:33:23.409Z</time>
      </trkpt>
      <trkpt lat="47.39331" lon="4.96005">
        <ele>394</ele>
        <time>2022-04-14T09:33:28.437Z</time>
      </trkpt>
      <trkpt lat="47.3933" lon="4.96006">
        <ele>394</ele>
        <time>2022-04-14T09:33:33.481Z</time>
      </trkpt>
      <trkpt lat="47.39329" lon="4.96008">
        <ele>394</ele>
        <time>2022-04-14T09:33:38.420Z</time>
      </trkpt>
      <trkpt lat="47.39329" lon="4.96013">
        <ele>394</ele>
        <time>2022-04-14T09:33:43.402Z</time>
      </trkpt>
      <trkpt lat="47.39329" lon="4.96019">
        <ele>396</ele>
        <time>2022-04-14T09:33:48.398Z</time>
      </trkpt>
      <trkpt lat="47.3933" lon="4.96024">
        <ele>396</ele>
        <time>2022-04-14T09:33:53.395Z</time>
      </trkpt>
      <trkpt lat="47.39331" lon="4.96027">
        <ele>396</ele>
        <time>2022-04-14T09:33:58.429Z</time>
      </trkpt>
      <trkpt lat="47.39333" lon="4.96032">
        <ele>396</ele>
        <time>2022-04-14T09:34:03.431Z</time>
      </trkpt>
      <trkpt lat="47.39337" lon="4.96037">
        <ele>396</ele>
        <time>2022-04-14T09:34:13.444Z</time>
      </trkpt>
      <trkpt lat="47.39339" lon="4.9604">
        <ele>396</ele>
        <time>2022-04-14T09:34:18.478Z</time>
      </trkpt>
      <trkpt lat="47.39341" lon="4.96042">
        <ele>396</ele>
        <time>2022-04-14T09:34:23.408Z</time>
      </trkpt>
      <trkpt lat="47.39343" lon="4.96041">
        <ele>396</ele>
        <time>2022-04-14T09:34:28.426Z</time>
      </trkpt>
      <trkpt lat="47.39346" lon="4.96042">
        <ele>396</ele>
        <time>2022-04-14T09:34:33.419Z</time>
      </trkpt>
      <trkpt lat="47.39349" lon="4.96043">
        <ele>407</ele>
        <time>2022-04-14T09:34:38.431Z</time>
      </trkpt>
      <trkpt lat="47.39351" lon="4.96044">
        <ele>407</ele>
        <time>2022-04-14T09:34:43.403Z</time>
      </trkpt>
      <trkpt lat="47.39354" lon="4.96044">
        <ele>407</ele>
        <time>2022-04-14T09:34:48.401Z</time>
      </trkpt>
      <trkpt lat="47.39357" lon="4.96043">
        <ele>407</ele>
        <time>2022-04-14T09:34:53.413Z</time>
      </trkpt>
      <trkpt lat="47.3936" lon="4.96042">
        <ele>407</ele>
        <time>2022-04-14T09:34:58.425Z</time>
      </trkpt>
      <trkpt lat="47.39361" lon="4.96041">
        <ele>406</ele>
        <time>2022-04-14T09:35:03.406Z</time>
      </trkpt>
      <trkpt lat="47.39364" lon="4.96042">
        <ele>407</ele>
        <time>2022-04-14T09:35:08.401Z</time>
      </trkpt>
      <trkpt lat="47.39364" lon="4.96042">
        <ele>407</ele>
        <time>2022-04-14T09:35:13.396Z</time>
      </trkpt>
      <trkpt lat="47.39368" lon="4.96043">
        <ele>407</ele>
        <time>2022-04-14T09:35:27.444Z</time>
      </trkpt>
      <trkpt lat="47.3937" lon="4.96043">
        <ele>407</ele>
        <time>2022-04-14T09:35:31.469Z</time>
      </trkpt>
      <trkpt lat="47.39372" lon="4.96043">
        <ele>407</ele>
        <time>2022-04-14T09:35:35.505Z</time>
      </trkpt>
      <trkpt lat="47.39374" lon="4.96044">
        <ele>407</ele>
        <time>2022-04-14T09:35:40.469Z</time>
      </trkpt>
      <trkpt lat="47.39376" lon="4.96047">
        <ele>417</ele>
        <time>2022-04-14T09:35:45.411Z</time>
      </trkpt>
      <trkpt lat="47.39377" lon="4.96049">
        <ele>417</ele>
        <time>2022-04-14T09:35:49.418Z</time>
      </trkpt>
      <trkpt lat="47.3938" lon="4.96052">
        <ele>417</ele>
        <time>2022-04-14T09:35:54.424Z</time>
      </trkpt>
      <trkpt lat="47.39381" lon="4.96056">
        <ele>417</ele>
        <time>2022-04-14T09:36:04.402Z</time>
      </trkpt>
      <trkpt lat="47.39384" lon="4.96057">
        <ele>417</ele>
        <time>2022-04-14T09:36:09.405Z</time>
      </trkpt>
      <trkpt lat="47.39386" lon="4.96057">
        <ele>417</ele>
        <time>2022-04-14T09:36:14.388Z</time>
      </trkpt>
      <trkpt lat="47.39389" lon="4.96058">
        <ele>417</ele>
        <time>2022-04-14T09:36:18.416Z</time>
      </trkpt>
      <trkpt lat="47.39391" lon="4.96059">
        <ele>417</ele>
        <time>2022-04-14T09:36:22.448Z</time>
      </trkpt>
      <trkpt lat="47.39396" lon="4.96058">
        <ele>417</ele>
        <time>2022-04-14T09:36:27.473Z</time>
      </trkpt>
      <trkpt lat="47.394" lon="4.96056">
        <ele>417</ele>
        <time>2022-04-14T09:36:32.428Z</time>
      </trkpt>
      <trkpt lat="47.39401" lon="4.96056">
        <ele>417</ele>
        <time>2022-04-14T09:36:37.454Z</time>
      </trkpt>
      <trkpt lat="47.39403" lon="4.96055">
        <ele>417</ele>
        <time>2022-04-14T09:36:42.441Z</time>
      </trkpt>
      <trkpt lat="47.39406" lon="4.96055">
        <ele>425</ele>
        <time>2022-04-14T09:36:47.443Z</time>
      </trkpt>
      <trkpt lat="47.3941" lon="4.96053">
        <ele>425</ele>
        <time>2022-04-14T09:36:52.409Z</time>
      </trkpt>
      <trkpt lat="47.39411" lon="4.96052">
        <ele>425</ele>
        <time>2022-04-14T09:36:57.404Z</time>
      </trkpt>
      <trkpt lat="47.39413" lon="4.9605">
        <ele>425</ele>
        <time>2022-04-14T09:37:01.418Z</time>
      </trkpt>
      <trkpt lat="47.39415" lon="4.96047">
        <ele>425</ele>
        <time>2022-04-14T09:37:06.405Z</time>
      </trkpt>
      <trkpt lat="47.39418" lon="4.96045">
        <ele>425</ele>
        <time>2022-04-14T09:37:11.412Z</time>
      </trkpt>
      <trkpt lat="47.3942" lon="4.96044">
        <ele>425</ele>
        <time>2022-04-14T09:37:16.407Z</time>
      </trkpt>
      <trkpt lat="47.39423" lon="4.96043">
        <ele>425</ele>
        <time>2022-04-14T09:37:20.437Z</time>
      </trkpt>
      <trkpt lat="47.39426" lon="4.9604">
        <ele>425</ele>
        <time>2022-04-14T09:37:25.406Z</time>
      </trkpt>
      <trkpt lat="47.39428" lon="4.9604">
        <ele>425</ele>
        <time>2022-04-14T09:37:30.457Z</time>
      </trkpt>
      <trkpt lat="47.39431" lon="4.96039">
        <ele>430</ele>
        <time>2022-04-14T09:37:34.495Z</time>
      </trkpt>
      <trkpt lat="47.39435" lon="4.96038">
        <ele>430</ele>
        <time>2022-04-14T09:37:39.460Z</time>
      </trkpt>
      <trkpt lat="47.3944" lon="4.96035">
        <ele>430</ele>
        <time>2022-04-14T09:37:44.513Z</time>
      </trkpt>
      <trkpt lat="47.39441" lon="4.96035">
        <ele>430</ele>
        <time>2022-04-14T09:37:49.414Z</time>
      </trkpt>
      <trkpt lat="47.39444" lon="4.96034">
        <ele>430</ele>
        <time>2022-04-14T09:37:54.412Z</time>
      </trkpt>
      <trkpt lat="47.39448" lon="4.96037">
        <ele>430</ele>
        <time>2022-04-14T09:37:59.427Z</time>
      </trkpt>
      <trkpt lat="47.3945" lon="4.96038">
        <ele>430</ele>
        <time>2022-04-14T09:38:04.396Z</time>
      </trkpt>
      <trkpt lat="47.39455" lon="4.96036">
        <ele>430</ele>
        <time>2022-04-14T09:38:09.406Z</time>
      </trkpt>
      <trkpt lat="47.3946" lon="4.96034">
        <ele>434</ele>
        <time>2022-04-14T09:38:14.390Z</time>
      </trkpt>
      <trkpt lat="47.39463" lon="4.96035">
        <ele>434</ele>
        <time>2022-04-14T09:38:19.397Z</time>
      </trkpt>
      <trkpt lat="47.39467" lon="4.96034">
        <ele>434</ele>
        <time>2022-04-14T09:38:24.437Z</time>
      </trkpt>
      <trkpt lat="47.39472" lon="4.96034">
        <ele>434</ele>
        <time>2022-04-14T09:38:29.394Z</time>
      </trkpt>
      <trkpt lat="47.39477" lon="4.96033">
        <ele>434</ele>
        <time>2022-04-14T09:38:34.417Z</time>
      </trkpt>
      <trkpt lat="47.39481" lon="4.96034">
        <ele>434</ele>
        <time>2022-04-14T09:38:38.414Z</time>
      </trkpt>
      <trkpt lat="47.39483" lon="4.96034">
        <ele>434</ele>
        <time>2022-04-14T09:38:42.420Z</time>
      </trkpt>
      <trkpt lat="47.39491" lon="4.96036">
        <ele>441</ele>
        <time>2022-04-14T09:38:47.519Z</time>
      </trkpt>
      <trkpt lat="47.39493" lon="4.96035">
        <ele>441</ele>
        <time>2022-04-14T09:38:52.441Z</time>
      </trkpt>
      <trkpt lat="47.39499" lon="4.96035">
        <ele>441</ele>
        <time>2022-04-14T09:38:57.438Z</time>
      </trkpt>
      <trkpt lat="47.39501" lon="4.96035">
        <ele>441</ele>
        <time>2022-04-14T09:39:02.421Z</time>
      </trkpt>
      <trkpt lat="47.39504" lon="4.96034">
        <ele>441</ele>
        <time>2022-04-14T09:39:06.465Z</time>
      </trkpt>
      <trkpt lat="47.39506" lon="4.96032">
        <ele>441</ele>
        <time>2022-04-14T09:39:11.463Z</time>
      </trkpt>
      <trkpt lat="47.3951" lon="4.9603">
        <ele>441</ele>
        <time>2022-04-14T09:39:15.479Z</time>
      </trkpt>
      <trkpt lat="47.39514" lon="4.96028">
        <ele>447</ele>
        <time>2022-04-14T09:39:20.466Z</time>
      </trkpt>
      <trkpt lat="47.39519" lon="4.96026">
        <ele>447</ele>
        <time>2022-04-14T09:39:25.483Z</time>
      </trkpt>
      <trkpt lat="47.39524" lon="4.96023">
        <ele>447</ele>
        <time>2022-04-14T09:39:30.445Z</time>
      </trkpt>
      <trkpt lat="47.39528" lon="4.96022">
        <ele>447</ele>
        <time>2022-04-14T09:39:35.526Z</time>
      </trkpt>
      <trkpt lat="47.39532" lon="4.96019">
        <ele>447</ele>
        <time>2022-04-14T09:39:40.438Z</time>
      </trkpt>
      <trkpt lat="47.39536" lon="4.96017">
        <ele>447</ele>
        <time>2022-04-14T09:39:45.469Z</time>
      </trkpt>
      <trkpt lat="47.39539" lon="4.96014">
        <ele>447</ele>
        <time>2022-04-14T09:39:50.469Z</time>
      </trkpt>
      <trkpt lat="47.39544" lon="4.96011">
        <ele>453</ele>
        <time>2022-04-14T09:39:55.439Z</time>
      </trkpt>
      <trkpt lat="47.39549" lon="4.96008">
        <ele>453</ele>
        <time>2022-04-14T09:40:00.500Z</time>
      </trkpt>
      <trkpt lat="47.39552" lon="4.96004">
        <ele>453</ele>
        <time>2022-04-14T09:40:05.449Z</time>
      </trkpt>
      <trkpt lat="47.39557" lon="4.96">
        <ele>453</ele>
        <time>2022-04-14T09:40:10.430Z</time>
      </trkpt>
      <trkpt lat="47.3956" lon="4.95997">
        <ele>453</ele>
        <time>2022-04-14T09:40:14.446Z</time>
      </trkpt>
      <trkpt lat="47.39564" lon="4.95995">
        <ele>453</ele>
        <time>2022-04-14T09:40:19.513Z</time>
      </trkpt>
      <trkpt lat="47.39568" lon="4.95991">
        <ele>453</ele>
        <time>2022-04-14T09:40:24.499Z</time>
      </trkpt>
      <trkpt lat="47.39571" lon="4.95985">
        <ele>460</ele>
        <time>2022-04-14T09:40:29.481Z</time>
      </trkpt>
      <trkpt lat="47.39574" lon="4.95982">
        <ele>460</ele>
        <time>2022-04-14T09:40:34.471Z</time>
      </trkpt>
      <trkpt lat="47.39577" lon="4.95977">
        <ele>460</ele>
        <time>2022-04-14T09:40:39.443Z</time>
      </trkpt>
      <trkpt lat="47.39579" lon="4.95973">
        <ele>460</ele>
        <time>2022-04-14T09:40:44.432Z</time>
      </trkpt>
      <trkpt lat="47.39584" lon="4.9597">
        <ele>460</ele>
        <time>2022-04-14T09:40:49.417Z</time>
      </trkpt>
      <trkpt lat="47.39588" lon="4.95965">
        <ele>460</ele>
        <time>2022-04-14T09:40:53.459Z</time>
      </trkpt>
      <trkpt lat="47.39595" lon="4.95958">
        <ele>461</ele>
        <time>2022-04-14T09:41:03.467Z</time>
      </trkpt>
      <trkpt lat="47.39597" lon="4.95955">
        <ele>464</ele>
        <time>2022-04-14T09:41:08.466Z</time>
      </trkpt>
      <trkpt lat="47.39598" lon="4.95953">
        <ele>464</ele>
        <time>2022-04-14T09:41:12.425Z</time>
      </trkpt>
      <trkpt lat="47.39598" lon="4.95953">
        <ele>464</ele>
        <time>2022-04-14T09:41:17.415Z</time>
      </trkpt>
      <trkpt lat="47.396" lon="4.95951">
        <ele>464</ele>
        <time>2022-04-14T09:41:51.454Z</time>
      </trkpt>
      <trkpt lat="47.396" lon="4.95951">
        <ele>464</ele>
        <time>2022-04-14T09:43:05.441Z</time>
      </trkpt>
      <trkpt lat="47.39601" lon="4.95942">
        <ele>464</ele>
        <time>2022-04-14T09:44:10.420Z</time>
      </trkpt>
      <trkpt lat="47.39602" lon="4.95937">
        <ele>464</ele>
        <time>2022-04-14T09:44:14.465Z</time>
      </trkpt>
      <trkpt lat="47.39601" lon="4.95928">
        <ele>463</ele>
        <time>2022-04-14T09:44:19.479Z</time>
      </trkpt>
      <trkpt lat="47.39598" lon="4.95919">
        <ele>463</ele>
        <time>2022-04-14T09:44:24.485Z</time>
      </trkpt>
      <trkpt lat="47.39596" lon="4.95911">
        <ele>461</ele>
        <time>2022-04-14T09:44:29.437Z</time>
      </trkpt>
      <trkpt lat="47.39593" lon="4.95905">
        <ele>461</ele>
        <time>2022-04-14T09:44:33.481Z</time>
      </trkpt>
      <trkpt lat="47.39591" lon="4.95899">
        <ele>460</ele>
        <time>2022-04-14T09:44:38.475Z</time>
      </trkpt>
      <trkpt lat="47.3959" lon="4.95893">
        <ele>460</ele>
        <time>2022-04-14T09:44:43.421Z</time>
      </trkpt>
      <trkpt lat="47.39589" lon="4.95888">
        <ele>460</ele>
        <time>2022-04-14T09:44:47.486Z</time>
      </trkpt>
      <trkpt lat="47.39587" lon="4.9588">
        <ele>460</ele>
        <time>2022-04-14T09:44:52.480Z</time>
      </trkpt>
      <trkpt lat="47.39584" lon="4.95875">
        <ele>458</ele>
        <time>2022-04-14T09:44:57.451Z</time>
      </trkpt>
      <trkpt lat="47.39581" lon="4.95869">
        <ele>458</ele>
        <time>2022-04-14T09:45:02.467Z</time>
      </trkpt>
      <trkpt lat="47.3958" lon="4.95864">
        <ele>458</ele>
        <time>2022-04-14T09:45:06.480Z</time>
      </trkpt>
      <trkpt lat="47.39578" lon="4.95859">
        <ele>458</ele>
        <time>2022-04-14T09:45:11.465Z</time>
      </trkpt>
      <trkpt lat="47.39578" lon="4.95854">
        <ele>458</ele>
        <time>2022-04-14T09:45:15.483Z</time>
      </trkpt>
      <trkpt lat="47.39578" lon="4.95848">
        <ele>458</ele>
        <time>2022-04-14T09:45:20.471Z</time>
      </trkpt>
      <trkpt lat="47.39578" lon="4.95843">
        <ele>455</ele>
        <time>2022-04-14T09:45:25.516Z</time>
      </trkpt>
      <trkpt lat="47.39577" lon="4.95836">
        <ele>455</ele>
        <time>2022-04-14T09:45:30.482Z</time>
      </trkpt>
      <trkpt lat="47.39577" lon="4.95828">
        <ele>455</ele>
        <time>2022-04-14T09:45:35.480Z</time>
      </trkpt>
      <trkpt lat="47.39578" lon="4.95821">
        <ele>455</ele>
        <time>2022-04-14T09:45:40.453Z</time>
      </trkpt>
      <trkpt lat="47.39579" lon="4.95815">
        <ele>452</ele>
        <time>2022-04-14T09:45:45.484Z</time>
      </trkpt>
      <trkpt lat="47.39582" lon="4.95811">
        <ele>452</ele>
        <time>2022-04-14T09:45:50.409Z</time>
      </trkpt>
      <trkpt lat="47.39584" lon="4.95807">
        <ele>452</ele>
        <time>2022-04-14T09:45:55.411Z</time>
      </trkpt>
      <trkpt lat="47.39583" lon="4.95801">
        <ele>452</ele>
        <time>2022-04-14T09:46:00.394Z</time>
      </trkpt>
      <trkpt lat="47.39584" lon="4.95791">
        <ele>446</ele>
        <time>2022-04-14T09:46:51.390Z</time>
      </trkpt>
      <trkpt lat="47.39586" lon="4.95791">
        <ele>446</ele>
        <time>2022-04-14T09:47:01.420Z</time>
      </trkpt>
      <trkpt lat="47.39588" lon="4.95789">
        <ele>446</ele>
        <time>2022-04-14T09:47:05.418Z</time>
      </trkpt>
      <trkpt lat="47.39589" lon="4.95789">
        <ele>446</ele>
        <time>2022-04-14T09:47:10.395Z</time>
      </trkpt>
      <trkpt lat="47.39589" lon="4.95785">
        <ele>446</ele>
        <time>2022-04-14T09:47:14.472Z</time>
      </trkpt>
      <trkpt lat="47.39587" lon="4.95778">
        <ele>446</ele>
        <time>2022-04-14T09:47:50.476Z</time>
      </trkpt>
      <trkpt lat="47.39588" lon="4.95777">
        <ele>446</ele>
        <time>2022-04-14T09:47:55.411Z</time>
      </trkpt>
      <trkpt lat="47.39589" lon="4.95774">
        <ele>446</ele>
        <time>2022-04-14T09:48:00.399Z</time>
      </trkpt>
      <trkpt lat="47.39592" lon="4.9577">
        <ele>446</ele>
        <time>2022-04-14T09:48:04.425Z</time>
      </trkpt>
      <trkpt lat="47.39596" lon="4.95766">
        <ele>446</ele>
        <time>2022-04-14T09:48:09.411Z</time>
      </trkpt>
      <trkpt lat="47.39599" lon="4.95763">
        <ele>446</ele>
        <time>2022-04-14T09:48:13.473Z</time>
      </trkpt>
      <trkpt lat="47.39601" lon="4.95761">
        <ele>446</ele>
        <time>2022-04-14T09:48:18.401Z</time>
      </trkpt>
      <trkpt lat="47.39603" lon="4.95757">
        <ele>446</ele>
        <time>2022-04-14T09:48:22.464Z</time>
      </trkpt>
      <trkpt lat="47.39608" lon="4.95755">
        <ele>446</ele>
        <time>2022-04-14T09:48:27.434Z</time>
      </trkpt>
      <trkpt lat="47.39612" lon="4.95753">
        <ele>446</ele>
        <time>2022-04-14T09:48:31.498Z</time>
      </trkpt>
      <trkpt lat="47.39618" lon="4.95751">
        <ele>446</ele>
        <time>2022-04-14T09:48:36.420Z</time>
      </trkpt>
      <trkpt lat="47.39624" lon="4.95751">
        <ele>446</ele>
        <time>2022-04-14T09:48:41.481Z</time>
      </trkpt>
      <trkpt lat="47.3963" lon="4.95751">
        <ele>456</ele>
        <time>2022-04-14T09:48:46.409Z</time>
      </trkpt>
      <trkpt lat="47.39635" lon="4.95752">
        <ele>456</ele>
        <time>2022-04-14T09:48:51.392Z</time>
      </trkpt>
      <trkpt lat="47.39641" lon="4.95754">
        <ele>456</ele>
        <time>2022-04-14T09:48:56.453Z</time>
      </trkpt>
      <trkpt lat="47.39645" lon="4.95756">
        <ele>456</ele>
        <time>2022-04-14T09:49:01.417Z</time>
      </trkpt>
      <trkpt lat="47.3965" lon="4.95757">
        <ele>456</ele>
        <time>2022-04-14T09:49:06.395Z</time>
      </trkpt>
      <trkpt lat="47.39654" lon="4.95757">
        <ele>460</ele>
        <time>2022-04-14T09:49:10.452Z</time>
      </trkpt>
      <trkpt lat="47.39659" lon="4.95757">
        <ele>460</ele>
        <time>2022-04-14T09:49:15.458Z</time>
      </trkpt>
      <trkpt lat="47.39665" lon="4.95758">
        <ele>460</ele>
        <time>2022-04-14T09:49:20.441Z</time>
      </trkpt>
      <trkpt lat="47.39671" lon="4.95759">
        <ele>460</ele>
        <time>2022-04-14T09:49:25.466Z</time>
      </trkpt>
      <trkpt lat="47.39674" lon="4.95758">
        <ele>460</ele>
        <time>2022-04-14T09:49:30.430Z</time>
      </trkpt>
      <trkpt lat="47.39679" lon="4.95759">
        <ele>460</ele>
        <time>2022-04-14T09:49:35.401Z</time>
      </trkpt>
      <trkpt lat="47.39683" lon="4.95758">
        <ele>464</ele>
        <time>2022-04-14T09:49:40.411Z</time>
      </trkpt>
      <trkpt lat="47.39689" lon="4.95758">
        <ele>464</ele>
        <time>2022-04-14T09:49:45.411Z</time>
      </trkpt>
      <trkpt lat="47.39694" lon="4.95757">
        <ele>464</ele>
        <time>2022-04-14T09:49:50.424Z</time>
      </trkpt>
      <trkpt lat="47.39701" lon="4.95756">
        <ele>464</ele>
        <time>2022-04-14T09:49:55.416Z</time>
      </trkpt>
      <trkpt lat="47.39703" lon="4.95754">
        <ele>464</ele>
        <time>2022-04-14T09:49:59.489Z</time>
      </trkpt>
      <trkpt lat="47.39704" lon="4.9575">
        <ele>464</ele>
        <time>2022-04-14T09:50:04.444Z</time>
      </trkpt>
      <trkpt lat="47.39705" lon="4.95747">
        <ele>464</ele>
        <time>2022-04-14T09:50:09.395Z</time>
      </trkpt>
      <trkpt lat="47.39706" lon="4.95744">
        <ele>464</ele>
        <time>2022-04-14T09:50:14.410Z</time>
      </trkpt>
      <trkpt lat="47.39708" lon="4.95741">
        <ele>464</ele>
        <time>2022-04-14T09:50:18.431Z</time>
      </trkpt>
      <trkpt lat="47.3971" lon="4.95737">
        <ele>471</ele>
        <time>2022-04-14T09:50:23.394Z</time>
      </trkpt>
      <trkpt lat="47.3971" lon="4.95732">
        <ele>472</ele>
        <time>2022-04-14T09:50:27.429Z</time>
      </trkpt>
      <trkpt lat="47.3971" lon="4.95726">
        <ele>472</ele>
        <time>2022-04-14T09:50:32.462Z</time>
      </trkpt>
      <trkpt lat="47.39708" lon="4.9572">
        <ele>462</ele>
        <time>2022-04-14T09:50:37.418Z</time>
      </trkpt>
      <trkpt lat="47.39707" lon="4.95714">
        <ele>462</ele>
        <time>2022-04-14T09:50:42.413Z</time>
      </trkpt>
      <trkpt lat="47.39705" lon="4.95706">
        <ele>462</ele>
        <time>2022-04-14T09:50:47.386Z</time>
      </trkpt>
      <trkpt lat="47.39706" lon="4.95701">
        <ele>462</ele>
        <time>2022-04-14T09:50:51.427Z</time>
      </trkpt>
      <trkpt lat="47.39708" lon="4.95696">
        <ele>462</ele>
        <time>2022-04-14T09:50:56.418Z</time>
      </trkpt>
      <trkpt lat="47.3971" lon="4.95687">
        <ele>473</ele>
        <time>2022-04-14T09:51:01.390Z</time>
      </trkpt>
      <trkpt lat="47.3971" lon="4.95682">
        <ele>473</ele>
        <time>2022-04-14T09:51:05.453Z</time>
      </trkpt>
      <trkpt lat="47.39707" lon="4.95676">
        <ele>464</ele>
        <time>2022-04-14T09:51:10.401Z</time>
      </trkpt>
      <trkpt lat="47.39706" lon="4.95671">
        <ele>464</ele>
        <time>2022-04-14T09:51:14.399Z</time>
      </trkpt>
      <trkpt lat="47.39707" lon="4.95666">
        <ele>464</ele>
        <time>2022-04-14T09:51:18.463Z</time>
      </trkpt>
      <trkpt lat="47.39706" lon="4.95658">
        <ele>464</ele>
        <time>2022-04-14T09:51:23.403Z</time>
      </trkpt>
      <trkpt lat="47.39706" lon="4.95652">
        <ele>464</ele>
        <time>2022-04-14T09:51:27.464Z</time>
      </trkpt>
      <trkpt lat="47.39705" lon="4.95643">
        <ele>464</ele>
        <time>2022-04-14T09:51:32.408Z</time>
      </trkpt>
      <trkpt lat="47.39705" lon="4.95635">
        <ele>464</ele>
        <time>2022-04-14T09:51:37.398Z</time>
      </trkpt>
      <trkpt lat="47.39704" lon="4.9563">
        <ele>464</ele>
        <time>2022-04-14T09:51:42.395Z</time>
      </trkpt>
      <trkpt lat="47.39704" lon="4.95625">
        <ele>466</ele>
        <time>2022-04-14T09:51:47.406Z</time>
      </trkpt>
      <trkpt lat="47.39705" lon="4.95616">
        <ele>466</ele>
        <time>2022-04-14T09:51:52.433Z</time>
      </trkpt>
      <trkpt lat="47.39706" lon="4.95613">
        <ele>466</ele>
        <time>2022-04-14T09:51:56.460Z</time>
      </trkpt>
      <trkpt lat="47.39707" lon="4.95611">
        <ele>466</ele>
        <time>2022-04-14T09:52:01.439Z</time>
      </trkpt>
      <trkpt lat="47.39709" lon="4.95609">
        <ele>479</ele>
        <time>2022-04-14T09:52:06.417Z</time>
      </trkpt>
      <trkpt lat="47.39713" lon="4.95604">
        <ele>479</ele>
        <time>2022-04-14T09:52:11.434Z</time>
      </trkpt>
      <trkpt lat="47.39715" lon="4.95601">
        <ele>479</ele>
        <time>2022-04-14T09:52:16.434Z</time>
      </trkpt>
      <trkpt lat="47.39717" lon="4.95598">
        <ele>479</ele>
        <time>2022-04-14T09:52:20.424Z</time>
      </trkpt>
      <trkpt lat="47.39719" lon="4.95597">
        <ele>480</ele>
        <time>2022-04-14T09:52:25.397Z</time>
      </trkpt>
      <trkpt lat="47.39724" lon="4.95599">
        <ele>479</ele>
        <time>2022-04-14T09:52:30.421Z</time>
      </trkpt>
      <trkpt lat="47.39728" lon="4.95601">
        <ele>479</ele>
        <time>2022-04-14T09:52:35.400Z</time>
      </trkpt>
      <trkpt lat="47.39731" lon="4.95602">
        <ele>479</ele>
        <time>2022-04-14T09:52:40.393Z</time>
      </trkpt>
      <trkpt lat="47.39735" lon="4.95603">
        <ele>479</ele>
        <time>2022-04-14T09:52:44.408Z</time>
      </trkpt>
      <trkpt lat="47.39738" lon="4.95608">
        <ele>486</ele>
        <time>2022-04-14T09:52:49.405Z</time>
      </trkpt>
      <trkpt lat="47.39742" lon="4.95609">
        <ele>486</ele>
        <time>2022-04-14T09:52:54.423Z</time>
      </trkpt>
      <trkpt lat="47.39747" lon="4.95612">
        <ele>486</ele>
        <time>2022-04-14T09:52:59.407Z</time>
      </trkpt>
      <trkpt lat="47.3975" lon="4.95617">
        <ele>486</ele>
        <time>2022-04-14T09:53:04.395Z</time>
      </trkpt>
      <trkpt lat="47.39754" lon="4.95622">
        <ele>486</ele>
        <time>2022-04-14T09:53:09.422Z</time>
      </trkpt>
      <trkpt lat="47.39759" lon="4.95627">
        <ele>485</ele>
        <time>2022-04-14T09:53:14.390Z</time>
      </trkpt>
      <trkpt lat="47.39764" lon="4.9563">
        <ele>485</ele>
        <time>2022-04-14T09:53:19.407Z</time>
      </trkpt>
      <trkpt lat="47.39769" lon="4.95634">
        <ele>489</ele>
        <time>2022-04-14T09:53:24.404Z</time>
      </trkpt>
      <trkpt lat="47.39772" lon="4.95636">
        <ele>489</ele>
        <time>2022-04-14T09:53:28.442Z</time>
      </trkpt>
      <trkpt lat="47.39779" lon="4.95641">
        <ele>489</ele>
        <time>2022-04-14T09:53:33.405Z</time>
      </trkpt>
      <trkpt lat="47.39783" lon="4.95646">
        <ele>489</ele>
        <time>2022-04-14T09:53:37.472Z</time>
      </trkpt>
      <trkpt lat="47.39788" lon="4.9565">
        <ele>489</ele>
        <time>2022-04-14T09:53:42.457Z</time>
      </trkpt>
      <trkpt lat="47.39791" lon="4.95653">
        <ele>488</ele>
        <time>2022-04-14T09:53:47.463Z</time>
      </trkpt>
      <trkpt lat="47.39794" lon="4.95656">
        <ele>492</ele>
        <time>2022-04-14T09:53:51.505Z</time>
      </trkpt>
      <trkpt lat="47.39799" lon="4.9566">
        <ele>492</ele>
        <time>2022-04-14T09:53:56.438Z</time>
      </trkpt>
      <trkpt lat="47.39801" lon="4.95663">
        <ele>492</ele>
        <time>2022-04-14T09:54:01.401Z</time>
      </trkpt>
      <trkpt lat="47.39805" lon="4.95666">
        <ele>492</ele>
        <time>2022-04-14T09:54:06.414Z</time>
      </trkpt>
      <trkpt lat="47.39809" lon="4.95671">
        <ele>492</ele>
        <time>2022-04-14T09:54:11.387Z</time>
      </trkpt>
      <trkpt lat="47.39813" lon="4.95674">
        <ele>492</ele>
        <time>2022-04-14T09:54:15.480Z</time>
      </trkpt>
      <trkpt lat="47.39817" lon="4.9568">
        <ele>492</ele>
        <time>2022-04-14T09:54:20.427Z</time>
      </trkpt>
      <trkpt lat="47.39821" lon="4.95685">
        <ele>494</ele>
        <time>2022-04-14T09:54:24.462Z</time>
      </trkpt>
      <trkpt lat="47.39826" lon="4.95689">
        <ele>494</ele>
        <time>2022-04-14T09:54:28.481Z</time>
      </trkpt>
      <trkpt lat="47.39831" lon="4.95695">
        <ele>494</ele>
        <time>2022-04-14T09:54:33.492Z</time>
      </trkpt>
      <trkpt lat="47.39836" lon="4.95697">
        <ele>494</ele>
        <time>2022-04-14T09:54:38.462Z</time>
      </trkpt>
      <trkpt lat="47.39842" lon="4.95701">
        <ele>494</ele>
        <time>2022-04-14T09:54:43.447Z</time>
      </trkpt>
      <trkpt lat="47.39848" lon="4.95706">
        <ele>498</ele>
        <time>2022-04-14T09:54:48.446Z</time>
      </trkpt>
      <trkpt lat="47.39853" lon="4.95711">
        <ele>497</ele>
        <time>2022-04-14T09:54:53.417Z</time>
      </trkpt>
      <trkpt lat="47.39858" lon="4.95715">
        <ele>497</ele>
        <time>2022-04-14T09:54:58.395Z</time>
      </trkpt>
      <trkpt lat="47.39861" lon="4.9572">
        <ele>497</ele>
        <time>2022-04-14T09:55:02.416Z</time>
      </trkpt>
      <trkpt lat="47.39866" lon="4.95725">
        <ele>497</ele>
        <time>2022-04-14T09:55:07.390Z</time>
      </trkpt>
      <trkpt lat="47.3987" lon="4.9573">
        <ele>497</ele>
        <time>2022-04-14T09:55:11.433Z</time>
      </trkpt>
      <trkpt lat="47.39876" lon="4.95734">
        <ele>499</ele>
        <time>2022-04-14T09:55:16.461Z</time>
      </trkpt>
      <trkpt lat="47.39881" lon="4.95738">
        <ele>498</ele>
        <time>2022-04-14T09:55:21.471Z</time>
      </trkpt>
      <trkpt lat="47.39887" lon="4.95743">
        <ele>498</ele>
        <time>2022-04-14T09:55:26.457Z</time>
      </trkpt>
      <trkpt lat="47.39892" lon="4.95748">
        <ele>498</ele>
        <time>2022-04-14T09:55:31.424Z</time>
      </trkpt>
      <trkpt lat="47.39892" lon="4.95751">
        <ele>498</ele>
        <time>2022-04-14T09:55:35.479Z</time>
      </trkpt>
      <trkpt lat="47.39896" lon="4.95756">
        <ele>498</ele>
        <time>2022-04-14T09:55:40.452Z</time>
      </trkpt>
      <trkpt lat="47.39902" lon="4.95761">
        <ele>498</ele>
        <time>2022-04-14T09:55:45.413Z</time>
      </trkpt>
      <trkpt lat="47.39905" lon="4.95765">
        <ele>499</ele>
        <time>2022-04-14T09:55:50.405Z</time>
      </trkpt>
      <trkpt lat="47.39908" lon="4.95769">
        <ele>499</ele>
        <time>2022-04-14T09:55:54.483Z</time>
      </trkpt>
      <trkpt lat="47.39914" lon="4.95774">
        <ele>499</ele>
        <time>2022-04-14T09:55:59.386Z</time>
      </trkpt>
      <trkpt lat="47.39916" lon="4.95777">
        <ele>499</ele>
        <time>2022-04-14T09:56:03.418Z</time>
      </trkpt>
      <trkpt lat="47.39919" lon="4.95782">
        <ele>499</ele>
        <time>2022-04-14T09:56:08.406Z</time>
      </trkpt>
      <trkpt lat="47.39925" lon="4.95786">
        <ele>499</ele>
        <time>2022-04-14T09:56:13.407Z</time>
      </trkpt>
      <trkpt lat="47.39929" lon="4.9579">
        <ele>499</ele>
        <time>2022-04-14T09:56:18.389Z</time>
      </trkpt>
      <trkpt lat="47.39935" lon="4.95793">
        <ele>500</ele>
        <time>2022-04-14T09:56:23.416Z</time>
      </trkpt>
      <trkpt lat="47.39939" lon="4.95797">
        <ele>500</ele>
        <time>2022-04-14T09:56:28.395Z</time>
      </trkpt>
      <trkpt lat="47.39944" lon="4.958">
        <ele>500</ele>
        <time>2022-04-14T09:56:33.405Z</time>
      </trkpt>
      <trkpt lat="47.39948" lon="4.95803">
        <ele>500</ele>
        <time>2022-04-14T09:56:37.483Z</time>
      </trkpt>
      <trkpt lat="47.39951" lon="4.95807">
        <ele>500</ele>
        <time>2022-04-14T09:56:42.503Z</time>
      </trkpt>
      <trkpt lat="47.39955" lon="4.95812">
        <ele>500</ele>
        <time>2022-04-14T09:56:47.474Z</time>
      </trkpt>
      <trkpt lat="47.39959" lon="4.95815">
        <ele>503</ele>
        <time>2022-04-14T09:56:51.512Z</time>
      </trkpt>
      <trkpt lat="47.39964" lon="4.95818">
        <ele>503</ele>
        <time>2022-04-14T09:56:56.455Z</time>
      </trkpt>
      <trkpt lat="47.39968" lon="4.9582">
        <ele>502</ele>
        <time>2022-04-14T09:57:00.487Z</time>
      </trkpt>
      <trkpt lat="47.39973" lon="4.95825">
        <ele>502</ele>
        <time>2022-04-14T09:57:05.465Z</time>
      </trkpt>
      <trkpt lat="47.39978" lon="4.95828">
        <ele>502</ele>
        <time>2022-04-14T09:57:10.399Z</time>
      </trkpt>
      <trkpt lat="47.39982" lon="4.95833">
        <ele>502</ele>
        <time>2022-04-14T09:57:15.410Z</time>
      </trkpt>
      <trkpt lat="47.39986" lon="4.95837">
        <ele>502</ele>
        <time>2022-04-14T09:57:19.478Z</time>
      </trkpt>
      <trkpt lat="47.39988" lon="4.95839">
        <ele>505</ele>
        <time>2022-04-14T09:57:24.478Z</time>
      </trkpt>
      <trkpt lat="47.39992" lon="4.95842">
        <ele>505</ele>
        <time>2022-04-14T09:57:28.491Z</time>
      </trkpt>
      <trkpt lat="47.39996" lon="4.95845">
        <ele>505</ele>
        <time>2022-04-14T09:57:33.387Z</time>
      </trkpt>
      <trkpt lat="47.40001" lon="4.95849">
        <ele>504</ele>
        <time>2022-04-14T09:57:37.430Z</time>
      </trkpt>
      <trkpt lat="47.40005" lon="4.95853">
        <ele>504</ele>
        <time>2022-04-14T09:57:41.486Z</time>
      </trkpt>
      <trkpt lat="47.4001" lon="4.95857">
        <ele>504</ele>
        <time>2022-04-14T09:57:46.488Z</time>
      </trkpt>
      <trkpt lat="47.40015" lon="4.95863">
        <ele>506</ele>
        <time>2022-04-14T09:57:51.478Z</time>
      </trkpt>
      <trkpt lat="47.40021" lon="4.95868">
        <ele>506</ele>
        <time>2022-04-14T09:57:56.463Z</time>
      </trkpt>
      <trkpt lat="47.40026" lon="4.95873">
        <ele>506</ele>
        <time>2022-04-14T09:58:01.491Z</time>
      </trkpt>
      <trkpt lat="47.40032" lon="4.95878">
        <ele>505</ele>
        <time>2022-04-14T09:58:15.449Z</time>
      </trkpt>
      <trkpt lat="47.40032" lon="4.95878">
        <ele>505</ele>
        <time>2022-04-14T09:58:20.427Z</time>
      </trkpt>
      <trkpt lat="47.40033" lon="4.9588">
        <ele>505</ele>
        <time>2022-04-14T09:58:25.406Z</time>
      </trkpt>
      <trkpt lat="47.40033" lon="4.9588">
        <ele>505</ele>
        <time>2022-04-14T09:58:29.484Z</time>
      </trkpt>
      <trkpt lat="47.40039" lon="4.95884">
        <ele>505</ele>
        <time>2022-04-14T09:58:34.442Z</time>
      </trkpt>
      <trkpt lat="47.40043" lon="4.95891">
        <ele>506</ele>
        <time>2022-04-14T09:58:39.461Z</time>
      </trkpt>
      <trkpt lat="47.40049" lon="4.95894">
        <ele>506</ele>
        <time>2022-04-14T09:58:44.424Z</time>
      </trkpt>
      <trkpt lat="47.40054" lon="4.95898">
        <ele>506</ele>
        <time>2022-04-14T09:58:48.482Z</time>
      </trkpt>
      <trkpt lat="47.40059" lon="4.95903">
        <ele>506</ele>
        <time>2022-04-14T09:58:53.466Z</time>
      </trkpt>
      <trkpt lat="47.40061" lon="4.95905">
        <ele>505</ele>
        <time>2022-04-14T09:58:57.506Z</time>
      </trkpt>
      <trkpt lat="47.40066" lon="4.95909">
        <ele>505</ele>
        <time>2022-04-14T09:59:02.447Z</time>
      </trkpt>
      <trkpt lat="47.4007" lon="4.95915">
        <ele>504</ele>
        <time>2022-04-14T09:59:07.405Z</time>
      </trkpt>
      <trkpt lat="47.40074" lon="4.95924">
        <ele>504</ele>
        <time>2022-04-14T09:59:12.407Z</time>
      </trkpt>
      <trkpt lat="47.40074" lon="4.95928">
        <ele>504</ele>
        <time>2022-04-14T09:59:16.420Z</time>
      </trkpt>
      <trkpt lat="47.40073" lon="4.95932">
        <ele>505</ele>
        <time>2022-04-14T09:59:20.456Z</time>
      </trkpt>
      <trkpt lat="47.40072" lon="4.95936">
        <ele>505</ele>
        <time>2022-04-14T09:59:24.502Z</time>
      </trkpt>
      <trkpt lat="47.4007" lon="4.95941">
        <ele>505</ele>
        <time>2022-04-14T09:59:29.481Z</time>
      </trkpt>
      <trkpt lat="47.40068" lon="4.95946">
        <ele>505</ele>
        <time>2022-04-14T09:59:33.491Z</time>
      </trkpt>
      <trkpt lat="47.40065" lon="4.95951">
        <ele>505</ele>
        <time>2022-04-14T09:59:38.417Z</time>
      </trkpt>
      <trkpt lat="47.40063" lon="4.95955">
        <ele>505</ele>
        <time>2022-04-14T09:59:42.491Z</time>
      </trkpt>
      <trkpt lat="47.40062" lon="4.95955">
        <ele>505</ele>
        <time>2022-04-14T09:59:47.488Z</time>
      </trkpt>
      <trkpt lat="47.40062" lon="4.95956">
        <ele>505</ele>
        <time>2022-04-14T09:59:51.490Z</time>
      </trkpt>
      <trkpt lat="47.40062" lon="4.95958">
        <ele>505</ele>
        <time>2022-04-14T10:00:01.485Z</time>
      </trkpt>
      <trkpt lat="47.4006" lon="4.95963">
        <ele>504</ele>
        <time>2022-04-14T10:00:11.447Z</time>
      </trkpt>
      <trkpt lat="47.40057" lon="4.9597">
        <ele>504</ele>
        <time>2022-04-14T10:00:16.447Z</time>
      </trkpt>
      <trkpt lat="47.40056" lon="4.95976">
        <ele>504</ele>
        <time>2022-04-14T10:00:20.441Z</time>
      </trkpt>
      <trkpt lat="47.40052" lon="4.95981">
        <ele>504</ele>
        <time>2022-04-14T10:00:25.499Z</time>
      </trkpt>
      <trkpt lat="47.40047" lon="4.95989">
        <ele>504</ele>
        <time>2022-04-14T10:00:30.450Z</time>
      </trkpt>
      <trkpt lat="47.40043" lon="4.95996">
        <ele>504</ele>
        <time>2022-04-14T10:00:35.477Z</time>
      </trkpt>
      <trkpt lat="47.4004" lon="4.96003">
        <ele>502</ele>
        <time>2022-04-14T10:00:40.460Z</time>
      </trkpt>
      <trkpt lat="47.40037" lon="4.9601">
        <ele>502</ele>
        <time>2022-04-14T10:00:45.507Z</time>
      </trkpt>
      <trkpt lat="47.40034" lon="4.96017">
        <ele>502</ele>
        <time>2022-04-14T10:00:50.425Z</time>
      </trkpt>
      <trkpt lat="47.40032" lon="4.96027">
        <ele>502</ele>
        <time>2022-04-14T10:00:55.478Z</time>
      </trkpt>
      <trkpt lat="47.40028" lon="4.96035">
        <ele>502</ele>
        <time>2022-04-14T10:01:00.475Z</time>
      </trkpt>
      <trkpt lat="47.40026" lon="4.96045">
        <ele>501</ele>
        <time>2022-04-14T10:01:05.493Z</time>
      </trkpt>
      <trkpt lat="47.40022" lon="4.96053">
        <ele>501</ele>
        <time>2022-04-14T10:01:10.417Z</time>
      </trkpt>
      <trkpt lat="47.40019" lon="4.96059">
        <ele>501</ele>
        <time>2022-04-14T10:01:14.486Z</time>
      </trkpt>
      <trkpt lat="47.40016" lon="4.96066">
        <ele>501</ele>
        <time>2022-04-14T10:01:19.469Z</time>
      </trkpt>
      <trkpt lat="47.40013" lon="4.96073">
        <ele>497</ele>
        <time>2022-04-14T10:01:24.459Z</time>
      </trkpt>
      <trkpt lat="47.4001" lon="4.9608">
        <ele>497</ele>
        <time>2022-04-14T10:01:29.473Z</time>
      </trkpt>
      <trkpt lat="47.40008" lon="4.96086">
        <ele>497</ele>
        <time>2022-04-14T10:01:33.467Z</time>
      </trkpt>
      <trkpt lat="47.40004" lon="4.96093">
        <ele>497</ele>
        <time>2022-04-14T10:01:38.468Z</time>
      </trkpt>
      <trkpt lat="47.40001" lon="4.961">
        <ele>497</ele>
        <time>2022-04-14T10:01:43.465Z</time>
      </trkpt>
      <trkpt lat="47.39998" lon="4.96104">
        <ele>497</ele>
        <time>2022-04-14T10:01:48.464Z</time>
      </trkpt>
      <trkpt lat="47.39994" lon="4.96109">
        <ele>497</ele>
        <time>2022-04-14T10:01:53.476Z</time>
      </trkpt>
      <trkpt lat="47.39991" lon="4.96116">
        <ele>497</ele>
        <time>2022-04-14T10:01:58.482Z</time>
      </trkpt>
      <trkpt lat="47.39988" lon="4.96125">
        <ele>497</ele>
        <time>2022-04-14T10:02:03.453Z</time>
      </trkpt>
      <trkpt lat="47.39986" lon="4.9613">
        <ele>495</ele>
        <time>2022-04-14T10:02:08.476Z</time>
      </trkpt>
      <trkpt lat="47.39983" lon="4.96137">
        <ele>495</ele>
        <time>2022-04-14T10:02:13.463Z</time>
      </trkpt>
      <trkpt lat="47.3998" lon="4.96145">
        <ele>495</ele>
        <time>2022-04-14T10:02:18.510Z</time>
      </trkpt>
      <trkpt lat="47.39977" lon="4.96151">
        <ele>495</ele>
        <time>2022-04-14T10:02:23.469Z</time>
      </trkpt>
      <trkpt lat="47.39974" lon="4.96157">
        <ele>493</ele>
        <time>2022-04-14T10:02:28.445Z</time>
      </trkpt>
      <trkpt lat="47.39971" lon="4.96164">
        <ele>493</ele>
        <time>2022-04-14T10:02:32.512Z</time>
      </trkpt>
      <trkpt lat="47.39968" lon="4.96171">
        <ele>493</ele>
        <time>2022-04-14T10:02:37.445Z</time>
      </trkpt>
      <trkpt lat="47.39964" lon="4.96178">
        <ele>493</ele>
        <time>2022-04-14T10:02:42.481Z</time>
      </trkpt>
      <trkpt lat="47.3996" lon="4.96186">
        <ele>491</ele>
        <time>2022-04-14T10:02:47.449Z</time>
      </trkpt>
      <trkpt lat="47.39958" lon="4.9619">
        <ele>490</ele>
        <time>2022-04-14T10:02:51.469Z</time>
      </trkpt>
      <trkpt lat="47.39956" lon="4.96197">
        <ele>490</ele>
        <time>2022-04-14T10:02:56.432Z</time>
      </trkpt>
      <trkpt lat="47.39953" lon="4.96202">
        <ele>490</ele>
        <time>2022-04-14T10:03:00.486Z</time>
      </trkpt>
      <trkpt lat="47.3995" lon="4.96209">
        <ele>489</ele>
        <time>2022-04-14T10:03:05.459Z</time>
      </trkpt>
      <trkpt lat="47.39946" lon="4.96217">
        <ele>489</ele>
        <time>2022-04-14T10:03:10.459Z</time>
      </trkpt>
      <trkpt lat="47.39944" lon="4.96226">
        <ele>489</ele>
        <time>2022-04-14T10:03:15.378Z</time>
      </trkpt>
      <trkpt lat="47.39943" lon="4.96235">
        <ele>489</ele>
        <time>2022-04-14T10:03:20.401Z</time>
      </trkpt>
      <trkpt lat="47.39941" lon="4.9624">
        <ele>488</ele>
        <time>2022-04-14T10:03:24.420Z</time>
      </trkpt>
      <trkpt lat="47.39939" lon="4.96247">
        <ele>488</ele>
        <time>2022-04-14T10:03:29.428Z</time>
      </trkpt>
      <trkpt lat="47.39936" lon="4.96256">
        <ele>488</ele>
        <time>2022-04-14T10:03:34.444Z</time>
      </trkpt>
      <trkpt lat="47.39935" lon="4.96257">
        <ele>488</ele>
        <time>2022-04-14T10:03:39.442Z</time>
      </trkpt>
      <trkpt lat="47.39935" lon="4.9626">
        <ele>488</ele>
        <time>2022-04-14T10:03:53.442Z</time>
      </trkpt>
      <trkpt lat="47.39933" lon="4.96267">
        <ele>487</ele>
        <time>2022-04-14T10:03:58.414Z</time>
      </trkpt>
      <trkpt lat="47.3993" lon="4.96273">
        <ele>485</ele>
        <time>2022-04-14T10:04:03.437Z</time>
      </trkpt>
      <trkpt lat="47.39925" lon="4.9628">
        <ele>485</ele>
        <time>2022-04-14T10:04:08.468Z</time>
      </trkpt>
      <trkpt lat="47.39922" lon="4.96285">
        <ele>485</ele>
        <time>2022-04-14T10:04:13.467Z</time>
      </trkpt>
      <trkpt lat="47.39918" lon="4.96293">
        <ele>484</ele>
        <time>2022-04-14T10:04:18.380Z</time>
      </trkpt>
      <trkpt lat="47.39915" lon="4.96298">
        <ele>484</ele>
        <time>2022-04-14T10:04:22.441Z</time>
      </trkpt>
      <trkpt lat="47.39912" lon="4.96305">
        <ele>484</ele>
        <time>2022-04-14T10:04:26.464Z</time>
      </trkpt>
      <trkpt lat="47.3991" lon="4.96316">
        <ele>484</ele>
        <time>2022-04-14T10:04:31.459Z</time>
      </trkpt>
      <trkpt lat="47.39909" lon="4.96325">
        <ele>484</ele>
        <time>2022-04-14T10:04:36.404Z</time>
      </trkpt>
      <trkpt lat="47.39907" lon="4.96333">
        <ele>484</ele>
        <time>2022-04-14T10:04:41.404Z</time>
      </trkpt>
      <trkpt lat="47.39903" lon="4.96339">
        <ele>481</ele>
        <time>2022-04-14T10:04:46.403Z</time>
      </trkpt>
      <trkpt lat="47.399" lon="4.96343">
        <ele>481</ele>
        <time>2022-04-14T10:04:50.452Z</time>
      </trkpt>
      <trkpt lat="47.39898" lon="4.96348">
        <ele>480</ele>
        <time>2022-04-14T10:04:54.493Z</time>
      </trkpt>
      <trkpt lat="47.39894" lon="4.96353">
        <ele>480</ele>
        <time>2022-04-14T10:04:59.486Z</time>
      </trkpt>
      <trkpt lat="47.39891" lon="4.96359">
        <ele>480</ele>
        <time>2022-04-14T10:05:03.462Z</time>
      </trkpt>
      <trkpt lat="47.39887" lon="4.96366">
        <ele>480</ele>
        <time>2022-04-14T10:05:08.436Z</time>
      </trkpt>
      <trkpt lat="47.39884" lon="4.96372">
        <ele>480</ele>
        <time>2022-04-14T10:05:12.483Z</time>
      </trkpt>
      <trkpt lat="47.3988" lon="4.96379">
        <ele>479</ele>
        <time>2022-04-14T10:05:17.473Z</time>
      </trkpt>
      <trkpt lat="47.39877" lon="4.96385">
        <ele>479</ele>
        <time>2022-04-14T10:05:21.505Z</time>
      </trkpt>
      <trkpt lat="47.39873" lon="4.96392">
        <ele>476</ele>
        <time>2022-04-14T10:05:26.482Z</time>
      </trkpt>
      <trkpt lat="47.39871" lon="4.96401">
        <ele>476</ele>
        <time>2022-04-14T10:05:31.466Z</time>
      </trkpt>
      <trkpt lat="47.39869" lon="4.96409">
        <ele>475</ele>
        <time>2022-04-14T10:05:36.472Z</time>
      </trkpt>
      <trkpt lat="47.39865" lon="4.96415">
        <ele>475</ele>
        <time>2022-04-14T10:05:41.450Z</time>
      </trkpt>
      <trkpt lat="47.39864" lon="4.96421">
        <ele>475</ele>
        <time>2022-04-14T10:05:45.490Z</time>
      </trkpt>
      <trkpt lat="47.39866" lon="4.96432">
        <ele>472</ele>
        <time>2022-04-14T10:05:50.455Z</time>
      </trkpt>
      <trkpt lat="47.3987" lon="4.96439">
        <ele>472</ele>
        <time>2022-04-14T10:05:55.411Z</time>
      </trkpt>
      <trkpt lat="47.39873" lon="4.96445">
        <ele>472</ele>
        <time>2022-04-14T10:06:00.427Z</time>
      </trkpt>
      <trkpt lat="47.39877" lon="4.96451">
        <ele>475</ele>
        <time>2022-04-14T10:06:05.405Z</time>
      </trkpt>
      <trkpt lat="47.39881" lon="4.96455">
        <ele>475</ele>
        <time>2022-04-14T10:06:10.378Z</time>
      </trkpt>
      <trkpt lat="47.39884" lon="4.96458">
        <ele>475</ele>
        <time>2022-04-14T10:06:15.421Z</time>
      </trkpt>
      <trkpt lat="47.3989" lon="4.96461">
        <ele>472</ele>
        <time>2022-04-14T10:06:20.395Z</time>
      </trkpt>
      <trkpt lat="47.39894" lon="4.96465">
        <ele>472</ele>
        <time>2022-04-14T10:06:24.491Z</time>
      </trkpt>
      <trkpt lat="47.399" lon="4.96468">
        <ele>472</ele>
        <time>2022-04-14T10:06:29.503Z</time>
      </trkpt>
      <trkpt lat="47.39904" lon="4.96471">
        <ele>473</ele>
        <time>2022-04-14T10:06:34.458Z</time>
      </trkpt>
      <trkpt lat="47.3991" lon="4.96474">
        <ele>473</ele>
        <time>2022-04-14T10:06:39.503Z</time>
      </trkpt>
      <trkpt lat="47.39915" lon="4.96479">
        <ele>473</ele>
        <time>2022-04-14T10:06:44.471Z</time>
      </trkpt>
      <trkpt lat="47.39917" lon="4.96487">
        <ele>470</ele>
        <time>2022-04-14T10:06:49.433Z</time>
      </trkpt>
      <trkpt lat="47.39918" lon="4.96493">
        <ele>470</ele>
        <time>2022-04-14T10:06:53.488Z</time>
      </trkpt>
      <trkpt lat="47.39919" lon="4.965">
        <ele>470</ele>
        <time>2022-04-14T10:06:58.455Z</time>
      </trkpt>
      <trkpt lat="47.39919" lon="4.96506">
        <ele>470</ele>
        <time>2022-04-14T10:07:02.477Z</time>
      </trkpt>
      <trkpt lat="47.39921" lon="4.96514">
        <ele>467</ele>
        <time>2022-04-14T10:07:07.436Z</time>
      </trkpt>
      <trkpt lat="47.39922" lon="4.9652">
        <ele>467</ele>
        <time>2022-04-14T10:07:11.475Z</time>
      </trkpt>
      <trkpt lat="47.39925" lon="4.96528">
        <ele>467</ele>
        <time>2022-04-14T10:07:16.487Z</time>
      </trkpt>
      <trkpt lat="47.39926" lon="4.96532">
        <ele>467</ele>
        <time>2022-04-14T10:07:21.469Z</time>
      </trkpt>
      <trkpt lat="47.39924" lon="4.96539">
        <ele>467</ele>
        <time>2022-04-14T10:07:26.452Z</time>
      </trkpt>
      <trkpt lat="47.39921" lon="4.9654">
        <ele>467</ele>
        <time>2022-04-14T10:07:31.419Z</time>
      </trkpt>
      <trkpt lat="47.39918" lon="4.9654">
        <ele>467</ele>
        <time>2022-04-14T10:07:35.452Z</time>
      </trkpt>
      <trkpt lat="47.39914" lon="4.96541">
        <ele>467</ele>
        <time>2022-04-14T10:07:40.432Z</time>
      </trkpt>
      <trkpt lat="47.3991" lon="4.96543">
        <ele>464</ele>
        <time>2022-04-14T10:07:44.490Z</time>
      </trkpt>
      <trkpt lat="47.39904" lon="4.96544">
        <ele>464</ele>
        <time>2022-04-14T10:07:49.478Z</time>
      </trkpt>
      <trkpt lat="47.39895" lon="4.96553">
        <ele>463</ele>
        <time>2022-04-14T10:08:03.460Z</time>
      </trkpt>
      <trkpt lat="47.39894" lon="4.96554">
        <ele>463</ele>
        <time>2022-04-14T10:08:08.455Z</time>
      </trkpt>
      <trkpt lat="47.39894" lon="4.96555">
        <ele>463</ele>
        <time>2022-04-14T10:08:12.475Z</time>
      </trkpt>
      <trkpt lat="47.39894" lon="4.96555">
        <ele>463</ele>
        <time>2022-04-14T10:08:17.438Z</time>
      </trkpt>
      <trkpt lat="47.39891" lon="4.96556">
        <ele>463</ele>
        <time>2022-04-14T10:08:21.469Z</time>
      </trkpt>
      <trkpt lat="47.39886" lon="4.96557">
        <ele>463</ele>
        <time>2022-04-14T10:08:26.484Z</time>
      </trkpt>
      <trkpt lat="47.39883" lon="4.96558">
        <ele>463</ele>
        <time>2022-04-14T10:08:31.452Z</time>
      </trkpt>
      <trkpt lat="47.39879" lon="4.96561">
        <ele>463</ele>
        <time>2022-04-14T10:08:35.479Z</time>
      </trkpt>
      <trkpt lat="47.39875" lon="4.96563">
        <ele>462</ele>
        <time>2022-04-14T10:08:40.435Z</time>
      </trkpt>
      <trkpt lat="47.39871" lon="4.96566">
        <ele>462</ele>
        <time>2022-04-14T10:08:44.481Z</time>
      </trkpt>
      <trkpt lat="47.39869" lon="4.96571">
        <ele>458</ele>
        <time>2022-04-14T10:08:49.394Z</time>
      </trkpt>
      <trkpt lat="47.39869" lon="4.96575">
        <ele>458</ele>
        <time>2022-04-14T10:08:53.405Z</time>
      </trkpt>
      <trkpt lat="47.39869" lon="4.96575">
        <ele>458</ele>
        <time>2022-04-14T10:08:58.388Z</time>
      </trkpt>
      <trkpt lat="47.39868" lon="4.9658">
        <ele>458</ele>
        <time>2022-04-14T10:09:17.421Z</time>
      </trkpt>
      <trkpt lat="47.39864" lon="4.96588">
        <ele>458</ele>
        <time>2022-04-14T10:09:22.462Z</time>
      </trkpt>
      <trkpt lat="47.39861" lon="4.96594">
        <ele>458</ele>
        <time>2022-04-14T10:09:27.493Z</time>
      </trkpt>
      <trkpt lat="47.39858" lon="4.96601">
        <ele>454</ele>
        <time>2022-04-14T10:09:32.476Z</time>
      </trkpt>
      <trkpt lat="47.39854" lon="4.96608">
        <ele>454</ele>
        <time>2022-04-14T10:09:37.465Z</time>
      </trkpt>
      <trkpt lat="47.39853" lon="4.96615">
        <ele>454</ele>
        <time>2022-04-14T10:09:42.385Z</time>
      </trkpt>
      <trkpt lat="47.39849" lon="4.96621">
        <ele>454</ele>
        <time>2022-04-14T10:09:47.457Z</time>
      </trkpt>
      <trkpt lat="47.39846" lon="4.96627">
        <ele>449</ele>
        <time>2022-04-14T10:09:52.388Z</time>
      </trkpt>
      <trkpt lat="47.39845" lon="4.96635">
        <ele>449</ele>
        <time>2022-04-14T10:09:56.415Z</time>
      </trkpt>
      <trkpt lat="47.39844" lon="4.96645">
        <ele>449</ele>
        <time>2022-04-14T10:10:01.450Z</time>
      </trkpt>
      <trkpt lat="47.39842" lon="4.96654">
        <ele>447</ele>
        <time>2022-04-14T10:10:06.434Z</time>
      </trkpt>
      <trkpt lat="47.39843" lon="4.96662">
        <ele>447</ele>
        <time>2022-04-14T10:10:11.416Z</time>
      </trkpt>
      <trkpt lat="47.39844" lon="4.96668">
        <ele>447</ele>
        <time>2022-04-14T10:10:15.448Z</time>
      </trkpt>
      <trkpt lat="47.39844" lon="4.96674">
        <ele>447</ele>
        <time>2022-04-14T10:10:20.423Z</time>
      </trkpt>
      <trkpt lat="47.39843" lon="4.96683">
        <ele>445</ele>
        <time>2022-04-14T10:10:25.469Z</time>
      </trkpt>
      <trkpt lat="47.39843" lon="4.96692">
        <ele>445</ele>
        <time>2022-04-14T10:10:30.404Z</time>
      </trkpt>
      <trkpt lat="47.39842" lon="4.967">
        <ele>445</ele>
        <time>2022-04-14T10:10:34.475Z</time>
      </trkpt>
      <trkpt lat="47.3984" lon="4.96706">
        <ele>445</ele>
        <time>2022-04-14T10:10:39.465Z</time>
      </trkpt>
      <trkpt lat="47.39838" lon="4.96711">
        <ele>441</ele>
        <time>2022-04-14T10:10:44.458Z</time>
      </trkpt>
      <trkpt lat="47.39837" lon="4.96718">
        <ele>441</ele>
        <time>2022-04-14T10:10:49.506Z</time>
      </trkpt>
      <trkpt lat="47.39838" lon="4.96726">
        <ele>441</ele>
        <time>2022-04-14T10:10:54.440Z</time>
      </trkpt>
      <trkpt lat="47.39839" lon="4.96729">
        <ele>441</ele>
        <time>2022-04-14T10:10:58.467Z</time>
      </trkpt>
      <trkpt lat="47.3984" lon="4.96735">
        <ele>441</ele>
        <time>2022-04-14T10:11:03.497Z</time>
      </trkpt>
      <trkpt lat="47.39839" lon="4.96737">
        <ele>438</ele>
        <time>2022-04-14T10:11:08.410Z</time>
      </trkpt>
      <trkpt lat="47.39838" lon="4.96741">
        <ele>438</ele>
        <time>2022-04-14T10:11:12.457Z</time>
      </trkpt>
      <trkpt lat="47.39838" lon="4.96745">
        <ele>438</ele>
        <time>2022-04-14T10:11:17.480Z</time>
      </trkpt>
      <trkpt lat="47.39838" lon="4.96754">
        <ele>438</ele>
        <time>2022-04-14T10:11:22.474Z</time>
      </trkpt>
      <trkpt lat="47.39838" lon="4.96757">
        <ele>438</ele>
        <time>2022-04-14T10:11:27.503Z</time>
      </trkpt>
      <trkpt lat="47.39837" lon="4.96765">
        <ele>433</ele>
        <time>2022-04-14T10:11:32.444Z</time>
      </trkpt>
      <trkpt lat="47.39837" lon="4.96768">
        <ele>433</ele>
        <time>2022-04-14T10:11:36.478Z</time>
      </trkpt>
      <trkpt lat="47.39836" lon="4.96777">
        <ele>433</ele>
        <time>2022-04-14T10:11:41.444Z</time>
      </trkpt>
      <trkpt lat="47.39836" lon="4.96782">
        <ele>433</ele>
        <time>2022-04-14T10:11:45.469Z</time>
      </trkpt>
      <trkpt lat="47.39835" lon="4.96791">
        <ele>433</ele>
        <time>2022-04-14T10:11:50.473Z</time>
      </trkpt>
      <trkpt lat="47.39836" lon="4.968">
        <ele>431</ele>
        <time>2022-04-14T10:11:55.409Z</time>
      </trkpt>
      <trkpt lat="47.39836" lon="4.96807">
        <ele>431</ele>
        <time>2022-04-14T10:12:00.389Z</time>
      </trkpt>
      <trkpt lat="47.39837" lon="4.96815">
        <ele>431</ele>
        <time>2022-04-14T10:12:04.471Z</time>
      </trkpt>
      <trkpt lat="47.39837" lon="4.96822">
        <ele>428</ele>
        <time>2022-04-14T10:12:09.440Z</time>
      </trkpt>
      <trkpt lat="47.39837" lon="4.96827">
        <ele>428</ele>
        <time>2022-04-14T10:12:14.452Z</time>
      </trkpt>
      <trkpt lat="47.39837" lon="4.9683">
        <ele>428</ele>
        <time>2022-04-14T10:12:18.499Z</time>
      </trkpt>
      <trkpt lat="47.39837" lon="4.96836">
        <ele>428</ele>
        <time>2022-04-14T10:12:23.459Z</time>
      </trkpt>
      <trkpt lat="47.39837" lon="4.96841">
        <ele>428</ele>
        <time>2022-04-14T10:12:27.466Z</time>
      </trkpt>
      <trkpt lat="47.39837" lon="4.96848">
        <ele>426</ele>
        <time>2022-04-14T10:12:32.530Z</time>
      </trkpt>
      <trkpt lat="47.39839" lon="4.96854">
        <ele>426</ele>
        <time>2022-04-14T10:12:37.496Z</time>
      </trkpt>
      <trkpt lat="47.39839" lon="4.96859">
        <ele>426</ele>
        <time>2022-04-14T10:12:42.481Z</time>
      </trkpt>
      <trkpt lat="47.39841" lon="4.96865">
        <ele>426</ele>
        <time>2022-04-14T10:12:47.459Z</time>
      </trkpt>
      <trkpt lat="47.39841" lon="4.96873">
        <ele>426</ele>
        <time>2022-04-14T10:12:52.464Z</time>
      </trkpt>
      <trkpt lat="47.39842" lon="4.96878">
        <ele>424</ele>
        <time>2022-04-14T10:12:56.488Z</time>
      </trkpt>
      <trkpt lat="47.39843" lon="4.96884">
        <ele>424</ele>
        <time>2022-04-14T10:13:01.437Z</time>
      </trkpt>
      <trkpt lat="47.39847" lon="4.9689">
        <ele>424</ele>
        <time>2022-04-14T10:13:06.434Z</time>
      </trkpt>
      <trkpt lat="47.39849" lon="4.96894">
        <ele>418</ele>
        <time>2022-04-14T10:13:10.441Z</time>
      </trkpt>
      <trkpt lat="47.39856" lon="4.96907">
        <ele>412</ele>
        <time>2022-04-14T10:13:29.471Z</time>
      </trkpt>
      <trkpt lat="47.39858" lon="4.96913">
        <ele>412</ele>
        <time>2022-04-14T10:13:34.499Z</time>
      </trkpt>
      <trkpt lat="47.3986" lon="4.96919">
        <ele>412</ele>
        <time>2022-04-14T10:13:39.492Z</time>
      </trkpt>
      <trkpt lat="47.3986" lon="4.96924">
        <ele>412</ele>
        <time>2022-04-14T10:13:44.445Z</time>
      </trkpt>
      <trkpt lat="47.39862" lon="4.96929">
        <ele>412</ele>
        <time>2022-04-14T10:13:49.451Z</time>
      </trkpt>
      <trkpt lat="47.39865" lon="4.96934">
        <ele>410</ele>
        <time>2022-04-14T10:13:54.423Z</time>
      </trkpt>
      <trkpt lat="47.39869" lon="4.96939">
        <ele>410</ele>
        <time>2022-04-14T10:13:59.439Z</time>
      </trkpt>
      <trkpt lat="47.39871" lon="4.96943">
        <ele>410</ele>
        <time>2022-04-14T10:14:04.386Z</time>
      </trkpt>
      <trkpt lat="47.39874" lon="4.96948">
        <ele>410</ele>
        <time>2022-04-14T10:14:09.444Z</time>
      </trkpt>
      <trkpt lat="47.39876" lon="4.96954">
        <ele>404</ele>
        <time>2022-04-14T10:14:13.455Z</time>
      </trkpt>
      <trkpt lat="47.39876" lon="4.96959">
        <ele>398</ele>
        <time>2022-04-14T10:14:17.478Z</time>
      </trkpt>
      <trkpt lat="47.39877" lon="4.96962">
        <ele>398</ele>
        <time>2022-04-14T10:14:21.506Z</time>
      </trkpt>
      <trkpt lat="47.39878" lon="4.96967">
        <ele>398</ele>
        <time>2022-04-14T10:14:26.418Z</time>
      </trkpt>
      <trkpt lat="47.39881" lon="4.96975">
        <ele>398</ele>
        <time>2022-04-14T10:14:35.390Z</time>
      </trkpt>
      <trkpt lat="47.39883" lon="4.96977">
        <ele>398</ele>
        <time>2022-04-14T10:14:39.427Z</time>
      </trkpt>
      <trkpt lat="47.39882" lon="4.96981">
        <ele>398</ele>
        <time>2022-04-14T10:14:44.387Z</time>
      </trkpt>
      <trkpt lat="47.39883" lon="4.96982">
        <ele>398</ele>
        <time>2022-04-14T10:14:49.378Z</time>
      </trkpt>
      <trkpt lat="47.39886" lon="4.96984">
        <ele>398</ele>
        <time>2022-04-14T10:14:54.376Z</time>
      </trkpt>
      <trkpt lat="47.39886" lon="4.96987">
        <ele>392</ele>
        <time>2022-04-14T10:14:59.439Z</time>
      </trkpt>
      <trkpt lat="47.39887" lon="4.96992">
        <ele>392</ele>
        <time>2022-04-14T10:15:04.447Z</time>
      </trkpt>
      <trkpt lat="47.39889" lon="4.96994">
        <ele>392</ele>
        <time>2022-04-14T10:15:09.403Z</time>
      </trkpt>
      <trkpt lat="47.3989" lon="4.96996">
        <ele>392</ele>
        <time>2022-04-14T10:15:13.431Z</time>
      </trkpt>
      <trkpt lat="47.39893" lon="4.96999">
        <ele>392</ele>
        <time>2022-04-14T10:15:18.381Z</time>
      </trkpt>
      <trkpt lat="47.39893" lon="4.97001">
        <ele>392</ele>
        <time>2022-04-14T10:15:22.413Z</time>
      </trkpt>
      <trkpt lat="47.39894" lon="4.97004">
        <ele>392</ele>
        <time>2022-04-14T10:15:27.421Z</time>
      </trkpt>
      <trkpt lat="47.39898" lon="4.97009">
        <ele>392</ele>
        <time>2022-04-14T10:15:31.434Z</time>
      </trkpt>
      <trkpt lat="47.39902" lon="4.9701">
        <ele>392</ele>
        <time>2022-04-14T10:15:35.473Z</time>
      </trkpt>
      <trkpt lat="47.39905" lon="4.97014">
        <ele>389</ele>
        <time>2022-04-14T10:15:40.427Z</time>
      </trkpt>
      <trkpt lat="47.39908" lon="4.97017">
        <ele>384</ele>
        <time>2022-04-14T10:15:44.467Z</time>
      </trkpt>
      <trkpt lat="47.39911" lon="4.97021">
        <ele>384</ele>
        <time>2022-04-14T10:15:49.463Z</time>
      </trkpt>
      <trkpt lat="47.39915" lon="4.97026">
        <ele>384</ele>
        <time>2022-04-14T10:15:54.449Z</time>
      </trkpt>
      <trkpt lat="47.39918" lon="4.97031">
        <ele>384</ele>
        <time>2022-04-14T10:15:59.433Z</time>
      </trkpt>
      <trkpt lat="47.39921" lon="4.97038">
        <ele>384</ele>
        <time>2022-04-14T10:16:04.457Z</time>
      </trkpt>
      <trkpt lat="47.39923" lon="4.97043">
        <ele>379</ele>
        <time>2022-04-14T10:16:08.480Z</time>
      </trkpt>
      <trkpt lat="47.39925" lon="4.97047">
        <ele>379</ele>
        <time>2022-04-14T10:16:13.452Z</time>
      </trkpt>
      <trkpt lat="47.39927" lon="4.97054">
        <ele>379</ele>
        <time>2022-04-14T10:16:18.485Z</time>
      </trkpt>
      <trkpt lat="47.39928" lon="4.97061">
        <ele>379</ele>
        <time>2022-04-14T10:16:23.408Z</time>
      </trkpt>
      <trkpt lat="47.3993" lon="4.97065">
        <ele>379</ele>
        <time>2022-04-14T10:16:27.414Z</time>
      </trkpt>
      <trkpt lat="47.39932" lon="4.97069">
        <ele>378</ele>
        <time>2022-04-14T10:16:31.425Z</time>
      </trkpt>
      <trkpt lat="47.39934" lon="4.97074">
        <ele>373</ele>
        <time>2022-04-14T10:16:36.387Z</time>
      </trkpt>
      <trkpt lat="47.39936" lon="4.97079">
        <ele>373</ele>
        <time>2022-04-14T10:16:41.410Z</time>
      </trkpt>
      <trkpt lat="47.39938" lon="4.97085">
        <ele>373</ele>
        <time>2022-04-14T10:16:45.411Z</time>
      </trkpt>
      <trkpt lat="47.3994" lon="4.9709">
        <ele>373</ele>
        <time>2022-04-14T10:16:49.455Z</time>
      </trkpt>
      <trkpt lat="47.39941" lon="4.97095">
        <ele>373</ele>
        <time>2022-04-14T10:16:54.423Z</time>
      </trkpt>
      <trkpt lat="47.39942" lon="4.97099">
        <ele>368</ele>
        <time>2022-04-14T10:16:58.429Z</time>
      </trkpt>
      <trkpt lat="47.39943" lon="4.97105">
        <ele>368</ele>
        <time>2022-04-14T10:17:03.433Z</time>
      </trkpt>
      <trkpt lat="47.39944" lon="4.97109">
        <ele>368</ele>
        <time>2022-04-14T10:17:07.455Z</time>
      </trkpt>
      <trkpt lat="47.39945" lon="4.97113">
        <ele>368</ele>
        <time>2022-04-14T10:17:12.406Z</time>
      </trkpt>
      <trkpt lat="47.39946" lon="4.97118">
        <ele>368</ele>
        <time>2022-04-14T10:17:16.428Z</time>
      </trkpt>
      <trkpt lat="47.39948" lon="4.97124">
        <ele>368</ele>
        <time>2022-04-14T10:17:21.415Z</time>
      </trkpt>
      <trkpt lat="47.3995" lon="4.97132">
        <ele>363</ele>
        <time>2022-04-14T10:17:26.400Z</time>
      </trkpt>
      <trkpt lat="47.39951" lon="4.9714">
        <ele>363</ele>
        <time>2022-04-14T10:17:31.397Z</time>
      </trkpt>
      <trkpt lat="47.39952" lon="4.97141">
        <ele>363</ele>
        <time>2022-04-14T10:17:35.446Z</time>
      </trkpt>
      <trkpt lat="47.39956" lon="4.97142">
        <ele>363</ele>
        <time>2022-04-14T10:17:40.400Z</time>
      </trkpt>
      <trkpt lat="47.39959" lon="4.97142">
        <ele>363</ele>
        <time>2022-04-14T10:17:45.400Z</time>
      </trkpt>
      <trkpt lat="47.3996" lon="4.97142">
        <ele>363</ele>
        <time>2022-04-14T10:17:49.420Z</time>
      </trkpt>
      <trkpt lat="47.39962" lon="4.97143">
        <ele>363</ele>
        <time>2022-04-14T10:19:41.377Z</time>
      </trkpt>
      <trkpt lat="47.39959" lon="4.97143">
        <ele>363</ele>
        <time>2022-04-14T10:19:45.399Z</time>
      </trkpt>
      <trkpt lat="47.39959" lon="4.97143">
        <ele>363</ele>
        <time>2022-04-14T10:19:49.469Z</time>
      </trkpt>
      <trkpt lat="47.39954" lon="4.97145">
        <ele>363</ele>
        <time>2022-04-14T10:20:27.386Z</time>
      </trkpt>
      <trkpt lat="47.39949" lon="4.97148">
        <ele>363</ele>
        <time>2022-04-14T10:20:32.395Z</time>
      </trkpt>
      <trkpt lat="47.39946" lon="4.97151">
        <ele>363</ele>
        <time>2022-04-14T10:20:36.418Z</time>
      </trkpt>
      <trkpt lat="47.39942" lon="4.97152">
        <ele>363</ele>
        <time>2022-04-14T10:20:41.401Z</time>
      </trkpt>
      <trkpt lat="47.39938" lon="4.97156">
        <ele>362</ele>
        <time>2022-04-14T10:20:46.406Z</time>
      </trkpt>
      <trkpt lat="47.39936" lon="4.97163">
        <ele>362</ele>
        <time>2022-04-14T10:20:50.443Z</time>
      </trkpt>
      <trkpt lat="47.39932" lon="4.97171">
        <ele>362</ele>
        <time>2022-04-14T10:20:55.397Z</time>
      </trkpt>
      <trkpt lat="47.39929" lon="4.97177">
        <ele>363</ele>
        <time>2022-04-14T10:20:59.467Z</time>
      </trkpt>
      <trkpt lat="47.39926" lon="4.97185">
        <ele>362</ele>
        <time>2022-04-14T10:21:04.432Z</time>
      </trkpt>
      <trkpt lat="47.39923" lon="4.97192">
        <ele>362</ele>
        <time>2022-04-14T10:21:09.392Z</time>
      </trkpt>
      <trkpt lat="47.39917" lon="4.97196">
        <ele>362</ele>
        <time>2022-04-14T10:21:14.404Z</time>
      </trkpt>
      <trkpt lat="47.39914" lon="4.97199">
        <ele>362</ele>
        <time>2022-04-14T10:21:19.405Z</time>
      </trkpt>
      <trkpt lat="47.39907" lon="4.97202">
        <ele>362</ele>
        <time>2022-04-14T10:21:24.406Z</time>
      </trkpt>
      <trkpt lat="47.39902" lon="4.97205">
        <ele>369</ele>
        <time>2022-04-14T10:21:28.402Z</time>
      </trkpt>
      <trkpt lat="47.39896" lon="4.97212">
        <ele>365</ele>
        <time>2022-04-14T10:21:33.429Z</time>
      </trkpt>
      <trkpt lat="47.39892" lon="4.97218">
        <ele>365</ele>
        <time>2022-04-14T10:21:38.399Z</time>
      </trkpt>
      <trkpt lat="47.39889" lon="4.97225">
        <ele>365</ele>
        <time>2022-04-14T10:21:43.393Z</time>
      </trkpt>
      <trkpt lat="47.39887" lon="4.97233">
        <ele>365</ele>
        <time>2022-04-14T10:21:47.452Z</time>
      </trkpt>
      <trkpt lat="47.39885" lon="4.97242">
        <ele>361</ele>
        <time>2022-04-14T10:21:52.478Z</time>
      </trkpt>
      <trkpt lat="47.39882" lon="4.97249">
        <ele>361</ele>
        <time>2022-04-14T10:21:57.414Z</time>
      </trkpt>
      <trkpt lat="47.3988" lon="4.97256">
        <ele>361</ele>
        <time>2022-04-14T10:22:02.404Z</time>
      </trkpt>
      <trkpt lat="47.39878" lon="4.97264">
        <ele>357</ele>
        <time>2022-04-14T10:22:06.446Z</time>
      </trkpt>
      <trkpt lat="47.39875" lon="4.97273">
        <ele>357</ele>
        <time>2022-04-14T10:22:11.453Z</time>
      </trkpt>
      <trkpt lat="47.39874" lon="4.97283">
        <ele>363</ele>
        <time>2022-04-14T10:22:16.485Z</time>
      </trkpt>
      <trkpt lat="47.39872" lon="4.97292">
        <ele>358</ele>
        <time>2022-04-14T10:22:21.392Z</time>
      </trkpt>
      <trkpt lat="47.3987" lon="4.97299">
        <ele>358</ele>
        <time>2022-04-14T10:22:25.464Z</time>
      </trkpt>
      <trkpt lat="47.39868" lon="4.9731">
        <ele>358</ele>
        <time>2022-04-14T10:22:30.494Z</time>
      </trkpt>
      <trkpt lat="47.39865" lon="4.97319">
        <ele>358</ele>
        <time>2022-04-14T10:22:35.458Z</time>
      </trkpt>
      <trkpt lat="47.39863" lon="4.97327">
        <ele>357</ele>
        <time>2022-04-14T10:22:40.396Z</time>
      </trkpt>
      <trkpt lat="47.39861" lon="4.97334">
        <ele>357</ele>
        <time>2022-04-14T10:22:44.469Z</time>
      </trkpt>
      <trkpt lat="47.39857" lon="4.97341">
        <ele>357</ele>
        <time>2022-04-14T10:22:49.477Z</time>
      </trkpt>
      <trkpt lat="47.39854" lon="4.97349">
        <ele>354</ele>
        <time>2022-04-14T10:22:54.406Z</time>
      </trkpt>
      <trkpt lat="47.39853" lon="4.97355">
        <ele>354</ele>
        <time>2022-04-14T10:22:59.481Z</time>
      </trkpt>
      <trkpt lat="47.39851" lon="4.97365">
        <ele>354</ele>
        <time>2022-04-14T10:23:04.427Z</time>
      </trkpt>
      <trkpt lat="47.39849" lon="4.97373">
        <ele>354</ele>
        <time>2022-04-14T10:23:09.395Z</time>
      </trkpt>
      <trkpt lat="47.39846" lon="4.97379">
        <ele>359</ele>
        <time>2022-04-14T10:23:13.461Z</time>
      </trkpt>
      <trkpt lat="47.39841" lon="4.97389">
        <ele>359</ele>
        <time>2022-04-14T10:23:18.402Z</time>
      </trkpt>
      <trkpt lat="47.39838" lon="4.97395">
        <ele>359</ele>
        <time>2022-04-14T10:23:22.470Z</time>
      </trkpt>
      <trkpt lat="47.39835" lon="4.97404">
        <ele>356</ele>
        <time>2022-04-14T10:23:27.459Z</time>
      </trkpt>
      <trkpt lat="47.39834" lon="4.9741">
        <ele>356</ele>
        <time>2022-04-14T10:23:31.502Z</time>
      </trkpt>
      <trkpt lat="47.39832" lon="4.97419">
        <ele>356</ele>
        <time>2022-04-14T10:23:36.442Z</time>
      </trkpt>
      <trkpt lat="47.3983" lon="4.97427">
        <ele>356</ele>
        <time>2022-04-14T10:23:41.422Z</time>
      </trkpt>
      <trkpt lat="47.39829" lon="4.97435">
        <ele>354</ele>
        <time>2022-04-14T10:23:45.462Z</time>
      </trkpt>
      <trkpt lat="47.39828" lon="4.97441">
        <ele>354</ele>
        <time>2022-04-14T10:23:49.467Z</time>
      </trkpt>
      <trkpt lat="47.39829" lon="4.97444">
        <ele>354</ele>
        <time>2022-04-14T10:23:54.430Z</time>
      </trkpt>
      <trkpt lat="47.39829" lon="4.97447">
        <ele>354</ele>
        <time>2022-04-14T10:23:59.441Z</time>
      </trkpt>
      <trkpt lat="47.39829" lon="4.9745">
        <ele>354</ele>
        <time>2022-04-14T10:24:04.384Z</time>
      </trkpt>
      <trkpt lat="47.39826" lon="4.97463">
        <ele>352</ele>
        <time>2022-04-14T10:25:12.387Z</time>
      </trkpt>
      <trkpt lat="47.39827" lon="4.97464">
        <ele>352</ele>
        <time>2022-04-14T10:25:17.475Z</time>
      </trkpt>
      <trkpt lat="47.39828" lon="4.97466">
        <ele>352</ele>
        <time>2022-04-14T10:25:22.475Z</time>
      </trkpt>
      <trkpt lat="47.39827" lon="4.97468">
        <ele>352</ele>
        <time>2022-04-14T10:25:27.451Z</time>
      </trkpt>
      <trkpt lat="47.39825" lon="4.97469">
        <ele>352</ele>
        <time>2022-04-14T10:25:31.478Z</time>
      </trkpt>
      <trkpt lat="47.39822" lon="4.97464">
        <ele>352</ele>
        <time>2022-04-14T10:33:50.425Z</time>
      </trkpt>
      <trkpt lat="47.39821" lon="4.97463">
        <ele>352</ele>
        <time>2022-04-14T10:34:00.433Z</time>
      </trkpt>
      <trkpt lat="47.39821" lon="4.97463">
        <ele>352</ele>
        <time>2022-04-14T10:34:05.411Z</time>
      </trkpt>
      <trkpt lat="47.39821" lon="4.97458">
        <ele>354</ele>
        <time>2022-04-14T10:34:14.420Z</time>
      </trkpt>
      <trkpt lat="47.39821" lon="4.97458">
        <ele>354</ele>
        <time>2022-04-14T10:34:19.418Z</time>
      </trkpt>
      <trkpt lat="47.39824" lon="4.97461">
        <ele>352</ele>
        <time>2022-04-14T10:35:11.414Z</time>
      </trkpt>
      <trkpt lat="47.39823" lon="4.97463">
        <ele>352</ele>
        <time>2022-04-14T10:35:30.443Z</time>
      </trkpt>
      <trkpt lat="47.39824" lon="4.97466">
        <ele>352</ele>
        <time>2022-04-14T10:35:40.448Z</time>
      </trkpt>
      <trkpt lat="47.39825" lon="4.97468">
        <ele>352</ele>
        <time>2022-04-14T10:36:22.386Z</time>
      </trkpt>
      <trkpt lat="47.39827" lon="4.97469">
        <ele>352</ele>
        <time>2022-04-14T10:36:26.446Z</time>
      </trkpt>
      <trkpt lat="47.39828" lon="4.97464">
        <ele>352</ele>
        <time>2022-04-14T10:46:22.465Z</time>
      </trkpt>
      <trkpt lat="47.39827" lon="4.97463">
        <ele>352</ele>
        <time>2022-04-14T10:46:27.477Z</time>
      </trkpt>
      <trkpt lat="47.39826" lon="4.97463">
        <ele>352</ele>
        <time>2022-04-14T10:46:32.456Z</time>
      </trkpt>
      <trkpt lat="47.39823" lon="4.97455">
        <ele>354</ele>
        <time>2022-04-14T10:46:56.423Z</time>
      </trkpt>
      <trkpt lat="47.39823" lon="4.97455">
        <ele>354</ele>
        <time>2022-04-14T10:47:01.439Z</time>
      </trkpt>
      <trkpt lat="47.39828" lon="4.97467">
        <ele>352</ele>
        <time>2022-04-14T10:57:49.445Z</time>
      </trkpt>
      <trkpt lat="47.39829" lon="4.97466">
        <ele>352</ele>
        <time>2022-04-14T10:57:53.453Z</time>
      </trkpt>
      <trkpt lat="47.39831" lon="4.97465">
        <ele>352</ele>
        <time>2022-04-14T10:57:58.397Z</time>
      </trkpt>
      <trkpt lat="47.39831" lon="4.97467">
        <ele>352</ele>
        <time>2022-04-14T10:58:02.453Z</time>
      </trkpt>
      <trkpt lat="47.39831" lon="4.97469">
        <ele>352</ele>
        <time>2022-04-14T10:58:07.461Z</time>
      </trkpt>
      <trkpt lat="47.39829" lon="4.97469">
        <ele>352</ele>
        <time>2022-04-14T10:58:31.408Z</time>
      </trkpt>
      <trkpt lat="47.39829" lon="4.97472">
        <ele>352</ele>
        <time>2022-04-14T10:58:45.473Z</time>
      </trkpt>
      <trkpt lat="47.39828" lon="4.97476">
        <ele>352</ele>
        <time>2022-04-14T10:58:50.449Z</time>
      </trkpt>
      <trkpt lat="47.39828" lon="4.97481">
        <ele>352</ele>
        <time>2022-04-14T10:58:55.447Z</time>
      </trkpt>
      <trkpt lat="47.39826" lon="4.97487">
        <ele>351</ele>
        <time>2022-04-14T10:59:00.474Z</time>
      </trkpt>
      <trkpt lat="47.39825" lon="4.97494">
        <ele>351</ele>
        <time>2022-04-14T10:59:05.462Z</time>
      </trkpt>
      <trkpt lat="47.39823" lon="4.975">
        <ele>351</ele>
        <time>2022-04-14T10:59:10.396Z</time>
      </trkpt>
      <trkpt lat="47.39823" lon="4.97508">
        <ele>351</ele>
        <time>2022-04-14T10:59:14.421Z</time>
      </trkpt>
      <trkpt lat="47.39823" lon="4.97516">
        <ele>349</ele>
        <time>2022-04-14T10:59:18.469Z</time>
      </trkpt>
      <trkpt lat="47.39824" lon="4.97524">
        <ele>349</ele>
        <time>2022-04-14T10:59:23.465Z</time>
      </trkpt>
      <trkpt lat="47.39821" lon="4.97532">
        <ele>349</ele>
        <time>2022-04-14T10:59:28.454Z</time>
      </trkpt>
      <trkpt lat="47.39821" lon="4.97539">
        <ele>349</ele>
        <time>2022-04-14T10:59:32.458Z</time>
      </trkpt>
      <trkpt lat="47.39819" lon="4.97547">
        <ele>355</ele>
        <time>2022-04-14T10:59:37.427Z</time>
      </trkpt>
      <trkpt lat="47.39818" lon="4.97555">
        <ele>355</ele>
        <time>2022-04-14T10:59:41.459Z</time>
      </trkpt>
      <trkpt lat="47.39817" lon="4.97565">
        <ele>355</ele>
        <time>2022-04-14T10:59:46.472Z</time>
      </trkpt>
      <trkpt lat="47.39814" lon="4.97574">
        <ele>354</ele>
        <time>2022-04-14T10:59:51.459Z</time>
      </trkpt>
      <trkpt lat="47.39814" lon="4.97583">
        <ele>354</ele>
        <time>2022-04-14T10:59:56.431Z</time>
      </trkpt>
      <trkpt lat="47.39813" lon="4.9759">
        <ele>354</ele>
        <time>2022-04-14T11:00:01.451Z</time>
      </trkpt>
      <trkpt lat="47.39812" lon="4.97598">
        <ele>352</ele>
        <time>2022-04-14T11:00:06.415Z</time>
      </trkpt>
      <trkpt lat="47.3981" lon="4.97605">
        <ele>352</ele>
        <time>2022-04-14T11:00:10.454Z</time>
      </trkpt>
      <trkpt lat="47.39811" lon="4.97613">
        <ele>352</ele>
        <time>2022-04-14T11:00:14.485Z</time>
      </trkpt>
      <trkpt lat="47.39812" lon="4.97622">
        <ele>352</ele>
        <time>2022-04-14T11:00:19.452Z</time>
      </trkpt>
      <trkpt lat="47.39811" lon="4.97629">
        <ele>349</ele>
        <time>2022-04-14T11:00:23.501Z</time>
      </trkpt>
      <trkpt lat="47.39809" lon="4.9764">
        <ele>349</ele>
        <time>2022-04-14T11:00:28.454Z</time>
      </trkpt>
      <trkpt lat="47.39809" lon="4.97648">
        <ele>349</ele>
        <time>2022-04-14T11:00:33.452Z</time>
      </trkpt>
      <trkpt lat="47.39808" lon="4.97656">
        <ele>348</ele>
        <time>2022-04-14T11:00:38.453Z</time>
      </trkpt>
      <trkpt lat="47.39807" lon="4.97667">
        <ele>348</ele>
        <time>2022-04-14T11:00:43.418Z</time>
      </trkpt>
      <trkpt lat="47.39806" lon="4.97676">
        <ele>348</ele>
        <time>2022-04-14T11:00:47.460Z</time>
      </trkpt>
      <trkpt lat="47.39808" lon="4.97685">
        <ele>346</ele>
        <time>2022-04-14T11:00:51.463Z</time>
      </trkpt>
      <trkpt lat="47.39808" lon="4.97694">
        <ele>346</ele>
        <time>2022-04-14T11:00:56.439Z</time>
      </trkpt>
      <trkpt lat="47.3981" lon="4.977">
        <ele>346</ele>
        <time>2022-04-14T11:01:00.467Z</time>
      </trkpt>
      <trkpt lat="47.3981" lon="4.9771">
        <ele>343</ele>
        <time>2022-04-14T11:01:05.403Z</time>
      </trkpt>
      <trkpt lat="47.39808" lon="4.97718">
        <ele>343</ele>
        <time>2022-04-14T11:01:09.436Z</time>
      </trkpt>
      <trkpt lat="47.39807" lon="4.97723">
        <ele>343</ele>
        <time>2022-04-14T11:01:13.468Z</time>
      </trkpt>
      <trkpt lat="47.39807" lon="4.97732">
        <ele>343</ele>
        <time>2022-04-14T11:01:18.435Z</time>
      </trkpt>
      <trkpt lat="47.39808" lon="4.97738">
        <ele>341</ele>
        <time>2022-04-14T11:01:22.457Z</time>
      </trkpt>
      <trkpt lat="47.39807" lon="4.97746">
        <ele>341</ele>
        <time>2022-04-14T11:01:27.392Z</time>
      </trkpt>
      <trkpt lat="47.39806" lon="4.97755">
        <ele>341</ele>
        <time>2022-04-14T11:01:32.402Z</time>
      </trkpt>
      <trkpt lat="47.39805" lon="4.97761">
        <ele>341</ele>
        <time>2022-04-14T11:01:36.444Z</time>
      </trkpt>
      <trkpt lat="47.39806" lon="4.97771">
        <ele>339</ele>
        <time>2022-04-14T11:01:41.458Z</time>
      </trkpt>
      <trkpt lat="47.39805" lon="4.97779">
        <ele>339</ele>
        <time>2022-04-14T11:01:46.464Z</time>
      </trkpt>
      <trkpt lat="47.39805" lon="4.97789">
        <ele>339</ele>
        <time>2022-04-14T11:01:51.483Z</time>
      </trkpt>
      <trkpt lat="47.39804" lon="4.97796">
        <ele>337</ele>
        <time>2022-04-14T11:01:55.497Z</time>
      </trkpt>
      <trkpt lat="47.39803" lon="4.97803">
        <ele>337</ele>
        <time>2022-04-14T11:02:00.451Z</time>
      </trkpt>
      <trkpt lat="47.39801" lon="4.97811">
        <ele>337</ele>
        <time>2022-04-14T11:02:05.432Z</time>
      </trkpt>
      <trkpt lat="47.39801" lon="4.9782">
        <ele>336</ele>
        <time>2022-04-14T11:02:10.423Z</time>
      </trkpt>
      <trkpt lat="47.39801" lon="4.9783">
        <ele>336</ele>
        <time>2022-04-14T11:02:14.460Z</time>
      </trkpt>
      <trkpt lat="47.39801" lon="4.97841">
        <ele>336</ele>
        <time>2022-04-14T11:02:19.430Z</time>
      </trkpt>
      <trkpt lat="47.39802" lon="4.97853">
        <ele>335</ele>
        <time>2022-04-14T11:02:24.444Z</time>
      </trkpt>
      <trkpt lat="47.39802" lon="4.97861">
        <ele>335</ele>
        <time>2022-04-14T11:02:28.466Z</time>
      </trkpt>
      <trkpt lat="47.39801" lon="4.9787">
        <ele>335</ele>
        <time>2022-04-14T11:02:33.441Z</time>
      </trkpt>
      <trkpt lat="47.39799" lon="4.97877">
        <ele>336</ele>
        <time>2022-04-14T11:02:38.473Z</time>
      </trkpt>
      <trkpt lat="47.39796" lon="4.97885">
        <ele>336</ele>
        <time>2022-04-14T11:02:43.446Z</time>
      </trkpt>
      <trkpt lat="47.39795" lon="4.97893">
        <ele>336</ele>
        <time>2022-04-14T11:02:48.478Z</time>
      </trkpt>
      <trkpt lat="47.39792" lon="4.979">
        <ele>336</ele>
        <time>2022-04-14T11:02:53.463Z</time>
      </trkpt>
      <trkpt lat="47.3979" lon="4.97904">
        <ele>336</ele>
        <time>2022-04-14T11:02:58.467Z</time>
      </trkpt>
      <trkpt lat="47.39787" lon="4.97913">
        <ele>336</ele>
        <time>2022-04-14T11:03:03.403Z</time>
      </trkpt>
      <trkpt lat="47.39784" lon="4.97919">
        <ele>336</ele>
        <time>2022-04-14T11:03:08.401Z</time>
      </trkpt>
      <trkpt lat="47.39782" lon="4.97928">
        <ele>336</ele>
        <time>2022-04-14T11:03:13.439Z</time>
      </trkpt>
      <trkpt lat="47.39779" lon="4.97939">
        <ele>336</ele>
        <time>2022-04-14T11:03:18.462Z</time>
      </trkpt>
      <trkpt lat="47.39776" lon="4.97949">
        <ele>336</ele>
        <time>2022-04-14T11:03:23.473Z</time>
      </trkpt>
      <trkpt lat="47.39772" lon="4.97957">
        <ele>336</ele>
        <time>2022-04-14T11:03:28.451Z</time>
      </trkpt>
      <trkpt lat="47.39769" lon="4.97967">
        <ele>335</ele>
        <time>2022-04-14T11:03:33.461Z</time>
      </trkpt>
      <trkpt lat="47.39769" lon="4.97974">
        <ele>335</ele>
        <time>2022-04-14T11:03:38.455Z</time>
      </trkpt>
      <trkpt lat="47.3977" lon="4.97984">
        <ele>335</ele>
        <time>2022-04-14T11:03:43.470Z</time>
      </trkpt>
      <trkpt lat="47.39771" lon="4.97994">
        <ele>335</ele>
        <time>2022-04-14T11:03:48.423Z</time>
      </trkpt>
      <trkpt lat="47.39771" lon="4.98001">
        <ele>335</ele>
        <time>2022-04-14T11:03:52.458Z</time>
      </trkpt>
      <trkpt lat="47.39771" lon="4.98009">
        <ele>335</ele>
        <time>2022-04-14T11:03:56.485Z</time>
      </trkpt>
      <trkpt lat="47.3977" lon="4.98019">
        <ele>335</ele>
        <time>2022-04-14T11:04:01.437Z</time>
      </trkpt>
      <trkpt lat="47.3977" lon="4.9803">
        <ele>335</ele>
        <time>2022-04-14T11:04:06.435Z</time>
      </trkpt>
      <trkpt lat="47.39772" lon="4.98041">
        <ele>335</ele>
        <time>2022-04-14T11:04:11.455Z</time>
      </trkpt>
      <trkpt lat="47.39774" lon="4.9805">
        <ele>335</ele>
        <time>2022-04-14T11:04:16.500Z</time>
      </trkpt>
      <trkpt lat="47.39777" lon="4.9806">
        <ele>335</ele>
        <time>2022-04-14T11:04:21.459Z</time>
      </trkpt>
      <trkpt lat="47.39782" lon="4.98077">
        <ele>334</ele>
        <time>2022-04-14T11:04:45.427Z</time>
      </trkpt>
      <trkpt lat="47.39782" lon="4.98084">
        <ele>334</ele>
        <time>2022-04-14T11:05:04.407Z</time>
      </trkpt>
      <trkpt lat="47.39782" lon="4.98086">
        <ele>334</ele>
        <time>2022-04-14T11:05:08.422Z</time>
      </trkpt>
      <trkpt lat="47.39783" lon="4.9809">
        <ele>334</ele>
        <time>2022-04-14T11:05:12.443Z</time>
      </trkpt>
      <trkpt lat="47.39783" lon="4.98092">
        <ele>334</ele>
        <time>2022-04-14T11:05:17.442Z</time>
      </trkpt>
      <trkpt lat="47.39785" lon="4.98099">
        <ele>333</ele>
        <time>2022-04-14T11:05:22.444Z</time>
      </trkpt>
      <trkpt lat="47.39787" lon="4.98105">
        <ele>333</ele>
        <time>2022-04-14T11:05:27.460Z</time>
      </trkpt>
      <trkpt lat="47.39788" lon="4.9811">
        <ele>333</ele>
        <time>2022-04-14T11:05:31.475Z</time>
      </trkpt>
      <trkpt lat="47.3979" lon="4.98118">
        <ele>333</ele>
        <time>2022-04-14T11:05:36.419Z</time>
      </trkpt>
      <trkpt lat="47.39791" lon="4.98126">
        <ele>334</ele>
        <time>2022-04-14T11:05:41.454Z</time>
      </trkpt>
      <trkpt lat="47.39793" lon="4.98132">
        <ele>333</ele>
        <time>2022-04-14T11:05:46.444Z</time>
      </trkpt>
      <trkpt lat="47.39794" lon="4.98139">
        <ele>333</ele>
        <time>2022-04-14T11:05:51.474Z</time>
      </trkpt>
      <trkpt lat="47.39795" lon="4.98145">
        <ele>333</ele>
        <time>2022-04-14T11:05:56.406Z</time>
      </trkpt>
      <trkpt lat="47.39798" lon="4.98151">
        <ele>333</ele>
        <time>2022-04-14T11:06:01.472Z</time>
      </trkpt>
      <trkpt lat="47.398" lon="4.98158">
        <ele>332</ele>
        <time>2022-04-14T11:06:06.443Z</time>
      </trkpt>
      <trkpt lat="47.39802" lon="4.98166">
        <ele>332</ele>
        <time>2022-04-14T11:06:11.427Z</time>
      </trkpt>
      <trkpt lat="47.39803" lon="4.98175">
        <ele>332</ele>
        <time>2022-04-14T11:06:16.405Z</time>
      </trkpt>
      <trkpt lat="47.39803" lon="4.9818">
        <ele>332</ele>
        <time>2022-04-14T11:06:20.443Z</time>
      </trkpt>
      <trkpt lat="47.39804" lon="4.98189">
        <ele>333</ele>
        <time>2022-04-14T11:06:25.418Z</time>
      </trkpt>
      <trkpt lat="47.39804" lon="4.98194">
        <ele>333</ele>
        <time>2022-04-14T11:06:29.460Z</time>
      </trkpt>
      <trkpt lat="47.39804" lon="4.98202">
        <ele>333</ele>
        <time>2022-04-14T11:06:34.435Z</time>
      </trkpt>
      <trkpt lat="47.39804" lon="4.9821">
        <ele>334</ele>
        <time>2022-04-14T11:06:39.419Z</time>
      </trkpt>
      <trkpt lat="47.39806" lon="4.98217">
        <ele>334</ele>
        <time>2022-04-14T11:06:44.411Z</time>
      </trkpt>
      <trkpt lat="47.39807" lon="4.98226">
        <ele>334</ele>
        <time>2022-04-14T11:06:48.453Z</time>
      </trkpt>
      <trkpt lat="47.39809" lon="4.98234">
        <ele>334</ele>
        <time>2022-04-14T11:06:53.401Z</time>
      </trkpt>
      <trkpt lat="47.3981" lon="4.98243">
        <ele>333</ele>
        <time>2022-04-14T11:06:58.403Z</time>
      </trkpt>
      <trkpt lat="47.39811" lon="4.98249">
        <ele>333</ele>
        <time>2022-04-14T11:07:02.457Z</time>
      </trkpt>
      <trkpt lat="47.39812" lon="4.98256">
        <ele>333</ele>
        <time>2022-04-14T11:07:07.458Z</time>
      </trkpt>
      <trkpt lat="47.39813" lon="4.98265">
        <ele>334</ele>
        <time>2022-04-14T11:07:12.419Z</time>
      </trkpt>
      <trkpt lat="47.39815" lon="4.98273">
        <ele>334</ele>
        <time>2022-04-14T11:07:17.473Z</time>
      </trkpt>
      <trkpt lat="47.39817" lon="4.98281">
        <ele>334</ele>
        <time>2022-04-14T11:07:22.439Z</time>
      </trkpt>
      <trkpt lat="47.39819" lon="4.9829">
        <ele>334</ele>
        <time>2022-04-14T11:07:27.433Z</time>
      </trkpt>
      <trkpt lat="47.3982" lon="4.98298">
        <ele>332</ele>
        <time>2022-04-14T11:07:32.441Z</time>
      </trkpt>
      <trkpt lat="47.39822" lon="4.98308">
        <ele>332</ele>
        <time>2022-04-14T11:07:37.419Z</time>
      </trkpt>
      <trkpt lat="47.39825" lon="4.98315">
        <ele>332</ele>
        <time>2022-04-14T11:07:42.412Z</time>
      </trkpt>
      <trkpt lat="47.39827" lon="4.98323">
        <ele>332</ele>
        <time>2022-04-14T11:07:46.444Z</time>
      </trkpt>
      <trkpt lat="47.39829" lon="4.98333">
        <ele>332</ele>
        <time>2022-04-14T11:07:51.416Z</time>
      </trkpt>
      <trkpt lat="47.39829" lon="4.9834">
        <ele>332</ele>
        <time>2022-04-14T11:07:55.456Z</time>
      </trkpt>
      <trkpt lat="47.39832" lon="4.98348">
        <ele>331</ele>
        <time>2022-04-14T11:08:00.429Z</time>
      </trkpt>
      <trkpt lat="47.39835" lon="4.98356">
        <ele>331</ele>
        <time>2022-04-14T11:08:04.454Z</time>
      </trkpt>
      <trkpt lat="47.39838" lon="4.98365">
        <ele>331</ele>
        <time>2022-04-14T11:08:09.415Z</time>
      </trkpt>
      <trkpt lat="47.3984" lon="4.98376">
        <ele>331</ele>
        <time>2022-04-14T11:08:14.404Z</time>
      </trkpt>
      <trkpt lat="47.39841" lon="4.98383">
        <ele>331</ele>
        <time>2022-04-14T11:08:18.438Z</time>
      </trkpt>
      <trkpt lat="47.39841" lon="4.98392">
        <ele>331</ele>
        <time>2022-04-14T11:08:23.444Z</time>
      </trkpt>
      <trkpt lat="47.39842" lon="4.98401">
        <ele>331</ele>
        <time>2022-04-14T11:08:28.439Z</time>
      </trkpt>
      <trkpt lat="47.39844" lon="4.98409">
        <ele>331</ele>
        <time>2022-04-14T11:08:32.466Z</time>
      </trkpt>
      <trkpt lat="47.39846" lon="4.98418">
        <ele>331</ele>
        <time>2022-04-14T11:08:37.474Z</time>
      </trkpt>
      <trkpt lat="47.39848" lon="4.98426">
        <ele>329</ele>
        <time>2022-04-14T11:08:42.424Z</time>
      </trkpt>
      <trkpt lat="47.3985" lon="4.98434">
        <ele>327</ele>
        <time>2022-04-14T11:08:46.443Z</time>
      </trkpt>
      <trkpt lat="47.39853" lon="4.98441">
        <ele>327</ele>
        <time>2022-04-14T11:08:51.407Z</time>
      </trkpt>
      <trkpt lat="47.39856" lon="4.9845">
        <ele>327</ele>
        <time>2022-04-14T11:08:56.412Z</time>
      </trkpt>
      <trkpt lat="47.39859" lon="4.9846">
        <ele>328</ele>
        <time>2022-04-14T11:09:01.418Z</time>
      </trkpt>
      <trkpt lat="47.39862" lon="4.98467">
        <ele>328</ele>
        <time>2022-04-14T11:09:06.418Z</time>
      </trkpt>
      <trkpt lat="47.39865" lon="4.98476">
        <ele>328</ele>
        <time>2022-04-14T11:09:11.395Z</time>
      </trkpt>
      <trkpt lat="47.39868" lon="4.98483">
        <ele>328</ele>
        <time>2022-04-14T11:09:16.420Z</time>
      </trkpt>
      <trkpt lat="47.3987" lon="4.98491">
        <ele>330</ele>
        <time>2022-04-14T11:09:20.455Z</time>
      </trkpt>
      <trkpt lat="47.39873" lon="4.98499">
        <ele>330</ele>
        <time>2022-04-14T11:09:25.408Z</time>
      </trkpt>
      <trkpt lat="47.39877" lon="4.98505">
        <ele>328</ele>
        <time>2022-04-14T11:09:30.413Z</time>
      </trkpt>
      <trkpt lat="47.39878" lon="4.98512">
        <ele>328</ele>
        <time>2022-04-14T11:09:35.423Z</time>
      </trkpt>
      <trkpt lat="47.39882" lon="4.98518">
        <ele>327</ele>
        <time>2022-04-14T11:09:40.406Z</time>
      </trkpt>
      <trkpt lat="47.39885" lon="4.98523">
        <ele>327</ele>
        <time>2022-04-14T11:09:44.435Z</time>
      </trkpt>
      <trkpt lat="47.39888" lon="4.98529">
        <ele>327</ele>
        <time>2022-04-14T11:09:49.415Z</time>
      </trkpt>
      <trkpt lat="47.39891" lon="4.98535">
        <ele>327</ele>
        <time>2022-04-14T11:09:53.429Z</time>
      </trkpt>
      <trkpt lat="47.39896" lon="4.98539">
        <ele>327</ele>
        <time>2022-04-14T11:09:57.454Z</time>
      </trkpt>
      <trkpt lat="47.39901" lon="4.98548">
        <ele>327</ele>
        <time>2022-04-14T11:10:02.448Z</time>
      </trkpt>
      <trkpt lat="47.39905" lon="4.98556">
        <ele>326</ele>
        <time>2022-04-14T11:10:07.401Z</time>
      </trkpt>
      <trkpt lat="47.39909" lon="4.98565">
        <ele>326</ele>
        <time>2022-04-14T11:10:12.396Z</time>
      </trkpt>
      <trkpt lat="47.39913" lon="4.98572">
        <ele>325</ele>
        <time>2022-04-14T11:10:16.434Z</time>
      </trkpt>
      <trkpt lat="47.39914" lon="4.98579">
        <ele>325</ele>
        <time>2022-04-14T11:10:21.420Z</time>
      </trkpt>
      <trkpt lat="47.39919" lon="4.98588">
        <ele>325</ele>
        <time>2022-04-14T11:10:26.435Z</time>
      </trkpt>
      <trkpt lat="47.39924" lon="4.98595">
        <ele>325</ele>
        <time>2022-04-14T11:10:31.418Z</time>
      </trkpt>
      <trkpt lat="47.39927" lon="4.98601">
        <ele>327</ele>
        <time>2022-04-14T11:10:36.471Z</time>
      </trkpt>
      <trkpt lat="47.39933" lon="4.98608">
        <ele>324</ele>
        <time>2022-04-14T11:10:41.439Z</time>
      </trkpt>
      <trkpt lat="47.39938" lon="4.98616">
        <ele>324</ele>
        <time>2022-04-14T11:10:46.426Z</time>
      </trkpt>
      <trkpt lat="47.39944" lon="4.98623">
        <ele>324</ele>
        <time>2022-04-14T11:10:51.366Z</time>
      </trkpt>
      <trkpt lat="47.39948" lon="4.98629">
        <ele>325</ele>
        <time>2022-04-14T11:10:55.400Z</time>
      </trkpt>
      <trkpt lat="47.39953" lon="4.98636">
        <ele>325</ele>
        <time>2022-04-14T11:11:00.407Z</time>
      </trkpt>
      <trkpt lat="47.39956" lon="4.98642">
        <ele>325</ele>
        <time>2022-04-14T11:11:05.380Z</time>
      </trkpt>
      <trkpt lat="47.39958" lon="4.98647">
        <ele>323</ele>
        <time>2022-04-14T11:11:09.395Z</time>
      </trkpt>
      <trkpt lat="47.39962" lon="4.98652">
        <ele>323</ele>
        <time>2022-04-14T11:11:13.452Z</time>
      </trkpt>
      <trkpt lat="47.39966" lon="4.98661">
        <ele>323</ele>
        <time>2022-04-14T11:11:18.421Z</time>
      </trkpt>
      <trkpt lat="47.3997" lon="4.98668">
        <ele>323</ele>
        <time>2022-04-14T11:11:23.419Z</time>
      </trkpt>
      <trkpt lat="47.39973" lon="4.98674">
        <ele>323</ele>
        <time>2022-04-14T11:11:27.425Z</time>
      </trkpt>
      <trkpt lat="47.39978" lon="4.98679">
        <ele>323</ele>
        <time>2022-04-14T11:11:31.439Z</time>
      </trkpt>
      <trkpt lat="47.39982" lon="4.98685">
        <ele>323</ele>
        <time>2022-04-14T11:11:36.411Z</time>
      </trkpt>
      <trkpt lat="47.39985" lon="4.98693">
        <ele>323</ele>
        <time>2022-04-14T11:11:41.401Z</time>
      </trkpt>
      <trkpt lat="47.39988" lon="4.987">
        <ele>323</ele>
        <time>2022-04-14T11:11:45.398Z</time>
      </trkpt>
      <trkpt lat="47.39993" lon="4.98707">
        <ele>323</ele>
        <time>2022-04-14T11:11:50.422Z</time>
      </trkpt>
      <trkpt lat="47.39996" lon="4.98713">
        <ele>323</ele>
        <time>2022-04-14T11:11:55.403Z</time>
      </trkpt>
      <trkpt lat="47.4" lon="4.98721">
        <ele>323</ele>
        <time>2022-04-14T11:12:00.408Z</time>
      </trkpt>
      <trkpt lat="47.40003" lon="4.98729">
        <ele>323</ele>
        <time>2022-04-14T11:12:05.407Z</time>
      </trkpt>
      <trkpt lat="47.40007" lon="4.98736">
        <ele>323</ele>
        <time>2022-04-14T11:12:09.405Z</time>
      </trkpt>
      <trkpt lat="47.40008" lon="4.98742">
        <ele>324</ele>
        <time>2022-04-14T11:12:13.452Z</time>
      </trkpt>
      <trkpt lat="47.40012" lon="4.98752">
        <ele>324</ele>
        <time>2022-04-14T11:12:18.408Z</time>
      </trkpt>
      <trkpt lat="47.40015" lon="4.98761">
        <ele>325</ele>
        <time>2022-04-14T11:12:23.444Z</time>
      </trkpt>
      <trkpt lat="47.40019" lon="4.98769">
        <ele>324</ele>
        <time>2022-04-14T11:12:28.438Z</time>
      </trkpt>
      <trkpt lat="47.40021" lon="4.98777">
        <ele>324</ele>
        <time>2022-04-14T11:12:33.422Z</time>
      </trkpt>
      <trkpt lat="47.40024" lon="4.98787">
        <ele>324</ele>
        <time>2022-04-14T11:12:38.429Z</time>
      </trkpt>
      <trkpt lat="47.40026" lon="4.98792">
        <ele>324</ele>
        <time>2022-04-14T11:12:42.421Z</time>
      </trkpt>
      <trkpt lat="47.40028" lon="4.98802">
        <ele>324</ele>
        <time>2022-04-14T11:12:47.425Z</time>
      </trkpt>
      <trkpt lat="47.4003" lon="4.9881">
        <ele>324</ele>
        <time>2022-04-14T11:12:52.402Z</time>
      </trkpt>
      <trkpt lat="47.40032" lon="4.98818">
        <ele>324</ele>
        <time>2022-04-14T11:12:56.439Z</time>
      </trkpt>
      <trkpt lat="47.40032" lon="4.98827">
        <ele>324</ele>
        <time>2022-04-14T11:13:00.474Z</time>
      </trkpt>
      <trkpt lat="47.40033" lon="4.98832">
        <ele>324</ele>
        <time>2022-04-14T11:13:05.386Z</time>
      </trkpt>
      <trkpt lat="47.40036" lon="4.98841">
        <ele>324</ele>
        <time>2022-04-14T11:13:10.371Z</time>
      </trkpt>
      <trkpt lat="47.40039" lon="4.9885">
        <ele>324</ele>
        <time>2022-04-14T11:13:14.388Z</time>
      </trkpt>
      <trkpt lat="47.40042" lon="4.98858">
        <ele>322</ele>
        <time>2022-04-14T11:13:19.378Z</time>
      </trkpt>
      <trkpt lat="47.40043" lon="4.98866">
        <ele>322</ele>
        <time>2022-04-14T11:13:24.364Z</time>
      </trkpt>
      <trkpt lat="47.40045" lon="4.98873">
        <ele>322</ele>
        <time>2022-04-14T11:13:28.392Z</time>
      </trkpt>
      <trkpt lat="47.40048" lon="4.9888">
        <ele>323</ele>
        <time>2022-04-14T11:13:32.403Z</time>
      </trkpt>
      <trkpt lat="47.4005" lon="4.98887">
        <ele>323</ele>
        <time>2022-04-14T11:13:37.391Z</time>
      </trkpt>
      <trkpt lat="47.40052" lon="4.98893">
        <ele>323</ele>
        <time>2022-04-14T11:13:41.418Z</time>
      </trkpt>
      <trkpt lat="47.40056" lon="4.989">
        <ele>323</ele>
        <time>2022-04-14T11:13:46.414Z</time>
      </trkpt>
      <trkpt lat="47.40059" lon="4.98908">
        <ele>325</ele>
        <time>2022-04-14T11:13:51.396Z</time>
      </trkpt>
      <trkpt lat="47.40062" lon="4.98914">
        <ele>325</ele>
        <time>2022-04-14T11:13:56.421Z</time>
      </trkpt>
      <trkpt lat="47.40063" lon="4.98922">
        <ele>325</ele>
        <time>2022-04-14T11:14:01.399Z</time>
      </trkpt>
      <trkpt lat="47.40065" lon="4.98928">
        <ele>325</ele>
        <time>2022-04-14T11:14:06.381Z</time>
      </trkpt>
      <trkpt lat="47.40067" lon="4.98932">
        <ele>327</ele>
        <time>2022-04-14T11:14:10.411Z</time>
      </trkpt>
      <trkpt lat="47.40073" lon="4.98943">
        <ele>323</ele>
        <time>2022-04-14T11:14:15.381Z</time>
      </trkpt>
      <trkpt lat="47.40075" lon="4.98951">
        <ele>323</ele>
        <time>2022-04-14T11:14:20.398Z</time>
      </trkpt>
      <trkpt lat="47.40077" lon="4.98958">
        <ele>323</ele>
        <time>2022-04-14T11:14:24.409Z</time>
      </trkpt>
      <trkpt lat="47.40081" lon="4.98967">
        <ele>322</ele>
        <time>2022-04-14T11:14:29.438Z</time>
      </trkpt>
      <trkpt lat="47.40084" lon="4.98974">
        <ele>322</ele>
        <time>2022-04-14T11:14:33.449Z</time>
      </trkpt>
      <trkpt lat="47.40089" lon="4.98981">
        <ele>322</ele>
        <time>2022-04-14T11:14:38.418Z</time>
      </trkpt>
      <trkpt lat="47.40092" lon="4.98989">
        <ele>323</ele>
        <time>2022-04-14T11:14:43.410Z</time>
      </trkpt>
      <trkpt lat="47.40095" lon="4.98996">
        <ele>323</ele>
        <time>2022-04-14T11:14:47.420Z</time>
      </trkpt>
      <trkpt lat="47.40099" lon="4.99005">
        <ele>320</ele>
        <time>2022-04-14T11:14:52.434Z</time>
      </trkpt>
      <trkpt lat="47.40103" lon="4.99013">
        <ele>320</ele>
        <time>2022-04-14T11:14:57.382Z</time>
      </trkpt>
      <trkpt lat="47.40105" lon="4.9902">
        <ele>320</ele>
        <time>2022-04-14T11:15:01.413Z</time>
      </trkpt>
      <trkpt lat="47.40108" lon="4.99028">
        <ele>320</ele>
        <time>2022-04-14T11:15:05.454Z</time>
      </trkpt>
      <trkpt lat="47.40112" lon="4.99037">
        <ele>320</ele>
        <time>2022-04-14T11:15:10.427Z</time>
      </trkpt>
      <trkpt lat="47.40114" lon="4.99043">
        <ele>322</ele>
        <time>2022-04-14T11:15:15.428Z</time>
      </trkpt>
      <trkpt lat="47.40116" lon="4.99047">
        <ele>322</ele>
        <time>2022-04-14T11:15:20.433Z</time>
      </trkpt>
      <trkpt lat="47.40121" lon="4.99056">
        <ele>322</ele>
        <time>2022-04-14T11:15:25.438Z</time>
      </trkpt>
      <trkpt lat="47.40125" lon="4.99063">
        <ele>320</ele>
        <time>2022-04-14T11:15:30.405Z</time>
      </trkpt>
      <trkpt lat="47.40127" lon="4.99068">
        <ele>320</ele>
        <time>2022-04-14T11:15:34.417Z</time>
      </trkpt>
      <trkpt lat="47.40131" lon="4.99076">
        <ele>320</ele>
        <time>2022-04-14T11:15:39.407Z</time>
      </trkpt>
      <trkpt lat="47.40133" lon="4.99084">
        <ele>320</ele>
        <time>2022-04-14T11:15:43.439Z</time>
      </trkpt>
      <trkpt lat="47.40136" lon="4.99091">
        <ele>320</ele>
        <time>2022-04-14T11:15:48.447Z</time>
      </trkpt>
      <trkpt lat="47.40142" lon="4.991">
        <ele>321</ele>
        <time>2022-04-14T11:15:53.435Z</time>
      </trkpt>
      <trkpt lat="47.40147" lon="4.99107">
        <ele>321</ele>
        <time>2022-04-14T11:15:58.447Z</time>
      </trkpt>
      <trkpt lat="47.40151" lon="4.99115">
        <ele>321</ele>
        <time>2022-04-14T11:16:03.403Z</time>
      </trkpt>
      <trkpt lat="47.40155" lon="4.99123">
        <ele>319</ele>
        <time>2022-04-14T11:16:08.448Z</time>
      </trkpt>
      <trkpt lat="47.40159" lon="4.9913">
        <ele>320</ele>
        <time>2022-04-14T11:16:13.441Z</time>
      </trkpt>
      <trkpt lat="47.40164" lon="4.99136">
        <ele>320</ele>
        <time>2022-04-14T11:16:18.408Z</time>
      </trkpt>
      <trkpt lat="47.40168" lon="4.9914">
        <ele>320</ele>
        <time>2022-04-14T11:16:22.443Z</time>
      </trkpt>
      <trkpt lat="47.40172" lon="4.99146">
        <ele>320</ele>
        <time>2022-04-14T11:16:27.443Z</time>
      </trkpt>
      <trkpt lat="47.40177" lon="4.99151">
        <ele>320</ele>
        <time>2022-04-14T11:16:32.425Z</time>
      </trkpt>
      <trkpt lat="47.40182" lon="4.99159">
        <ele>319</ele>
        <time>2022-04-14T11:16:37.434Z</time>
      </trkpt>
      <trkpt lat="47.40186" lon="4.99167">
        <ele>319</ele>
        <time>2022-04-14T11:16:42.444Z</time>
      </trkpt>
      <trkpt lat="47.40193" lon="4.99171">
        <ele>319</ele>
        <time>2022-04-14T11:16:47.440Z</time>
      </trkpt>
      <trkpt lat="47.402" lon="4.99178">
        <ele>319</ele>
        <time>2022-04-14T11:16:52.417Z</time>
      </trkpt>
      <trkpt lat="47.40203" lon="4.99184">
        <ele>323</ele>
        <time>2022-04-14T11:16:56.439Z</time>
      </trkpt>
      <trkpt lat="47.40208" lon="4.99189">
        <ele>323</ele>
        <time>2022-04-14T11:17:01.436Z</time>
      </trkpt>
      <trkpt lat="47.40213" lon="4.99193">
        <ele>315</ele>
        <time>2022-04-14T11:17:05.466Z</time>
      </trkpt>
      <trkpt lat="47.40219" lon="4.99199">
        <ele>315</ele>
        <time>2022-04-14T11:17:10.442Z</time>
      </trkpt>
      <trkpt lat="47.40224" lon="4.99205">
        <ele>315</ele>
        <time>2022-04-14T11:17:15.466Z</time>
      </trkpt>
      <trkpt lat="47.4023" lon="4.9921">
        <ele>317</ele>
        <time>2022-04-14T11:17:20.449Z</time>
      </trkpt>
      <trkpt lat="47.40237" lon="4.99214">
        <ele>314</ele>
        <time>2022-04-14T11:17:25.438Z</time>
      </trkpt>
      <trkpt lat="47.40242" lon="4.99218">
        <ele>314</ele>
        <time>2022-04-14T11:17:29.436Z</time>
      </trkpt>
      <trkpt lat="47.40246" lon="4.99226">
        <ele>314</ele>
        <time>2022-04-14T11:17:34.442Z</time>
      </trkpt>
      <trkpt lat="47.40251" lon="4.99231">
        <ele>314</ele>
        <time>2022-04-14T11:17:38.453Z</time>
      </trkpt>
      <trkpt lat="47.40255" lon="4.99237">
        <ele>316</ele>
        <time>2022-04-14T11:17:43.382Z</time>
      </trkpt>
      <trkpt lat="47.4026" lon="4.9924">
        <ele>316</ele>
        <time>2022-04-14T11:17:47.432Z</time>
      </trkpt>
      <trkpt lat="47.40264" lon="4.99245">
        <ele>314</ele>
        <time>2022-04-14T11:17:52.380Z</time>
      </trkpt>
      <trkpt lat="47.40269" lon="4.9925">
        <ele>314</ele>
        <time>2022-04-14T11:17:57.402Z</time>
      </trkpt>
      <trkpt lat="47.40274" lon="4.99254">
        <ele>314</ele>
        <time>2022-04-14T11:18:02.416Z</time>
      </trkpt>
      <trkpt lat="47.40278" lon="4.99259">
        <ele>314</ele>
        <time>2022-04-14T11:18:07.398Z</time>
      </trkpt>
      <trkpt lat="47.40283" lon="4.99263">
        <ele>314</ele>
        <time>2022-04-14T11:18:11.422Z</time>
      </trkpt>
      <trkpt lat="47.40287" lon="4.99266">
        <ele>316</ele>
        <time>2022-04-14T11:18:15.502Z</time>
      </trkpt>
      <trkpt lat="47.40291" lon="4.99271">
        <ele>316</ele>
        <time>2022-04-14T11:18:20.417Z</time>
      </trkpt>
      <trkpt lat="47.40296" lon="4.99277">
        <ele>315</ele>
        <time>2022-04-14T11:18:25.429Z</time>
      </trkpt>
      <trkpt lat="47.40302" lon="4.99282">
        <ele>315</ele>
        <time>2022-04-14T11:18:30.459Z</time>
      </trkpt>
      <trkpt lat="47.40309" lon="4.99286">
        <ele>315</ele>
        <time>2022-04-14T11:18:35.467Z</time>
      </trkpt>
      <trkpt lat="47.40314" lon="4.99289">
        <ele>315</ele>
        <time>2022-04-14T11:18:39.477Z</time>
      </trkpt>
      <trkpt lat="47.40319" lon="4.99294">
        <ele>317</ele>
        <time>2022-04-14T11:18:44.449Z</time>
      </trkpt>
      <trkpt lat="47.40323" lon="4.99298">
        <ele>315</ele>
        <time>2022-04-14T11:18:48.467Z</time>
      </trkpt>
      <trkpt lat="47.40329" lon="4.99302">
        <ele>315</ele>
        <time>2022-04-14T11:18:53.436Z</time>
      </trkpt>
      <trkpt lat="47.40335" lon="4.99307">
        <ele>315</ele>
        <time>2022-04-14T11:18:58.420Z</time>
      </trkpt>
      <trkpt lat="47.40341" lon="4.99309">
        <ele>315</ele>
        <time>2022-04-14T11:19:02.447Z</time>
      </trkpt>
      <trkpt lat="47.40344" lon="4.99313">
        <ele>315</ele>
        <time>2022-04-14T11:19:06.468Z</time>
      </trkpt>
      <trkpt lat="47.40349" lon="4.99317">
        <ele>315</ele>
        <time>2022-04-14T11:19:10.474Z</time>
      </trkpt>
      <trkpt lat="47.40354" lon="4.99324">
        <ele>313</ele>
        <time>2022-04-14T11:19:15.506Z</time>
      </trkpt>
      <trkpt lat="47.40361" lon="4.9933">
        <ele>313</ele>
        <time>2022-04-14T11:19:20.451Z</time>
      </trkpt>
      <trkpt lat="47.40366" lon="4.99334">
        <ele>313</ele>
        <time>2022-04-14T11:19:25.457Z</time>
      </trkpt>
      <trkpt lat="47.4037" lon="4.99338">
        <ele>313</ele>
        <time>2022-04-14T11:19:29.464Z</time>
      </trkpt>
      <trkpt lat="47.40376" lon="4.99342">
        <ele>313</ele>
        <time>2022-04-14T11:19:34.457Z</time>
      </trkpt>
      <trkpt lat="47.40383" lon="4.99347">
        <ele>313</ele>
        <time>2022-04-14T11:19:39.495Z</time>
      </trkpt>
      <trkpt lat="47.40389" lon="4.99353">
        <ele>313</ele>
        <time>2022-04-14T11:19:44.470Z</time>
      </trkpt>
      <trkpt lat="47.40394" lon="4.99359">
        <ele>313</ele>
        <time>2022-04-14T11:19:49.494Z</time>
      </trkpt>
      <trkpt lat="47.40399" lon="4.99365">
        <ele>313</ele>
        <time>2022-04-14T11:19:54.492Z</time>
      </trkpt>
      <trkpt lat="47.40405" lon="4.99369">
        <ele>312</ele>
        <time>2022-04-14T11:19:59.467Z</time>
      </trkpt>
      <trkpt lat="47.40411" lon="4.99374">
        <ele>312</ele>
        <time>2022-04-14T11:20:04.484Z</time>
      </trkpt>
      <trkpt lat="47.40419" lon="4.99379">
        <ele>312</ele>
        <time>2022-04-14T11:20:09.426Z</time>
      </trkpt>
      <trkpt lat="47.40423" lon="4.99383">
        <ele>312</ele>
        <time>2022-04-14T11:20:13.496Z</time>
      </trkpt>
      <trkpt lat="47.40431" lon="4.99389">
        <ele>309</ele>
        <time>2022-04-14T11:20:18.439Z</time>
      </trkpt>
      <trkpt lat="47.40436" lon="4.99394">
        <ele>309</ele>
        <time>2022-04-14T11:20:22.483Z</time>
      </trkpt>
      <trkpt lat="47.4044" lon="4.99398">
        <ele>309</ele>
        <time>2022-04-14T11:20:27.439Z</time>
      </trkpt>
      <trkpt lat="47.40444" lon="4.99401">
        <ele>309</ele>
        <time>2022-04-14T11:20:31.474Z</time>
      </trkpt>
      <trkpt lat="47.4045" lon="4.99406">
        <ele>311</ele>
        <time>2022-04-14T11:20:36.465Z</time>
      </trkpt>
      <trkpt lat="47.40456" lon="4.9941">
        <ele>311</ele>
        <time>2022-04-14T11:20:41.436Z</time>
      </trkpt>
      <trkpt lat="47.40461" lon="4.99413">
        <ele>308</ele>
        <time>2022-04-14T11:20:45.472Z</time>
      </trkpt>
      <trkpt lat="47.40466" lon="4.99419">
        <ele>308</ele>
        <time>2022-04-14T11:20:50.428Z</time>
      </trkpt>
      <trkpt lat="47.40473" lon="4.99422">
        <ele>308</ele>
        <time>2022-04-14T11:20:55.418Z</time>
      </trkpt>
      <trkpt lat="47.40479" lon="4.99426">
        <ele>308</ele>
        <time>2022-04-14T11:20:59.446Z</time>
      </trkpt>
      <trkpt lat="47.40484" lon="4.99431">
        <ele>312</ele>
        <time>2022-04-14T11:21:04.433Z</time>
      </trkpt>
      <trkpt lat="47.40489" lon="4.99438">
        <ele>306</ele>
        <time>2022-04-14T11:21:09.438Z</time>
      </trkpt>
      <trkpt lat="47.40494" lon="4.99442">
        <ele>306</ele>
        <time>2022-04-14T11:21:13.509Z</time>
      </trkpt>
      <trkpt lat="47.40499" lon="4.99448">
        <ele>306</ele>
        <time>2022-04-14T11:21:18.473Z</time>
      </trkpt>
      <trkpt lat="47.40504" lon="4.99451">
        <ele>306</ele>
        <time>2022-04-14T11:21:23.495Z</time>
      </trkpt>
      <trkpt lat="47.40509" lon="4.99456">
        <ele>306</ele>
        <time>2022-04-14T11:21:28.464Z</time>
      </trkpt>
      <trkpt lat="47.40513" lon="4.99461">
        <ele>312</ele>
        <time>2022-04-14T11:21:32.501Z</time>
      </trkpt>
      <trkpt lat="47.40518" lon="4.99467">
        <ele>307</ele>
        <time>2022-04-14T11:21:37.462Z</time>
      </trkpt>
      <trkpt lat="47.40523" lon="4.99473">
        <ele>307</ele>
        <time>2022-04-14T11:21:42.432Z</time>
      </trkpt>
      <trkpt lat="47.40527" lon="4.99477">
        <ele>307</ele>
        <time>2022-04-14T11:21:47.387Z</time>
      </trkpt>
      <trkpt lat="47.40532" lon="4.9948">
        <ele>307</ele>
        <time>2022-04-14T11:21:51.418Z</time>
      </trkpt>
      <trkpt lat="47.40537" lon="4.99486">
        <ele>307</ele>
        <time>2022-04-14T11:21:55.441Z</time>
      </trkpt>
      <trkpt lat="47.40542" lon="4.99492">
        <ele>306</ele>
        <time>2022-04-14T11:22:00.477Z</time>
      </trkpt>
      <trkpt lat="47.40546" lon="4.99496">
        <ele>306</ele>
        <time>2022-04-14T11:22:05.475Z</time>
      </trkpt>
      <trkpt lat="47.40552" lon="4.99502">
        <ele>306</ele>
        <time>2022-04-14T11:22:10.435Z</time>
      </trkpt>
      <trkpt lat="47.40555" lon="4.99507">
        <ele>306</ele>
        <time>2022-04-14T11:22:15.398Z</time>
      </trkpt>
      <trkpt lat="47.4056" lon="4.99514">
        <ele>306</ele>
        <time>2022-04-14T11:22:20.409Z</time>
      </trkpt>
      <trkpt lat="47.40565" lon="4.9952">
        <ele>310</ele>
        <time>2022-04-14T11:22:25.491Z</time>
      </trkpt>
      <trkpt lat="47.4057" lon="4.99524">
        <ele>306</ele>
        <time>2022-04-14T11:22:30.478Z</time>
      </trkpt>
      <trkpt lat="47.40573" lon="4.99531">
        <ele>306</ele>
        <time>2022-04-14T11:22:35.415Z</time>
      </trkpt>
      <trkpt lat="47.40578" lon="4.99537">
        <ele>306</ele>
        <time>2022-04-14T11:22:39.422Z</time>
      </trkpt>
      <trkpt lat="47.40583" lon="4.9954">
        <ele>306</ele>
        <time>2022-04-14T11:22:43.480Z</time>
      </trkpt>
      <trkpt lat="47.40589" lon="4.99545">
        <ele>309</ele>
        <time>2022-04-14T11:22:48.458Z</time>
      </trkpt>
      <trkpt lat="47.40596" lon="4.99552">
        <ele>309</ele>
        <time>2022-04-14T11:22:53.403Z</time>
      </trkpt>
      <trkpt lat="47.406" lon="4.99556">
        <ele>307</ele>
        <time>2022-04-14T11:22:57.453Z</time>
      </trkpt>
      <trkpt lat="47.40604" lon="4.99561">
        <ele>307</ele>
        <time>2022-04-14T11:23:02.453Z</time>
      </trkpt>
      <trkpt lat="47.40611" lon="4.99568">
        <ele>307</ele>
        <time>2022-04-14T11:23:07.406Z</time>
      </trkpt>
      <trkpt lat="47.40615" lon="4.99575">
        <ele>308</ele>
        <time>2022-04-14T11:23:11.427Z</time>
      </trkpt>
      <trkpt lat="47.4062" lon="4.99582">
        <ele>308</ele>
        <time>2022-04-14T11:23:16.471Z</time>
      </trkpt>
      <trkpt lat="47.40625" lon="4.9959">
        <ele>308</ele>
        <time>2022-04-14T11:23:21.450Z</time>
      </trkpt>
      <trkpt lat="47.4063" lon="4.99597">
        <ele>303</ele>
        <time>2022-04-14T11:23:26.415Z</time>
      </trkpt>
      <trkpt lat="47.40633" lon="4.99605">
        <ele>303</ele>
        <time>2022-04-14T11:23:30.465Z</time>
      </trkpt>
      <trkpt lat="47.40637" lon="4.99614">
        <ele>303</ele>
        <time>2022-04-14T11:23:35.482Z</time>
      </trkpt>
      <trkpt lat="47.4064" lon="4.99621">
        <ele>303</ele>
        <time>2022-04-14T11:23:40.480Z</time>
      </trkpt>
      <trkpt lat="47.40643" lon="4.99631">
        <ele>302</ele>
        <time>2022-04-14T11:23:45.490Z</time>
      </trkpt>
      <trkpt lat="47.40646" lon="4.9964">
        <ele>302</ele>
        <time>2022-04-14T11:23:50.469Z</time>
      </trkpt>
      <trkpt lat="47.40649" lon="4.99651">
        <ele>302</ele>
        <time>2022-04-14T11:23:55.448Z</time>
      </trkpt>
      <trkpt lat="47.40652" lon="4.9966">
        <ele>304</ele>
        <time>2022-04-14T11:24:00.467Z</time>
      </trkpt>
      <trkpt lat="47.40655" lon="4.99669">
        <ele>300</ele>
        <time>2022-04-14T11:24:05.470Z</time>
      </trkpt>
      <trkpt lat="47.40657" lon="4.99676">
        <ele>300</ele>
        <time>2022-04-14T11:24:09.474Z</time>
      </trkpt>
      <trkpt lat="47.40658" lon="4.99685">
        <ele>301</ele>
        <time>2022-04-14T11:24:14.445Z</time>
      </trkpt>
      <trkpt lat="47.4066" lon="4.99691">
        <ele>301</ele>
        <time>2022-04-14T11:24:18.469Z</time>
      </trkpt>
      <trkpt lat="47.40662" lon="4.997">
        <ele>301</ele>
        <time>2022-04-14T11:24:23.476Z</time>
      </trkpt>
      <trkpt lat="47.40662" lon="4.9971">
        <ele>303</ele>
        <time>2022-04-14T11:24:28.435Z</time>
      </trkpt>
      <trkpt lat="47.40664" lon="4.99719">
        <ele>303</ele>
        <time>2022-04-14T11:24:33.458Z</time>
      </trkpt>
      <trkpt lat="47.40665" lon="4.99728">
        <ele>303</ele>
        <time>2022-04-14T11:24:38.475Z</time>
      </trkpt>
      <trkpt lat="47.40666" lon="4.99738">
        <ele>305</ele>
        <time>2022-04-14T11:24:43.461Z</time>
      </trkpt>
      <trkpt lat="47.40667" lon="4.99746">
        <ele>305</ele>
        <time>2022-04-14T11:24:47.487Z</time>
      </trkpt>
      <trkpt lat="47.4067" lon="4.99753">
        <ele>305</ele>
        <time>2022-04-14T11:24:52.489Z</time>
      </trkpt>
      <trkpt lat="47.40673" lon="4.99759">
        <ele>305</ele>
        <time>2022-04-14T11:24:57.439Z</time>
      </trkpt>
      <trkpt lat="47.40674" lon="4.99765">
        <ele>306</ele>
        <time>2022-04-14T11:25:01.494Z</time>
      </trkpt>
      <trkpt lat="47.40676" lon="4.99766">
        <ele>306</ele>
        <time>2022-04-14T11:25:06.447Z</time>
      </trkpt>
      <trkpt lat="47.40675" lon="4.99766">
        <ele>306</ele>
        <time>2022-04-14T11:26:04.393Z</time>
      </trkpt>
      <trkpt lat="47.40678" lon="4.99769">
        <ele>306</ele>
        <time>2022-04-14T11:26:09.390Z</time>
      </trkpt>
      <trkpt lat="47.40681" lon="4.99776">
        <ele>302</ele>
        <time>2022-04-14T11:26:14.416Z</time>
      </trkpt>
      <trkpt lat="47.40682" lon="4.99783">
        <ele>302</ele>
        <time>2022-04-14T11:26:18.481Z</time>
      </trkpt>
      <trkpt lat="47.40683" lon="4.9979">
        <ele>302</ele>
        <time>2022-04-14T11:26:23.402Z</time>
      </trkpt>
      <trkpt lat="47.40683" lon="4.99799">
        <ele>301</ele>
        <time>2022-04-14T11:26:28.395Z</time>
      </trkpt>
      <trkpt lat="47.40684" lon="4.99808">
        <ele>301</ele>
        <time>2022-04-14T11:26:32.425Z</time>
      </trkpt>
      <trkpt lat="47.40684" lon="4.99815">
        <ele>301</ele>
        <time>2022-04-14T11:26:37.402Z</time>
      </trkpt>
      <trkpt lat="47.40685" lon="4.99823">
        <ele>301</ele>
        <time>2022-04-14T11:26:42.429Z</time>
      </trkpt>
      <trkpt lat="47.40685" lon="4.99831">
        <ele>301</ele>
        <time>2022-04-14T11:26:46.489Z</time>
      </trkpt>
      <trkpt lat="47.40686" lon="4.99841">
        <ele>301</ele>
        <time>2022-04-14T11:26:51.393Z</time>
      </trkpt>
      <trkpt lat="47.40687" lon="4.99849">
        <ele>301</ele>
        <time>2022-04-14T11:26:56.453Z</time>
      </trkpt>
      <trkpt lat="47.40689" lon="4.99855">
        <ele>301</ele>
        <time>2022-04-14T11:27:00.490Z</time>
      </trkpt>
      <trkpt lat="47.40691" lon="4.99865">
        <ele>301</ele>
        <time>2022-04-14T11:27:05.410Z</time>
      </trkpt>
      <trkpt lat="47.40691" lon="4.99874">
        <ele>301</ele>
        <time>2022-04-14T11:27:10.415Z</time>
      </trkpt>
      <trkpt lat="47.40692" lon="4.99884">
        <ele>302</ele>
        <time>2022-04-14T11:27:15.402Z</time>
      </trkpt>
      <trkpt lat="47.40694" lon="4.99895">
        <ele>302</ele>
        <time>2022-04-14T11:27:20.407Z</time>
      </trkpt>
      <trkpt lat="47.40695" lon="4.99904">
        <ele>303</ele>
        <time>2022-04-14T11:27:24.422Z</time>
      </trkpt>
      <trkpt lat="47.40697" lon="4.99912">
        <ele>303</ele>
        <time>2022-04-14T11:27:29.469Z</time>
      </trkpt>
      <trkpt lat="47.40698" lon="4.99922">
        <ele>303</ele>
        <time>2022-04-14T11:27:34.489Z</time>
      </trkpt>
      <trkpt lat="47.40699" lon="4.99932">
        <ele>306</ele>
        <time>2022-04-14T11:27:39.395Z</time>
      </trkpt>
      <trkpt lat="47.407" lon="4.99941">
        <ele>306</ele>
        <time>2022-04-14T11:27:43.456Z</time>
      </trkpt>
      <trkpt lat="47.40701" lon="4.99948">
        <ele>306</ele>
        <time>2022-04-14T11:27:47.491Z</time>
      </trkpt>
      <trkpt lat="47.40703" lon="4.99958">
        <ele>306</ele>
        <time>2022-04-14T11:27:52.446Z</time>
      </trkpt>
      <trkpt lat="47.40705" lon="4.99965">
        <ele>307</ele>
        <time>2022-04-14T11:27:56.478Z</time>
      </trkpt>
      <trkpt lat="47.40706" lon="4.99975">
        <ele>307</ele>
        <time>2022-04-14T11:28:01.466Z</time>
      </trkpt>
      <trkpt lat="47.40707" lon="4.99982">
        <ele>307</ele>
        <time>2022-04-14T11:28:06.386Z</time>
      </trkpt>
      <trkpt lat="47.4071" lon="4.9999">
        <ele>301</ele>
        <time>2022-04-14T11:28:10.488Z</time>
      </trkpt>
      <trkpt lat="47.40712" lon="5.00002">
        <ele>301</ele>
        <time>2022-04-14T11:28:15.426Z</time>
      </trkpt>
      <trkpt lat="47.40713" lon="5.00009">
        <ele>301</ele>
        <time>2022-04-14T11:28:19.476Z</time>
      </trkpt>
      <trkpt lat="47.40714" lon="5.00017">
        <ele>301</ele>
        <time>2022-04-14T11:28:24.442Z</time>
      </trkpt>
      <trkpt lat="47.40715" lon="5.00027">
        <ele>301</ele>
        <time>2022-04-14T11:28:29.402Z</time>
      </trkpt>
      <trkpt lat="47.40716" lon="5.00034">
        <ele>301</ele>
        <time>2022-04-14T11:28:33.498Z</time>
      </trkpt>
      <trkpt lat="47.40718" lon="5.00044">
        <ele>301</ele>
        <time>2022-04-14T11:28:38.409Z</time>
      </trkpt>
      <trkpt lat="47.40718" lon="5.00051">
        <ele>301</ele>
        <time>2022-04-14T11:28:42.417Z</time>
      </trkpt>
      <trkpt lat="47.40718" lon="5.0006">
        <ele>301</ele>
        <time>2022-04-14T11:28:47.394Z</time>
      </trkpt>
      <trkpt lat="47.40719" lon="5.00069">
        <ele>301</ele>
        <time>2022-04-14T11:28:51.453Z</time>
      </trkpt>
      <trkpt lat="47.4072" lon="5.00079">
        <ele>302</ele>
        <time>2022-04-14T11:28:56.498Z</time>
      </trkpt>
      <trkpt lat="47.40721" lon="5.00088">
        <ele>302</ele>
        <time>2022-04-14T11:29:01.467Z</time>
      </trkpt>
      <trkpt lat="47.40722" lon="5.00098">
        <ele>303</ele>
        <time>2022-04-14T11:29:06.465Z</time>
      </trkpt>
      <trkpt lat="47.40724" lon="5.00108">
        <ele>303</ele>
        <time>2022-04-14T11:29:11.407Z</time>
      </trkpt>
      <trkpt lat="47.40725" lon="5.00116">
        <ele>303</ele>
        <time>2022-04-14T11:29:15.446Z</time>
      </trkpt>
      <trkpt lat="47.40724" lon="5.00126">
        <ele>303</ele>
        <time>2022-04-14T11:29:20.445Z</time>
      </trkpt>
      <trkpt lat="47.40724" lon="5.00135">
        <ele>303</ele>
        <time>2022-04-14T11:29:24.472Z</time>
      </trkpt>
      <trkpt lat="47.40723" lon="5.00144">
        <ele>303</ele>
        <time>2022-04-14T11:29:29.419Z</time>
      </trkpt>
      <trkpt lat="47.40722" lon="5.00151">
        <ele>303</ele>
        <time>2022-04-14T11:29:33.452Z</time>
      </trkpt>
      <trkpt lat="47.40722" lon="5.00161">
        <ele>303</ele>
        <time>2022-04-14T11:29:38.459Z</time>
      </trkpt>
      <trkpt lat="47.40721" lon="5.0017">
        <ele>303</ele>
        <time>2022-04-14T11:29:43.482Z</time>
      </trkpt>
      <trkpt lat="47.40719" lon="5.00177">
        <ele>303</ele>
        <time>2022-04-14T11:29:48.377Z</time>
      </trkpt>
      <trkpt lat="47.40719" lon="5.00187">
        <ele>301</ele>
        <time>2022-04-14T11:29:53.425Z</time>
      </trkpt>
      <trkpt lat="47.40718" lon="5.00194">
        <ele>301</ele>
        <time>2022-04-14T11:29:58.452Z</time>
      </trkpt>
      <trkpt lat="47.40718" lon="5.00202">
        <ele>301</ele>
        <time>2022-04-14T11:30:03.425Z</time>
      </trkpt>
      <trkpt lat="47.40716" lon="5.0021">
        <ele>300</ele>
        <time>2022-04-14T11:30:07.455Z</time>
      </trkpt>
      <trkpt lat="47.40715" lon="5.00221">
        <ele>300</ele>
        <time>2022-04-14T11:30:12.468Z</time>
      </trkpt>
      <trkpt lat="47.40713" lon="5.00229">
        <ele>300</ele>
        <time>2022-04-14T11:30:16.462Z</time>
      </trkpt>
      <trkpt lat="47.40711" lon="5.00238">
        <ele>297</ele>
        <time>2022-04-14T11:30:21.403Z</time>
      </trkpt>
      <trkpt lat="47.40708" lon="5.00246">
        <ele>304</ele>
        <time>2022-04-14T11:30:26.371Z</time>
      </trkpt>
      <trkpt lat="47.40707" lon="5.00252">
        <ele>304</ele>
        <time>2022-04-14T11:30:30.415Z</time>
      </trkpt>
      <trkpt lat="47.40705" lon="5.00259">
        <ele>304</ele>
        <time>2022-04-14T11:30:34.481Z</time>
      </trkpt>
      <trkpt lat="47.40702" lon="5.00267">
        <ele>302</ele>
        <time>2022-04-14T11:30:39.492Z</time>
      </trkpt>
      <trkpt lat="47.40699" lon="5.00274">
        <ele>302</ele>
        <time>2022-04-14T11:30:44.476Z</time>
      </trkpt>
      <trkpt lat="47.40698" lon="5.00283">
        <ele>302</ele>
        <time>2022-04-14T11:30:49.403Z</time>
      </trkpt>
      <trkpt lat="47.40697" lon="5.0029">
        <ele>302</ele>
        <time>2022-04-14T11:30:53.483Z</time>
      </trkpt>
      <trkpt lat="47.40696" lon="5.00298">
        <ele>301</ele>
        <time>2022-04-14T11:30:58.473Z</time>
      </trkpt>
      <trkpt lat="47.40693" lon="5.00305">
        <ele>301</ele>
        <time>2022-04-14T11:31:03.449Z</time>
      </trkpt>
      <trkpt lat="47.40691" lon="5.00313">
        <ele>301</ele>
        <time>2022-04-14T11:31:08.460Z</time>
      </trkpt>
      <trkpt lat="47.4069" lon="5.00323">
        <ele>300</ele>
        <time>2022-04-14T11:31:13.440Z</time>
      </trkpt>
      <trkpt lat="47.40687" lon="5.00332">
        <ele>300</ele>
        <time>2022-04-14T11:31:18.392Z</time>
      </trkpt>
      <trkpt lat="47.40686" lon="5.00339">
        <ele>300</ele>
        <time>2022-04-14T11:31:22.435Z</time>
      </trkpt>
      <trkpt lat="47.40684" lon="5.00349">
        <ele>299</ele>
        <time>2022-04-14T11:31:27.402Z</time>
      </trkpt>
      <trkpt lat="47.40684" lon="5.00356">
        <ele>299</ele>
        <time>2022-04-14T11:31:31.478Z</time>
      </trkpt>
      <trkpt lat="47.40684" lon="5.00367">
        <ele>299</ele>
        <time>2022-04-14T11:31:36.394Z</time>
      </trkpt>
      <trkpt lat="47.40683" lon="5.00375">
        <ele>299</ele>
        <time>2022-04-14T11:31:40.424Z</time>
      </trkpt>
      <trkpt lat="47.40681" lon="5.00384">
        <ele>298</ele>
        <time>2022-04-14T11:31:45.398Z</time>
      </trkpt>
      <trkpt lat="47.4068" lon="5.00392">
        <ele>306</ele>
        <time>2022-04-14T11:31:49.447Z</time>
      </trkpt>
      <trkpt lat="47.4068" lon="5.004">
        <ele>306</ele>
        <time>2022-04-14T11:31:53.453Z</time>
      </trkpt>
      <trkpt lat="47.40679" lon="5.0041">
        <ele>305</ele>
        <time>2022-04-14T11:31:58.455Z</time>
      </trkpt>
      <trkpt lat="47.40678" lon="5.0042">
        <ele>305</ele>
        <time>2022-04-14T11:32:03.431Z</time>
      </trkpt>
      <trkpt lat="47.40676" lon="5.00429">
        <ele>305</ele>
        <time>2022-04-14T11:32:07.477Z</time>
      </trkpt>
      <trkpt lat="47.40674" lon="5.00438">
        <ele>304</ele>
        <time>2022-04-14T11:32:12.471Z</time>
      </trkpt>
      <trkpt lat="47.40671" lon="5.00448">
        <ele>304</ele>
        <time>2022-04-14T11:32:17.481Z</time>
      </trkpt>
      <trkpt lat="47.40669" lon="5.00458">
        <ele>304</ele>
        <time>2022-04-14T11:32:22.463Z</time>
      </trkpt>
      <trkpt lat="47.40666" lon="5.00467">
        <ele>302</ele>
        <time>2022-04-14T11:32:27.471Z</time>
      </trkpt>
      <trkpt lat="47.40663" lon="5.00477">
        <ele>302</ele>
        <time>2022-04-14T11:32:32.433Z</time>
      </trkpt>
      <trkpt lat="47.40661" lon="5.00485">
        <ele>302</ele>
        <time>2022-04-14T11:32:37.472Z</time>
      </trkpt>
      <trkpt lat="47.4066" lon="5.00494">
        <ele>299</ele>
        <time>2022-04-14T11:32:42.465Z</time>
      </trkpt>
      <trkpt lat="47.40657" lon="5.00503">
        <ele>299</ele>
        <time>2022-04-14T11:32:47.466Z</time>
      </trkpt>
      <trkpt lat="47.40657" lon="5.00511">
        <ele>299</ele>
        <time>2022-04-14T11:32:52.478Z</time>
      </trkpt>
      <trkpt lat="47.40655" lon="5.00521">
        <ele>296</ele>
        <time>2022-04-14T11:32:57.428Z</time>
      </trkpt>
      <trkpt lat="47.40653" lon="5.00529">
        <ele>296</ele>
        <time>2022-04-14T11:33:01.485Z</time>
      </trkpt>
      <trkpt lat="47.4065" lon="5.00537">
        <ele>303</ele>
        <time>2022-04-14T11:33:06.467Z</time>
      </trkpt>
      <trkpt lat="47.40647" lon="5.00546">
        <ele>301</ele>
        <time>2022-04-14T11:33:11.405Z</time>
      </trkpt>
      <trkpt lat="47.40644" lon="5.00552">
        <ele>301</ele>
        <time>2022-04-14T11:33:15.449Z</time>
      </trkpt>
      <trkpt lat="47.40641" lon="5.00559">
        <ele>301</ele>
        <time>2022-04-14T11:33:20.446Z</time>
      </trkpt>
      <trkpt lat="47.40637" lon="5.00567">
        <ele>301</ele>
        <time>2022-04-14T11:33:25.481Z</time>
      </trkpt>
      <trkpt lat="47.40632" lon="5.00575">
        <ele>298</ele>
        <time>2022-04-14T11:33:30.494Z</time>
      </trkpt>
      <trkpt lat="47.40628" lon="5.00582">
        <ele>298</ele>
        <time>2022-04-14T11:33:35.470Z</time>
      </trkpt>
      <trkpt lat="47.40625" lon="5.00587">
        <ele>305</ele>
        <time>2022-04-14T11:33:39.490Z</time>
      </trkpt>
      <trkpt lat="47.40622" lon="5.00594">
        <ele>305</ele>
        <time>2022-04-14T11:33:44.465Z</time>
      </trkpt>
      <trkpt lat="47.40617" lon="5.00601">
        <ele>300</ele>
        <time>2022-04-14T11:33:49.502Z</time>
      </trkpt>
      <trkpt lat="47.40612" lon="5.00608">
        <ele>300</ele>
        <time>2022-04-14T11:33:54.483Z</time>
      </trkpt>
      <trkpt lat="47.40606" lon="5.00617">
        <ele>300</ele>
        <time>2022-04-14T11:33:59.435Z</time>
      </trkpt>
      <trkpt lat="47.40603" lon="5.00624">
        <ele>300</ele>
        <time>2022-04-14T11:34:03.474Z</time>
      </trkpt>
      <trkpt lat="47.40599" lon="5.00631">
        <ele>298</ele>
        <time>2022-04-14T11:34:08.389Z</time>
      </trkpt>
      <trkpt lat="47.40597" lon="5.00636">
        <ele>307</ele>
        <time>2022-04-14T11:34:12.402Z</time>
      </trkpt>
      <trkpt lat="47.40593" lon="5.00644">
        <ele>307</ele>
        <time>2022-04-14T11:34:17.438Z</time>
      </trkpt>
      <trkpt lat="47.40589" lon="5.00649">
        <ele>307</ele>
        <time>2022-04-14T11:34:21.458Z</time>
      </trkpt>
      <trkpt lat="47.40585" lon="5.00659">
        <ele>304</ele>
        <time>2022-04-14T11:34:26.473Z</time>
      </trkpt>
      <trkpt lat="47.4058" lon="5.00668">
        <ele>304</ele>
        <time>2022-04-14T11:34:31.471Z</time>
      </trkpt>
      <trkpt lat="47.40577" lon="5.00675">
        <ele>304</ele>
        <time>2022-04-14T11:34:36.453Z</time>
      </trkpt>
      <trkpt lat="47.40575" lon="5.00681">
        <ele>301</ele>
        <time>2022-04-14T11:34:40.448Z</time>
      </trkpt>
      <trkpt lat="47.40572" lon="5.0069">
        <ele>301</ele>
        <time>2022-04-14T11:34:45.439Z</time>
      </trkpt>
      <trkpt lat="47.4057" lon="5.00697">
        <ele>301</ele>
        <time>2022-04-14T11:34:49.447Z</time>
      </trkpt>
      <trkpt lat="47.40566" lon="5.00705">
        <ele>312</ele>
        <time>2022-04-14T11:34:54.477Z</time>
      </trkpt>
      <trkpt lat="47.40562" lon="5.00713">
        <ele>306</ele>
        <time>2022-04-14T11:34:59.465Z</time>
      </trkpt>
      <trkpt lat="47.40561" lon="5.00721">
        <ele>306</ele>
        <time>2022-04-14T11:35:04.438Z</time>
      </trkpt>
      <trkpt lat="47.40558" lon="5.0073">
        <ele>306</ele>
        <time>2022-04-14T11:35:09.452Z</time>
      </trkpt>
      <trkpt lat="47.40556" lon="5.00739">
        <ele>302</ele>
        <time>2022-04-14T11:35:14.483Z</time>
      </trkpt>
      <trkpt lat="47.40555" lon="5.00748">
        <ele>302</ele>
        <time>2022-04-14T11:35:19.465Z</time>
      </trkpt>
      <trkpt lat="47.40553" lon="5.00758">
        <ele>302</ele>
        <time>2022-04-14T11:35:24.448Z</time>
      </trkpt>
      <trkpt lat="47.4055" lon="5.00764">
        <ele>302</ele>
        <time>2022-04-14T11:35:28.487Z</time>
      </trkpt>
      <trkpt lat="47.40548" lon="5.00773">
        <ele>298</ele>
        <time>2022-04-14T11:35:33.393Z</time>
      </trkpt>
      <trkpt lat="47.40545" lon="5.00782">
        <ele>298</ele>
        <time>2022-04-14T11:35:38.404Z</time>
      </trkpt>
      <trkpt lat="47.40543" lon="5.00788">
        <ele>298</ele>
        <time>2022-04-14T11:35:42.452Z</time>
      </trkpt>
      <trkpt lat="47.4054" lon="5.00797">
        <ele>306</ele>
        <time>2022-04-14T11:35:47.454Z</time>
      </trkpt>
      <trkpt lat="47.40539" lon="5.00805">
        <ele>306</ele>
        <time>2022-04-14T11:35:52.458Z</time>
      </trkpt>
      <trkpt lat="47.40537" lon="5.00813">
        <ele>306</ele>
        <time>2022-04-14T11:35:56.472Z</time>
      </trkpt>
      <trkpt lat="47.40536" lon="5.00822">
        <ele>303</ele>
        <time>2022-04-14T11:36:01.430Z</time>
      </trkpt>
      <trkpt lat="47.40533" lon="5.0083">
        <ele>303</ele>
        <time>2022-04-14T11:36:06.405Z</time>
      </trkpt>
      <trkpt lat="47.40531" lon="5.00837">
        <ele>303</ele>
        <time>2022-04-14T11:36:10.453Z</time>
      </trkpt>
      <trkpt lat="47.4053" lon="5.00843">
        <ele>303</ele>
        <time>2022-04-14T11:36:14.477Z</time>
      </trkpt>
      <trkpt lat="47.40527" lon="5.00853">
        <ele>300</ele>
        <time>2022-04-14T11:36:19.436Z</time>
      </trkpt>
      <trkpt lat="47.40525" lon="5.00863">
        <ele>300</ele>
        <time>2022-04-14T11:36:24.434Z</time>
      </trkpt>
      <trkpt lat="47.40522" lon="5.00871">
        <ele>300</ele>
        <time>2022-04-14T11:36:29.447Z</time>
      </trkpt>
      <trkpt lat="47.4052" lon="5.00877">
        <ele>298</ele>
        <time>2022-04-14T11:36:33.463Z</time>
      </trkpt>
      <trkpt lat="47.40517" lon="5.00887">
        <ele>298</ele>
        <time>2022-04-14T11:36:38.415Z</time>
      </trkpt>
      <trkpt lat="47.40515" lon="5.00894">
        <ele>298</ele>
        <time>2022-04-14T11:36:42.493Z</time>
      </trkpt>
      <trkpt lat="47.40513" lon="5.00902">
        <ele>308</ele>
        <time>2022-04-14T11:36:47.458Z</time>
      </trkpt>
      <trkpt lat="47.40511" lon="5.00911">
        <ele>304</ele>
        <time>2022-04-14T11:36:52.486Z</time>
      </trkpt>
      <trkpt lat="47.40509" lon="5.00918">
        <ele>304</ele>
        <time>2022-04-14T11:36:57.394Z</time>
      </trkpt>
      <trkpt lat="47.40507" lon="5.00927">
        <ele>304</ele>
        <time>2022-04-14T11:37:02.456Z</time>
      </trkpt>
      <trkpt lat="47.40504" lon="5.00935">
        <ele>301</ele>
        <time>2022-04-14T11:37:06.473Z</time>
      </trkpt>
      <trkpt lat="47.405" lon="5.00943">
        <ele>301</ele>
        <time>2022-04-14T11:37:11.467Z</time>
      </trkpt>
      <trkpt lat="47.40497" lon="5.00954">
        <ele>301</ele>
        <time>2022-04-14T11:37:16.459Z</time>
      </trkpt>
      <trkpt lat="47.40494" lon="5.00963">
        <ele>298</ele>
        <time>2022-04-14T11:37:21.443Z</time>
      </trkpt>
      <trkpt lat="47.4049" lon="5.00972">
        <ele>298</ele>
        <time>2022-04-14T11:37:26.430Z</time>
      </trkpt>
      <trkpt lat="47.40487" lon="5.00978">
        <ele>298</ele>
        <time>2022-04-14T11:37:31.486Z</time>
      </trkpt>
      <trkpt lat="47.40483" lon="5.00985">
        <ele>307</ele>
        <time>2022-04-14T11:37:36.457Z</time>
      </trkpt>
      <trkpt lat="47.40481" lon="5.00993">
        <ele>303</ele>
        <time>2022-04-14T11:37:41.397Z</time>
      </trkpt>
      <trkpt lat="47.40478" lon="5.01004">
        <ele>303</ele>
        <time>2022-04-14T11:37:46.405Z</time>
      </trkpt>
      <trkpt lat="47.40477" lon="5.01009">
        <ele>303</ele>
        <time>2022-04-14T11:37:50.454Z</time>
      </trkpt>
      <trkpt lat="47.40475" lon="5.01017">
        <ele>300</ele>
        <time>2022-04-14T11:37:55.404Z</time>
      </trkpt>
      <trkpt lat="47.40474" lon="5.01025">
        <ele>300</ele>
        <time>2022-04-14T11:37:59.458Z</time>
      </trkpt>
      <trkpt lat="47.40469" lon="5.01035">
        <ele>300</ele>
        <time>2022-04-14T11:38:04.461Z</time>
      </trkpt>
      <trkpt lat="47.40466" lon="5.01044">
        <ele>297</ele>
        <time>2022-04-14T11:38:09.480Z</time>
      </trkpt>
      <trkpt lat="47.40464" lon="5.01052">
        <ele>297</ele>
        <time>2022-04-14T11:38:14.414Z</time>
      </trkpt>
      <trkpt lat="47.40459" lon="5.01059">
        <ele>297</ele>
        <time>2022-04-14T11:38:19.459Z</time>
      </trkpt>
      <trkpt lat="47.40455" lon="5.01068">
        <ele>303</ele>
        <time>2022-04-14T11:38:24.462Z</time>
      </trkpt>
      <trkpt lat="47.40453" lon="5.01076">
        <ele>300</ele>
        <time>2022-04-14T11:38:29.430Z</time>
      </trkpt>
      <trkpt lat="47.40452" lon="5.01082">
        <ele>300</ele>
        <time>2022-04-14T11:38:33.449Z</time>
      </trkpt>
      <trkpt lat="47.4045" lon="5.01091">
        <ele>300</ele>
        <time>2022-04-14T11:38:38.475Z</time>
      </trkpt>
      <trkpt lat="47.40447" lon="5.01102">
        <ele>297</ele>
        <time>2022-04-14T11:38:43.429Z</time>
      </trkpt>
      <trkpt lat="47.40443" lon="5.01107">
        <ele>297</ele>
        <time>2022-04-14T11:38:47.490Z</time>
      </trkpt>
      <trkpt lat="47.40439" lon="5.01115">
        <ele>297</ele>
        <time>2022-04-14T11:38:52.468Z</time>
      </trkpt>
      <trkpt lat="47.40436" lon="5.01124">
        <ele>297</ele>
        <time>2022-04-14T11:38:57.465Z</time>
      </trkpt>
      <trkpt lat="47.40431" lon="5.01131">
        <ele>294</ele>
        <time>2022-04-14T11:39:02.445Z</time>
      </trkpt>
      <trkpt lat="47.40427" lon="5.01137">
        <ele>296</ele>
        <time>2022-04-14T11:39:06.495Z</time>
      </trkpt>
      <trkpt lat="47.40423" lon="5.01142">
        <ele>296</ele>
        <time>2022-04-14T11:39:11.446Z</time>
      </trkpt>
      <trkpt lat="47.40418" lon="5.01149">
        <ele>296</ele>
        <time>2022-04-14T11:39:16.474Z</time>
      </trkpt>
      <trkpt lat="47.40413" lon="5.01154">
        <ele>293</ele>
        <time>2022-04-14T11:39:21.434Z</time>
      </trkpt>
      <trkpt lat="47.40409" lon="5.0116">
        <ele>293</ele>
        <time>2022-04-14T11:39:25.474Z</time>
      </trkpt>
      <trkpt lat="47.40404" lon="5.01168">
        <ele>293</ele>
        <time>2022-04-14T11:39:30.408Z</time>
      </trkpt>
      <trkpt lat="47.404" lon="5.01173">
        <ele>295</ele>
        <time>2022-04-14T11:39:34.428Z</time>
      </trkpt>
      <trkpt lat="47.40396" lon="5.01179">
        <ele>295</ele>
        <time>2022-04-14T11:39:38.477Z</time>
      </trkpt>
      <trkpt lat="47.40392" lon="5.01184">
        <ele>294</ele>
        <time>2022-04-14T11:39:42.470Z</time>
      </trkpt>
      <trkpt lat="47.40387" lon="5.01192">
        <ele>294</ele>
        <time>2022-04-14T11:39:47.477Z</time>
      </trkpt>
      <trkpt lat="47.40383" lon="5.01198">
        <ele>294</ele>
        <time>2022-04-14T11:39:52.461Z</time>
      </trkpt>
      <trkpt lat="47.40379" lon="5.01204">
        <ele>294</ele>
        <time>2022-04-14T11:39:57.421Z</time>
      </trkpt>
      <trkpt lat="47.40375" lon="5.01211">
        <ele>295</ele>
        <time>2022-04-14T11:40:02.394Z</time>
      </trkpt>
      <trkpt lat="47.40372" lon="5.01216">
        <ele>295</ele>
        <time>2022-04-14T11:40:06.449Z</time>
      </trkpt>
      <trkpt lat="47.40369" lon="5.01222">
        <ele>295</ele>
        <time>2022-04-14T11:40:10.472Z</time>
      </trkpt>
      <trkpt lat="47.40364" lon="5.01228">
        <ele>295</ele>
        <time>2022-04-14T11:40:15.467Z</time>
      </trkpt>
      <trkpt lat="47.40358" lon="5.01236">
        <ele>295</ele>
        <time>2022-04-14T11:40:20.483Z</time>
      </trkpt>
      <trkpt lat="47.40353" lon="5.01243">
        <ele>295</ele>
        <time>2022-04-14T11:40:25.478Z</time>
      </trkpt>
      <trkpt lat="47.40349" lon="5.01249">
        <ele>295</ele>
        <time>2022-04-14T11:40:30.445Z</time>
      </trkpt>
      <trkpt lat="47.40345" lon="5.01257">
        <ele>295</ele>
        <time>2022-04-14T11:40:35.479Z</time>
      </trkpt>
      <trkpt lat="47.40341" lon="5.01264">
        <ele>295</ele>
        <time>2022-04-14T11:40:40.430Z</time>
      </trkpt>
      <trkpt lat="47.40338" lon="5.0127">
        <ele>295</ele>
        <time>2022-04-14T11:40:44.467Z</time>
      </trkpt>
      <trkpt lat="47.40333" lon="5.01275">
        <ele>295</ele>
        <time>2022-04-14T11:40:49.479Z</time>
      </trkpt>
      <trkpt lat="47.40328" lon="5.01283">
        <ele>295</ele>
        <time>2022-04-14T11:40:54.471Z</time>
      </trkpt>
      <trkpt lat="47.40324" lon="5.01289">
        <ele>295</ele>
        <time>2022-04-14T11:40:59.504Z</time>
      </trkpt>
      <trkpt lat="47.40319" lon="5.01296">
        <ele>296</ele>
        <time>2022-04-14T11:41:04.425Z</time>
      </trkpt>
      <trkpt lat="47.40316" lon="5.01302">
        <ele>296</ele>
        <time>2022-04-14T11:41:08.457Z</time>
      </trkpt>
      <trkpt lat="47.40312" lon="5.0131">
        <ele>296</ele>
        <time>2022-04-14T11:41:13.432Z</time>
      </trkpt>
      <trkpt lat="47.40309" lon="5.01316">
        <ele>296</ele>
        <time>2022-04-14T11:41:17.458Z</time>
      </trkpt>
      <trkpt lat="47.40304" lon="5.01323">
        <ele>297</ele>
        <time>2022-04-14T11:41:22.489Z</time>
      </trkpt>
      <trkpt lat="47.40301" lon="5.0133">
        <ele>297</ele>
        <time>2022-04-14T11:41:27.450Z</time>
      </trkpt>
      <trkpt lat="47.40299" lon="5.01339">
        <ele>297</ele>
        <time>2022-04-14T11:41:32.424Z</time>
      </trkpt>
      <trkpt lat="47.40295" lon="5.01345">
        <ele>297</ele>
        <time>2022-04-14T11:41:37.459Z</time>
      </trkpt>
      <trkpt lat="47.4029" lon="5.01352">
        <ele>297</ele>
        <time>2022-04-14T11:41:42.469Z</time>
      </trkpt>
      <trkpt lat="47.40286" lon="5.01361">
        <ele>297</ele>
        <time>2022-04-14T11:41:47.460Z</time>
      </trkpt>
      <trkpt lat="47.40282" lon="5.01367">
        <ele>297</ele>
        <time>2022-04-14T11:41:52.458Z</time>
      </trkpt>
      <trkpt lat="47.4028" lon="5.01374">
        <ele>297</ele>
        <time>2022-04-14T11:41:56.456Z</time>
      </trkpt>
      <trkpt lat="47.40278" lon="5.0138">
        <ele>296</ele>
        <time>2022-04-14T11:42:01.470Z</time>
      </trkpt>
      <trkpt lat="47.40274" lon="5.01387">
        <ele>296</ele>
        <time>2022-04-14T11:42:05.460Z</time>
      </trkpt>
      <trkpt lat="47.4027" lon="5.01394">
        <ele>296</ele>
        <time>2022-04-14T11:42:10.411Z</time>
      </trkpt>
      <trkpt lat="47.40267" lon="5.014">
        <ele>296</ele>
        <time>2022-04-14T11:42:15.452Z</time>
      </trkpt>
      <trkpt lat="47.40264" lon="5.01405">
        <ele>296</ele>
        <time>2022-04-14T11:42:20.405Z</time>
      </trkpt>
      <trkpt lat="47.40261" lon="5.0141">
        <ele>296</ele>
        <time>2022-04-14T11:42:24.482Z</time>
      </trkpt>
      <trkpt lat="47.40259" lon="5.01417">
        <ele>296</ele>
        <time>2022-04-14T11:42:29.418Z</time>
      </trkpt>
      <trkpt lat="47.40256" lon="5.01423">
        <ele>296</ele>
        <time>2022-04-14T11:42:33.471Z</time>
      </trkpt>
      <trkpt lat="47.40253" lon="5.01431">
        <ele>295</ele>
        <time>2022-04-14T11:42:38.465Z</time>
      </trkpt>
      <trkpt lat="47.4025" lon="5.01437">
        <ele>295</ele>
        <time>2022-04-14T11:42:43.408Z</time>
      </trkpt>
      <trkpt lat="47.40248" lon="5.01443">
        <ele>295</ele>
        <time>2022-04-14T11:42:47.482Z</time>
      </trkpt>
      <trkpt lat="47.40244" lon="5.0145">
        <ele>295</ele>
        <time>2022-04-14T11:42:52.426Z</time>
      </trkpt>
      <trkpt lat="47.40242" lon="5.01455">
        <ele>295</ele>
        <time>2022-04-14T11:42:56.480Z</time>
      </trkpt>
      <trkpt lat="47.40237" lon="5.01464">
        <ele>295</ele>
        <time>2022-04-14T11:43:01.429Z</time>
      </trkpt>
      <trkpt lat="47.40233" lon="5.01472">
        <ele>298</ele>
        <time>2022-04-14T11:43:06.389Z</time>
      </trkpt>
      <trkpt lat="47.4023" lon="5.0148">
        <ele>298</ele>
        <time>2022-04-14T11:43:11.379Z</time>
      </trkpt>
      <trkpt lat="47.40229" lon="5.01487">
        <ele>297</ele>
        <time>2022-04-14T11:43:15.408Z</time>
      </trkpt>
      <trkpt lat="47.40226" lon="5.01493">
        <ele>297</ele>
        <time>2022-04-14T11:43:19.462Z</time>
      </trkpt>
      <trkpt lat="47.40221" lon="5.015">
        <ele>297</ele>
        <time>2022-04-14T11:43:24.460Z</time>
      </trkpt>
      <trkpt lat="47.4022" lon="5.01506">
        <ele>297</ele>
        <time>2022-04-14T11:43:29.473Z</time>
      </trkpt>
      <trkpt lat="47.40216" lon="5.01511">
        <ele>297</ele>
        <time>2022-04-14T11:43:34.397Z</time>
      </trkpt>
      <trkpt lat="47.40212" lon="5.01516">
        <ele>297</ele>
        <time>2022-04-14T11:43:38.477Z</time>
      </trkpt>
      <trkpt lat="47.40208" lon="5.01522">
        <ele>298</ele>
        <time>2022-04-14T11:43:43.484Z</time>
      </trkpt>
      <trkpt lat="47.40202" lon="5.01526">
        <ele>298</ele>
        <time>2022-04-14T11:43:48.493Z</time>
      </trkpt>
      <trkpt lat="47.40198" lon="5.01532">
        <ele>298</ele>
        <time>2022-04-14T11:43:53.464Z</time>
      </trkpt>
      <trkpt lat="47.40193" lon="5.01538">
        <ele>298</ele>
        <time>2022-04-14T11:43:58.461Z</time>
      </trkpt>
      <trkpt lat="47.40189" lon="5.01543">
        <ele>296</ele>
        <time>2022-04-14T11:44:03.466Z</time>
      </trkpt>
      <trkpt lat="47.40185" lon="5.0155">
        <ele>296</ele>
        <time>2022-04-14T11:44:08.489Z</time>
      </trkpt>
      <trkpt lat="47.40178" lon="5.01555">
        <ele>297</ele>
        <time>2022-04-14T11:44:13.413Z</time>
      </trkpt>
      <trkpt lat="47.40173" lon="5.01559">
        <ele>297</ele>
        <time>2022-04-14T11:44:17.444Z</time>
      </trkpt>
      <trkpt lat="47.40171" lon="5.01559">
        <ele>297</ele>
        <time>2022-04-14T11:44:22.410Z</time>
      </trkpt>
      <trkpt lat="47.40169" lon="5.01562">
        <ele>297</ele>
        <time>2022-04-14T11:44:27.395Z</time>
      </trkpt>
      <trkpt lat="47.40165" lon="5.01566">
        <ele>297</ele>
        <time>2022-04-14T11:44:31.448Z</time>
      </trkpt>
      <trkpt lat="47.40161" lon="5.01568">
        <ele>297</ele>
        <time>2022-04-14T11:44:35.472Z</time>
      </trkpt>
      <trkpt lat="47.40153" lon="5.01574">
        <ele>296</ele>
        <time>2022-04-14T11:44:40.478Z</time>
      </trkpt>
      <trkpt lat="47.40148" lon="5.01577">
        <ele>296</ele>
        <time>2022-04-14T11:44:45.454Z</time>
      </trkpt>
      <trkpt lat="47.40144" lon="5.01579">
        <ele>296</ele>
        <time>2022-04-14T11:44:49.490Z</time>
      </trkpt>
      <trkpt lat="47.4014" lon="5.01582">
        <ele>296</ele>
        <time>2022-04-14T11:44:54.485Z</time>
      </trkpt>
      <trkpt lat="47.40134" lon="5.01588">
        <ele>296</ele>
        <time>2022-04-14T11:44:59.433Z</time>
      </trkpt>
      <trkpt lat="47.4013" lon="5.01591">
        <ele>296</ele>
        <time>2022-04-14T11:45:03.462Z</time>
      </trkpt>
      <trkpt lat="47.40124" lon="5.01598">
        <ele>294</ele>
        <time>2022-04-14T11:45:08.401Z</time>
      </trkpt>
      <trkpt lat="47.40117" lon="5.016">
        <ele>294</ele>
        <time>2022-04-14T11:45:13.451Z</time>
      </trkpt>
      <trkpt lat="47.40111" lon="5.01603">
        <ele>294</ele>
        <time>2022-04-14T11:45:18.493Z</time>
      </trkpt>
      <trkpt lat="47.40105" lon="5.0161">
        <ele>294</ele>
        <time>2022-04-14T11:45:23.418Z</time>
      </trkpt>
      <trkpt lat="47.40101" lon="5.01614">
        <ele>294</ele>
        <time>2022-04-14T11:45:27.468Z</time>
      </trkpt>
      <trkpt lat="47.40096" lon="5.01618">
        <ele>293</ele>
        <time>2022-04-14T11:45:32.414Z</time>
      </trkpt>
      <trkpt lat="47.4009" lon="5.01623">
        <ele>293</ele>
        <time>2022-04-14T11:45:37.411Z</time>
      </trkpt>
      <trkpt lat="47.40086" lon="5.01628">
        <ele>293</ele>
        <time>2022-04-14T11:45:41.502Z</time>
      </trkpt>
      <trkpt lat="47.4008" lon="5.01632">
        <ele>293</ele>
        <time>2022-04-14T11:45:46.463Z</time>
      </trkpt>
      <trkpt lat="47.40075" lon="5.01638">
        <ele>293</ele>
        <time>2022-04-14T11:45:51.485Z</time>
      </trkpt>
      <trkpt lat="47.40069" lon="5.01643">
        <ele>295</ele>
        <time>2022-04-14T11:45:56.466Z</time>
      </trkpt>
      <trkpt lat="47.40064" lon="5.01649">
        <ele>295</ele>
        <time>2022-04-14T11:46:01.472Z</time>
      </trkpt>
      <trkpt lat="47.4006" lon="5.01657">
        <ele>294</ele>
        <time>2022-04-14T11:46:06.419Z</time>
      </trkpt>
      <trkpt lat="47.40056" lon="5.01661">
        <ele>294</ele>
        <time>2022-04-14T11:46:10.452Z</time>
      </trkpt>
      <trkpt lat="47.40052" lon="5.01665">
        <ele>294</ele>
        <time>2022-04-14T11:46:14.454Z</time>
      </trkpt>
      <trkpt lat="47.40047" lon="5.01672">
        <ele>294</ele>
        <time>2022-04-14T11:46:19.474Z</time>
      </trkpt>
      <trkpt lat="47.40043" lon="5.01679">
        <ele>294</ele>
        <time>2022-04-14T11:46:24.411Z</time>
      </trkpt>
      <trkpt lat="47.40037" lon="5.01685">
        <ele>293</ele>
        <time>2022-04-14T11:46:29.403Z</time>
      </trkpt>
      <trkpt lat="47.40032" lon="5.0169">
        <ele>293</ele>
        <time>2022-04-14T11:46:34.415Z</time>
      </trkpt>
      <trkpt lat="47.40029" lon="5.01696">
        <ele>293</ele>
        <time>2022-04-14T11:46:38.436Z</time>
      </trkpt>
      <trkpt lat="47.40025" lon="5.01701">
        <ele>293</ele>
        <time>2022-04-14T11:46:42.495Z</time>
      </trkpt>
      <trkpt lat="47.4002" lon="5.01706">
        <ele>293</ele>
        <time>2022-04-14T11:46:47.477Z</time>
      </trkpt>
      <trkpt lat="47.40015" lon="5.01713">
        <ele>292</ele>
        <time>2022-04-14T11:46:52.482Z</time>
      </trkpt>
      <trkpt lat="47.4001" lon="5.01718">
        <ele>291</ele>
        <time>2022-04-14T11:46:57.444Z</time>
      </trkpt>
      <trkpt lat="47.40005" lon="5.01723">
        <ele>291</ele>
        <time>2022-04-14T11:47:01.479Z</time>
      </trkpt>
      <trkpt lat="47.40001" lon="5.01729">
        <ele>291</ele>
        <time>2022-04-14T11:47:05.498Z</time>
      </trkpt>
      <trkpt lat="47.39997" lon="5.01734">
        <ele>291</ele>
        <time>2022-04-14T11:47:10.419Z</time>
      </trkpt>
      <trkpt lat="47.39993" lon="5.01739">
        <ele>291</ele>
        <time>2022-04-14T11:47:14.463Z</time>
      </trkpt>
      <trkpt lat="47.39988" lon="5.01744">
        <ele>291</ele>
        <time>2022-04-14T11:47:19.435Z</time>
      </trkpt>
      <trkpt lat="47.39983" lon="5.01749">
        <ele>290</ele>
        <time>2022-04-14T11:47:24.423Z</time>
      </trkpt>
      <trkpt lat="47.39978" lon="5.01755">
        <ele>290</ele>
        <time>2022-04-14T11:47:29.476Z</time>
      </trkpt>
      <trkpt lat="47.39973" lon="5.01759">
        <ele>290</ele>
        <time>2022-04-14T11:47:33.481Z</time>
      </trkpt>
      <trkpt lat="47.39968" lon="5.01766">
        <ele>290</ele>
        <time>2022-04-14T11:47:38.440Z</time>
      </trkpt>
      <trkpt lat="47.39963" lon="5.0177">
        <ele>290</ele>
        <time>2022-04-14T11:47:43.446Z</time>
      </trkpt>
      <trkpt lat="47.39957" lon="5.01775">
        <ele>289</ele>
        <time>2022-04-14T11:47:48.464Z</time>
      </trkpt>
      <trkpt lat="47.39953" lon="5.01781">
        <ele>289</ele>
        <time>2022-04-14T11:47:53.476Z</time>
      </trkpt>
      <trkpt lat="47.39947" lon="5.01787">
        <ele>289</ele>
        <time>2022-04-14T11:47:58.444Z</time>
      </trkpt>
      <trkpt lat="47.39943" lon="5.01791">
        <ele>289</ele>
        <time>2022-04-14T11:48:02.479Z</time>
      </trkpt>
      <trkpt lat="47.39938" lon="5.01797">
        <ele>289</ele>
        <time>2022-04-14T11:48:07.459Z</time>
      </trkpt>
      <trkpt lat="47.39934" lon="5.01803">
        <ele>289</ele>
        <time>2022-04-14T11:48:12.441Z</time>
      </trkpt>
      <trkpt lat="47.3993" lon="5.01808">
        <ele>288</ele>
        <time>2022-04-14T11:48:16.468Z</time>
      </trkpt>
      <trkpt lat="47.39925" lon="5.01814">
        <ele>288</ele>
        <time>2022-04-14T11:48:21.482Z</time>
      </trkpt>
      <trkpt lat="47.39919" lon="5.01819">
        <ele>288</ele>
        <time>2022-04-14T11:48:26.444Z</time>
      </trkpt>
      <trkpt lat="47.39915" lon="5.01826">
        <ele>288</ele>
        <time>2022-04-14T11:48:31.427Z</time>
      </trkpt>
      <trkpt lat="47.39911" lon="5.01833">
        <ele>288</ele>
        <time>2022-04-14T11:48:36.381Z</time>
      </trkpt>
      <trkpt lat="47.39908" lon="5.01836">
        <ele>288</ele>
        <time>2022-04-14T11:48:40.453Z</time>
      </trkpt>
      <trkpt lat="47.39903" lon="5.01842">
        <ele>288</ele>
        <time>2022-04-14T11:48:45.476Z</time>
      </trkpt>
      <trkpt lat="47.39898" lon="5.01846">
        <ele>290</ele>
        <time>2022-04-14T11:48:50.431Z</time>
      </trkpt>
      <trkpt lat="47.39893" lon="5.01849">
        <ele>290</ele>
        <time>2022-04-14T11:48:55.482Z</time>
      </trkpt>
      <trkpt lat="47.39891" lon="5.01852">
        <ele>290</ele>
        <time>2022-04-14T11:49:00.424Z</time>
      </trkpt>
      <trkpt lat="47.39887" lon="5.01853">
        <ele>290</ele>
        <time>2022-04-14T11:51:29.427Z</time>
      </trkpt>
      <trkpt lat="47.39886" lon="5.01853">
        <ele>290</ele>
        <time>2022-04-14T11:51:38.435Z</time>
      </trkpt>
      <trkpt lat="47.39884" lon="5.01855">
        <ele>290</ele>
        <time>2022-04-14T11:51:43.475Z</time>
      </trkpt>
      <trkpt lat="47.39883" lon="5.01855">
        <ele>290</ele>
        <time>2022-04-14T11:51:48.438Z</time>
      </trkpt>
      <trkpt lat="47.39881" lon="5.01858">
        <ele>290</ele>
        <time>2022-04-14T11:51:52.437Z</time>
      </trkpt>
      <trkpt lat="47.39878" lon="5.01863">
        <ele>290</ele>
        <time>2022-04-14T11:51:57.431Z</time>
      </trkpt>
      <trkpt lat="47.39875" lon="5.01869">
        <ele>290</ele>
        <time>2022-04-14T11:52:01.469Z</time>
      </trkpt>
      <trkpt lat="47.39871" lon="5.01874">
        <ele>293</ele>
        <time>2022-04-14T11:52:06.444Z</time>
      </trkpt>
      <trkpt lat="47.39868" lon="5.01879">
        <ele>292</ele>
        <time>2022-04-14T11:52:10.450Z</time>
      </trkpt>
      <trkpt lat="47.39863" lon="5.01883">
        <ele>292</ele>
        <time>2022-04-14T11:52:15.496Z</time>
      </trkpt>
      <trkpt lat="47.39858" lon="5.01889">
        <ele>292</ele>
        <time>2022-04-14T11:52:20.450Z</time>
      </trkpt>
      <trkpt lat="47.39853" lon="5.01895">
        <ele>292</ele>
        <time>2022-04-14T11:52:25.454Z</time>
      </trkpt>
      <trkpt lat="47.39848" lon="5.019">
        <ele>292</ele>
        <time>2022-04-14T11:52:30.416Z</time>
      </trkpt>
      <trkpt lat="47.39842" lon="5.01907">
        <ele>292</ele>
        <time>2022-04-14T11:52:35.390Z</time>
      </trkpt>
      <trkpt lat="47.39838" lon="5.01911">
        <ele>292</ele>
        <time>2022-04-14T11:52:39.425Z</time>
      </trkpt>
      <trkpt lat="47.39833" lon="5.01915">
        <ele>292</ele>
        <time>2022-04-14T11:52:44.416Z</time>
      </trkpt>
      <trkpt lat="47.3983" lon="5.0192">
        <ele>292</ele>
        <time>2022-04-14T11:52:49.435Z</time>
      </trkpt>
      <trkpt lat="47.39825" lon="5.01926">
        <ele>292</ele>
        <time>2022-04-14T11:52:54.431Z</time>
      </trkpt>
      <trkpt lat="47.3982" lon="5.01931">
        <ele>290</ele>
        <time>2022-04-14T11:52:59.464Z</time>
      </trkpt>
      <trkpt lat="47.39813" lon="5.01935">
        <ele>293</ele>
        <time>2022-04-14T11:53:04.415Z</time>
      </trkpt>
      <trkpt lat="47.39808" lon="5.0194">
        <ele>293</ele>
        <time>2022-04-14T11:53:08.430Z</time>
      </trkpt>
      <trkpt lat="47.39804" lon="5.01945">
        <ele>293</ele>
        <time>2022-04-14T11:53:13.482Z</time>
      </trkpt>
      <trkpt lat="47.39799" lon="5.01951">
        <ele>293</ele>
        <time>2022-04-14T11:53:18.423Z</time>
      </trkpt>
      <trkpt lat="47.39795" lon="5.01956">
        <ele>293</ele>
        <time>2022-04-14T11:53:22.451Z</time>
      </trkpt>
      <trkpt lat="47.3979" lon="5.0196">
        <ele>295</ele>
        <time>2022-04-14T11:53:27.428Z</time>
      </trkpt>
      <trkpt lat="47.39786" lon="5.01964">
        <ele>295</ele>
        <time>2022-04-14T11:53:31.446Z</time>
      </trkpt>
      <trkpt lat="47.3978" lon="5.01968">
        <ele>295</ele>
        <time>2022-04-14T11:53:36.437Z</time>
      </trkpt>
      <trkpt lat="47.39773" lon="5.01974">
        <ele>295</ele>
        <time>2022-04-14T11:53:41.432Z</time>
      </trkpt>
      <trkpt lat="47.3977" lon="5.01977">
        <ele>295</ele>
        <time>2022-04-14T11:53:46.416Z</time>
      </trkpt>
      <trkpt lat="47.39765" lon="5.0198">
        <ele>295</ele>
        <time>2022-04-14T11:53:51.399Z</time>
      </trkpt>
      <trkpt lat="47.3976" lon="5.01982">
        <ele>295</ele>
        <time>2022-04-14T11:53:55.425Z</time>
      </trkpt>
      <trkpt lat="47.39757" lon="5.01985">
        <ele>295</ele>
        <time>2022-04-14T11:53:59.417Z</time>
      </trkpt>
      <trkpt lat="47.39752" lon="5.01987">
        <ele>291</ele>
        <time>2022-04-14T11:54:03.469Z</time>
      </trkpt>
      <trkpt lat="47.39748" lon="5.01992">
        <ele>291</ele>
        <time>2022-04-14T11:54:08.436Z</time>
      </trkpt>
      <trkpt lat="47.39744" lon="5.01996">
        <ele>291</ele>
        <time>2022-04-14T11:54:13.441Z</time>
      </trkpt>
      <trkpt lat="47.39739" lon="5.01999">
        <ele>291</ele>
        <time>2022-04-14T11:54:18.428Z</time>
      </trkpt>
      <trkpt lat="47.39733" lon="5.01999">
        <ele>290</ele>
        <time>2022-04-14T11:54:23.475Z</time>
      </trkpt>
      <trkpt lat="47.39729" lon="5.01999">
        <ele>290</ele>
        <time>2022-04-14T11:54:28.433Z</time>
      </trkpt>
      <trkpt lat="47.39723" lon="5.02">
        <ele>290</ele>
        <time>2022-04-14T11:54:32.443Z</time>
      </trkpt>
      <trkpt lat="47.39716" lon="5.01999">
        <ele>290</ele>
        <time>2022-04-14T11:54:37.474Z</time>
      </trkpt>
      <trkpt lat="47.3971" lon="5.01999">
        <ele>290</ele>
        <time>2022-04-14T11:54:41.500Z</time>
      </trkpt>
      <trkpt lat="47.39706" lon="5.02001">
        <ele>290</ele>
        <time>2022-04-14T11:54:46.415Z</time>
      </trkpt>
      <trkpt lat="47.39701" lon="5.02001">
        <ele>290</ele>
        <time>2022-04-14T11:54:50.438Z</time>
      </trkpt>
      <trkpt lat="47.39696" lon="5.02001">
        <ele>290</ele>
        <time>2022-04-14T11:54:55.415Z</time>
      </trkpt>
      <trkpt lat="47.39689" lon="5.02001">
        <ele>290</ele>
        <time>2022-04-14T11:54:59.449Z</time>
      </trkpt>
      <trkpt lat="47.39684" lon="5.02002">
        <ele>290</ele>
        <time>2022-04-14T11:55:03.485Z</time>
      </trkpt>
      <trkpt lat="47.3968" lon="5.02001">
        <ele>290</ele>
        <time>2022-04-14T11:55:08.423Z</time>
      </trkpt>
      <trkpt lat="47.39674" lon="5.02">
        <ele>290</ele>
        <time>2022-04-14T11:55:13.457Z</time>
      </trkpt>
      <trkpt lat="47.39667" lon="5.02001">
        <ele>290</ele>
        <time>2022-04-14T11:55:18.442Z</time>
      </trkpt>
      <trkpt lat="47.39661" lon="5.02001">
        <ele>290</ele>
        <time>2022-04-14T11:55:23.489Z</time>
      </trkpt>
      <trkpt lat="47.39656" lon="5.01998">
        <ele>290</ele>
        <time>2022-04-14T11:55:28.409Z</time>
      </trkpt>
      <trkpt lat="47.39649" lon="5.01998">
        <ele>290</ele>
        <time>2022-04-14T11:55:32.460Z</time>
      </trkpt>
      <trkpt lat="47.39644" lon="5.01998">
        <ele>290</ele>
        <time>2022-04-14T11:55:37.459Z</time>
      </trkpt>
      <trkpt lat="47.39638" lon="5.01997">
        <ele>290</ele>
        <time>2022-04-14T11:55:42.405Z</time>
      </trkpt>
      <trkpt lat="47.39633" lon="5.01996">
        <ele>290</ele>
        <time>2022-04-14T11:55:47.435Z</time>
      </trkpt>
      <trkpt lat="47.39629" lon="5.01995">
        <ele>290</ele>
        <time>2022-04-14T11:55:51.489Z</time>
      </trkpt>
      <trkpt lat="47.39623" lon="5.01996">
        <ele>289</ele>
        <time>2022-04-14T11:55:56.432Z</time>
      </trkpt>
      <trkpt lat="47.39617" lon="5.01997">
        <ele>289</ele>
        <time>2022-04-14T11:56:01.386Z</time>
      </trkpt>
      <trkpt lat="47.39612" lon="5.01995">
        <ele>289</ele>
        <time>2022-04-14T11:56:05.430Z</time>
      </trkpt>
      <trkpt lat="47.39606" lon="5.01995">
        <ele>289</ele>
        <time>2022-04-14T11:56:10.433Z</time>
      </trkpt>
      <trkpt lat="47.396" lon="5.01994">
        <ele>289</ele>
        <time>2022-04-14T11:56:15.454Z</time>
      </trkpt>
      <trkpt lat="47.39594" lon="5.01996">
        <ele>289</ele>
        <time>2022-04-14T11:56:20.446Z</time>
      </trkpt>
      <trkpt lat="47.39587" lon="5.01998">
        <ele>289</ele>
        <time>2022-04-14T11:56:25.485Z</time>
      </trkpt>
      <trkpt lat="47.39581" lon="5.01999">
        <ele>289</ele>
        <time>2022-04-14T11:56:30.434Z</time>
      </trkpt>
      <trkpt lat="47.39576" lon="5.01999">
        <ele>289</ele>
        <time>2022-04-14T11:56:35.429Z</time>
      </trkpt>
      <trkpt lat="47.3957" lon="5.02004">
        <ele>289</ele>
        <time>2022-04-14T11:56:40.421Z</time>
      </trkpt>
      <trkpt lat="47.39565" lon="5.02006">
        <ele>288</ele>
        <time>2022-04-14T11:56:45.413Z</time>
      </trkpt>
      <trkpt lat="47.3956" lon="5.02005">
        <ele>288</ele>
        <time>2022-04-14T11:56:49.461Z</time>
      </trkpt>
      <trkpt lat="47.39553" lon="5.02007">
        <ele>288</ele>
        <time>2022-04-14T11:56:54.444Z</time>
      </trkpt>
      <trkpt lat="47.39546" lon="5.02009">
        <ele>288</ele>
        <time>2022-04-14T11:56:59.449Z</time>
      </trkpt>
      <trkpt lat="47.39539" lon="5.02015">
        <ele>288</ele>
        <time>2022-04-14T11:57:04.454Z</time>
      </trkpt>
      <trkpt lat="47.39533" lon="5.02019">
        <ele>288</ele>
        <time>2022-04-14T11:57:09.427Z</time>
      </trkpt>
      <trkpt lat="47.39529" lon="5.02023">
        <ele>288</ele>
        <time>2022-04-14T11:57:14.403Z</time>
      </trkpt>
      <trkpt lat="47.39524" lon="5.0203">
        <ele>288</ele>
        <time>2022-04-14T11:57:18.433Z</time>
      </trkpt>
      <trkpt lat="47.39517" lon="5.02035">
        <ele>288</ele>
        <time>2022-04-14T11:57:23.457Z</time>
      </trkpt>
      <trkpt lat="47.39513" lon="5.02041">
        <ele>287</ele>
        <time>2022-04-14T11:57:28.423Z</time>
      </trkpt>
      <trkpt lat="47.39509" lon="5.02044">
        <ele>287</ele>
        <time>2022-04-14T11:57:32.472Z</time>
      </trkpt>
      <trkpt lat="47.39513" lon="5.02042">
        <ele>287</ele>
        <time>2022-04-14T12:01:25.446Z</time>
      </trkpt>
      <trkpt lat="47.39513" lon="5.02049">
        <ele>287</ele>
        <time>2022-04-14T12:01:30.390Z</time>
      </trkpt>
      <trkpt lat="47.39515" lon="5.02056">
        <ele>288</ele>
        <time>2022-04-14T12:01:34.421Z</time>
      </trkpt>
      <trkpt lat="47.39515" lon="5.02059">
        <ele>288</ele>
        <time>2022-04-14T12:01:39.447Z</time>
      </trkpt>
      <trkpt lat="47.39517" lon="5.02063">
        <ele>288</ele>
        <time>2022-04-14T12:01:44.422Z</time>
      </trkpt>
      <trkpt lat="47.39517" lon="5.02058">
        <ele>288</ele>
        <time>2022-04-14T12:01:49.409Z</time>
      </trkpt>
      <trkpt lat="47.39521" lon="5.02053">
        <ele>288</ele>
        <time>2022-04-14T12:01:54.400Z</time>
      </trkpt>
      <trkpt lat="47.39524" lon="5.02047">
        <ele>288</ele>
        <time>2022-04-14T12:01:58.436Z</time>
      </trkpt>
      <trkpt lat="47.39529" lon="5.02041">
        <ele>288</ele>
        <time>2022-04-14T12:02:03.464Z</time>
      </trkpt>
      <trkpt lat="47.39533" lon="5.02032">
        <ele>288</ele>
        <time>2022-04-14T12:02:08.424Z</time>
      </trkpt>
      <trkpt lat="47.39537" lon="5.02028">
        <ele>288</ele>
        <time>2022-04-14T12:02:12.463Z</time>
      </trkpt>
      <trkpt lat="47.39541" lon="5.02023">
        <ele>288</ele>
        <time>2022-04-14T12:02:17.409Z</time>
      </trkpt>
      <trkpt lat="47.39544" lon="5.0202">
        <ele>287</ele>
        <time>2022-04-14T12:02:21.398Z</time>
      </trkpt>
      <trkpt lat="47.39548" lon="5.02017">
        <ele>287</ele>
        <time>2022-04-14T12:02:25.423Z</time>
      </trkpt>
      <trkpt lat="47.39553" lon="5.02016">
        <ele>287</ele>
        <time>2022-04-14T12:02:30.402Z</time>
      </trkpt>
      <trkpt lat="47.39556" lon="5.02014">
        <ele>287</ele>
        <time>2022-04-14T12:02:34.431Z</time>
      </trkpt>
      <trkpt lat="47.39561" lon="5.02011">
        <ele>288</ele>
        <time>2022-04-14T12:02:39.431Z</time>
      </trkpt>
      <trkpt lat="47.39565" lon="5.0201">
        <ele>288</ele>
        <time>2022-04-14T12:02:44.475Z</time>
      </trkpt>
      <trkpt lat="47.39571" lon="5.02007">
        <ele>289</ele>
        <time>2022-04-14T12:02:49.444Z</time>
      </trkpt>
      <trkpt lat="47.39574" lon="5.02006">
        <ele>289</ele>
        <time>2022-04-14T12:02:53.447Z</time>
      </trkpt>
      <trkpt lat="47.39577" lon="5.02006">
        <ele>289</ele>
        <time>2022-04-14T12:02:58.405Z</time>
      </trkpt>
      <trkpt lat="47.39579" lon="5.02005">
        <ele>289</ele>
        <time>2022-04-14T12:03:02.429Z</time>
      </trkpt>
      <trkpt lat="47.39585" lon="5.02003">
        <ele>289</ele>
        <time>2022-04-14T12:03:07.422Z</time>
      </trkpt>
      <trkpt lat="47.39591" lon="5.02002">
        <ele>289</ele>
        <time>2022-04-14T12:03:12.413Z</time>
      </trkpt>
      <trkpt lat="47.39596" lon="5.02001">
        <ele>289</ele>
        <time>2022-04-14T12:03:17.398Z</time>
      </trkpt>
      <trkpt lat="47.396" lon="5.02001">
        <ele>289</ele>
        <time>2022-04-14T12:03:22.399Z</time>
      </trkpt>
      <trkpt lat="47.39605" lon="5.02">
        <ele>289</ele>
        <time>2022-04-14T12:03:27.427Z</time>
      </trkpt>
      <trkpt lat="47.3961" lon="5.02001">
        <ele>289</ele>
        <time>2022-04-14T12:03:32.385Z</time>
      </trkpt>
      <trkpt lat="47.39615" lon="5.02002">
        <ele>289</ele>
        <time>2022-04-14T12:03:37.409Z</time>
      </trkpt>
      <trkpt lat="47.3962" lon="5.02004">
        <ele>289</ele>
        <time>2022-04-14T12:03:42.436Z</time>
      </trkpt>
      <trkpt lat="47.39625" lon="5.02004">
        <ele>290</ele>
        <time>2022-04-14T12:03:47.434Z</time>
      </trkpt>
      <trkpt lat="47.39631" lon="5.02003">
        <ele>290</ele>
        <time>2022-04-14T12:03:52.455Z</time>
      </trkpt>
      <trkpt lat="47.39636" lon="5.02003">
        <ele>290</ele>
        <time>2022-04-14T12:03:57.417Z</time>
      </trkpt>
      <trkpt lat="47.39641" lon="5.02004">
        <ele>290</ele>
        <time>2022-04-14T12:04:02.448Z</time>
      </trkpt>
      <trkpt lat="47.39644" lon="5.02006">
        <ele>290</ele>
        <time>2022-04-14T12:04:06.486Z</time>
      </trkpt>
      <trkpt lat="47.39648" lon="5.02008">
        <ele>290</ele>
        <time>2022-04-14T12:04:11.452Z</time>
      </trkpt>
      <trkpt lat="47.39652" lon="5.02007">
        <ele>290</ele>
        <time>2022-04-14T12:04:16.480Z</time>
      </trkpt>
      <trkpt lat="47.39657" lon="5.02006">
        <ele>290</ele>
        <time>2022-04-14T12:04:21.410Z</time>
      </trkpt>
      <trkpt lat="47.39661" lon="5.02006">
        <ele>290</ele>
        <time>2022-04-14T12:04:25.429Z</time>
      </trkpt>
      <trkpt lat="47.39665" lon="5.02006">
        <ele>290</ele>
        <time>2022-04-14T12:04:30.455Z</time>
      </trkpt>
      <trkpt lat="47.3967" lon="5.02006">
        <ele>290</ele>
        <time>2022-04-14T12:04:35.439Z</time>
      </trkpt>
      <trkpt lat="47.39676" lon="5.02008">
        <ele>290</ele>
        <time>2022-04-14T12:04:40.441Z</time>
      </trkpt>
      <trkpt lat="47.39682" lon="5.02007">
        <ele>290</ele>
        <time>2022-04-14T12:04:45.459Z</time>
      </trkpt>
      <trkpt lat="47.39688" lon="5.02008">
        <ele>290</ele>
        <time>2022-04-14T12:04:50.460Z</time>
      </trkpt>
      <trkpt lat="47.39694" lon="5.02008">
        <ele>290</ele>
        <time>2022-04-14T12:04:55.439Z</time>
      </trkpt>
      <trkpt lat="47.397" lon="5.0201">
        <ele>290</ele>
        <time>2022-04-14T12:05:00.458Z</time>
      </trkpt>
      <trkpt lat="47.39706" lon="5.02007">
        <ele>290</ele>
        <time>2022-04-14T12:05:05.454Z</time>
      </trkpt>
      <trkpt lat="47.39713" lon="5.02006">
        <ele>290</ele>
        <time>2022-04-14T12:05:10.461Z</time>
      </trkpt>
      <trkpt lat="47.39719" lon="5.02006">
        <ele>290</ele>
        <time>2022-04-14T12:05:15.428Z</time>
      </trkpt>
      <trkpt lat="47.39724" lon="5.02005">
        <ele>290</ele>
        <time>2022-04-14T12:05:19.460Z</time>
      </trkpt>
      <trkpt lat="47.3973" lon="5.02005">
        <ele>290</ele>
        <time>2022-04-14T12:05:24.494Z</time>
      </trkpt>
      <trkpt lat="47.39736" lon="5.02004">
        <ele>291</ele>
        <time>2022-04-14T12:05:29.459Z</time>
      </trkpt>
      <trkpt lat="47.39742" lon="5.02002">
        <ele>291</ele>
        <time>2022-04-14T12:05:34.459Z</time>
      </trkpt>
      <trkpt lat="47.39749" lon="5.01999">
        <ele>291</ele>
        <time>2022-04-14T12:05:39.462Z</time>
      </trkpt>
      <trkpt lat="47.39754" lon="5.01995">
        <ele>291</ele>
        <time>2022-04-14T12:05:43.449Z</time>
      </trkpt>
      <trkpt lat="47.39759" lon="5.01992">
        <ele>291</ele>
        <time>2022-04-14T12:05:48.500Z</time>
      </trkpt>
      <trkpt lat="47.39765" lon="5.01986">
        <ele>295</ele>
        <time>2022-04-14T12:05:53.439Z</time>
      </trkpt>
      <trkpt lat="47.39771" lon="5.01981">
        <ele>295</ele>
        <time>2022-04-14T12:05:58.447Z</time>
      </trkpt>
      <trkpt lat="47.39776" lon="5.01976">
        <ele>295</ele>
        <time>2022-04-14T12:06:03.462Z</time>
      </trkpt>
      <trkpt lat="47.39781" lon="5.01973">
        <ele>295</ele>
        <time>2022-04-14T12:06:07.491Z</time>
      </trkpt>
      <trkpt lat="47.39787" lon="5.01967">
        <ele>295</ele>
        <time>2022-04-14T12:06:12.423Z</time>
      </trkpt>
      <trkpt lat="47.39791" lon="5.01965">
        <ele>295</ele>
        <time>2022-04-14T12:06:16.438Z</time>
      </trkpt>
      <trkpt lat="47.39796" lon="5.0196">
        <ele>292</ele>
        <time>2022-04-14T12:06:21.419Z</time>
      </trkpt>
      <trkpt lat="47.39799" lon="5.01955">
        <ele>293</ele>
        <time>2022-04-14T12:06:25.467Z</time>
      </trkpt>
      <trkpt lat="47.39804" lon="5.0195">
        <ele>293</ele>
        <time>2022-04-14T12:06:30.467Z</time>
      </trkpt>
      <trkpt lat="47.39809" lon="5.01945">
        <ele>293</ele>
        <time>2022-04-14T12:06:35.467Z</time>
      </trkpt>
      <trkpt lat="47.39814" lon="5.01941">
        <ele>293</ele>
        <time>2022-04-14T12:06:40.426Z</time>
      </trkpt>
      <trkpt lat="47.39818" lon="5.01937">
        <ele>293</ele>
        <time>2022-04-14T12:06:44.460Z</time>
      </trkpt>
      <trkpt lat="47.39823" lon="5.01931">
        <ele>290</ele>
        <time>2022-04-14T12:06:49.463Z</time>
      </trkpt>
      <trkpt lat="47.39828" lon="5.01925">
        <ele>292</ele>
        <time>2022-04-14T12:06:54.448Z</time>
      </trkpt>
      <trkpt lat="47.39832" lon="5.01921">
        <ele>292</ele>
        <time>2022-04-14T12:06:58.427Z</time>
      </trkpt>
      <trkpt lat="47.39836" lon="5.01915">
        <ele>292</ele>
        <time>2022-04-14T12:07:03.453Z</time>
      </trkpt>
      <trkpt lat="47.3984" lon="5.01909">
        <ele>292</ele>
        <time>2022-04-14T12:07:08.485Z</time>
      </trkpt>
      <trkpt lat="47.39845" lon="5.01903">
        <ele>292</ele>
        <time>2022-04-14T12:07:13.442Z</time>
      </trkpt>
      <trkpt lat="47.3985" lon="5.01897">
        <ele>292</ele>
        <time>2022-04-14T12:07:18.444Z</time>
      </trkpt>
      <trkpt lat="47.39855" lon="5.01892">
        <ele>292</ele>
        <time>2022-04-14T12:07:23.445Z</time>
      </trkpt>
      <trkpt lat="47.3986" lon="5.01887">
        <ele>292</ele>
        <time>2022-04-14T12:07:28.415Z</time>
      </trkpt>
      <trkpt lat="47.39865" lon="5.01881">
        <ele>292</ele>
        <time>2022-04-14T12:07:33.450Z</time>
      </trkpt>
      <trkpt lat="47.39869" lon="5.01878">
        <ele>292</ele>
        <time>2022-04-14T12:07:38.434Z</time>
      </trkpt>
      <trkpt lat="47.39873" lon="5.01873">
        <ele>293</ele>
        <time>2022-04-14T12:07:42.449Z</time>
      </trkpt>
      <trkpt lat="47.39877" lon="5.01868">
        <ele>290</ele>
        <time>2022-04-14T12:07:47.433Z</time>
      </trkpt>
      <trkpt lat="47.39881" lon="5.01862">
        <ele>290</ele>
        <time>2022-04-14T12:07:51.459Z</time>
      </trkpt>
      <trkpt lat="47.39883" lon="5.01856">
        <ele>290</ele>
        <time>2022-04-14T12:07:55.454Z</time>
      </trkpt>
      <trkpt lat="47.39882" lon="5.01848">
        <ele>290</ele>
        <time>2022-04-14T12:08:00.453Z</time>
      </trkpt>
      <trkpt lat="47.39882" lon="5.01839">
        <ele>290</ele>
        <time>2022-04-14T12:08:05.454Z</time>
      </trkpt>
      <trkpt lat="47.39881" lon="5.01832">
        <ele>290</ele>
        <time>2022-04-14T12:08:10.416Z</time>
      </trkpt>
      <trkpt lat="47.39881" lon="5.01825">
        <ele>290</ele>
        <time>2022-04-14T12:08:14.443Z</time>
      </trkpt>
      <trkpt lat="47.39881" lon="5.01817">
        <ele>289</ele>
        <time>2022-04-14T12:08:19.424Z</time>
      </trkpt>
      <trkpt lat="47.3988" lon="5.01808">
        <ele>289</ele>
        <time>2022-04-14T12:08:24.445Z</time>
      </trkpt>
      <trkpt lat="47.39879" lon="5.018">
        <ele>289</ele>
        <time>2022-04-14T12:08:29.409Z</time>
      </trkpt>
      <trkpt lat="47.39878" lon="5.01793">
        <ele>289</ele>
        <time>2022-04-14T12:08:33.458Z</time>
      </trkpt>
      <trkpt lat="47.39877" lon="5.01783">
        <ele>289</ele>
        <time>2022-04-14T12:08:38.468Z</time>
      </trkpt>
      <trkpt lat="47.39875" lon="5.01773">
        <ele>290</ele>
        <time>2022-04-14T12:08:43.409Z</time>
      </trkpt>
      <trkpt lat="47.39873" lon="5.01766">
        <ele>290</ele>
        <time>2022-04-14T12:08:48.393Z</time>
      </trkpt>
      <trkpt lat="47.39872" lon="5.01759">
        <ele>288</ele>
        <time>2022-04-14T12:08:52.419Z</time>
      </trkpt>
      <trkpt lat="47.39871" lon="5.01753">
        <ele>288</ele>
        <time>2022-04-14T12:08:56.455Z</time>
      </trkpt>
      <trkpt lat="47.39869" lon="5.01744">
        <ele>288</ele>
        <time>2022-04-14T12:09:01.479Z</time>
      </trkpt>
      <trkpt lat="47.39867" lon="5.01734">
        <ele>287</ele>
        <time>2022-04-14T12:09:06.462Z</time>
      </trkpt>
      <trkpt lat="47.39865" lon="5.01725">
        <ele>287</ele>
        <time>2022-04-14T12:09:11.435Z</time>
      </trkpt>
      <trkpt lat="47.39864" lon="5.01715">
        <ele>287</ele>
        <time>2022-04-14T12:09:16.479Z</time>
      </trkpt>
      <trkpt lat="47.39862" lon="5.01707">
        <ele>288</ele>
        <time>2022-04-14T12:09:21.387Z</time>
      </trkpt>
      <trkpt lat="47.39861" lon="5.017">
        <ele>288</ele>
        <time>2022-04-14T12:09:25.419Z</time>
      </trkpt>
      <trkpt lat="47.39859" lon="5.01691">
        <ele>288</ele>
        <time>2022-04-14T12:09:30.412Z</time>
      </trkpt>
      <trkpt lat="47.39858" lon="5.01683">
        <ele>288</ele>
        <time>2022-04-14T12:09:35.401Z</time>
      </trkpt>
      <trkpt lat="47.39857" lon="5.01677">
        <ele>289</ele>
        <time>2022-04-14T12:09:39.408Z</time>
      </trkpt>
      <trkpt lat="47.39858" lon="5.01671">
        <ele>289</ele>
        <time>2022-04-14T12:09:44.404Z</time>
      </trkpt>
      <trkpt lat="47.39857" lon="5.01667">
        <ele>289</ele>
        <time>2022-04-14T12:09:49.393Z</time>
      </trkpt>
      <trkpt lat="47.39855" lon="5.01659">
        <ele>289</ele>
        <time>2022-04-14T12:09:54.419Z</time>
      </trkpt>
      <trkpt lat="47.39854" lon="5.0165">
        <ele>290</ele>
        <time>2022-04-14T12:09:59.444Z</time>
      </trkpt>
      <trkpt lat="47.39854" lon="5.01642">
        <ele>290</ele>
        <time>2022-04-14T12:10:04.465Z</time>
      </trkpt>
      <trkpt lat="47.39852" lon="5.01632">
        <ele>290</ele>
        <time>2022-04-14T12:10:09.482Z</time>
      </trkpt>
      <trkpt lat="47.39852" lon="5.01623">
        <ele>290</ele>
        <time>2022-04-14T12:10:14.476Z</time>
      </trkpt>
      <trkpt lat="47.39851" lon="5.01615">
        <ele>290</ele>
        <time>2022-04-14T12:10:19.463Z</time>
      </trkpt>
      <trkpt lat="47.3985" lon="5.01604">
        <ele>290</ele>
        <time>2022-04-14T12:10:24.480Z</time>
      </trkpt>
      <trkpt lat="47.3985" lon="5.01594">
        <ele>290</ele>
        <time>2022-04-14T12:10:29.410Z</time>
      </trkpt>
      <trkpt lat="47.39849" lon="5.01585">
        <ele>290</ele>
        <time>2022-04-14T12:10:33.466Z</time>
      </trkpt>
      <trkpt lat="47.3985" lon="5.01576">
        <ele>290</ele>
        <time>2022-04-14T12:10:38.408Z</time>
      </trkpt>
      <trkpt lat="47.3985" lon="5.01566">
        <ele>289</ele>
        <time>2022-04-14T12:10:43.396Z</time>
      </trkpt>
      <trkpt lat="47.3985" lon="5.01557">
        <ele>289</ele>
        <time>2022-04-14T12:10:48.385Z</time>
      </trkpt>
      <trkpt lat="47.39849" lon="5.01549">
        <ele>289</ele>
        <time>2022-04-14T12:10:53.441Z</time>
      </trkpt>
      <trkpt lat="47.39849" lon="5.01539">
        <ele>288</ele>
        <time>2022-04-14T12:10:58.450Z</time>
      </trkpt>
      <trkpt lat="47.39847" lon="5.01532">
        <ele>292</ele>
        <time>2022-04-14T12:11:03.502Z</time>
      </trkpt>
      <trkpt lat="47.39846" lon="5.01523">
        <ele>292</ele>
        <time>2022-04-14T12:11:08.500Z</time>
      </trkpt>
      <trkpt lat="47.39843" lon="5.01515">
        <ele>292</ele>
        <time>2022-04-14T12:11:13.431Z</time>
      </trkpt>
      <trkpt lat="47.39842" lon="5.01509">
        <ele>294</ele>
        <time>2022-04-14T12:11:17.467Z</time>
      </trkpt>
      <trkpt lat="47.3984" lon="5.01501">
        <ele>294</ele>
        <time>2022-04-14T12:11:22.403Z</time>
      </trkpt>
      <trkpt lat="47.3984" lon="5.01494">
        <ele>294</ele>
        <time>2022-04-14T12:11:26.458Z</time>
      </trkpt>
      <trkpt lat="47.39838" lon="5.01486">
        <ele>295</ele>
        <time>2022-04-14T12:11:31.485Z</time>
      </trkpt>
      <trkpt lat="47.39836" lon="5.01478">
        <ele>295</ele>
        <time>2022-04-14T12:11:36.399Z</time>
      </trkpt>
      <trkpt lat="47.39834" lon="5.01469">
        <ele>295</ele>
        <time>2022-04-14T12:11:41.397Z</time>
      </trkpt>
      <trkpt lat="47.39833" lon="5.0146">
        <ele>295</ele>
        <time>2022-04-14T12:11:46.414Z</time>
      </trkpt>
      <trkpt lat="47.39832" lon="5.01452">
        <ele>295</ele>
        <time>2022-04-14T12:11:51.397Z</time>
      </trkpt>
      <trkpt lat="47.39831" lon="5.01446">
        <ele>295</ele>
        <time>2022-04-14T12:11:55.433Z</time>
      </trkpt>
      <trkpt lat="47.3983" lon="5.01438">
        <ele>295</ele>
        <time>2022-04-14T12:11:59.458Z</time>
      </trkpt>
      <trkpt lat="47.39829" lon="5.01428">
        <ele>296</ele>
        <time>2022-04-14T12:12:04.427Z</time>
      </trkpt>
      <trkpt lat="47.39828" lon="5.0142">
        <ele>296</ele>
        <time>2022-04-14T12:12:09.425Z</time>
      </trkpt>
      <trkpt lat="47.39828" lon="5.01414">
        <ele>296</ele>
        <time>2022-04-14T12:12:13.432Z</time>
      </trkpt>
      <trkpt lat="47.39828" lon="5.01407">
        <ele>296</ele>
        <time>2022-04-14T12:12:17.494Z</time>
      </trkpt>
      <trkpt lat="47.39828" lon="5.01397">
        <ele>296</ele>
        <time>2022-04-14T12:12:22.435Z</time>
      </trkpt>
      <trkpt lat="47.39827" lon="5.01389">
        <ele>296</ele>
        <time>2022-04-14T12:12:27.411Z</time>
      </trkpt>
      <trkpt lat="47.39826" lon="5.01382">
        <ele>296</ele>
        <time>2022-04-14T12:12:32.384Z</time>
      </trkpt>
      <trkpt lat="47.39824" lon="5.01376">
        <ele>296</ele>
        <time>2022-04-14T12:12:36.403Z</time>
      </trkpt>
      <trkpt lat="47.39824" lon="5.01367">
        <ele>297</ele>
        <time>2022-04-14T12:12:41.409Z</time>
      </trkpt>
      <trkpt lat="47.39823" lon="5.01358">
        <ele>297</ele>
        <time>2022-04-14T12:12:46.387Z</time>
      </trkpt>
      <trkpt lat="47.39823" lon="5.01348">
        <ele>297</ele>
        <time>2022-04-14T12:12:51.393Z</time>
      </trkpt>
      <trkpt lat="47.39822" lon="5.0134">
        <ele>298</ele>
        <time>2022-04-14T12:12:56.410Z</time>
      </trkpt>
      <trkpt lat="47.39821" lon="5.01331">
        <ele>298</ele>
        <time>2022-04-14T12:13:01.475Z</time>
      </trkpt>
      <trkpt lat="47.3982" lon="5.01323">
        <ele>298</ele>
        <time>2022-04-14T12:13:06.458Z</time>
      </trkpt>
      <trkpt lat="47.3982" lon="5.01314">
        <ele>297</ele>
        <time>2022-04-14T12:13:11.452Z</time>
      </trkpt>
      <trkpt lat="47.39819" lon="5.01309">
        <ele>303</ele>
        <time>2022-04-14T12:13:15.491Z</time>
      </trkpt>
      <trkpt lat="47.39818" lon="5.01301">
        <ele>303</ele>
        <time>2022-04-14T12:13:20.471Z</time>
      </trkpt>
      <trkpt lat="47.39816" lon="5.01294">
        <ele>303</ele>
        <time>2022-04-14T12:13:25.458Z</time>
      </trkpt>
      <trkpt lat="47.39816" lon="5.01286">
        <ele>303</ele>
        <time>2022-04-14T12:13:30.395Z</time>
      </trkpt>
      <trkpt lat="47.39814" lon="5.01278">
        <ele>303</ele>
        <time>2022-04-14T12:13:34.469Z</time>
      </trkpt>
      <trkpt lat="47.39814" lon="5.0127">
        <ele>303</ele>
        <time>2022-04-14T12:13:39.461Z</time>
      </trkpt>
      <trkpt lat="47.39813" lon="5.01263">
        <ele>303</ele>
        <time>2022-04-14T12:13:44.392Z</time>
      </trkpt>
      <trkpt lat="47.39812" lon="5.01255">
        <ele>303</ele>
        <time>2022-04-14T12:13:49.405Z</time>
      </trkpt>
      <trkpt lat="47.39813" lon="5.01246">
        <ele>303</ele>
        <time>2022-04-14T12:13:54.397Z</time>
      </trkpt>
      <trkpt lat="47.39813" lon="5.01238">
        <ele>303</ele>
        <time>2022-04-14T12:13:59.401Z</time>
      </trkpt>
      <trkpt lat="47.39814" lon="5.01232">
        <ele>303</ele>
        <time>2022-04-14T12:14:03.471Z</time>
      </trkpt>
      <trkpt lat="47.39814" lon="5.01224">
        <ele>303</ele>
        <time>2022-04-14T12:14:08.482Z</time>
      </trkpt>
      <trkpt lat="47.39813" lon="5.01218">
        <ele>303</ele>
        <time>2022-04-14T12:14:13.471Z</time>
      </trkpt>
      <trkpt lat="47.39811" lon="5.01213">
        <ele>303</ele>
        <time>2022-04-14T12:14:18.444Z</time>
      </trkpt>
      <trkpt lat="47.39811" lon="5.01205">
        <ele>301</ele>
        <time>2022-04-14T12:14:23.466Z</time>
      </trkpt>
      <trkpt lat="47.39812" lon="5.01197">
        <ele>301</ele>
        <time>2022-04-14T12:14:28.421Z</time>
      </trkpt>
      <trkpt lat="47.39811" lon="5.01191">
        <ele>301</ele>
        <time>2022-04-14T12:14:32.462Z</time>
      </trkpt>
      <trkpt lat="47.39808" lon="5.01182">
        <ele>301</ele>
        <time>2022-04-14T12:14:37.393Z</time>
      </trkpt>
      <trkpt lat="47.39806" lon="5.01174">
        <ele>297</ele>
        <time>2022-04-14T12:14:42.400Z</time>
      </trkpt>
      <trkpt lat="47.39803" lon="5.01167">
        <ele>297</ele>
        <time>2022-04-14T12:14:46.453Z</time>
      </trkpt>
      <trkpt lat="47.39801" lon="5.01158">
        <ele>297</ele>
        <time>2022-04-14T12:14:51.450Z</time>
      </trkpt>
      <trkpt lat="47.39798" lon="5.0115">
        <ele>293</ele>
        <time>2022-04-14T12:14:56.471Z</time>
      </trkpt>
      <trkpt lat="47.39794" lon="5.01143">
        <ele>293</ele>
        <time>2022-04-14T12:15:01.386Z</time>
      </trkpt>
      <trkpt lat="47.39792" lon="5.01134">
        <ele>299</ele>
        <time>2022-04-14T12:15:06.394Z</time>
      </trkpt>
      <trkpt lat="47.39788" lon="5.01125">
        <ele>295</ele>
        <time>2022-04-14T12:15:11.394Z</time>
      </trkpt>
      <trkpt lat="47.39784" lon="5.01118">
        <ele>295</ele>
        <time>2022-04-14T12:15:16.394Z</time>
      </trkpt>
      <trkpt lat="47.39782" lon="5.01111">
        <ele>295</ele>
        <time>2022-04-14T12:15:20.468Z</time>
      </trkpt>
      <trkpt lat="47.39779" lon="5.01103">
        <ele>295</ele>
        <time>2022-04-14T12:15:25.465Z</time>
      </trkpt>
      <trkpt lat="47.39775" lon="5.01096">
        <ele>294</ele>
        <time>2022-04-14T12:15:30.429Z</time>
      </trkpt>
      <trkpt lat="47.39772" lon="5.0109">
        <ele>294</ele>
        <time>2022-04-14T12:15:34.472Z</time>
      </trkpt>
      <trkpt lat="47.39769" lon="5.01084">
        <ele>294</ele>
        <time>2022-04-14T12:15:39.473Z</time>
      </trkpt>
      <trkpt lat="47.39765" lon="5.01077">
        <ele>294</ele>
        <time>2022-04-14T12:15:44.421Z</time>
      </trkpt>
      <trkpt lat="47.39761" lon="5.01072">
        <ele>302</ele>
        <time>2022-04-14T12:15:49.477Z</time>
      </trkpt>
      <trkpt lat="47.39756" lon="5.01066">
        <ele>299</ele>
        <time>2022-04-14T12:15:54.429Z</time>
      </trkpt>
      <trkpt lat="47.39752" lon="5.01062">
        <ele>299</ele>
        <time>2022-04-14T12:15:59.461Z</time>
      </trkpt>
      <trkpt lat="47.3975" lon="5.01057">
        <ele>299</ele>
        <time>2022-04-14T12:16:04.398Z</time>
      </trkpt>
      <trkpt lat="47.39747" lon="5.01053">
        <ele>299</ele>
        <time>2022-04-14T12:16:08.442Z</time>
      </trkpt>
      <trkpt lat="47.39742" lon="5.01047">
        <ele>299</ele>
        <time>2022-04-14T12:16:13.405Z</time>
      </trkpt>
      <trkpt lat="47.39738" lon="5.01043">
        <ele>299</ele>
        <time>2022-04-14T12:16:18.400Z</time>
      </trkpt>
      <trkpt lat="47.39733" lon="5.01038">
        <ele>299</ele>
        <time>2022-04-14T12:16:23.405Z</time>
      </trkpt>
      <trkpt lat="47.39728" lon="5.01034">
        <ele>299</ele>
        <time>2022-04-14T12:16:27.432Z</time>
      </trkpt>
      <trkpt lat="47.39722" lon="5.01029">
        <ele>299</ele>
        <time>2022-04-14T12:16:32.424Z</time>
      </trkpt>
      <trkpt lat="47.39718" lon="5.01024">
        <ele>299</ele>
        <time>2022-04-14T12:16:36.474Z</time>
      </trkpt>
      <trkpt lat="47.39713" lon="5.01019">
        <ele>299</ele>
        <time>2022-04-14T12:16:41.406Z</time>
      </trkpt>
      <trkpt lat="47.39711" lon="5.01012">
        <ele>297</ele>
        <time>2022-04-14T12:16:46.425Z</time>
      </trkpt>
      <trkpt lat="47.39707" lon="5.01006">
        <ele>301</ele>
        <time>2022-04-14T12:16:50.455Z</time>
      </trkpt>
      <trkpt lat="47.39704" lon="5.01001">
        <ele>301</ele>
        <time>2022-04-14T12:16:55.464Z</time>
      </trkpt>
      <trkpt lat="47.397" lon="5.00994">
        <ele>301</ele>
        <time>2022-04-14T12:17:00.481Z</time>
      </trkpt>
      <trkpt lat="47.39698" lon="5.00988">
        <ele>301</ele>
        <time>2022-04-14T12:17:05.401Z</time>
      </trkpt>
      <trkpt lat="47.39695" lon="5.00981">
        <ele>300</ele>
        <time>2022-04-14T12:17:10.418Z</time>
      </trkpt>
      <trkpt lat="47.39691" lon="5.00971">
        <ele>300</ele>
        <time>2022-04-14T12:17:15.451Z</time>
      </trkpt>
      <trkpt lat="47.39687" lon="5.00964">
        <ele>300</ele>
        <time>2022-04-14T12:17:20.449Z</time>
      </trkpt>
      <trkpt lat="47.39684" lon="5.00958">
        <ele>300</ele>
        <time>2022-04-14T12:17:25.444Z</time>
      </trkpt>
      <trkpt lat="47.39681" lon="5.00954">
        <ele>300</ele>
        <time>2022-04-14T12:17:29.479Z</time>
      </trkpt>
      <trkpt lat="47.3968" lon="5.00946">
        <ele>306</ele>
        <time>2022-04-14T12:17:34.455Z</time>
      </trkpt>
      <trkpt lat="47.39678" lon="5.00939">
        <ele>306</ele>
        <time>2022-04-14T12:17:39.461Z</time>
      </trkpt>
      <trkpt lat="47.39675" lon="5.00931">
        <ele>306</ele>
        <time>2022-04-14T12:17:44.386Z</time>
      </trkpt>
      <trkpt lat="47.39675" lon="5.00925">
        <ele>307</ele>
        <time>2022-04-14T12:17:48.409Z</time>
      </trkpt>
      <trkpt lat="47.39673" lon="5.00918">
        <ele>307</ele>
        <time>2022-04-14T12:17:53.397Z</time>
      </trkpt>
      <trkpt lat="47.39671" lon="5.00909">
        <ele>307</ele>
        <time>2022-04-14T12:17:58.401Z</time>
      </trkpt>
      <trkpt lat="47.3967" lon="5.00903">
        <ele>308</ele>
        <time>2022-04-14T12:18:03.407Z</time>
      </trkpt>
      <trkpt lat="47.39669" lon="5.00894">
        <ele>308</ele>
        <time>2022-04-14T12:18:07.471Z</time>
      </trkpt>
      <trkpt lat="47.39668" lon="5.00884">
        <ele>308</ele>
        <time>2022-04-14T12:18:12.419Z</time>
      </trkpt>
      <trkpt lat="47.39667" lon="5.00876">
        <ele>308</ele>
        <time>2022-04-14T12:18:16.460Z</time>
      </trkpt>
      <trkpt lat="47.39667" lon="5.00869">
        <ele>308</ele>
        <time>2022-04-14T12:18:21.423Z</time>
      </trkpt>
      <trkpt lat="47.39665" lon="5.00863">
        <ele>308</ele>
        <time>2022-04-14T12:18:25.477Z</time>
      </trkpt>
      <trkpt lat="47.39661" lon="5.00855">
        <ele>308</ele>
        <time>2022-04-14T12:18:30.455Z</time>
      </trkpt>
      <trkpt lat="47.3966" lon="5.00846">
        <ele>307</ele>
        <time>2022-04-14T12:18:35.471Z</time>
      </trkpt>
      <trkpt lat="47.3966" lon="5.00838">
        <ele>307</ele>
        <time>2022-04-14T12:18:40.410Z</time>
      </trkpt>
      <trkpt lat="47.39657" lon="5.00829">
        <ele>307</ele>
        <time>2022-04-14T12:18:45.404Z</time>
      </trkpt>
      <trkpt lat="47.39657" lon="5.00822">
        <ele>307</ele>
        <time>2022-04-14T12:18:50.462Z</time>
      </trkpt>
      <trkpt lat="47.39656" lon="5.00818">
        <ele>305</ele>
        <time>2022-04-14T12:18:55.388Z</time>
      </trkpt>
      <trkpt lat="47.39656" lon="5.0081">
        <ele>305</ele>
        <time>2022-04-14T12:18:59.416Z</time>
      </trkpt>
      <trkpt lat="47.39654" lon="5.00802">
        <ele>305</ele>
        <time>2022-04-14T12:19:03.466Z</time>
      </trkpt>
      <trkpt lat="47.39654" lon="5.00796">
        <ele>305</ele>
        <time>2022-04-14T12:19:07.483Z</time>
      </trkpt>
      <trkpt lat="47.39654" lon="5.00788">
        <ele>305</ele>
        <time>2022-04-14T12:19:12.481Z</time>
      </trkpt>
      <trkpt lat="47.39652" lon="5.0078">
        <ele>307</ele>
        <time>2022-04-14T12:19:17.448Z</time>
      </trkpt>
      <trkpt lat="47.39651" lon="5.00775">
        <ele>307</ele>
        <time>2022-04-14T12:19:21.496Z</time>
      </trkpt>
      <trkpt lat="47.39648" lon="5.00766">
        <ele>307</ele>
        <time>2022-04-14T12:19:26.403Z</time>
      </trkpt>
      <trkpt lat="47.39645" lon="5.00759">
        <ele>305</ele>
        <time>2022-04-14T12:19:31.405Z</time>
      </trkpt>
      <trkpt lat="47.39642" lon="5.00752">
        <ele>305</ele>
        <time>2022-04-14T12:19:35.475Z</time>
      </trkpt>
      <trkpt lat="47.39639" lon="5.00747">
        <ele>305</ele>
        <time>2022-04-14T12:19:39.478Z</time>
      </trkpt>
      <trkpt lat="47.39635" lon="5.0074">
        <ele>305</ele>
        <time>2022-04-14T12:19:44.451Z</time>
      </trkpt>
      <trkpt lat="47.39631" lon="5.00735">
        <ele>306</ele>
        <time>2022-04-14T12:19:48.470Z</time>
      </trkpt>
      <trkpt lat="47.39627" lon="5.00729">
        <ele>306</ele>
        <time>2022-04-14T12:19:53.455Z</time>
      </trkpt>
      <trkpt lat="47.39624" lon="5.00723">
        <ele>309</ele>
        <time>2022-04-14T12:19:57.448Z</time>
      </trkpt>
      <trkpt lat="47.39621" lon="5.00716">
        <ele>309</ele>
        <time>2022-04-14T12:20:02.482Z</time>
      </trkpt>
      <trkpt lat="47.39616" lon="5.00709">
        <ele>309</ele>
        <time>2022-04-14T12:20:07.467Z</time>
      </trkpt>
      <trkpt lat="47.39613" lon="5.00702">
        <ele>309</ele>
        <time>2022-04-14T12:20:12.378Z</time>
      </trkpt>
      <trkpt lat="47.3961" lon="5.00696">
        <ele>309</ele>
        <time>2022-04-14T12:20:17.404Z</time>
      </trkpt>
      <trkpt lat="47.39606" lon="5.00691">
        <ele>309</ele>
        <time>2022-04-14T12:20:21.467Z</time>
      </trkpt>
      <trkpt lat="47.39603" lon="5.00683">
        <ele>309</ele>
        <time>2022-04-14T12:20:26.462Z</time>
      </trkpt>
      <trkpt lat="47.396" lon="5.00675">
        <ele>309</ele>
        <time>2022-04-14T12:20:31.395Z</time>
      </trkpt>
      <trkpt lat="47.39597" lon="5.0067">
        <ele>308</ele>
        <time>2022-04-14T12:20:35.443Z</time>
      </trkpt>
      <trkpt lat="47.39595" lon="5.00664">
        <ele>308</ele>
        <time>2022-04-14T12:20:40.403Z</time>
      </trkpt>
      <trkpt lat="47.39595" lon="5.00656">
        <ele>308</ele>
        <time>2022-04-14T12:20:44.453Z</time>
      </trkpt>
      <trkpt lat="47.39592" lon="5.00649">
        <ele>308</ele>
        <time>2022-04-14T12:20:49.408Z</time>
      </trkpt>
      <trkpt lat="47.3959" lon="5.0064">
        <ele>308</ele>
        <time>2022-04-14T12:20:54.401Z</time>
      </trkpt>
      <trkpt lat="47.39589" lon="5.00633">
        <ele>308</ele>
        <time>2022-04-14T12:20:59.407Z</time>
      </trkpt>
      <trkpt lat="47.39588" lon="5.00627">
        <ele>308</ele>
        <time>2022-04-14T12:21:03.486Z</time>
      </trkpt>
      <trkpt lat="47.39584" lon="5.0062">
        <ele>309</ele>
        <time>2022-04-14T12:21:08.485Z</time>
      </trkpt>
      <trkpt lat="47.39579" lon="5.00613">
        <ele>309</ele>
        <time>2022-04-14T12:21:13.480Z</time>
      </trkpt>
      <trkpt lat="47.39576" lon="5.00605">
        <ele>309</ele>
        <time>2022-04-14T12:21:18.447Z</time>
      </trkpt>
      <trkpt lat="47.39573" lon="5.00594">
        <ele>310</ele>
        <time>2022-04-14T12:21:23.444Z</time>
      </trkpt>
      <trkpt lat="47.3957" lon="5.00586">
        <ele>310</ele>
        <time>2022-04-14T12:21:28.428Z</time>
      </trkpt>
      <trkpt lat="47.39568" lon="5.00582">
        <ele>309</ele>
        <time>2022-04-14T12:21:32.456Z</time>
      </trkpt>
      <trkpt lat="47.39565" lon="5.00572">
        <ele>309</ele>
        <time>2022-04-14T12:21:37.491Z</time>
      </trkpt>
      <trkpt lat="47.39563" lon="5.00564">
        <ele>309</ele>
        <time>2022-04-14T12:21:41.458Z</time>
      </trkpt>
      <trkpt lat="47.3956" lon="5.00555">
        <ele>309</ele>
        <time>2022-04-14T12:21:46.486Z</time>
      </trkpt>
      <trkpt lat="47.3956" lon="5.00549">
        <ele>309</ele>
        <time>2022-04-14T12:21:51.479Z</time>
      </trkpt>
      <trkpt lat="47.39559" lon="5.00543">
        <ele>309</ele>
        <time>2022-04-14T12:21:55.471Z</time>
      </trkpt>
      <trkpt lat="47.39555" lon="5.00536">
        <ele>310</ele>
        <time>2022-04-14T12:22:00.466Z</time>
      </trkpt>
      <trkpt lat="47.39552" lon="5.00527">
        <ele>310</ele>
        <time>2022-04-14T12:22:05.490Z</time>
      </trkpt>
      <trkpt lat="47.3955" lon="5.0052">
        <ele>310</ele>
        <time>2022-04-14T12:22:10.480Z</time>
      </trkpt>
      <trkpt lat="47.39547" lon="5.00515">
        <ele>310</ele>
        <time>2022-04-14T12:22:14.501Z</time>
      </trkpt>
      <trkpt lat="47.39544" lon="5.00506">
        <ele>312</ele>
        <time>2022-04-14T12:22:19.437Z</time>
      </trkpt>
      <trkpt lat="47.39542" lon="5.00496">
        <ele>309</ele>
        <time>2022-04-14T12:22:24.452Z</time>
      </trkpt>
      <trkpt lat="47.39538" lon="5.00489">
        <ele>309</ele>
        <time>2022-04-14T12:22:29.398Z</time>
      </trkpt>
      <trkpt lat="47.39536" lon="5.00482">
        <ele>308</ele>
        <time>2022-04-14T12:22:34.373Z</time>
      </trkpt>
      <trkpt lat="47.39534" lon="5.00476">
        <ele>308</ele>
        <time>2022-04-14T12:22:38.429Z</time>
      </trkpt>
      <trkpt lat="47.39532" lon="5.00469">
        <ele>308</ele>
        <time>2022-04-14T12:22:43.414Z</time>
      </trkpt>
      <trkpt lat="47.39529" lon="5.00464">
        <ele>308</ele>
        <time>2022-04-14T12:22:47.480Z</time>
      </trkpt>
      <trkpt lat="47.39526" lon="5.00458">
        <ele>310</ele>
        <time>2022-04-14T12:22:52.480Z</time>
      </trkpt>
      <trkpt lat="47.39523" lon="5.00451">
        <ele>310</ele>
        <time>2022-04-14T12:22:57.433Z</time>
      </trkpt>
      <trkpt lat="47.39518" lon="5.00444">
        <ele>310</ele>
        <time>2022-04-14T12:23:02.441Z</time>
      </trkpt>
      <trkpt lat="47.39514" lon="5.00436">
        <ele>310</ele>
        <time>2022-04-14T12:23:07.400Z</time>
      </trkpt>
      <trkpt lat="47.39513" lon="5.00434">
        <ele>308</ele>
        <time>2022-04-14T12:23:11.439Z</time>
      </trkpt>
      <trkpt lat="47.39509" lon="5.00425">
        <ele>309</ele>
        <time>2022-04-14T12:23:16.400Z</time>
      </trkpt>
      <trkpt lat="47.39504" lon="5.00418">
        <ele>309</ele>
        <time>2022-04-14T12:23:20.443Z</time>
      </trkpt>
      <trkpt lat="47.395" lon="5.00411">
        <ele>309</ele>
        <time>2022-04-14T12:23:25.442Z</time>
      </trkpt>
      <trkpt lat="47.39496" lon="5.00404">
        <ele>309</ele>
        <time>2022-04-14T12:23:30.413Z</time>
      </trkpt>
      <trkpt lat="47.39489" lon="5.00397">
        <ele>312</ele>
        <time>2022-04-14T12:23:35.445Z</time>
      </trkpt>
      <trkpt lat="47.39484" lon="5.0039">
        <ele>310</ele>
        <time>2022-04-14T12:23:40.438Z</time>
      </trkpt>
      <trkpt lat="47.39482" lon="5.00386">
        <ele>310</ele>
        <time>2022-04-14T12:23:44.437Z</time>
      </trkpt>
      <trkpt lat="47.3948" lon="5.00382">
        <ele>310</ele>
        <time>2022-04-14T12:23:49.436Z</time>
      </trkpt>
      <trkpt lat="47.39475" lon="5.0038">
        <ele>310</ele>
        <time>2022-04-14T12:23:54.442Z</time>
      </trkpt>
      <trkpt lat="47.39469" lon="5.00375">
        <ele>310</ele>
        <time>2022-04-14T12:23:59.412Z</time>
      </trkpt>
      <trkpt lat="47.39468" lon="5.00375">
        <ele>312</ele>
        <time>2022-04-14T12:24:04.435Z</time>
      </trkpt>
      <trkpt lat="47.39463" lon="5.0037">
        <ele>312</ele>
        <time>2022-04-14T12:24:09.446Z</time>
      </trkpt>
      <trkpt lat="47.39456" lon="5.00366">
        <ele>311</ele>
        <time>2022-04-14T12:24:14.423Z</time>
      </trkpt>
      <trkpt lat="47.39451" lon="5.00361">
        <ele>311</ele>
        <time>2022-04-14T12:24:19.454Z</time>
      </trkpt>
      <trkpt lat="47.39446" lon="5.00359">
        <ele>311</ele>
        <time>2022-04-14T12:24:24.445Z</time>
      </trkpt>
      <trkpt lat="47.39443" lon="5.00358">
        <ele>311</ele>
        <time>2022-04-14T12:24:29.449Z</time>
      </trkpt>
      <trkpt lat="47.39436" lon="5.00355">
        <ele>311</ele>
        <time>2022-04-14T12:24:34.426Z</time>
      </trkpt>
      <trkpt lat="47.39431" lon="5.00355">
        <ele>312</ele>
        <time>2022-04-14T12:24:38.442Z</time>
      </trkpt>
      <trkpt lat="47.39424" lon="5.00354">
        <ele>312</ele>
        <time>2022-04-14T12:24:43.447Z</time>
      </trkpt>
      <trkpt lat="47.39419" lon="5.00354">
        <ele>312</ele>
        <time>2022-04-14T12:24:47.463Z</time>
      </trkpt>
      <trkpt lat="47.39414" lon="5.00351">
        <ele>312</ele>
        <time>2022-04-14T12:24:52.421Z</time>
      </trkpt>
      <trkpt lat="47.39408" lon="5.00348">
        <ele>312</ele>
        <time>2022-04-14T12:24:57.412Z</time>
      </trkpt>
      <trkpt lat="47.394" lon="5.00345">
        <ele>313</ele>
        <time>2022-04-14T12:25:02.423Z</time>
      </trkpt>
      <trkpt lat="47.39394" lon="5.00341">
        <ele>313</ele>
        <time>2022-04-14T12:25:07.432Z</time>
      </trkpt>
      <trkpt lat="47.3939" lon="5.00338">
        <ele>313</ele>
        <time>2022-04-14T12:25:11.457Z</time>
      </trkpt>
      <trkpt lat="47.39387" lon="5.0033">
        <ele>313</ele>
        <time>2022-04-14T12:25:16.409Z</time>
      </trkpt>
      <trkpt lat="47.39383" lon="5.00327">
        <ele>313</ele>
        <time>2022-04-14T12:25:20.443Z</time>
      </trkpt>
      <trkpt lat="47.39381" lon="5.00325">
        <ele>313</ele>
        <time>2022-04-14T12:25:25.432Z</time>
      </trkpt>
      <trkpt lat="47.39375" lon="5.0032">
        <ele>313</ele>
        <time>2022-04-14T12:25:30.435Z</time>
      </trkpt>
      <trkpt lat="47.3937" lon="5.00317">
        <ele>314</ele>
        <time>2022-04-14T12:25:34.447Z</time>
      </trkpt>
      <trkpt lat="47.39365" lon="5.00311">
        <ele>314</ele>
        <time>2022-04-14T12:25:39.441Z</time>
      </trkpt>
      <trkpt lat="47.39361" lon="5.00308">
        <ele>314</ele>
        <time>2022-04-14T12:25:44.424Z</time>
      </trkpt>
      <trkpt lat="47.39356" lon="5.00305">
        <ele>314</ele>
        <time>2022-04-14T12:25:48.441Z</time>
      </trkpt>
      <trkpt lat="47.39352" lon="5.00299">
        <ele>314</ele>
        <time>2022-04-14T12:25:53.451Z</time>
      </trkpt>
      <trkpt lat="47.39346" lon="5.00294">
        <ele>314</ele>
        <time>2022-04-14T12:25:58.431Z</time>
      </trkpt>
      <trkpt lat="47.3934" lon="5.00287">
        <ele>314</ele>
        <time>2022-04-14T12:26:03.438Z</time>
      </trkpt>
      <trkpt lat="47.39337" lon="5.00283">
        <ele>314</ele>
        <time>2022-04-14T12:26:07.449Z</time>
      </trkpt>
      <trkpt lat="47.39332" lon="5.00279">
        <ele>314</ele>
        <time>2022-04-14T12:26:12.417Z</time>
      </trkpt>
      <trkpt lat="47.39329" lon="5.00275">
        <ele>314</ele>
        <time>2022-04-14T12:26:16.425Z</time>
      </trkpt>
      <trkpt lat="47.39324" lon="5.00271">
        <ele>314</ele>
        <time>2022-04-14T12:26:20.462Z</time>
      </trkpt>
      <trkpt lat="47.3932" lon="5.00262">
        <ele>316</ele>
        <time>2022-04-14T12:26:25.454Z</time>
      </trkpt>
      <trkpt lat="47.39317" lon="5.00253">
        <ele>315</ele>
        <time>2022-04-14T12:26:30.395Z</time>
      </trkpt>
      <trkpt lat="47.39314" lon="5.00246">
        <ele>315</ele>
        <time>2022-04-14T12:26:34.419Z</time>
      </trkpt>
      <trkpt lat="47.3931" lon="5.0024">
        <ele>315</ele>
        <time>2022-04-14T12:26:38.447Z</time>
      </trkpt>
      <trkpt lat="47.39306" lon="5.00235">
        <ele>315</ele>
        <time>2022-04-14T12:26:43.431Z</time>
      </trkpt>
      <trkpt lat="47.39303" lon="5.00231">
        <ele>315</ele>
        <time>2022-04-14T12:26:48.453Z</time>
      </trkpt>
      <trkpt lat="47.39298" lon="5.00225">
        <ele>315</ele>
        <time>2022-04-14T12:26:53.437Z</time>
      </trkpt>
      <trkpt lat="47.39295" lon="5.00221">
        <ele>315</ele>
        <time>2022-04-14T12:26:57.470Z</time>
      </trkpt>
      <trkpt lat="47.3929" lon="5.00216">
        <ele>316</ele>
        <time>2022-04-14T12:27:02.447Z</time>
      </trkpt>
      <trkpt lat="47.39286" lon="5.00208">
        <ele>316</ele>
        <time>2022-04-14T12:27:07.383Z</time>
      </trkpt>
      <trkpt lat="47.39282" lon="5.002">
        <ele>316</ele>
        <time>2022-04-14T12:27:12.449Z</time>
      </trkpt>
      <trkpt lat="47.3928" lon="5.00196">
        <ele>316</ele>
        <time>2022-04-14T12:27:16.452Z</time>
      </trkpt>
      <trkpt lat="47.39275" lon="5.00189">
        <ele>316</ele>
        <time>2022-04-14T12:27:21.435Z</time>
      </trkpt>
      <trkpt lat="47.39271" lon="5.00184">
        <ele>316</ele>
        <time>2022-04-14T12:27:25.460Z</time>
      </trkpt>
      <trkpt lat="47.39268" lon="5.00179">
        <ele>316</ele>
        <time>2022-04-14T12:27:30.432Z</time>
      </trkpt>
      <trkpt lat="47.39265" lon="5.00171">
        <ele>316</ele>
        <time>2022-04-14T12:27:35.429Z</time>
      </trkpt>
      <trkpt lat="47.39261" lon="5.00164">
        <ele>317</ele>
        <time>2022-04-14T12:27:40.454Z</time>
      </trkpt>
      <trkpt lat="47.39257" lon="5.00159">
        <ele>317</ele>
        <time>2022-04-14T12:27:45.420Z</time>
      </trkpt>
      <trkpt lat="47.39253" lon="5.00153">
        <ele>317</ele>
        <time>2022-04-14T12:27:50.423Z</time>
      </trkpt>
      <trkpt lat="47.3925" lon="5.00145">
        <ele>317</ele>
        <time>2022-04-14T12:27:55.451Z</time>
      </trkpt>
      <trkpt lat="47.39247" lon="5.00138">
        <ele>317</ele>
        <time>2022-04-14T12:28:00.433Z</time>
      </trkpt>
      <trkpt lat="47.39242" lon="5.00132">
        <ele>317</ele>
        <time>2022-04-14T12:28:05.440Z</time>
      </trkpt>
      <trkpt lat="47.3924" lon="5.00126">
        <ele>317</ele>
        <time>2022-04-14T12:28:10.457Z</time>
      </trkpt>
      <trkpt lat="47.39238" lon="5.00116">
        <ele>318</ele>
        <time>2022-04-14T12:28:15.455Z</time>
      </trkpt>
      <trkpt lat="47.39234" lon="5.0011">
        <ele>319</ele>
        <time>2022-04-14T12:28:20.425Z</time>
      </trkpt>
      <trkpt lat="47.3923" lon="5.00103">
        <ele>319</ele>
        <time>2022-04-14T12:28:25.451Z</time>
      </trkpt>
      <trkpt lat="47.39226" lon="5.00096">
        <ele>318</ele>
        <time>2022-04-14T12:28:30.440Z</time>
      </trkpt>
      <trkpt lat="47.3922" lon="5.0009">
        <ele>318</ele>
        <time>2022-04-14T12:28:35.409Z</time>
      </trkpt>
      <trkpt lat="47.39216" lon="5.00083">
        <ele>318</ele>
        <time>2022-04-14T12:28:40.384Z</time>
      </trkpt>
      <trkpt lat="47.39214" lon="5.00077">
        <ele>318</ele>
        <time>2022-04-14T12:28:44.419Z</time>
      </trkpt>
      <trkpt lat="47.39211" lon="5.00069">
        <ele>319</ele>
        <time>2022-04-14T12:28:49.455Z</time>
      </trkpt>
      <trkpt lat="47.39208" lon="5.00064">
        <ele>320</ele>
        <time>2022-04-14T12:28:54.430Z</time>
      </trkpt>
      <trkpt lat="47.39206" lon="5.00057">
        <ele>320</ele>
        <time>2022-04-14T12:28:59.430Z</time>
      </trkpt>
      <trkpt lat="47.39206" lon="5.00049">
        <ele>320</ele>
        <time>2022-04-14T12:29:04.428Z</time>
      </trkpt>
      <trkpt lat="47.39202" lon="5.00042">
        <ele>319</ele>
        <time>2022-04-14T12:29:09.419Z</time>
      </trkpt>
      <trkpt lat="47.392" lon="5.00035">
        <ele>319</ele>
        <time>2022-04-14T12:29:14.437Z</time>
      </trkpt>
      <trkpt lat="47.39197" lon="5.00028">
        <ele>319</ele>
        <time>2022-04-14T12:29:19.427Z</time>
      </trkpt>
      <trkpt lat="47.39197" lon="5.0002">
        <ele>319</ele>
        <time>2022-04-14T12:29:24.402Z</time>
      </trkpt>
      <trkpt lat="47.39195" lon="5.00012">
        <ele>321</ele>
        <time>2022-04-14T12:29:29.395Z</time>
      </trkpt>
      <trkpt lat="47.39196" lon="5.00004">
        <ele>321</ele>
        <time>2022-04-14T12:29:33.443Z</time>
      </trkpt>
      <trkpt lat="47.39195" lon="4.99997">
        <ele>321</ele>
        <time>2022-04-14T12:29:38.409Z</time>
      </trkpt>
      <trkpt lat="47.39192" lon="4.99989">
        <ele>321</ele>
        <time>2022-04-14T12:29:42.459Z</time>
      </trkpt>
      <trkpt lat="47.39192" lon="4.9998">
        <ele>321</ele>
        <time>2022-04-14T12:29:47.431Z</time>
      </trkpt>
      <trkpt lat="47.39191" lon="4.9997">
        <ele>321</ele>
        <time>2022-04-14T12:29:52.390Z</time>
      </trkpt>
      <trkpt lat="47.39191" lon="4.99964">
        <ele>321</ele>
        <time>2022-04-14T12:29:56.430Z</time>
      </trkpt>
      <trkpt lat="47.3919" lon="4.99958">
        <ele>321</ele>
        <time>2022-04-14T12:30:00.457Z</time>
      </trkpt>
      <trkpt lat="47.39188" lon="4.99951">
        <ele>321</ele>
        <time>2022-04-14T12:30:05.429Z</time>
      </trkpt>
      <trkpt lat="47.39189" lon="4.99941">
        <ele>321</ele>
        <time>2022-04-14T12:30:10.408Z</time>
      </trkpt>
      <trkpt lat="47.39187" lon="4.99935">
        <ele>321</ele>
        <time>2022-04-14T12:30:15.425Z</time>
      </trkpt>
      <trkpt lat="47.39185" lon="4.99931">
        <ele>321</ele>
        <time>2022-04-14T12:30:19.475Z</time>
      </trkpt>
      <trkpt lat="47.39183" lon="4.99922">
        <ele>320</ele>
        <time>2022-04-14T12:30:24.396Z</time>
      </trkpt>
      <trkpt lat="47.39181" lon="4.99915">
        <ele>320</ele>
        <time>2022-04-14T12:30:28.417Z</time>
      </trkpt>
      <trkpt lat="47.39179" lon="4.99908">
        <ele>321</ele>
        <time>2022-04-14T12:30:32.467Z</time>
      </trkpt>
      <trkpt lat="47.39178" lon="4.99897">
        <ele>320</ele>
        <time>2022-04-14T12:30:37.436Z</time>
      </trkpt>
      <trkpt lat="47.39176" lon="4.9989">
        <ele>320</ele>
        <time>2022-04-14T12:30:41.450Z</time>
      </trkpt>
      <trkpt lat="47.39173" lon="4.99883">
        <ele>320</ele>
        <time>2022-04-14T12:30:46.434Z</time>
      </trkpt>
      <trkpt lat="47.39173" lon="4.99875">
        <ele>321</ele>
        <time>2022-04-14T12:30:50.460Z</time>
      </trkpt>
      <trkpt lat="47.39169" lon="4.99867">
        <ele>321</ele>
        <time>2022-04-14T12:30:55.472Z</time>
      </trkpt>
      <trkpt lat="47.39166" lon="4.99858">
        <ele>321</ele>
        <time>2022-04-14T12:31:00.430Z</time>
      </trkpt>
      <trkpt lat="47.39162" lon="4.9985">
        <ele>321</ele>
        <time>2022-04-14T12:31:05.442Z</time>
      </trkpt>
      <trkpt lat="47.39158" lon="4.99843">
        <ele>323</ele>
        <time>2022-04-14T12:31:10.407Z</time>
      </trkpt>
      <trkpt lat="47.39155" lon="4.99838">
        <ele>323</ele>
        <time>2022-04-14T12:31:14.427Z</time>
      </trkpt>
      <trkpt lat="47.3915" lon="4.99832">
        <ele>323</ele>
        <time>2022-04-14T12:31:19.393Z</time>
      </trkpt>
      <trkpt lat="47.39144" lon="4.99828">
        <ele>323</ele>
        <time>2022-04-14T12:31:24.417Z</time>
      </trkpt>
      <trkpt lat="47.3914" lon="4.99823">
        <ele>323</ele>
        <time>2022-04-14T12:31:29.443Z</time>
      </trkpt>
      <trkpt lat="47.39135" lon="4.99819">
        <ele>324</ele>
        <time>2022-04-14T12:31:34.436Z</time>
      </trkpt>
      <trkpt lat="47.3913" lon="4.99815">
        <ele>324</ele>
        <time>2022-04-14T12:31:38.439Z</time>
      </trkpt>
      <trkpt lat="47.39127" lon="4.99808">
        <ele>324</ele>
        <time>2022-04-14T12:31:43.446Z</time>
      </trkpt>
      <trkpt lat="47.39121" lon="4.99803">
        <ele>324</ele>
        <time>2022-04-14T12:31:48.417Z</time>
      </trkpt>
      <trkpt lat="47.39115" lon="4.99799">
        <ele>324</ele>
        <time>2022-04-14T12:31:53.396Z</time>
      </trkpt>
      <trkpt lat="47.3911" lon="4.99796">
        <ele>324</ele>
        <time>2022-04-14T12:31:58.401Z</time>
      </trkpt>
      <trkpt lat="47.39106" lon="4.99791">
        <ele>324</ele>
        <time>2022-04-14T12:32:03.404Z</time>
      </trkpt>
      <trkpt lat="47.39102" lon="4.99782">
        <ele>324</ele>
        <time>2022-04-14T12:32:08.406Z</time>
      </trkpt>
      <trkpt lat="47.39097" lon="4.99779">
        <ele>324</ele>
        <time>2022-04-14T12:32:13.418Z</time>
      </trkpt>
      <trkpt lat="47.39091" lon="4.99776">
        <ele>324</ele>
        <time>2022-04-14T12:32:18.400Z</time>
      </trkpt>
      <trkpt lat="47.39087" lon="4.99771">
        <ele>324</ele>
        <time>2022-04-14T12:32:23.404Z</time>
      </trkpt>
      <trkpt lat="47.3908" lon="4.99768">
        <ele>324</ele>
        <time>2022-04-14T12:32:28.421Z</time>
      </trkpt>
      <trkpt lat="47.39074" lon="4.99764">
        <ele>324</ele>
        <time>2022-04-14T12:32:33.375Z</time>
      </trkpt>
      <trkpt lat="47.3907" lon="4.9976">
        <ele>324</ele>
        <time>2022-04-14T12:32:37.431Z</time>
      </trkpt>
      <trkpt lat="47.39066" lon="4.99756">
        <ele>326</ele>
        <time>2022-04-14T12:32:41.437Z</time>
      </trkpt>
      <trkpt lat="47.39062" lon="4.9975">
        <ele>326</ele>
        <time>2022-04-14T12:32:46.456Z</time>
      </trkpt>
      <trkpt lat="47.39056" lon="4.99746">
        <ele>326</ele>
        <time>2022-04-14T12:32:51.461Z</time>
      </trkpt>
      <trkpt lat="47.39052" lon="4.99743">
        <ele>326</ele>
        <time>2022-04-14T12:32:56.429Z</time>
      </trkpt>
      <trkpt lat="47.3905" lon="4.9974">
        <ele>326</ele>
        <time>2022-04-14T12:33:01.408Z</time>
      </trkpt>
      <trkpt lat="47.39048" lon="4.99737">
        <ele>326</ele>
        <time>2022-04-14T12:33:05.452Z</time>
      </trkpt>
      <trkpt lat="47.39048" lon="4.99732">
        <ele>326</ele>
        <time>2022-04-14T12:33:10.487Z</time>
      </trkpt>
      <trkpt lat="47.39045" lon="4.99728">
        <ele>326</ele>
        <time>2022-04-14T12:33:15.475Z</time>
      </trkpt>
      <trkpt lat="47.39038" lon="4.99726">
        <ele>326</ele>
        <time>2022-04-14T12:33:20.446Z</time>
      </trkpt>
      <trkpt lat="47.39033" lon="4.99719">
        <ele>326</ele>
        <time>2022-04-14T12:33:25.444Z</time>
      </trkpt>
      <trkpt lat="47.39023" lon="4.99713">
        <ele>326</ele>
        <time>2022-04-14T12:33:45.399Z</time>
      </trkpt>
      <trkpt lat="47.3902" lon="4.99715">
        <ele>326</ele>
        <time>2022-04-14T12:34:09.403Z</time>
      </trkpt>
      <trkpt lat="47.3902" lon="4.99714">
        <ele>326</ele>
        <time>2022-04-14T12:34:14.400Z</time>
      </trkpt>
      <trkpt lat="47.3902" lon="4.99715">
        <ele>326</ele>
        <time>2022-04-14T12:34:19.404Z</time>
      </trkpt>
      <trkpt lat="47.39019" lon="4.99715">
        <ele>326</ele>
        <time>2022-04-14T12:34:23.431Z</time>
      </trkpt>
      <trkpt lat="47.39015" lon="4.99715">
        <ele>326</ele>
        <time>2022-04-14T12:37:50.429Z</time>
      </trkpt>
      <trkpt lat="47.39014" lon="4.99715">
        <ele>326</ele>
        <time>2022-04-14T12:38:32.435Z</time>
      </trkpt>
      <trkpt lat="47.39014" lon="4.99716">
        <ele>328</ele>
        <time>2022-04-14T12:39:09.407Z</time>
      </trkpt>
      <trkpt lat="47.39011" lon="4.99715">
        <ele>328</ele>
        <time>2022-04-14T12:39:23.445Z</time>
      </trkpt>
      <trkpt lat="47.39008" lon="4.99712">
        <ele>328</ele>
        <time>2022-04-14T12:39:28.406Z</time>
      </trkpt>
      <trkpt lat="47.39007" lon="4.99706">
        <ele>328</ele>
        <time>2022-04-14T12:39:33.393Z</time>
      </trkpt>
      <trkpt lat="47.39007" lon="4.99699">
        <ele>328</ele>
        <time>2022-04-14T12:39:38.394Z</time>
      </trkpt>
      <trkpt lat="47.39004" lon="4.99693">
        <ele>328</ele>
        <time>2022-04-14T12:39:42.436Z</time>
      </trkpt>
      <trkpt lat="47.39002" lon="4.99686">
        <ele>328</ele>
        <time>2022-04-14T12:39:46.447Z</time>
      </trkpt>
      <trkpt lat="47.38998" lon="4.99677">
        <ele>327</ele>
        <time>2022-04-14T12:39:51.464Z</time>
      </trkpt>
      <trkpt lat="47.38995" lon="4.9967">
        <ele>327</ele>
        <time>2022-04-14T12:39:56.460Z</time>
      </trkpt>
      <trkpt lat="47.38992" lon="4.99662">
        <ele>327</ele>
        <time>2022-04-14T12:40:01.454Z</time>
      </trkpt>
      <trkpt lat="47.3899" lon="4.99652">
        <ele>328</ele>
        <time>2022-04-14T12:40:06.408Z</time>
      </trkpt>
      <trkpt lat="47.38987" lon="4.99645">
        <ele>328</ele>
        <time>2022-04-14T12:40:11.402Z</time>
      </trkpt>
      <trkpt lat="47.38985" lon="4.99638">
        <ele>328</ele>
        <time>2022-04-14T12:40:16.391Z</time>
      </trkpt>
      <trkpt lat="47.38981" lon="4.99632">
        <ele>328</ele>
        <time>2022-04-14T12:40:20.404Z</time>
      </trkpt>
      <trkpt lat="47.38979" lon="4.99623">
        <ele>328</ele>
        <time>2022-04-14T12:40:25.392Z</time>
      </trkpt>
      <trkpt lat="47.38975" lon="4.99614">
        <ele>328</ele>
        <time>2022-04-14T12:40:30.393Z</time>
      </trkpt>
      <trkpt lat="47.38971" lon="4.99606">
        <ele>328</ele>
        <time>2022-04-14T12:40:35.401Z</time>
      </trkpt>
      <trkpt lat="47.38968" lon="4.99601">
        <ele>328</ele>
        <time>2022-04-14T12:40:40.392Z</time>
      </trkpt>
      <trkpt lat="47.38963" lon="4.99596">
        <ele>328</ele>
        <time>2022-04-14T12:40:45.433Z</time>
      </trkpt>
      <trkpt lat="47.38957" lon="4.99589">
        <ele>328</ele>
        <time>2022-04-14T12:40:50.471Z</time>
      </trkpt>
      <trkpt lat="47.38952" lon="4.99581">
        <ele>328</ele>
        <time>2022-04-14T12:40:55.458Z</time>
      </trkpt>
      <trkpt lat="47.3895" lon="4.99575">
        <ele>328</ele>
        <time>2022-04-14T12:41:00.435Z</time>
      </trkpt>
      <trkpt lat="47.38944" lon="4.99569">
        <ele>328</ele>
        <time>2022-04-14T12:41:05.428Z</time>
      </trkpt>
      <trkpt lat="47.38937" lon="4.99563">
        <ele>328</ele>
        <time>2022-04-14T12:41:10.415Z</time>
      </trkpt>
      <trkpt lat="47.38932" lon="4.99557">
        <ele>328</ele>
        <time>2022-04-14T12:41:15.391Z</time>
      </trkpt>
      <trkpt lat="47.38928" lon="4.9955">
        <ele>327</ele>
        <time>2022-04-14T12:41:20.401Z</time>
      </trkpt>
      <trkpt lat="47.38924" lon="4.99545">
        <ele>327</ele>
        <time>2022-04-14T12:41:25.393Z</time>
      </trkpt>
      <trkpt lat="47.3892" lon="4.99539">
        <ele>327</ele>
        <time>2022-04-14T12:41:30.373Z</time>
      </trkpt>
      <trkpt lat="47.38913" lon="4.99533">
        <ele>327</ele>
        <time>2022-04-14T12:41:35.399Z</time>
      </trkpt>
      <trkpt lat="47.38907" lon="4.99527">
        <ele>327</ele>
        <time>2022-04-14T12:41:40.406Z</time>
      </trkpt>
      <trkpt lat="47.38904" lon="4.99524">
        <ele>327</ele>
        <time>2022-04-14T12:41:44.375Z</time>
      </trkpt>
      <trkpt lat="47.38901" lon="4.99521">
        <ele>327</ele>
        <time>2022-04-14T12:41:49.375Z</time>
      </trkpt>
      <trkpt lat="47.389" lon="4.9952">
        <ele>327</ele>
        <time>2022-04-14T12:41:53.419Z</time>
      </trkpt>
      <trkpt lat="47.38896" lon="4.99518">
        <ele>327</ele>
        <time>2022-04-14T12:41:58.465Z</time>
      </trkpt>
      <trkpt lat="47.3889" lon="4.99517">
        <ele>327</ele>
        <time>2022-04-14T12:42:02.466Z</time>
      </trkpt>
      <trkpt lat="47.38884" lon="4.99514">
        <ele>327</ele>
        <time>2022-04-14T12:42:07.422Z</time>
      </trkpt>
      <trkpt lat="47.38878" lon="4.99511">
        <ele>327</ele>
        <time>2022-04-14T12:42:12.405Z</time>
      </trkpt>
      <trkpt lat="47.3887" lon="4.99508">
        <ele>328</ele>
        <time>2022-04-14T12:42:17.402Z</time>
      </trkpt>
      <trkpt lat="47.38863" lon="4.99506">
        <ele>328</ele>
        <time>2022-04-14T12:42:22.399Z</time>
      </trkpt>
      <trkpt lat="47.38858" lon="4.99501">
        <ele>328</ele>
        <time>2022-04-14T12:42:27.397Z</time>
      </trkpt>
      <trkpt lat="47.38853" lon="4.99497">
        <ele>328</ele>
        <time>2022-04-14T12:42:32.392Z</time>
      </trkpt>
      <trkpt lat="47.38848" lon="4.99496">
        <ele>328</ele>
        <time>2022-04-14T12:42:37.378Z</time>
      </trkpt>
      <trkpt lat="47.38843" lon="4.99495">
        <ele>332</ele>
        <time>2022-04-14T12:42:42.377Z</time>
      </trkpt>
      <trkpt lat="47.38838" lon="4.99492">
        <ele>332</ele>
        <time>2022-04-14T12:42:46.450Z</time>
      </trkpt>
      <trkpt lat="47.38832" lon="4.99492">
        <ele>332</ele>
        <time>2022-04-14T12:42:51.421Z</time>
      </trkpt>
      <trkpt lat="47.38828" lon="4.99487">
        <ele>332</ele>
        <time>2022-04-14T12:42:56.431Z</time>
      </trkpt>
      <trkpt lat="47.38824" lon="4.99483">
        <ele>331</ele>
        <time>2022-04-14T12:43:00.434Z</time>
      </trkpt>
      <trkpt lat="47.38818" lon="4.99477">
        <ele>332</ele>
        <time>2022-04-14T12:43:05.439Z</time>
      </trkpt>
      <trkpt lat="47.38811" lon="4.99474">
        <ele>332</ele>
        <time>2022-04-14T12:43:10.458Z</time>
      </trkpt>
      <trkpt lat="47.38807" lon="4.99472">
        <ele>332</ele>
        <time>2022-04-14T12:43:15.398Z</time>
      </trkpt>
      <trkpt lat="47.38803" lon="4.99468">
        <ele>332</ele>
        <time>2022-04-14T12:43:20.401Z</time>
      </trkpt>
      <trkpt lat="47.38799" lon="4.99465">
        <ele>332</ele>
        <time>2022-04-14T12:43:25.402Z</time>
      </trkpt>
      <trkpt lat="47.38793" lon="4.99459">
        <ele>332</ele>
        <time>2022-04-14T12:43:30.391Z</time>
      </trkpt>
      <trkpt lat="47.38791" lon="4.99459">
        <ele>335</ele>
        <time>2022-04-14T12:43:34.433Z</time>
      </trkpt>
      <trkpt lat="47.38786" lon="4.99453">
        <ele>333</ele>
        <time>2022-04-14T12:43:39.425Z</time>
      </trkpt>
      <trkpt lat="47.38783" lon="4.9945">
        <ele>333</ele>
        <time>2022-04-14T12:43:44.433Z</time>
      </trkpt>
      <trkpt lat="47.38779" lon="4.99445">
        <ele>333</ele>
        <time>2022-04-14T12:43:49.400Z</time>
      </trkpt>
      <trkpt lat="47.38774" lon="4.9944">
        <ele>333</ele>
        <time>2022-04-14T12:43:54.413Z</time>
      </trkpt>
      <trkpt lat="47.38769" lon="4.99435">
        <ele>333</ele>
        <time>2022-04-14T12:43:59.455Z</time>
      </trkpt>
      <trkpt lat="47.38762" lon="4.99431">
        <ele>338</ele>
        <time>2022-04-14T12:44:04.396Z</time>
      </trkpt>
      <trkpt lat="47.38757" lon="4.99427">
        <ele>335</ele>
        <time>2022-04-14T12:44:09.391Z</time>
      </trkpt>
      <trkpt lat="47.38752" lon="4.9942">
        <ele>335</ele>
        <time>2022-04-14T12:44:14.404Z</time>
      </trkpt>
      <trkpt lat="47.38748" lon="4.99412">
        <ele>335</ele>
        <time>2022-04-14T12:44:19.397Z</time>
      </trkpt>
      <trkpt lat="47.38744" lon="4.99404">
        <ele>335</ele>
        <time>2022-04-14T12:44:24.404Z</time>
      </trkpt>
      <trkpt lat="47.38742" lon="4.99398">
        <ele>334</ele>
        <time>2022-04-14T12:44:28.406Z</time>
      </trkpt>
      <trkpt lat="47.38737" lon="4.99392">
        <ele>334</ele>
        <time>2022-04-14T12:44:33.450Z</time>
      </trkpt>
      <trkpt lat="47.38732" lon="4.99386">
        <ele>338</ele>
        <time>2022-04-14T12:44:38.449Z</time>
      </trkpt>
      <trkpt lat="47.38728" lon="4.99379">
        <ele>338</ele>
        <time>2022-04-14T12:44:43.487Z</time>
      </trkpt>
      <trkpt lat="47.38725" lon="4.9937">
        <ele>336</ele>
        <time>2022-04-14T12:44:48.416Z</time>
      </trkpt>
      <trkpt lat="47.3872" lon="4.99362">
        <ele>336</ele>
        <time>2022-04-14T12:44:53.382Z</time>
      </trkpt>
      <trkpt lat="47.38717" lon="4.99356">
        <ele>336</ele>
        <time>2022-04-14T12:44:57.443Z</time>
      </trkpt>
      <trkpt lat="47.38713" lon="4.99348">
        <ele>336</ele>
        <time>2022-04-14T12:45:02.447Z</time>
      </trkpt>
      <trkpt lat="47.38712" lon="4.99339">
        <ele>336</ele>
        <time>2022-04-14T12:45:07.392Z</time>
      </trkpt>
      <trkpt lat="47.38709" lon="4.99334">
        <ele>336</ele>
        <time>2022-04-14T12:45:11.427Z</time>
      </trkpt>
      <trkpt lat="47.38707" lon="4.99327">
        <ele>338</ele>
        <time>2022-04-14T12:45:15.441Z</time>
      </trkpt>
      <trkpt lat="47.38704" lon="4.99319">
        <ele>336</ele>
        <time>2022-04-14T12:45:20.444Z</time>
      </trkpt>
      <trkpt lat="47.38701" lon="4.99314">
        <ele>336</ele>
        <time>2022-04-14T12:45:25.427Z</time>
      </trkpt>
      <trkpt lat="47.38698" lon="4.99308">
        <ele>336</ele>
        <time>2022-04-14T12:45:30.425Z</time>
      </trkpt>
      <trkpt lat="47.38695" lon="4.99299">
        <ele>336</ele>
        <time>2022-04-14T12:45:35.434Z</time>
      </trkpt>
      <trkpt lat="47.38692" lon="4.99292">
        <ele>336</ele>
        <time>2022-04-14T12:45:39.467Z</time>
      </trkpt>
      <trkpt lat="47.38688" lon="4.99284">
        <ele>336</ele>
        <time>2022-04-14T12:45:44.433Z</time>
      </trkpt>
      <trkpt lat="47.38683" lon="4.99277">
        <ele>336</ele>
        <time>2022-04-14T12:45:49.422Z</time>
      </trkpt>
      <trkpt lat="47.38681" lon="4.99268">
        <ele>335</ele>
        <time>2022-04-14T12:45:54.418Z</time>
      </trkpt>
      <trkpt lat="47.3868" lon="4.99263">
        <ele>334</ele>
        <time>2022-04-14T12:45:58.468Z</time>
      </trkpt>
      <trkpt lat="47.38676" lon="4.99253">
        <ele>334</ele>
        <time>2022-04-14T12:46:03.448Z</time>
      </trkpt>
      <trkpt lat="47.38673" lon="4.99245">
        <ele>334</ele>
        <time>2022-04-14T12:46:08.436Z</time>
      </trkpt>
      <trkpt lat="47.38666" lon="4.99237">
        <ele>334</ele>
        <time>2022-04-14T12:46:13.411Z</time>
      </trkpt>
      <trkpt lat="47.3866" lon="4.99228">
        <ele>334</ele>
        <time>2022-04-14T12:46:18.400Z</time>
      </trkpt>
      <trkpt lat="47.38656" lon="4.9922">
        <ele>334</ele>
        <time>2022-04-14T12:46:23.432Z</time>
      </trkpt>
      <trkpt lat="47.38651" lon="4.99213">
        <ele>338</ele>
        <time>2022-04-14T12:46:28.425Z</time>
      </trkpt>
      <trkpt lat="47.38647" lon="4.99206">
        <ele>336</ele>
        <time>2022-04-14T12:46:33.417Z</time>
      </trkpt>
      <trkpt lat="47.38643" lon="4.99199">
        <ele>336</ele>
        <time>2022-04-14T12:46:37.456Z</time>
      </trkpt>
      <trkpt lat="47.38638" lon="4.99193">
        <ele>336</ele>
        <time>2022-04-14T12:46:42.465Z</time>
      </trkpt>
      <trkpt lat="47.38633" lon="4.99184">
        <ele>336</ele>
        <time>2022-04-14T12:46:47.488Z</time>
      </trkpt>
      <trkpt lat="47.38629" lon="4.99177">
        <ele>336</ele>
        <time>2022-04-14T12:46:52.459Z</time>
      </trkpt>
      <trkpt lat="47.38626" lon="4.99171">
        <ele>336</ele>
        <time>2022-04-14T12:46:56.510Z</time>
      </trkpt>
      <trkpt lat="47.38621" lon="4.99165">
        <ele>338</ele>
        <time>2022-04-14T12:47:01.446Z</time>
      </trkpt>
      <trkpt lat="47.38618" lon="4.99157">
        <ele>338</ele>
        <time>2022-04-14T12:47:06.438Z</time>
      </trkpt>
      <trkpt lat="47.38616" lon="4.99151">
        <ele>338</ele>
        <time>2022-04-14T12:47:11.410Z</time>
      </trkpt>
      <trkpt lat="47.38612" lon="4.99144">
        <ele>338</ele>
        <time>2022-04-14T12:47:16.381Z</time>
      </trkpt>
      <trkpt lat="47.38609" lon="4.99139">
        <ele>338</ele>
        <time>2022-04-14T12:47:20.453Z</time>
      </trkpt>
      <trkpt lat="47.38604" lon="4.99131">
        <ele>338</ele>
        <time>2022-04-14T12:47:25.399Z</time>
      </trkpt>
      <trkpt lat="47.386" lon="4.99125">
        <ele>339</ele>
        <time>2022-04-14T12:47:29.428Z</time>
      </trkpt>
      <trkpt lat="47.38595" lon="4.99117">
        <ele>340</ele>
        <time>2022-04-14T12:47:34.445Z</time>
      </trkpt>
      <trkpt lat="47.38591" lon="4.9911">
        <ele>340</ele>
        <time>2022-04-14T12:47:39.403Z</time>
      </trkpt>
      <trkpt lat="47.38587" lon="4.99103">
        <ele>340</ele>
        <time>2022-04-14T12:47:44.410Z</time>
      </trkpt>
      <trkpt lat="47.38582" lon="4.99097">
        <ele>341</ele>
        <time>2022-04-14T12:47:49.398Z</time>
      </trkpt>
      <trkpt lat="47.38577" lon="4.99088">
        <ele>341</ele>
        <time>2022-04-14T12:47:53.417Z</time>
      </trkpt>
      <trkpt lat="47.38572" lon="4.99082">
        <ele>341</ele>
        <time>2022-04-14T12:47:58.396Z</time>
      </trkpt>
      <trkpt lat="47.38569" lon="4.99078">
        <ele>340</ele>
        <time>2022-04-14T12:48:03.374Z</time>
      </trkpt>
      <trkpt lat="47.38564" lon="4.99074">
        <ele>340</ele>
        <time>2022-04-14T12:48:07.426Z</time>
      </trkpt>
      <trkpt lat="47.38559" lon="4.99068">
        <ele>340</ele>
        <time>2022-04-14T12:48:12.419Z</time>
      </trkpt>
      <trkpt lat="47.38552" lon="4.99063">
        <ele>340</ele>
        <time>2022-04-14T12:48:17.426Z</time>
      </trkpt>
      <trkpt lat="47.38546" lon="4.99061">
        <ele>340</ele>
        <time>2022-04-14T12:48:21.479Z</time>
      </trkpt>
      <trkpt lat="47.38541" lon="4.99059">
        <ele>339</ele>
        <time>2022-04-14T12:48:25.489Z</time>
      </trkpt>
      <trkpt lat="47.38536" lon="4.99054">
        <ele>339</ele>
        <time>2022-04-14T12:48:30.428Z</time>
      </trkpt>
      <trkpt lat="47.38531" lon="4.99051">
        <ele>339</ele>
        <time>2022-04-14T12:48:34.461Z</time>
      </trkpt>
      <trkpt lat="47.38525" lon="4.99042">
        <ele>339</ele>
        <time>2022-04-14T12:48:39.404Z</time>
      </trkpt>
      <trkpt lat="47.38523" lon="4.99037">
        <ele>339</ele>
        <time>2022-04-14T12:48:43.413Z</time>
      </trkpt>
      <trkpt lat="47.38518" lon="4.99032">
        <ele>339</ele>
        <time>2022-04-14T12:48:48.391Z</time>
      </trkpt>
      <trkpt lat="47.38514" lon="4.99026">
        <ele>341</ele>
        <time>2022-04-14T12:48:52.405Z</time>
      </trkpt>
      <trkpt lat="47.38508" lon="4.99019">
        <ele>341</ele>
        <time>2022-04-14T12:48:57.404Z</time>
      </trkpt>
      <trkpt lat="47.38503" lon="4.99015">
        <ele>341</ele>
        <time>2022-04-14T12:49:02.431Z</time>
      </trkpt>
      <trkpt lat="47.385" lon="4.99012">
        <ele>340</ele>
        <time>2022-04-14T12:49:07.466Z</time>
      </trkpt>
      <trkpt lat="47.38493" lon="4.99008">
        <ele>340</ele>
        <time>2022-04-14T12:49:12.384Z</time>
      </trkpt>
      <trkpt lat="47.38488" lon="4.99001">
        <ele>340</ele>
        <time>2022-04-14T12:49:17.389Z</time>
      </trkpt>
      <trkpt lat="47.38483" lon="4.98994">
        <ele>341</ele>
        <time>2022-04-14T12:49:22.406Z</time>
      </trkpt>
      <trkpt lat="47.38478" lon="4.98987">
        <ele>341</ele>
        <time>2022-04-14T12:49:27.458Z</time>
      </trkpt>
      <trkpt lat="47.38475" lon="4.98987">
        <ele>341</ele>
        <time>2022-04-14T12:49:32.457Z</time>
      </trkpt>
      <trkpt lat="47.38468" lon="4.98986">
        <ele>341</ele>
        <time>2022-04-14T12:49:37.443Z</time>
      </trkpt>
      <trkpt lat="47.38464" lon="4.98987">
        <ele>341</ele>
        <time>2022-04-14T12:49:41.500Z</time>
      </trkpt>
      <trkpt lat="47.38459" lon="4.98991">
        <ele>341</ele>
        <time>2022-04-14T12:49:46.499Z</time>
      </trkpt>
      <trkpt lat="47.38454" lon="4.98996">
        <ele>342</ele>
        <time>2022-04-14T12:49:51.477Z</time>
      </trkpt>
      <trkpt lat="47.38452" lon="4.99001">
        <ele>342</ele>
        <time>2022-04-14T12:49:56.384Z</time>
      </trkpt>
      <trkpt lat="47.38451" lon="4.99002">
        <ele>342</ele>
        <time>2022-04-14T12:50:00.403Z</time>
      </trkpt>
      <trkpt lat="47.3845" lon="4.99011">
        <ele>342</ele>
        <time>2022-04-14T12:50:05.382Z</time>
      </trkpt>
      <trkpt lat="47.38453" lon="4.99017">
        <ele>344</ele>
        <time>2022-04-14T12:50:10.376Z</time>
      </trkpt>
      <trkpt lat="47.38455" lon="4.99025">
        <ele>344</ele>
        <time>2022-04-14T12:50:14.414Z</time>
      </trkpt>
      <trkpt lat="47.38458" lon="4.9903">
        <ele>344</ele>
        <time>2022-04-14T12:50:18.495Z</time>
      </trkpt>
      <trkpt lat="47.38462" lon="4.99035">
        <ele>343</ele>
        <time>2022-04-14T12:50:23.411Z</time>
      </trkpt>
      <trkpt lat="47.38465" lon="4.99039">
        <ele>343</ele>
        <time>2022-04-14T12:50:27.431Z</time>
      </trkpt>
      <trkpt lat="47.38469" lon="4.99044">
        <ele>346</ele>
        <time>2022-04-14T12:50:32.412Z</time>
      </trkpt>
      <trkpt lat="47.38474" lon="4.99051">
        <ele>346</ele>
        <time>2022-04-14T12:50:37.435Z</time>
      </trkpt>
      <trkpt lat="47.38477" lon="4.99058">
        <ele>346</ele>
        <time>2022-04-14T12:50:42.394Z</time>
      </trkpt>
      <trkpt lat="47.3848" lon="4.99065">
        <ele>346</ele>
        <time>2022-04-14T12:50:47.406Z</time>
      </trkpt>
      <trkpt lat="47.38486" lon="4.99073">
        <ele>348</ele>
        <time>2022-04-14T12:50:52.419Z</time>
      </trkpt>
      <trkpt lat="47.3849" lon="4.99079">
        <ele>344</ele>
        <time>2022-04-14T12:50:57.417Z</time>
      </trkpt>
      <trkpt lat="47.38496" lon="4.99085">
        <ele>344</ele>
        <time>2022-04-14T12:51:02.421Z</time>
      </trkpt>
      <trkpt lat="47.385" lon="4.99092">
        <ele>344</ele>
        <time>2022-04-14T12:51:06.487Z</time>
      </trkpt>
      <trkpt lat="47.38502" lon="4.99099">
        <ele>347</ele>
        <time>2022-04-14T12:51:10.493Z</time>
      </trkpt>
      <trkpt lat="47.38506" lon="4.99104">
        <ele>347</ele>
        <time>2022-04-14T12:51:15.482Z</time>
      </trkpt>
      <trkpt lat="47.3851" lon="4.99111">
        <ele>347</ele>
        <time>2022-04-14T12:51:20.485Z</time>
      </trkpt>
      <trkpt lat="47.38515" lon="4.99118">
        <ele>343</ele>
        <time>2022-04-14T12:51:25.442Z</time>
      </trkpt>
      <trkpt lat="47.3852" lon="4.99124">
        <ele>343</ele>
        <time>2022-04-14T12:51:30.448Z</time>
      </trkpt>
      <trkpt lat="47.38524" lon="4.99131">
        <ele>347</ele>
        <time>2022-04-14T12:51:35.408Z</time>
      </trkpt>
      <trkpt lat="47.38526" lon="4.99137">
        <ele>347</ele>
        <time>2022-04-14T12:51:40.390Z</time>
      </trkpt>
      <trkpt lat="47.3853" lon="4.99144">
        <ele>347</ele>
        <time>2022-04-14T12:51:45.426Z</time>
      </trkpt>
      <trkpt lat="47.38534" lon="4.9915">
        <ele>347</ele>
        <time>2022-04-14T12:51:50.395Z</time>
      </trkpt>
      <trkpt lat="47.38538" lon="4.99155">
        <ele>351</ele>
        <time>2022-04-14T12:51:54.435Z</time>
      </trkpt>
      <trkpt lat="47.38542" lon="4.99163">
        <ele>347</ele>
        <time>2022-04-14T12:51:59.422Z</time>
      </trkpt>
      <trkpt lat="47.38543" lon="4.9917">
        <ele>347</ele>
        <time>2022-04-14T12:52:04.426Z</time>
      </trkpt>
      <trkpt lat="47.38546" lon="4.99177">
        <ele>347</ele>
        <time>2022-04-14T12:52:09.450Z</time>
      </trkpt>
      <trkpt lat="47.38549" lon="4.99183">
        <ele>351</ele>
        <time>2022-04-14T12:52:14.473Z</time>
      </trkpt>
      <trkpt lat="47.38552" lon="4.99187">
        <ele>351</ele>
        <time>2022-04-14T12:52:18.502Z</time>
      </trkpt>
      <trkpt lat="47.38553" lon="4.9919">
        <ele>351</ele>
        <time>2022-04-14T12:52:23.447Z</time>
      </trkpt>
      <trkpt lat="47.38556" lon="4.99196">
        <ele>351</ele>
        <time>2022-04-14T12:52:28.406Z</time>
      </trkpt>
      <trkpt lat="47.38556" lon="4.99201">
        <ele>351</ele>
        <time>2022-04-14T12:52:33.398Z</time>
      </trkpt>
      <trkpt lat="47.38557" lon="4.99207">
        <ele>351</ele>
        <time>2022-04-14T12:52:38.402Z</time>
      </trkpt>
      <trkpt lat="47.3856" lon="4.99212">
        <ele>355</ele>
        <time>2022-04-14T12:52:42.442Z</time>
      </trkpt>
      <trkpt lat="47.38561" lon="4.99222">
        <ele>355</ele>
        <time>2022-04-14T12:52:47.470Z</time>
      </trkpt>
      <trkpt lat="47.38562" lon="4.99229">
        <ele>355</ele>
        <time>2022-04-14T12:52:52.478Z</time>
      </trkpt>
      <trkpt lat="47.38563" lon="4.99235">
        <ele>355</ele>
        <time>2022-04-14T12:52:57.442Z</time>
      </trkpt>
      <trkpt lat="47.38562" lon="4.99242">
        <ele>358</ele>
        <time>2022-04-14T12:53:02.410Z</time>
      </trkpt>
      <trkpt lat="47.38564" lon="4.9925">
        <ele>358</ele>
        <time>2022-04-14T12:53:07.385Z</time>
      </trkpt>
      <trkpt lat="47.38566" lon="4.99255">
        <ele>358</ele>
        <time>2022-04-14T12:53:11.457Z</time>
      </trkpt>
      <trkpt lat="47.38567" lon="4.99261">
        <ele>358</ele>
        <time>2022-04-14T12:53:15.454Z</time>
      </trkpt>
      <trkpt lat="47.38567" lon="4.99269">
        <ele>361</ele>
        <time>2022-04-14T12:53:20.483Z</time>
      </trkpt>
      <trkpt lat="47.38569" lon="4.99276">
        <ele>361</ele>
        <time>2022-04-14T12:53:25.502Z</time>
      </trkpt>
      <trkpt lat="47.38571" lon="4.99285">
        <ele>356</ele>
        <time>2022-04-14T12:53:30.471Z</time>
      </trkpt>
      <trkpt lat="47.38571" lon="4.99289">
        <ele>356</ele>
        <time>2022-04-14T12:53:34.478Z</time>
      </trkpt>
      <trkpt lat="47.38571" lon="4.99296">
        <ele>359</ele>
        <time>2022-04-14T12:53:39.458Z</time>
      </trkpt>
      <trkpt lat="47.3857" lon="4.99304">
        <ele>359</ele>
        <time>2022-04-14T12:53:44.479Z</time>
      </trkpt>
      <trkpt lat="47.38571" lon="4.99307">
        <ele>359</ele>
        <time>2022-04-14T12:53:49.451Z</time>
      </trkpt>
      <trkpt lat="47.38572" lon="4.99315">
        <ele>359</ele>
        <time>2022-04-14T12:53:54.471Z</time>
      </trkpt>
      <trkpt lat="47.38573" lon="4.99322">
        <ele>362</ele>
        <time>2022-04-14T12:53:59.458Z</time>
      </trkpt>
      <trkpt lat="47.38573" lon="4.99332">
        <ele>362</ele>
        <time>2022-04-14T12:54:04.498Z</time>
      </trkpt>
      <trkpt lat="47.38575" lon="4.99338">
        <ele>362</ele>
        <time>2022-04-14T12:54:09.462Z</time>
      </trkpt>
      <trkpt lat="47.38576" lon="4.99345">
        <ele>362</ele>
        <time>2022-04-14T12:54:14.459Z</time>
      </trkpt>
      <trkpt lat="47.38575" lon="4.99351">
        <ele>364</ele>
        <time>2022-04-14T12:54:18.472Z</time>
      </trkpt>
      <trkpt lat="47.38575" lon="4.9936">
        <ele>364</ele>
        <time>2022-04-14T12:54:23.479Z</time>
      </trkpt>
      <trkpt lat="47.38574" lon="4.99369">
        <ele>364</ele>
        <time>2022-04-14T12:54:28.460Z</time>
      </trkpt>
      <trkpt lat="47.38575" lon="4.99378">
        <ele>366</ele>
        <time>2022-04-14T12:54:33.475Z</time>
      </trkpt>
      <trkpt lat="47.38575" lon="4.99385">
        <ele>366</ele>
        <time>2022-04-14T12:54:38.463Z</time>
      </trkpt>
      <trkpt lat="47.38574" lon="4.99392">
        <ele>366</ele>
        <time>2022-04-14T12:54:43.460Z</time>
      </trkpt>
      <trkpt lat="47.38576" lon="4.99398">
        <ele>366</ele>
        <time>2022-04-14T12:54:48.474Z</time>
      </trkpt>
      <trkpt lat="47.38577" lon="4.99405">
        <ele>369</ele>
        <time>2022-04-14T12:54:53.469Z</time>
      </trkpt>
      <trkpt lat="47.38576" lon="4.99412">
        <ele>369</ele>
        <time>2022-04-14T12:54:58.469Z</time>
      </trkpt>
      <trkpt lat="47.38578" lon="4.99418">
        <ele>369</ele>
        <time>2022-04-14T12:55:02.483Z</time>
      </trkpt>
      <trkpt lat="47.38578" lon="4.99429">
        <ele>369</ele>
        <time>2022-04-14T12:55:07.437Z</time>
      </trkpt>
      <trkpt lat="47.38578" lon="4.99434">
        <ele>371</ele>
        <time>2022-04-14T12:55:12.461Z</time>
      </trkpt>
      <trkpt lat="47.38575" lon="4.99444">
        <ele>371</ele>
        <time>2022-04-14T12:55:17.475Z</time>
      </trkpt>
      <trkpt lat="47.38572" lon="4.99451">
        <ele>371</ele>
        <time>2022-04-14T12:55:22.444Z</time>
      </trkpt>
      <trkpt lat="47.38567" lon="4.99458">
        <ele>376</ele>
        <time>2022-04-14T12:55:27.429Z</time>
      </trkpt>
      <trkpt lat="47.38564" lon="4.99462">
        <ele>378</ele>
        <time>2022-04-14T12:55:31.473Z</time>
      </trkpt>
      <trkpt lat="47.3856" lon="4.99466">
        <ele>378</ele>
        <time>2022-04-14T12:55:36.496Z</time>
      </trkpt>
      <trkpt lat="47.38555" lon="4.9947">
        <ele>378</ele>
        <time>2022-04-14T12:55:41.410Z</time>
      </trkpt>
      <trkpt lat="47.38553" lon="4.99472">
        <ele>378</ele>
        <time>2022-04-14T12:55:45.475Z</time>
      </trkpt>
      <trkpt lat="47.38549" lon="4.99476">
        <ele>378</ele>
        <time>2022-04-14T12:55:50.495Z</time>
      </trkpt>
      <trkpt lat="47.38545" lon="4.99478">
        <ele>378</ele>
        <time>2022-04-14T12:55:55.447Z</time>
      </trkpt>
      <trkpt lat="47.38541" lon="4.99478">
        <ele>383</ele>
        <time>2022-04-14T12:55:59.481Z</time>
      </trkpt>
      <trkpt lat="47.38538" lon="4.99479">
        <ele>383</ele>
        <time>2022-04-14T12:56:04.452Z</time>
      </trkpt>
      <trkpt lat="47.38534" lon="4.99479">
        <ele>383</ele>
        <time>2022-04-14T12:56:09.403Z</time>
      </trkpt>
      <trkpt lat="47.3853" lon="4.99479">
        <ele>383</ele>
        <time>2022-04-14T12:56:13.471Z</time>
      </trkpt>
      <trkpt lat="47.38522" lon="4.9948">
        <ele>383</ele>
        <time>2022-04-14T12:56:18.467Z</time>
      </trkpt>
      <trkpt lat="47.38516" lon="4.99478">
        <ele>383</ele>
        <time>2022-04-14T12:56:23.477Z</time>
      </trkpt>
      <trkpt lat="47.38509" lon="4.99476">
        <ele>387</ele>
        <time>2022-04-14T12:56:28.451Z</time>
      </trkpt>
      <trkpt lat="47.38503" lon="4.99474">
        <ele>387</ele>
        <time>2022-04-14T12:56:33.464Z</time>
      </trkpt>
      <trkpt lat="47.38497" lon="4.99472">
        <ele>387</ele>
        <time>2022-04-14T12:56:38.464Z</time>
      </trkpt>
      <trkpt lat="47.38489" lon="4.99473">
        <ele>387</ele>
        <time>2022-04-14T12:56:43.493Z</time>
      </trkpt>
      <trkpt lat="47.38485" lon="4.99477">
        <ele>390</ele>
        <time>2022-04-14T12:56:48.459Z</time>
      </trkpt>
      <trkpt lat="47.38481" lon="4.99477">
        <ele>390</ele>
        <time>2022-04-14T12:56:52.476Z</time>
      </trkpt>
      <trkpt lat="47.38475" lon="4.99478">
        <ele>390</ele>
        <time>2022-04-14T12:56:57.437Z</time>
      </trkpt>
      <trkpt lat="47.38471" lon="4.99479">
        <ele>390</ele>
        <time>2022-04-14T12:57:01.450Z</time>
      </trkpt>
      <trkpt lat="47.38466" lon="4.99479">
        <ele>390</ele>
        <time>2022-04-14T12:57:06.478Z</time>
      </trkpt>
      <trkpt lat="47.38463" lon="4.99481">
        <ele>390</ele>
        <time>2022-04-14T12:57:11.471Z</time>
      </trkpt>
      <trkpt lat="47.38457" lon="4.9948">
        <ele>392</ele>
        <time>2022-04-14T12:57:16.470Z</time>
      </trkpt>
      <trkpt lat="47.38451" lon="4.99482">
        <ele>392</ele>
        <time>2022-04-14T12:57:21.411Z</time>
      </trkpt>
      <trkpt lat="47.38445" lon="4.99482">
        <ele>392</ele>
        <time>2022-04-14T12:57:25.436Z</time>
      </trkpt>
      <trkpt lat="47.38436" lon="4.9948">
        <ele>392</ele>
        <time>2022-04-14T12:57:30.418Z</time>
      </trkpt>
      <trkpt lat="47.3843" lon="4.9948">
        <ele>393</ele>
        <time>2022-04-14T12:57:34.478Z</time>
      </trkpt>
      <trkpt lat="47.38423" lon="4.99479">
        <ele>393</ele>
        <time>2022-04-14T12:57:39.455Z</time>
      </trkpt>
      <trkpt lat="47.38418" lon="4.99479">
        <ele>393</ele>
        <time>2022-04-14T12:57:44.473Z</time>
      </trkpt>
      <trkpt lat="47.38411" lon="4.99478">
        <ele>393</ele>
        <time>2022-04-14T12:57:49.484Z</time>
      </trkpt>
      <trkpt lat="47.38404" lon="4.99479">
        <ele>393</ele>
        <time>2022-04-14T12:57:54.482Z</time>
      </trkpt>
      <trkpt lat="47.38399" lon="4.9948">
        <ele>393</ele>
        <time>2022-04-14T12:57:59.504Z</time>
      </trkpt>
      <trkpt lat="47.38393" lon="4.99482">
        <ele>393</ele>
        <time>2022-04-14T12:58:04.439Z</time>
      </trkpt>
      <trkpt lat="47.38387" lon="4.99484">
        <ele>393</ele>
        <time>2022-04-14T12:58:08.466Z</time>
      </trkpt>
      <trkpt lat="47.3838" lon="4.99485">
        <ele>393</ele>
        <time>2022-04-14T12:58:13.420Z</time>
      </trkpt>
      <trkpt lat="47.38373" lon="4.99488">
        <ele>395</ele>
        <time>2022-04-14T12:58:17.466Z</time>
      </trkpt>
      <trkpt lat="47.38369" lon="4.9949">
        <ele>395</ele>
        <time>2022-04-14T12:58:22.468Z</time>
      </trkpt>
      <trkpt lat="47.38366" lon="4.9949">
        <ele>395</ele>
        <time>2022-04-14T12:58:26.477Z</time>
      </trkpt>
      <trkpt lat="47.38359" lon="4.99492">
        <ele>395</ele>
        <time>2022-04-14T12:58:31.433Z</time>
      </trkpt>
      <trkpt lat="47.38352" lon="4.99496">
        <ele>395</ele>
        <time>2022-04-14T12:58:36.447Z</time>
      </trkpt>
      <trkpt lat="47.38348" lon="4.99498">
        <ele>395</ele>
        <time>2022-04-14T12:58:40.450Z</time>
      </trkpt>
      <trkpt lat="47.38343" lon="4.99502">
        <ele>397</ele>
        <time>2022-04-14T12:58:45.460Z</time>
      </trkpt>
      <trkpt lat="47.38338" lon="4.99504">
        <ele>397</ele>
        <time>2022-04-14T12:58:50.472Z</time>
      </trkpt>
      <trkpt lat="47.38332" lon="4.99508">
        <ele>397</ele>
        <time>2022-04-14T12:58:55.490Z</time>
      </trkpt>
      <trkpt lat="47.38325" lon="4.99515">
        <ele>397</ele>
        <time>2022-04-14T12:59:00.454Z</time>
      </trkpt>
      <trkpt lat="47.38319" lon="4.99523">
        <ele>398</ele>
        <time>2022-04-14T12:59:05.481Z</time>
      </trkpt>
      <trkpt lat="47.38314" lon="4.99525">
        <ele>398</ele>
        <time>2022-04-14T12:59:10.474Z</time>
      </trkpt>
      <trkpt lat="47.38307" lon="4.99531">
        <ele>398</ele>
        <time>2022-04-14T12:59:15.474Z</time>
      </trkpt>
      <trkpt lat="47.38303" lon="4.99539">
        <ele>398</ele>
        <time>2022-04-14T13:03:34.417Z</time>
      </trkpt>
      <trkpt lat="47.38299" lon="4.99541">
        <ele>398</ele>
        <time>2022-04-14T13:03:58.478Z</time>
      </trkpt>
      <trkpt lat="47.38293" lon="4.99548">
        <ele>397</ele>
        <time>2022-04-14T13:04:03.441Z</time>
      </trkpt>
      <trkpt lat="47.3829" lon="4.99553">
        <ele>397</ele>
        <time>2022-04-14T13:04:08.400Z</time>
      </trkpt>
      <trkpt lat="47.38287" lon="4.99556">
        <ele>397</ele>
        <time>2022-04-14T13:04:13.396Z</time>
      </trkpt>
      <trkpt lat="47.38282" lon="4.99561">
        <ele>397</ele>
        <time>2022-04-14T13:04:18.422Z</time>
      </trkpt>
      <trkpt lat="47.38277" lon="4.99567">
        <ele>397</ele>
        <time>2022-04-14T13:04:23.407Z</time>
      </trkpt>
      <trkpt lat="47.38271" lon="4.99573">
        <ele>397</ele>
        <time>2022-04-14T13:04:28.403Z</time>
      </trkpt>
      <trkpt lat="47.38266" lon="4.99578">
        <ele>397</ele>
        <time>2022-04-14T13:04:33.397Z</time>
      </trkpt>
      <trkpt lat="47.38262" lon="4.99583">
        <ele>397</ele>
        <time>2022-04-14T13:04:38.389Z</time>
      </trkpt>
      <trkpt lat="47.38258" lon="4.99587">
        <ele>397</ele>
        <time>2022-04-14T13:04:42.448Z</time>
      </trkpt>
      <trkpt lat="47.38251" lon="4.99593">
        <ele>397</ele>
        <time>2022-04-14T13:04:47.462Z</time>
      </trkpt>
      <trkpt lat="47.38245" lon="4.996">
        <ele>397</ele>
        <time>2022-04-14T13:04:52.487Z</time>
      </trkpt>
      <trkpt lat="47.38241" lon="4.99609">
        <ele>397</ele>
        <time>2022-04-14T13:04:57.489Z</time>
      </trkpt>
      <trkpt lat="47.38236" lon="4.99617">
        <ele>396</ele>
        <time>2022-04-14T13:05:02.437Z</time>
      </trkpt>
      <trkpt lat="47.38233" lon="4.99621">
        <ele>396</ele>
        <time>2022-04-14T13:05:06.478Z</time>
      </trkpt>
      <trkpt lat="47.38229" lon="4.99628">
        <ele>398</ele>
        <time>2022-04-14T13:05:11.405Z</time>
      </trkpt>
      <trkpt lat="47.38224" lon="4.99637">
        <ele>398</ele>
        <time>2022-04-14T13:05:16.392Z</time>
      </trkpt>
      <trkpt lat="47.38219" lon="4.99643">
        <ele>398</ele>
        <time>2022-04-14T13:05:21.381Z</time>
      </trkpt>
      <trkpt lat="47.38216" lon="4.99648">
        <ele>398</ele>
        <time>2022-04-14T13:05:26.399Z</time>
      </trkpt>
      <trkpt lat="47.38213" lon="4.99654">
        <ele>398</ele>
        <time>2022-04-14T13:05:30.467Z</time>
      </trkpt>
      <trkpt lat="47.38209" lon="4.99665">
        <ele>398</ele>
        <time>2022-04-14T13:05:35.423Z</time>
      </trkpt>
      <trkpt lat="47.38205" lon="4.99673">
        <ele>397</ele>
        <time>2022-04-14T13:05:40.458Z</time>
      </trkpt>
      <trkpt lat="47.382" lon="4.9968">
        <ele>397</ele>
        <time>2022-04-14T13:05:45.426Z</time>
      </trkpt>
      <trkpt lat="47.38196" lon="4.99689">
        <ele>398</ele>
        <time>2022-04-14T13:05:50.454Z</time>
      </trkpt>
      <trkpt lat="47.38192" lon="4.99697">
        <ele>398</ele>
        <time>2022-04-14T13:05:55.424Z</time>
      </trkpt>
      <trkpt lat="47.38189" lon="4.99704">
        <ele>398</ele>
        <time>2022-04-14T13:06:00.408Z</time>
      </trkpt>
      <trkpt lat="47.38186" lon="4.99712">
        <ele>398</ele>
        <time>2022-04-14T13:06:05.394Z</time>
      </trkpt>
      <trkpt lat="47.38181" lon="4.9972">
        <ele>398</ele>
        <time>2022-04-14T13:06:10.409Z</time>
      </trkpt>
      <trkpt lat="47.38177" lon="4.99728">
        <ele>396</ele>
        <time>2022-04-14T13:06:15.393Z</time>
      </trkpt>
      <trkpt lat="47.38172" lon="4.99735">
        <ele>396</ele>
        <time>2022-04-14T13:06:20.406Z</time>
      </trkpt>
      <trkpt lat="47.38169" lon="4.99741">
        <ele>396</ele>
        <time>2022-04-14T13:06:24.426Z</time>
      </trkpt>
      <trkpt lat="47.38165" lon="4.99748">
        <ele>396</ele>
        <time>2022-04-14T13:06:29.402Z</time>
      </trkpt>
      <trkpt lat="47.38162" lon="4.99755">
        <ele>396</ele>
        <time>2022-04-14T13:06:34.401Z</time>
      </trkpt>
      <trkpt lat="47.3816" lon="4.99761">
        <ele>396</ele>
        <time>2022-04-14T13:06:38.419Z</time>
      </trkpt>
      <trkpt lat="47.38156" lon="4.99769">
        <ele>397</ele>
        <time>2022-04-14T13:06:42.451Z</time>
      </trkpt>
      <trkpt lat="47.38153" lon="4.99777">
        <ele>397</ele>
        <time>2022-04-14T13:06:46.449Z</time>
      </trkpt>
      <trkpt lat="47.3815" lon="4.99782">
        <ele>395</ele>
        <time>2022-04-14T13:06:50.485Z</time>
      </trkpt>
      <trkpt lat="47.38146" lon="4.9979">
        <ele>395</ele>
        <time>2022-04-14T13:06:55.448Z</time>
      </trkpt>
      <trkpt lat="47.38142" lon="4.99798">
        <ele>395</ele>
        <time>2022-04-14T13:07:00.449Z</time>
      </trkpt>
      <trkpt lat="47.38138" lon="4.99808">
        <ele>395</ele>
        <time>2022-04-14T13:07:05.426Z</time>
      </trkpt>
      <trkpt lat="47.38135" lon="4.99817">
        <ele>395</ele>
        <time>2022-04-14T13:07:10.457Z</time>
      </trkpt>
      <trkpt lat="47.38133" lon="4.99826">
        <ele>395</ele>
        <time>2022-04-14T13:07:15.409Z</time>
      </trkpt>
      <trkpt lat="47.3813" lon="4.99836">
        <ele>395</ele>
        <time>2022-04-14T13:07:20.390Z</time>
      </trkpt>
      <trkpt lat="47.38129" lon="4.99841">
        <ele>395</ele>
        <time>2022-04-14T13:07:24.405Z</time>
      </trkpt>
      <trkpt lat="47.38128" lon="4.99843">
        <ele>395</ele>
        <time>2022-04-14T13:07:28.478Z</time>
      </trkpt>
      <trkpt lat="47.38126" lon="4.99846">
        <ele>395</ele>
        <time>2022-04-14T13:07:33.392Z</time>
      </trkpt>
      <trkpt lat="47.38122" lon="4.9985">
        <ele>392</ele>
        <time>2022-04-14T13:07:38.398Z</time>
      </trkpt>
      <trkpt lat="47.38117" lon="4.99853">
        <ele>392</ele>
        <time>2022-04-14T13:07:43.403Z</time>
      </trkpt>
      <trkpt lat="47.38112" lon="4.99854">
        <ele>392</ele>
        <time>2022-04-14T13:07:47.414Z</time>
      </trkpt>
      <trkpt lat="47.38107" lon="4.99858">
        <ele>392</ele>
        <time>2022-04-14T13:07:51.440Z</time>
      </trkpt>
      <trkpt lat="47.381" lon="4.99863">
        <ele>392</ele>
        <time>2022-04-14T13:07:56.429Z</time>
      </trkpt>
      <trkpt lat="47.38095" lon="4.99869">
        <ele>392</ele>
        <time>2022-04-14T13:08:01.422Z</time>
      </trkpt>
      <trkpt lat="47.3809" lon="4.99872">
        <ele>392</ele>
        <time>2022-04-14T13:08:06.465Z</time>
      </trkpt>
      <trkpt lat="47.38083" lon="4.99875">
        <ele>391</ele>
        <time>2022-04-14T13:08:11.430Z</time>
      </trkpt>
      <trkpt lat="47.38076" lon="4.99878">
        <ele>391</ele>
        <time>2022-04-14T13:08:16.469Z</time>
      </trkpt>
      <trkpt lat="47.38071" lon="4.9988">
        <ele>391</ele>
        <time>2022-04-14T13:08:21.433Z</time>
      </trkpt>
      <trkpt lat="47.38065" lon="4.99883">
        <ele>391</ele>
        <time>2022-04-14T13:08:26.446Z</time>
      </trkpt>
      <trkpt lat="47.38059" lon="4.99883">
        <ele>391</ele>
        <time>2022-04-14T13:08:31.445Z</time>
      </trkpt>
      <trkpt lat="47.38053" lon="4.99883">
        <ele>391</ele>
        <time>2022-04-14T13:08:36.484Z</time>
      </trkpt>
      <trkpt lat="47.38048" lon="4.99883">
        <ele>391</ele>
        <time>2022-04-14T13:08:41.424Z</time>
      </trkpt>
      <trkpt lat="47.38041" lon="4.99883">
        <ele>391</ele>
        <time>2022-04-14T13:08:46.431Z</time>
      </trkpt>
      <trkpt lat="47.38036" lon="4.99884">
        <ele>391</ele>
        <time>2022-04-14T13:08:50.482Z</time>
      </trkpt>
      <trkpt lat="47.38028" lon="4.99886">
        <ele>391</ele>
        <time>2022-04-14T13:08:55.429Z</time>
      </trkpt>
      <trkpt lat="47.38022" lon="4.99887">
        <ele>391</ele>
        <time>2022-04-14T13:09:00.485Z</time>
      </trkpt>
      <trkpt lat="47.38016" lon="4.99889">
        <ele>391</ele>
        <time>2022-04-14T13:09:05.383Z</time>
      </trkpt>
      <trkpt lat="47.38012" lon="4.99889">
        <ele>391</ele>
        <time>2022-04-14T13:09:10.410Z</time>
      </trkpt>
      <trkpt lat="47.38006" lon="4.99888">
        <ele>391</ele>
        <time>2022-04-14T13:09:15.394Z</time>
      </trkpt>
      <trkpt lat="47.38" lon="4.99886">
        <ele>391</ele>
        <time>2022-04-14T13:09:20.396Z</time>
      </trkpt>
      <trkpt lat="47.37995" lon="4.99884">
        <ele>391</ele>
        <time>2022-04-14T13:09:25.385Z</time>
      </trkpt>
      <trkpt lat="47.3799" lon="4.99885">
        <ele>391</ele>
        <time>2022-04-14T13:09:29.388Z</time>
      </trkpt>
      <trkpt lat="47.37985" lon="4.99885">
        <ele>392</ele>
        <time>2022-04-14T13:09:33.448Z</time>
      </trkpt>
      <trkpt lat="47.37978" lon="4.99885">
        <ele>392</ele>
        <time>2022-04-14T13:09:38.444Z</time>
      </trkpt>
      <trkpt lat="47.37972" lon="4.99886">
        <ele>392</ele>
        <time>2022-04-14T13:09:42.498Z</time>
      </trkpt>
      <trkpt lat="47.37965" lon="4.99886">
        <ele>392</ele>
        <time>2022-04-14T13:09:47.431Z</time>
      </trkpt>
      <trkpt lat="47.37957" lon="4.99887">
        <ele>391</ele>
        <time>2022-04-14T13:09:52.436Z</time>
      </trkpt>
      <trkpt lat="47.37951" lon="4.99888">
        <ele>391</ele>
        <time>2022-04-14T13:09:57.429Z</time>
      </trkpt>
      <trkpt lat="47.37945" lon="4.99889">
        <ele>391</ele>
        <time>2022-04-14T13:10:02.404Z</time>
      </trkpt>
      <trkpt lat="47.3794" lon="4.9989">
        <ele>391</ele>
        <time>2022-04-14T13:10:07.399Z</time>
      </trkpt>
      <trkpt lat="47.37935" lon="4.9989">
        <ele>391</ele>
        <time>2022-04-14T13:10:12.404Z</time>
      </trkpt>
      <trkpt lat="47.37926" lon="4.9989">
        <ele>390</ele>
        <time>2022-04-14T13:10:17.380Z</time>
      </trkpt>
      <trkpt lat="47.37921" lon="4.9989">
        <ele>390</ele>
        <time>2022-04-14T13:10:21.417Z</time>
      </trkpt>
      <trkpt lat="47.37915" lon="4.9989">
        <ele>390</ele>
        <time>2022-04-14T13:10:25.462Z</time>
      </trkpt>
      <trkpt lat="47.37908" lon="4.99889">
        <ele>390</ele>
        <time>2022-04-14T13:10:30.490Z</time>
      </trkpt>
      <trkpt lat="47.379" lon="4.99889">
        <ele>391</ele>
        <time>2022-04-14T13:10:35.426Z</time>
      </trkpt>
      <trkpt lat="47.37894" lon="4.99889">
        <ele>391</ele>
        <time>2022-04-14T13:10:40.489Z</time>
      </trkpt>
      <trkpt lat="47.37887" lon="4.99888">
        <ele>391</ele>
        <time>2022-04-14T13:10:45.421Z</time>
      </trkpt>
      <trkpt lat="47.37881" lon="4.99887">
        <ele>391</ele>
        <time>2022-04-14T13:10:50.457Z</time>
      </trkpt>
      <trkpt lat="47.37875" lon="4.99885">
        <ele>392</ele>
        <time>2022-04-14T13:10:55.425Z</time>
      </trkpt>
      <trkpt lat="47.3787" lon="4.99884">
        <ele>392</ele>
        <time>2022-04-14T13:10:59.429Z</time>
      </trkpt>
      <trkpt lat="47.37865" lon="4.99882">
        <ele>392</ele>
        <time>2022-04-14T13:11:04.403Z</time>
      </trkpt>
      <trkpt lat="47.37858" lon="4.99879">
        <ele>392</ele>
        <time>2022-04-14T13:11:09.389Z</time>
      </trkpt>
      <trkpt lat="47.37853" lon="4.99878">
        <ele>392</ele>
        <time>2022-04-14T13:11:13.437Z</time>
      </trkpt>
      <trkpt lat="47.37846" lon="4.99878">
        <ele>393</ele>
        <time>2022-04-14T13:11:18.443Z</time>
      </trkpt>
      <trkpt lat="47.3784" lon="4.9988">
        <ele>393</ele>
        <time>2022-04-14T13:11:23.398Z</time>
      </trkpt>
      <trkpt lat="47.37834" lon="4.99883">
        <ele>393</ele>
        <time>2022-04-14T13:11:28.398Z</time>
      </trkpt>
      <trkpt lat="47.37829" lon="4.99887">
        <ele>393</ele>
        <time>2022-04-14T13:11:32.412Z</time>
      </trkpt>
      <trkpt lat="47.37825" lon="4.9989">
        <ele>393</ele>
        <time>2022-04-14T13:11:36.454Z</time>
      </trkpt>
      <trkpt lat="47.37821" lon="4.99894">
        <ele>393</ele>
        <time>2022-04-14T13:11:41.460Z</time>
      </trkpt>
      <trkpt lat="47.37814" lon="4.99899">
        <ele>392</ele>
        <time>2022-04-14T13:11:46.463Z</time>
      </trkpt>
      <trkpt lat="47.3781" lon="4.99907">
        <ele>391</ele>
        <time>2022-04-14T13:11:51.433Z</time>
      </trkpt>
      <trkpt lat="47.37804" lon="4.99916">
        <ele>391</ele>
        <time>2022-04-14T13:11:56.469Z</time>
      </trkpt>
      <trkpt lat="47.37801" lon="4.99924">
        <ele>391</ele>
        <time>2022-04-14T13:12:01.453Z</time>
      </trkpt>
      <trkpt lat="47.37798" lon="4.99932">
        <ele>390</ele>
        <time>2022-04-14T13:12:06.393Z</time>
      </trkpt>
      <trkpt lat="47.37795" lon="4.9994">
        <ele>390</ele>
        <time>2022-04-14T13:12:10.408Z</time>
      </trkpt>
      <trkpt lat="47.37793" lon="4.99947">
        <ele>390</ele>
        <time>2022-04-14T13:12:14.478Z</time>
      </trkpt>
      <trkpt lat="47.37792" lon="4.99956">
        <ele>390</ele>
        <time>2022-04-14T13:12:19.436Z</time>
      </trkpt>
      <trkpt lat="47.3779" lon="4.99964">
        <ele>387</ele>
        <time>2022-04-14T13:12:24.472Z</time>
      </trkpt>
      <trkpt lat="47.37788" lon="4.99973">
        <ele>387</ele>
        <time>2022-04-14T13:12:29.433Z</time>
      </trkpt>
      <trkpt lat="47.37786" lon="4.99983">
        <ele>387</ele>
        <time>2022-04-14T13:12:34.457Z</time>
      </trkpt>
      <trkpt lat="47.37785" lon="4.9999">
        <ele>386</ele>
        <time>2022-04-14T13:12:39.412Z</time>
      </trkpt>
      <trkpt lat="47.37783" lon="4.99995">
        <ele>386</ele>
        <time>2022-04-14T13:12:43.462Z</time>
      </trkpt>
      <trkpt lat="47.3778" lon="5.00004">
        <ele>386</ele>
        <time>2022-04-14T13:12:48.446Z</time>
      </trkpt>
      <trkpt lat="47.37778" lon="5.00011">
        <ele>386</ele>
        <time>2022-04-14T13:12:52.463Z</time>
      </trkpt>
      <trkpt lat="47.37776" lon="5.00017">
        <ele>386</ele>
        <time>2022-04-14T13:12:56.516Z</time>
      </trkpt>
      <trkpt lat="47.37775" lon="5.00029">
        <ele>386</ele>
        <time>2022-04-14T13:13:01.447Z</time>
      </trkpt>
      <trkpt lat="47.37773" lon="5.00037">
        <ele>386</ele>
        <time>2022-04-14T13:13:06.467Z</time>
      </trkpt>
      <trkpt lat="47.3777" lon="5.00047">
        <ele>385</ele>
        <time>2022-04-14T13:13:11.417Z</time>
      </trkpt>
      <trkpt lat="47.37768" lon="5.00057">
        <ele>385</ele>
        <time>2022-04-14T13:13:15.433Z</time>
      </trkpt>
      <trkpt lat="47.37767" lon="5.00066">
        <ele>385</ele>
        <time>2022-04-14T13:13:19.440Z</time>
      </trkpt>
      <trkpt lat="47.37765" lon="5.00075">
        <ele>384</ele>
        <time>2022-04-14T13:13:24.380Z</time>
      </trkpt>
      <trkpt lat="47.37764" lon="5.00085">
        <ele>382</ele>
        <time>2022-04-14T13:13:28.395Z</time>
      </trkpt>
      <trkpt lat="47.37763" lon="5.00097">
        <ele>382</ele>
        <time>2022-04-14T13:13:33.453Z</time>
      </trkpt>
      <trkpt lat="47.37762" lon="5.00107">
        <ele>381</ele>
        <time>2022-04-14T13:13:38.432Z</time>
      </trkpt>
      <trkpt lat="47.37762" lon="5.00115">
        <ele>381</ele>
        <time>2022-04-14T13:13:42.462Z</time>
      </trkpt>
      <trkpt lat="47.37761" lon="5.00125">
        <ele>381</ele>
        <time>2022-04-14T13:13:47.437Z</time>
      </trkpt>
      <trkpt lat="47.3776" lon="5.00134">
        <ele>379</ele>
        <time>2022-04-14T13:13:52.441Z</time>
      </trkpt>
      <trkpt lat="47.37759" lon="5.00142">
        <ele>379</ele>
        <time>2022-04-14T13:13:57.483Z</time>
      </trkpt>
      <trkpt lat="47.37758" lon="5.00152">
        <ele>379</ele>
        <time>2022-04-14T13:14:02.490Z</time>
      </trkpt>
      <trkpt lat="47.37757" lon="5.00162">
        <ele>377</ele>
        <time>2022-04-14T13:14:07.433Z</time>
      </trkpt>
      <trkpt lat="47.37757" lon="5.00173">
        <ele>377</ele>
        <time>2022-04-14T13:14:12.450Z</time>
      </trkpt>
      <trkpt lat="47.37756" lon="5.0018">
        <ele>377</ele>
        <time>2022-04-14T13:14:16.472Z</time>
      </trkpt>
      <trkpt lat="47.37756" lon="5.0019">
        <ele>376</ele>
        <time>2022-04-14T13:14:21.424Z</time>
      </trkpt>
      <trkpt lat="47.37758" lon="5.00197">
        <ele>376</ele>
        <time>2022-04-14T13:14:25.472Z</time>
      </trkpt>
      <trkpt lat="47.37758" lon="5.00206">
        <ele>376</ele>
        <time>2022-04-14T13:14:30.456Z</time>
      </trkpt>
      <trkpt lat="47.37759" lon="5.00215">
        <ele>375</ele>
        <time>2022-04-14T13:14:35.381Z</time>
      </trkpt>
      <trkpt lat="47.37758" lon="5.00223">
        <ele>375</ele>
        <time>2022-04-14T13:14:40.451Z</time>
      </trkpt>
      <trkpt lat="47.37758" lon="5.00235">
        <ele>375</ele>
        <time>2022-04-14T13:14:45.411Z</time>
      </trkpt>
      <trkpt lat="47.37757" lon="5.0024">
        <ele>374</ele>
        <time>2022-04-14T13:14:49.425Z</time>
      </trkpt>
      <trkpt lat="47.37757" lon="5.00248">
        <ele>374</ele>
        <time>2022-04-14T13:14:53.420Z</time>
      </trkpt>
      <trkpt lat="47.37757" lon="5.00255">
        <ele>374</ele>
        <time>2022-04-14T13:14:57.434Z</time>
      </trkpt>
      <trkpt lat="47.37756" lon="5.00265">
        <ele>374</ele>
        <time>2022-04-14T13:15:02.408Z</time>
      </trkpt>
      <trkpt lat="47.37755" lon="5.0027">
        <ele>374</ele>
        <time>2022-04-14T13:15:06.432Z</time>
      </trkpt>
      <trkpt lat="47.37754" lon="5.00278">
        <ele>374</ele>
        <time>2022-04-14T13:15:10.442Z</time>
      </trkpt>
      <trkpt lat="47.3775" lon="5.00284">
        <ele>374</ele>
        <time>2022-04-14T13:15:15.416Z</time>
      </trkpt>
      <trkpt lat="47.37748" lon="5.00292">
        <ele>374</ele>
        <time>2022-04-14T13:15:19.460Z</time>
      </trkpt>
      <trkpt lat="47.37744" lon="5.00299">
        <ele>374</ele>
        <time>2022-04-14T13:15:24.452Z</time>
      </trkpt>
      <trkpt lat="47.37742" lon="5.00307">
        <ele>374</ele>
        <time>2022-04-14T13:15:29.425Z</time>
      </trkpt>
      <trkpt lat="47.3774" lon="5.00316">
        <ele>374</ele>
        <time>2022-04-14T13:15:34.454Z</time>
      </trkpt>
      <trkpt lat="47.37739" lon="5.00324">
        <ele>374</ele>
        <time>2022-04-14T13:15:39.436Z</time>
      </trkpt>
      <trkpt lat="47.3774" lon="5.00333">
        <ele>374</ele>
        <time>2022-04-14T13:15:44.468Z</time>
      </trkpt>
      <trkpt lat="47.37739" lon="5.00342">
        <ele>374</ele>
        <time>2022-04-14T13:15:49.424Z</time>
      </trkpt>
      <trkpt lat="47.3774" lon="5.00351">
        <ele>372</ele>
        <time>2022-04-14T13:15:53.429Z</time>
      </trkpt>
      <trkpt lat="47.3774" lon="5.00358">
        <ele>372</ele>
        <time>2022-04-14T13:15:57.495Z</time>
      </trkpt>
      <trkpt lat="47.37744" lon="5.00368">
        <ele>372</ele>
        <time>2022-04-14T13:16:02.431Z</time>
      </trkpt>
      <trkpt lat="47.37749" lon="5.00377">
        <ele>369</ele>
        <time>2022-04-14T13:16:07.393Z</time>
      </trkpt>
      <trkpt lat="47.37751" lon="5.00383">
        <ele>369</ele>
        <time>2022-04-14T13:16:11.461Z</time>
      </trkpt>
      <trkpt lat="47.37755" lon="5.00394">
        <ele>369</ele>
        <time>2022-04-14T13:16:16.486Z</time>
      </trkpt>
      <trkpt lat="47.37759" lon="5.00401">
        <ele>369</ele>
        <time>2022-04-14T13:16:21.449Z</time>
      </trkpt>
      <trkpt lat="47.37762" lon="5.00408">
        <ele>366</ele>
        <time>2022-04-14T13:16:26.475Z</time>
      </trkpt>
      <trkpt lat="47.37765" lon="5.00416">
        <ele>367</ele>
        <time>2022-04-14T13:16:31.450Z</time>
      </trkpt>
      <trkpt lat="47.37765" lon="5.00426">
        <ele>367</ele>
        <time>2022-04-14T13:16:36.398Z</time>
      </trkpt>
      <trkpt lat="47.37766" lon="5.00434">
        <ele>365</ele>
        <time>2022-04-14T13:16:40.474Z</time>
      </trkpt>
      <trkpt lat="47.37766" lon="5.00444">
        <ele>365</ele>
        <time>2022-04-14T13:16:45.443Z</time>
      </trkpt>
      <trkpt lat="47.37767" lon="5.00454">
        <ele>365</ele>
        <time>2022-04-14T13:16:50.478Z</time>
      </trkpt>
      <trkpt lat="47.37767" lon="5.00463">
        <ele>363</ele>
        <time>2022-04-14T13:16:55.426Z</time>
      </trkpt>
      <trkpt lat="47.37767" lon="5.00471">
        <ele>363</ele>
        <time>2022-04-14T13:16:59.461Z</time>
      </trkpt>
      <trkpt lat="47.37767" lon="5.00479">
        <ele>363</ele>
        <time>2022-04-14T13:17:04.449Z</time>
      </trkpt>
      <trkpt lat="47.37767" lon="5.00491">
        <ele>361</ele>
        <time>2022-04-14T13:17:09.459Z</time>
      </trkpt>
      <trkpt lat="47.37766" lon="5.00499">
        <ele>361</ele>
        <time>2022-04-14T13:17:13.472Z</time>
      </trkpt>
      <trkpt lat="47.37765" lon="5.00508">
        <ele>361</ele>
        <time>2022-04-14T13:17:18.465Z</time>
      </trkpt>
      <trkpt lat="47.37765" lon="5.00516">
        <ele>360</ele>
        <time>2022-04-14T13:17:23.480Z</time>
      </trkpt>
      <trkpt lat="47.37764" lon="5.00526">
        <ele>358</ele>
        <time>2022-04-14T13:17:28.384Z</time>
      </trkpt>
      <trkpt lat="47.37763" lon="5.00532">
        <ele>358</ele>
        <time>2022-04-14T13:17:32.464Z</time>
      </trkpt>
      <trkpt lat="47.37764" lon="5.00539">
        <ele>360</ele>
        <time>2022-04-14T13:17:37.471Z</time>
      </trkpt>
      <trkpt lat="47.37764" lon="5.00548">
        <ele>358</ele>
        <time>2022-04-14T13:17:42.383Z</time>
      </trkpt>
      <trkpt lat="47.37764" lon="5.00557">
        <ele>358</ele>
        <time>2022-04-14T13:17:47.421Z</time>
      </trkpt>
      <trkpt lat="47.37764" lon="5.00566">
        <ele>357</ele>
        <time>2022-04-14T13:17:52.433Z</time>
      </trkpt>
      <trkpt lat="47.37762" lon="5.00573">
        <ele>357</ele>
        <time>2022-04-14T13:17:56.446Z</time>
      </trkpt>
      <trkpt lat="47.37761" lon="5.00582">
        <ele>357</ele>
        <time>2022-04-14T13:18:01.419Z</time>
      </trkpt>
      <trkpt lat="47.3776" lon="5.0059">
        <ele>357</ele>
        <time>2022-04-14T13:18:06.408Z</time>
      </trkpt>
      <trkpt lat="47.37759" lon="5.00598">
        <ele>356</ele>
        <time>2022-04-14T13:18:10.975Z</time>
      </trkpt>
      <trkpt lat="47.37757" lon="5.00609">
        <ele>356</ele>
        <time>2022-04-14T13:18:15.423Z</time>
      </trkpt>
      <trkpt lat="47.37755" lon="5.00615">
        <ele>356</ele>
        <time>2022-04-14T13:18:20.423Z</time>
      </trkpt>
      <trkpt lat="47.37752" lon="5.00624">
        <ele>356</ele>
        <time>2022-04-14T13:18:25.439Z</time>
      </trkpt>
      <trkpt lat="47.37748" lon="5.0063">
        <ele>355</ele>
        <time>2022-04-14T13:18:30.388Z</time>
      </trkpt>
      <trkpt lat="47.37744" lon="5.00635">
        <ele>355</ele>
        <time>2022-04-14T13:18:34.391Z</time>
      </trkpt>
      <trkpt lat="47.3774" lon="5.0064">
        <ele>355</ele>
        <time>2022-04-14T13:18:38.465Z</time>
      </trkpt>
      <trkpt lat="47.37735" lon="5.00647">
        <ele>354</ele>
        <time>2022-04-14T13:18:43.424Z</time>
      </trkpt>
      <trkpt lat="47.37732" lon="5.00652">
        <ele>354</ele>
        <time>2022-04-14T13:18:48.449Z</time>
      </trkpt>
      <trkpt lat="47.37727" lon="5.00657">
        <ele>354</ele>
        <time>2022-04-14T13:18:53.378Z</time>
      </trkpt>
      <trkpt lat="47.37721" lon="5.00664">
        <ele>354</ele>
        <time>2022-04-14T13:18:58.379Z</time>
      </trkpt>
      <trkpt lat="47.37717" lon="5.00669">
        <ele>354</ele>
        <time>2022-04-14T13:19:02.391Z</time>
      </trkpt>
      <trkpt lat="47.37712" lon="5.00674">
        <ele>354</ele>
        <time>2022-04-14T13:19:07.402Z</time>
      </trkpt>
      <trkpt lat="47.37707" lon="5.00679">
        <ele>354</ele>
        <time>2022-04-14T13:19:11.443Z</time>
      </trkpt>
      <trkpt lat="47.37703" lon="5.00685">
        <ele>353</ele>
        <time>2022-04-14T13:19:16.392Z</time>
      </trkpt>
      <trkpt lat="47.37699" lon="5.00689">
        <ele>353</ele>
        <time>2022-04-14T13:19:20.416Z</time>
      </trkpt>
      <trkpt lat="47.37695" lon="5.00693">
        <ele>353</ele>
        <time>2022-04-14T13:19:24.452Z</time>
      </trkpt>
      <trkpt lat="47.3769" lon="5.00699">
        <ele>353</ele>
        <time>2022-04-14T13:19:29.465Z</time>
      </trkpt>
      <trkpt lat="47.37686" lon="5.00704">
        <ele>353</ele>
        <time>2022-04-14T13:19:33.471Z</time>
      </trkpt>
      <trkpt lat="47.37681" lon="5.00712">
        <ele>352</ele>
        <time>2022-04-14T13:19:38.394Z</time>
      </trkpt>
      <trkpt lat="47.37676" lon="5.00718">
        <ele>353</ele>
        <time>2022-04-14T13:19:43.397Z</time>
      </trkpt>
      <trkpt lat="47.37672" lon="5.00722">
        <ele>353</ele>
        <time>2022-04-14T13:19:47.432Z</time>
      </trkpt>
      <trkpt lat="47.37667" lon="5.00728">
        <ele>353</ele>
        <time>2022-04-14T13:19:52.407Z</time>
      </trkpt>
      <trkpt lat="47.37662" lon="5.00733">
        <ele>353</ele>
        <time>2022-04-14T13:19:57.423Z</time>
      </trkpt>
      <trkpt lat="47.37658" lon="5.0074">
        <ele>351</ele>
        <time>2022-04-14T13:20:02.410Z</time>
      </trkpt>
      <trkpt lat="47.37653" lon="5.00747">
        <ele>354</ele>
        <time>2022-04-14T13:20:07.395Z</time>
      </trkpt>
      <trkpt lat="47.37648" lon="5.00753">
        <ele>354</ele>
        <time>2022-04-14T13:20:11.489Z</time>
      </trkpt>
      <trkpt lat="47.37644" lon="5.00757">
        <ele>354</ele>
        <time>2022-04-14T13:20:16.429Z</time>
      </trkpt>
      <trkpt lat="47.37639" lon="5.00763">
        <ele>354</ele>
        <time>2022-04-14T13:20:21.415Z</time>
      </trkpt>
      <trkpt lat="47.37635" lon="5.00766">
        <ele>351</ele>
        <time>2022-04-14T13:20:25.467Z</time>
      </trkpt>
      <trkpt lat="47.37631" lon="5.00774">
        <ele>351</ele>
        <time>2022-04-14T13:20:30.464Z</time>
      </trkpt>
      <trkpt lat="47.37627" lon="5.0078">
        <ele>351</ele>
        <time>2022-04-14T13:20:35.413Z</time>
      </trkpt>
      <trkpt lat="47.37622" lon="5.00785">
        <ele>353</ele>
        <time>2022-04-14T13:20:39.475Z</time>
      </trkpt>
      <trkpt lat="47.37618" lon="5.0079">
        <ele>353</ele>
        <time>2022-04-14T13:20:44.396Z</time>
      </trkpt>
      <trkpt lat="47.37615" lon="5.00795">
        <ele>351</ele>
        <time>2022-04-14T13:20:48.418Z</time>
      </trkpt>
      <trkpt lat="47.37611" lon="5.00799">
        <ele>351</ele>
        <time>2022-04-14T13:20:52.467Z</time>
      </trkpt>
      <trkpt lat="47.37607" lon="5.00805">
        <ele>351</ele>
        <time>2022-04-14T13:20:57.395Z</time>
      </trkpt>
      <trkpt lat="47.37601" lon="5.00812">
        <ele>351</ele>
        <time>2022-04-14T13:21:02.398Z</time>
      </trkpt>
      <trkpt lat="47.37598" lon="5.00817">
        <ele>351</ele>
        <time>2022-04-14T13:21:06.483Z</time>
      </trkpt>
      <trkpt lat="47.37593" lon="5.00825">
        <ele>350</ele>
        <time>2022-04-14T13:21:11.431Z</time>
      </trkpt>
      <trkpt lat="47.37589" lon="5.0083">
        <ele>350</ele>
        <time>2022-04-14T13:21:16.474Z</time>
      </trkpt>
      <trkpt lat="47.37585" lon="5.00834">
        <ele>350</ele>
        <time>2022-04-14T13:21:20.503Z</time>
      </trkpt>
      <trkpt lat="47.3758" lon="5.00841">
        <ele>350</ele>
        <time>2022-04-14T13:21:25.401Z</time>
      </trkpt>
      <trkpt lat="47.37575" lon="5.00844">
        <ele>350</ele>
        <time>2022-04-14T13:21:30.389Z</time>
      </trkpt>
      <trkpt lat="47.37572" lon="5.00846">
        <ele>350</ele>
        <time>2022-04-14T13:21:34.426Z</time>
      </trkpt>
      <trkpt lat="47.37569" lon="5.0085">
        <ele>351</ele>
        <time>2022-04-14T13:21:38.446Z</time>
      </trkpt>
      <trkpt lat="47.37565" lon="5.00854">
        <ele>351</ele>
        <time>2022-04-14T13:21:42.467Z</time>
      </trkpt>
      <trkpt lat="47.37561" lon="5.00862">
        <ele>351</ele>
        <time>2022-04-14T13:21:47.499Z</time>
      </trkpt>
      <trkpt lat="47.37558" lon="5.00865">
        <ele>351</ele>
        <time>2022-04-14T13:21:52.485Z</time>
      </trkpt>
      <trkpt lat="47.37552" lon="5.00871">
        <ele>351</ele>
        <time>2022-04-14T13:21:57.422Z</time>
      </trkpt>
      <trkpt lat="47.37549" lon="5.00877">
        <ele>349</ele>
        <time>2022-04-14T13:22:02.494Z</time>
      </trkpt>
      <trkpt lat="47.37545" lon="5.00883">
        <ele>349</ele>
        <time>2022-04-14T13:22:07.414Z</time>
      </trkpt>
      <trkpt lat="47.37541" lon="5.00889">
        <ele>350</ele>
        <time>2022-04-14T13:22:11.440Z</time>
      </trkpt>
      <trkpt lat="47.37537" lon="5.00895">
        <ele>350</ele>
        <time>2022-04-14T13:22:15.500Z</time>
      </trkpt>
      <trkpt lat="47.37532" lon="5.00902">
        <ele>350</ele>
        <time>2022-04-14T13:22:20.446Z</time>
      </trkpt>
      <trkpt lat="47.37527" lon="5.00908">
        <ele>349</ele>
        <time>2022-04-14T13:22:25.469Z</time>
      </trkpt>
      <trkpt lat="47.37523" lon="5.00912">
        <ele>349</ele>
        <time>2022-04-14T13:22:30.478Z</time>
      </trkpt>
      <trkpt lat="47.3752" lon="5.00913">
        <ele>349</ele>
        <time>2022-04-14T13:22:35.394Z</time>
      </trkpt>
      <trkpt lat="47.37515" lon="5.00918">
        <ele>349</ele>
        <time>2022-04-14T13:22:39.449Z</time>
      </trkpt>
      <trkpt lat="47.37509" lon="5.00925">
        <ele>347</ele>
        <time>2022-04-14T13:22:44.464Z</time>
      </trkpt>
      <trkpt lat="47.37504" lon="5.00933">
        <ele>346</ele>
        <time>2022-04-14T13:22:49.447Z</time>
      </trkpt>
      <trkpt lat="47.37501" lon="5.00941">
        <ele>346</ele>
        <time>2022-04-14T13:22:53.478Z</time>
      </trkpt>
      <trkpt lat="47.37499" lon="5.00949">
        <ele>346</ele>
        <time>2022-04-14T13:22:58.402Z</time>
      </trkpt>
      <trkpt lat="47.37497" lon="5.00956">
        <ele>346</ele>
        <time>2022-04-14T13:23:02.405Z</time>
      </trkpt>
      <trkpt lat="47.37496" lon="5.00963">
        <ele>344</ele>
        <time>2022-04-14T13:23:06.480Z</time>
      </trkpt>
      <trkpt lat="47.37493" lon="5.00973">
        <ele>344</ele>
        <time>2022-04-14T13:23:11.456Z</time>
      </trkpt>
      <trkpt lat="47.37491" lon="5.00982">
        <ele>344</ele>
        <time>2022-04-14T13:23:16.403Z</time>
      </trkpt>
      <trkpt lat="47.3749" lon="5.00991">
        <ele>344</ele>
        <time>2022-04-14T13:23:21.397Z</time>
      </trkpt>
      <trkpt lat="47.3749" lon="5.00999">
        <ele>344</ele>
        <time>2022-04-14T13:23:26.399Z</time>
      </trkpt>
      <trkpt lat="47.37489" lon="5.01008">
        <ele>344</ele>
        <time>2022-04-14T13:23:31.435Z</time>
      </trkpt>
      <trkpt lat="47.37488" lon="5.01019">
        <ele>344</ele>
        <time>2022-04-14T13:23:36.459Z</time>
      </trkpt>
      <trkpt lat="47.37487" lon="5.01027">
        <ele>344</ele>
        <time>2022-04-14T13:23:41.448Z</time>
      </trkpt>
      <trkpt lat="47.37486" lon="5.01036">
        <ele>344</ele>
        <time>2022-04-14T13:23:46.467Z</time>
      </trkpt>
      <trkpt lat="47.37485" lon="5.01046">
        <ele>345</ele>
        <time>2022-04-14T13:23:51.392Z</time>
      </trkpt>
      <trkpt lat="47.37484" lon="5.01053">
        <ele>345</ele>
        <time>2022-04-14T13:23:55.443Z</time>
      </trkpt>
      <trkpt lat="47.37484" lon="5.01061">
        <ele>345</ele>
        <time>2022-04-14T13:24:00.455Z</time>
      </trkpt>
      <trkpt lat="47.37484" lon="5.01074">
        <ele>345</ele>
        <time>2022-04-14T13:24:19.475Z</time>
      </trkpt>
      <trkpt lat="47.37484" lon="5.01074">
        <ele>345</ele>
        <time>2022-04-14T13:24:23.388Z</time>
      </trkpt>
      <trkpt lat="47.37482" lon="5.0108">
        <ele>345</ele>
        <time>2022-04-14T13:24:28.410Z</time>
      </trkpt>
      <trkpt lat="47.3748" lon="5.01087">
        <ele>345</ele>
        <time>2022-04-14T13:24:33.441Z</time>
      </trkpt>
      <trkpt lat="47.37476" lon="5.01094">
        <ele>345</ele>
        <time>2022-04-14T13:24:38.403Z</time>
      </trkpt>
      <trkpt lat="47.37474" lon="5.011">
        <ele>345</ele>
        <time>2022-04-14T13:24:42.425Z</time>
      </trkpt>
      <trkpt lat="47.37472" lon="5.01105">
        <ele>345</ele>
        <time>2022-04-14T13:24:46.487Z</time>
      </trkpt>
      <trkpt lat="47.37469" lon="5.01112">
        <ele>345</ele>
        <time>2022-04-14T13:24:51.399Z</time>
      </trkpt>
      <trkpt lat="47.37465" lon="5.01118">
        <ele>345</ele>
        <time>2022-04-14T13:24:55.498Z</time>
      </trkpt>
      <trkpt lat="47.37462" lon="5.01126">
        <ele>345</ele>
        <time>2022-04-14T13:25:00.491Z</time>
      </trkpt>
      <trkpt lat="47.37459" lon="5.01131">
        <ele>345</ele>
        <time>2022-04-14T13:25:05.533Z</time>
      </trkpt>
      <trkpt lat="47.37457" lon="5.01137">
        <ele>345</ele>
        <time>2022-04-14T13:25:10.407Z</time>
      </trkpt>
      <trkpt lat="47.37453" lon="5.01143">
        <ele>345</ele>
        <time>2022-04-14T13:25:14.482Z</time>
      </trkpt>
      <trkpt lat="47.37449" lon="5.0115">
        <ele>345</ele>
        <time>2022-04-14T13:25:18.497Z</time>
      </trkpt>
      <trkpt lat="47.37445" lon="5.01159">
        <ele>343</ele>
        <time>2022-04-14T13:25:23.468Z</time>
      </trkpt>
      <trkpt lat="47.37442" lon="5.01168">
        <ele>343</ele>
        <time>2022-04-14T13:25:28.476Z</time>
      </trkpt>
      <trkpt lat="47.37437" lon="5.01175">
        <ele>343</ele>
        <time>2022-04-14T13:25:33.479Z</time>
      </trkpt>
      <trkpt lat="47.37432" lon="5.01181">
        <ele>342</ele>
        <time>2022-04-14T13:25:38.418Z</time>
      </trkpt>
      <trkpt lat="47.37429" lon="5.01188">
        <ele>340</ele>
        <time>2022-04-14T13:25:43.467Z</time>
      </trkpt>
      <trkpt lat="47.37426" lon="5.01195">
        <ele>340</ele>
        <time>2022-04-14T13:25:48.437Z</time>
      </trkpt>
      <trkpt lat="47.37422" lon="5.01203">
        <ele>340</ele>
        <time>2022-04-14T13:25:52.470Z</time>
      </trkpt>
      <trkpt lat="47.37417" lon="5.01212">
        <ele>339</ele>
        <time>2022-04-14T13:25:57.459Z</time>
      </trkpt>
      <trkpt lat="47.37413" lon="5.0122">
        <ele>339</ele>
        <time>2022-04-14T13:26:02.451Z</time>
      </trkpt>
      <trkpt lat="47.37408" lon="5.01228">
        <ele>339</ele>
        <time>2022-04-14T13:26:07.429Z</time>
      </trkpt>
      <trkpt lat="47.37405" lon="5.01231">
        <ele>339</ele>
        <time>2022-04-14T13:26:11.478Z</time>
      </trkpt>
      <trkpt lat="47.37401" lon="5.01239">
        <ele>338</ele>
        <time>2022-04-14T13:26:16.452Z</time>
      </trkpt>
      <trkpt lat="47.37397" lon="5.01245">
        <ele>338</ele>
        <time>2022-04-14T13:26:20.470Z</time>
      </trkpt>
      <trkpt lat="47.37392" lon="5.01249">
        <ele>338</ele>
        <time>2022-04-14T13:26:25.456Z</time>
      </trkpt>
      <trkpt lat="47.37386" lon="5.01254">
        <ele>338</ele>
        <time>2022-04-14T13:26:30.470Z</time>
      </trkpt>
      <trkpt lat="47.37381" lon="5.0126">
        <ele>338</ele>
        <time>2022-04-14T13:26:35.434Z</time>
      </trkpt>
      <trkpt lat="47.37377" lon="5.01265">
        <ele>338</ele>
        <time>2022-04-14T13:26:39.483Z</time>
      </trkpt>
      <trkpt lat="47.37371" lon="5.0127">
        <ele>337</ele>
        <time>2022-04-14T13:26:44.471Z</time>
      </trkpt>
      <trkpt lat="47.37367" lon="5.01273">
        <ele>337</ele>
        <time>2022-04-14T13:26:49.435Z</time>
      </trkpt>
      <trkpt lat="47.37363" lon="5.01278">
        <ele>337</ele>
        <time>2022-04-14T13:26:54.459Z</time>
      </trkpt>
      <trkpt lat="47.37361" lon="5.01283">
        <ele>337</ele>
        <time>2022-04-14T13:26:59.416Z</time>
      </trkpt>
      <trkpt lat="47.37355" lon="5.01289">
        <ele>337</ele>
        <time>2022-04-14T13:27:04.403Z</time>
      </trkpt>
      <trkpt lat="47.37352" lon="5.01291">
        <ele>337</ele>
        <time>2022-04-14T13:27:08.438Z</time>
      </trkpt>
      <trkpt lat="47.37344" lon="5.01298">
        <ele>335</ele>
        <time>2022-04-14T13:27:13.461Z</time>
      </trkpt>
      <trkpt lat="47.37339" lon="5.01302">
        <ele>335</ele>
        <time>2022-04-14T13:27:18.428Z</time>
      </trkpt>
      <trkpt lat="47.37333" lon="5.01308">
        <ele>335</ele>
        <time>2022-04-14T13:27:23.472Z</time>
      </trkpt>
      <trkpt lat="47.37328" lon="5.01312">
        <ele>335</ele>
        <time>2022-04-14T13:27:28.459Z</time>
      </trkpt>
      <trkpt lat="47.37322" lon="5.01316">
        <ele>335</ele>
        <time>2022-04-14T13:27:33.463Z</time>
      </trkpt>
      <trkpt lat="47.37316" lon="5.01321">
        <ele>333</ele>
        <time>2022-04-14T13:27:38.492Z</time>
      </trkpt>
      <trkpt lat="47.3731" lon="5.01327">
        <ele>333</ele>
        <time>2022-04-14T13:27:43.473Z</time>
      </trkpt>
      <trkpt lat="47.37306" lon="5.01328">
        <ele>333</ele>
        <time>2022-04-14T13:27:48.424Z</time>
      </trkpt>
      <trkpt lat="47.37302" lon="5.01332">
        <ele>333</ele>
        <time>2022-04-14T13:27:52.474Z</time>
      </trkpt>
      <trkpt lat="47.37297" lon="5.01337">
        <ele>333</ele>
        <time>2022-04-14T13:27:57.481Z</time>
      </trkpt>
      <trkpt lat="47.37292" lon="5.0134">
        <ele>333</ele>
        <time>2022-04-14T13:28:02.469Z</time>
      </trkpt>
      <trkpt lat="47.37287" lon="5.01346">
        <ele>332</ele>
        <time>2022-04-14T13:28:07.476Z</time>
      </trkpt>
      <trkpt lat="47.3728" lon="5.01351">
        <ele>329</ele>
        <time>2022-04-14T13:28:12.486Z</time>
      </trkpt>
      <trkpt lat="47.37274" lon="5.01354">
        <ele>329</ele>
        <time>2022-04-14T13:28:17.468Z</time>
      </trkpt>
      <trkpt lat="47.3727" lon="5.01358">
        <ele>329</ele>
        <time>2022-04-14T13:28:22.491Z</time>
      </trkpt>
      <trkpt lat="47.37263" lon="5.01362">
        <ele>330</ele>
        <time>2022-04-14T13:28:27.470Z</time>
      </trkpt>
      <trkpt lat="47.37258" lon="5.01367">
        <ele>330</ele>
        <time>2022-04-14T13:28:32.438Z</time>
      </trkpt>
      <trkpt lat="47.37252" lon="5.0137">
        <ele>330</ele>
        <time>2022-04-14T13:28:37.466Z</time>
      </trkpt>
      <trkpt lat="47.37246" lon="5.01374">
        <ele>330</ele>
        <time>2022-04-14T13:28:42.454Z</time>
      </trkpt>
      <trkpt lat="47.37241" lon="5.01378">
        <ele>327</ele>
        <time>2022-04-14T13:28:47.466Z</time>
      </trkpt>
      <trkpt lat="47.37234" lon="5.0138">
        <ele>327</ele>
        <time>2022-04-14T13:28:52.458Z</time>
      </trkpt>
      <trkpt lat="47.37228" lon="5.01382">
        <ele>327</ele>
        <time>2022-04-14T13:28:57.430Z</time>
      </trkpt>
      <trkpt lat="47.37225" lon="5.01385">
        <ele>327</ele>
        <time>2022-04-14T13:29:02.453Z</time>
      </trkpt>
      <trkpt lat="47.37226" lon="5.01387">
        <ele>327</ele>
        <time>2022-04-14T13:29:07.454Z</time>
      </trkpt>
      <trkpt lat="47.37224" lon="5.01388">
        <ele>327</ele>
        <time>2022-04-14T13:29:11.483Z</time>
      </trkpt>
      <trkpt lat="47.37219" lon="5.0139">
        <ele>327</ele>
        <time>2022-04-14T13:29:21.400Z</time>
      </trkpt>
      <trkpt lat="47.37216" lon="5.01395">
        <ele>327</ele>
        <time>2022-04-14T13:29:25.482Z</time>
      </trkpt>
      <trkpt lat="47.37213" lon="5.01397">
        <ele>327</ele>
        <time>2022-04-14T13:29:30.402Z</time>
      </trkpt>
      <trkpt lat="47.37214" lon="5.01399">
        <ele>327</ele>
        <time>2022-04-14T13:32:26.422Z</time>
      </trkpt>
      <trkpt lat="47.3721" lon="5.014">
        <ele>327</ele>
        <time>2022-04-14T13:33:03.479Z</time>
      </trkpt>
      <trkpt lat="47.37206" lon="5.01402">
        <ele>326</ele>
        <time>2022-04-14T13:33:08.456Z</time>
      </trkpt>
      <trkpt lat="47.37203" lon="5.01401">
        <ele>326</ele>
        <time>2022-04-14T13:33:12.484Z</time>
      </trkpt>
      <trkpt lat="47.37199" lon="5.01402">
        <ele>326</ele>
        <time>2022-04-14T13:33:17.378Z</time>
      </trkpt>
      <trkpt lat="47.37193" lon="5.01406">
        <ele>325</ele>
        <time>2022-04-14T13:33:22.409Z</time>
      </trkpt>
      <trkpt lat="47.37191" lon="5.0141">
        <ele>325</ele>
        <time>2022-04-14T13:33:26.481Z</time>
      </trkpt>
      <trkpt lat="47.37188" lon="5.01412">
        <ele>325</ele>
        <time>2022-04-14T13:33:31.477Z</time>
      </trkpt>
      <trkpt lat="47.37183" lon="5.01417">
        <ele>325</ele>
        <time>2022-04-14T13:33:36.400Z</time>
      </trkpt>
      <trkpt lat="47.37177" lon="5.01421">
        <ele>325</ele>
        <time>2022-04-14T13:33:41.401Z</time>
      </trkpt>
      <trkpt lat="47.37172" lon="5.01425">
        <ele>325</ele>
        <time>2022-04-14T13:33:46.400Z</time>
      </trkpt>
      <trkpt lat="47.37168" lon="5.01429">
        <ele>325</ele>
        <time>2022-04-14T13:33:50.459Z</time>
      </trkpt>
      <trkpt lat="47.37163" lon="5.01435">
        <ele>324</ele>
        <time>2022-04-14T13:33:55.449Z</time>
      </trkpt>
      <trkpt lat="47.37158" lon="5.01441">
        <ele>324</ele>
        <time>2022-04-14T13:34:00.414Z</time>
      </trkpt>
      <trkpt lat="47.37154" lon="5.01447">
        <ele>324</ele>
        <time>2022-04-14T13:34:04.466Z</time>
      </trkpt>
      <trkpt lat="47.3715" lon="5.01454">
        <ele>323</ele>
        <time>2022-04-14T13:34:09.466Z</time>
      </trkpt>
      <trkpt lat="47.37146" lon="5.0146">
        <ele>322</ele>
        <time>2022-04-14T13:34:14.449Z</time>
      </trkpt>
      <trkpt lat="47.37142" lon="5.01464">
        <ele>322</ele>
        <time>2022-04-14T13:34:19.449Z</time>
      </trkpt>
      <trkpt lat="47.37138" lon="5.01471">
        <ele>322</ele>
        <time>2022-04-14T13:34:24.462Z</time>
      </trkpt>
      <trkpt lat="47.37135" lon="5.01477">
        <ele>322</ele>
        <time>2022-04-14T13:34:29.467Z</time>
      </trkpt>
      <trkpt lat="47.37131" lon="5.01483">
        <ele>322</ele>
        <time>2022-04-14T13:34:34.442Z</time>
      </trkpt>
      <trkpt lat="47.37127" lon="5.01489">
        <ele>321</ele>
        <time>2022-04-14T13:34:39.463Z</time>
      </trkpt>
      <trkpt lat="47.37122" lon="5.01494">
        <ele>318</ele>
        <time>2022-04-14T13:34:44.471Z</time>
      </trkpt>
      <trkpt lat="47.37118" lon="5.01502">
        <ele>318</ele>
        <time>2022-04-14T13:34:49.503Z</time>
      </trkpt>
      <trkpt lat="47.37114" lon="5.01509">
        <ele>318</ele>
        <time>2022-04-14T13:34:54.451Z</time>
      </trkpt>
      <trkpt lat="47.3711" lon="5.01517">
        <ele>318</ele>
        <time>2022-04-14T13:34:59.407Z</time>
      </trkpt>
      <trkpt lat="47.37108" lon="5.01522">
        <ele>318</ele>
        <time>2022-04-14T13:35:04.476Z</time>
      </trkpt>
      <trkpt lat="47.37104" lon="5.01529">
        <ele>318</ele>
        <time>2022-04-14T13:35:09.485Z</time>
      </trkpt>
      <trkpt lat="47.371" lon="5.01536">
        <ele>318</ele>
        <time>2022-04-14T13:35:14.468Z</time>
      </trkpt>
      <trkpt lat="47.37096" lon="5.01541">
        <ele>319</ele>
        <time>2022-04-14T13:35:19.487Z</time>
      </trkpt>
      <trkpt lat="47.37092" lon="5.01548">
        <ele>319</ele>
        <time>2022-04-14T13:35:24.484Z</time>
      </trkpt>
      <trkpt lat="47.37088" lon="5.01553">
        <ele>319</ele>
        <time>2022-04-14T13:35:29.412Z</time>
      </trkpt>
      <trkpt lat="47.37084" lon="5.01561">
        <ele>319</ele>
        <time>2022-04-14T13:35:34.404Z</time>
      </trkpt>
      <trkpt lat="47.3708" lon="5.01565">
        <ele>319</ele>
        <time>2022-04-14T13:35:38.438Z</time>
      </trkpt>
      <trkpt lat="47.37076" lon="5.0157">
        <ele>319</ele>
        <time>2022-04-14T13:35:42.471Z</time>
      </trkpt>
      <trkpt lat="47.37072" lon="5.01574">
        <ele>319</ele>
        <time>2022-04-14T13:35:47.466Z</time>
      </trkpt>
      <trkpt lat="47.37066" lon="5.01579">
        <ele>317</ele>
        <time>2022-04-14T13:35:52.453Z</time>
      </trkpt>
      <trkpt lat="47.37061" lon="5.01584">
        <ele>317</ele>
        <time>2022-04-14T13:35:57.432Z</time>
      </trkpt>
      <trkpt lat="47.37058" lon="5.01588">
        <ele>317</ele>
        <time>2022-04-14T13:36:01.453Z</time>
      </trkpt>
      <trkpt lat="47.37053" lon="5.01593">
        <ele>317</ele>
        <time>2022-04-14T13:36:06.429Z</time>
      </trkpt>
      <trkpt lat="47.37049" lon="5.01597">
        <ele>317</ele>
        <time>2022-04-14T13:36:10.486Z</time>
      </trkpt>
      <trkpt lat="47.37045" lon="5.01602">
        <ele>315</ele>
        <time>2022-04-14T13:36:15.475Z</time>
      </trkpt>
      <trkpt lat="47.37041" lon="5.0161">
        <ele>311</ele>
        <time>2022-04-14T13:36:20.477Z</time>
      </trkpt>
      <trkpt lat="47.3704" lon="5.01618">
        <ele>311</ele>
        <time>2022-04-14T13:36:25.470Z</time>
      </trkpt>
      <trkpt lat="47.37038" lon="5.01626">
        <ele>309</ele>
        <time>2022-04-14T13:36:30.458Z</time>
      </trkpt>
      <trkpt lat="47.37038" lon="5.01635">
        <ele>309</ele>
        <time>2022-04-14T13:36:35.493Z</time>
      </trkpt>
      <trkpt lat="47.37039" lon="5.01644">
        <ele>309</ele>
        <time>2022-04-14T13:36:40.433Z</time>
      </trkpt>
      <trkpt lat="47.37041" lon="5.01654">
        <ele>307</ele>
        <time>2022-04-14T13:36:45.433Z</time>
      </trkpt>
      <trkpt lat="47.37043" lon="5.0166">
        <ele>310</ele>
        <time>2022-04-14T13:36:50.404Z</time>
      </trkpt>
      <trkpt lat="47.37045" lon="5.01666">
        <ele>310</ele>
        <time>2022-04-14T13:36:54.440Z</time>
      </trkpt>
      <trkpt lat="47.37047" lon="5.01675">
        <ele>310</ele>
        <time>2022-04-14T13:36:59.448Z</time>
      </trkpt>
      <trkpt lat="47.37048" lon="5.01681">
        <ele>309</ele>
        <time>2022-04-14T13:37:03.486Z</time>
      </trkpt>
      <trkpt lat="47.3705" lon="5.01688">
        <ele>309</ele>
        <time>2022-04-14T13:37:08.477Z</time>
      </trkpt>
      <trkpt lat="47.37053" lon="5.01695">
        <ele>309</ele>
        <time>2022-04-14T13:37:13.438Z</time>
      </trkpt>
      <trkpt lat="47.37057" lon="5.01701">
        <ele>309</ele>
        <time>2022-04-14T13:37:17.467Z</time>
      </trkpt>
      <trkpt lat="47.3706" lon="5.01709">
        <ele>307</ele>
        <time>2022-04-14T13:37:22.457Z</time>
      </trkpt>
      <trkpt lat="47.37064" lon="5.01714">
        <ele>307</ele>
        <time>2022-04-14T13:37:26.504Z</time>
      </trkpt>
      <trkpt lat="47.37068" lon="5.01719">
        <ele>307</ele>
        <time>2022-04-14T13:37:31.448Z</time>
      </trkpt>
      <trkpt lat="47.37073" lon="5.01725">
        <ele>310</ele>
        <time>2022-04-14T13:37:36.482Z</time>
      </trkpt>
      <trkpt lat="47.37078" lon="5.0173">
        <ele>310</ele>
        <time>2022-04-14T13:37:41.479Z</time>
      </trkpt>
      <trkpt lat="47.37081" lon="5.01733">
        <ele>310</ele>
        <time>2022-04-14T13:37:46.431Z</time>
      </trkpt>
      <trkpt lat="47.37084" lon="5.01734">
        <ele>310</ele>
        <time>2022-04-14T13:38:04.446Z</time>
      </trkpt>
      <trkpt lat="47.37084" lon="5.01738">
        <ele>308</ele>
        <time>2022-04-14T13:38:19.420Z</time>
      </trkpt>
      <trkpt lat="47.37085" lon="5.01739">
        <ele>308</ele>
        <time>2022-04-14T13:38:23.441Z</time>
      </trkpt>
      <trkpt lat="47.37089" lon="5.01741">
        <ele>308</ele>
        <time>2022-04-14T13:38:28.387Z</time>
      </trkpt>
      <trkpt lat="47.37094" lon="5.01743">
        <ele>308</ele>
        <time>2022-04-14T13:38:33.429Z</time>
      </trkpt>
      <trkpt lat="47.37097" lon="5.01746">
        <ele>308</ele>
        <time>2022-04-14T13:38:38.479Z</time>
      </trkpt>
      <trkpt lat="47.371" lon="5.01751">
        <ele>310</ele>
        <time>2022-04-14T13:38:43.451Z</time>
      </trkpt>
      <trkpt lat="47.37104" lon="5.01753">
        <ele>310</ele>
        <time>2022-04-14T13:38:48.493Z</time>
      </trkpt>
      <trkpt lat="47.37109" lon="5.01755">
        <ele>310</ele>
        <time>2022-04-14T13:38:53.499Z</time>
      </trkpt>
      <trkpt lat="47.37115" lon="5.01758">
        <ele>310</ele>
        <time>2022-04-14T13:38:58.472Z</time>
      </trkpt>
      <trkpt lat="47.37119" lon="5.01762">
        <ele>310</ele>
        <time>2022-04-14T13:39:03.442Z</time>
      </trkpt>
      <trkpt lat="47.37122" lon="5.01768">
        <ele>308</ele>
        <time>2022-04-14T13:39:08.458Z</time>
      </trkpt>
      <trkpt lat="47.37126" lon="5.01769">
        <ele>308</ele>
        <time>2022-04-14T13:39:13.448Z</time>
      </trkpt>
      <trkpt lat="47.3713" lon="5.01771">
        <ele>308</ele>
        <time>2022-04-14T13:39:18.454Z</time>
      </trkpt>
      <trkpt lat="47.37135" lon="5.01775">
        <ele>308</ele>
        <time>2022-04-14T13:39:23.439Z</time>
      </trkpt>
      <trkpt lat="47.37141" lon="5.01776">
        <ele>308</ele>
        <time>2022-04-14T13:39:28.477Z</time>
      </trkpt>
      <trkpt lat="47.37144" lon="5.01781">
        <ele>308</ele>
        <time>2022-04-14T13:39:33.465Z</time>
      </trkpt>
      <trkpt lat="47.37145" lon="5.01787">
        <ele>308</ele>
        <time>2022-04-14T13:39:37.487Z</time>
      </trkpt>
      <trkpt lat="47.37147" lon="5.01792">
        <ele>306</ele>
        <time>2022-04-14T13:39:42.444Z</time>
      </trkpt>
      <trkpt lat="47.37148" lon="5.01796">
        <ele>306</ele>
        <time>2022-04-14T13:39:46.481Z</time>
      </trkpt>
      <trkpt lat="47.37149" lon="5.01802">
        <ele>306</ele>
        <time>2022-04-14T13:39:51.396Z</time>
      </trkpt>
      <trkpt lat="47.37148" lon="5.01809">
        <ele>306</ele>
        <time>2022-04-14T13:39:55.428Z</time>
      </trkpt>
      <trkpt lat="47.37151" lon="5.01813">
        <ele>306</ele>
        <time>2022-04-14T13:40:00.440Z</time>
      </trkpt>
      <trkpt lat="47.37151" lon="5.01818">
        <ele>306</ele>
        <time>2022-04-14T13:40:05.443Z</time>
      </trkpt>
      <trkpt lat="47.37154" lon="5.01828">
        <ele>304</ele>
        <time>2022-04-14T13:40:10.479Z</time>
      </trkpt>
      <trkpt lat="47.37154" lon="5.01834">
        <ele>304</ele>
        <time>2022-04-14T13:40:15.458Z</time>
      </trkpt>
      <trkpt lat="47.37155" lon="5.01842">
        <ele>304</ele>
        <time>2022-04-14T13:40:20.461Z</time>
      </trkpt>
      <trkpt lat="47.37157" lon="5.01852">
        <ele>304</ele>
        <time>2022-04-14T13:40:25.469Z</time>
      </trkpt>
      <trkpt lat="47.37159" lon="5.01862">
        <ele>304</ele>
        <time>2022-04-14T13:40:30.430Z</time>
      </trkpt>
      <trkpt lat="47.37163" lon="5.01871">
        <ele>304</ele>
        <time>2022-04-14T13:40:35.397Z</time>
      </trkpt>
      <trkpt lat="47.37163" lon="5.01881">
        <ele>305</ele>
        <time>2022-04-14T13:40:40.399Z</time>
      </trkpt>
      <trkpt lat="47.37161" lon="5.0189">
        <ele>305</ele>
        <time>2022-04-14T13:40:44.416Z</time>
      </trkpt>
      <trkpt lat="47.37161" lon="5.01899">
        <ele>305</ele>
        <time>2022-04-14T13:40:49.389Z</time>
      </trkpt>
      <trkpt lat="47.37162" lon="5.01906">
        <ele>305</ele>
        <time>2022-04-14T13:40:53.460Z</time>
      </trkpt>
      <trkpt lat="47.37164" lon="5.01913">
        <ele>305</ele>
        <time>2022-04-14T13:40:58.459Z</time>
      </trkpt>
      <trkpt lat="47.37165" lon="5.01918">
        <ele>305</ele>
        <time>2022-04-14T13:41:02.479Z</time>
      </trkpt>
      <trkpt lat="47.37166" lon="5.01925">
        <ele>305</ele>
        <time>2022-04-14T13:41:07.447Z</time>
      </trkpt>
      <trkpt lat="47.37167" lon="5.01933">
        <ele>304</ele>
        <time>2022-04-14T13:41:12.435Z</time>
      </trkpt>
      <trkpt lat="47.37168" lon="5.01941">
        <ele>304</ele>
        <time>2022-04-14T13:41:17.421Z</time>
      </trkpt>
      <trkpt lat="47.37168" lon="5.01948">
        <ele>304</ele>
        <time>2022-04-14T13:41:21.458Z</time>
      </trkpt>
      <trkpt lat="47.37167" lon="5.01956">
        <ele>304</ele>
        <time>2022-04-14T13:41:26.471Z</time>
      </trkpt>
      <trkpt lat="47.37166" lon="5.01964">
        <ele>304</ele>
        <time>2022-04-14T13:41:31.451Z</time>
      </trkpt>
      <trkpt lat="47.37164" lon="5.0197">
        <ele>304</ele>
        <time>2022-04-14T13:41:36.421Z</time>
      </trkpt>
      <trkpt lat="47.37161" lon="5.01973">
        <ele>304</ele>
        <time>2022-04-14T13:41:40.436Z</time>
      </trkpt>
      <trkpt lat="47.37157" lon="5.01979">
        <ele>304</ele>
        <time>2022-04-14T13:41:45.397Z</time>
      </trkpt>
      <trkpt lat="47.37148" lon="5.01975">
        <ele>303</ele>
        <time>2022-04-14T13:42:12.447Z</time>
      </trkpt>
      <trkpt lat="47.37144" lon="5.01972">
        <ele>303</ele>
        <time>2022-04-14T13:42:27.406Z</time>
      </trkpt>
      <trkpt lat="47.37139" lon="5.01969">
        <ele>303</ele>
        <time>2022-04-14T13:42:32.418Z</time>
      </trkpt>
      <trkpt lat="47.37135" lon="5.01968">
        <ele>303</ele>
        <time>2022-04-14T13:42:36.467Z</time>
      </trkpt>
      <trkpt lat="47.37129" lon="5.01967">
        <ele>303</ele>
        <time>2022-04-14T13:42:41.450Z</time>
      </trkpt>
      <trkpt lat="47.37122" lon="5.01968">
        <ele>301</ele>
        <time>2022-04-14T13:42:50.465Z</time>
      </trkpt>
      <trkpt lat="47.37118" lon="5.0197">
        <ele>301</ele>
        <time>2022-04-14T13:42:55.438Z</time>
      </trkpt>
      <trkpt lat="47.37117" lon="5.01969">
        <ele>301</ele>
        <time>2022-04-14T13:43:00.483Z</time>
      </trkpt>
      <trkpt lat="47.37116" lon="5.01969">
        <ele>301</ele>
        <time>2022-04-14T13:43:05.403Z</time>
      </trkpt>
      <trkpt lat="47.37115" lon="5.01968">
        <ele>301</ele>
        <time>2022-04-14T13:43:14.487Z</time>
      </trkpt>
      <trkpt lat="47.37114" lon="5.01969">
        <ele>301</ele>
        <time>2022-04-14T13:43:19.438Z</time>
      </trkpt>
      <trkpt lat="47.37113" lon="5.01968">
        <ele>301</ele>
        <time>2022-04-14T13:43:28.422Z</time>
      </trkpt>
      <trkpt lat="47.37112" lon="5.01967">
        <ele>301</ele>
        <time>2022-04-14T13:43:32.449Z</time>
      </trkpt>
      <trkpt lat="47.37109" lon="5.01967">
        <ele>301</ele>
        <time>2022-04-14T13:43:37.412Z</time>
      </trkpt>
      <trkpt lat="47.37104" lon="5.01967">
        <ele>301</ele>
        <time>2022-04-14T13:43:41.460Z</time>
      </trkpt>
      <trkpt lat="47.37097" lon="5.01968">
        <ele>301</ele>
        <time>2022-04-14T13:43:46.457Z</time>
      </trkpt>
      <trkpt lat="47.37093" lon="5.01968">
        <ele>300</ele>
        <time>2022-04-14T13:43:51.444Z</time>
      </trkpt>
      <trkpt lat="47.3709" lon="5.01968">
        <ele>300</ele>
        <time>2022-04-14T13:43:55.475Z</time>
      </trkpt>
      <trkpt lat="47.37086" lon="5.01967">
        <ele>300</ele>
        <time>2022-04-14T13:44:00.508Z</time>
      </trkpt>
      <trkpt lat="47.37079" lon="5.01965">
        <ele>300</ele>
        <time>2022-04-14T13:44:05.464Z</time>
      </trkpt>
      <trkpt lat="47.37075" lon="5.01964">
        <ele>300</ele>
        <time>2022-04-14T13:44:09.755Z</time>
      </trkpt>
      <trkpt lat="47.37069" lon="5.01963">
        <ele>298</ele>
        <time>2022-04-14T13:44:14.734Z</time>
      </trkpt>
      <trkpt lat="47.37063" lon="5.01963">
        <ele>298</ele>
        <time>2022-04-14T13:44:19.711Z</time>
      </trkpt>
      <trkpt lat="47.37059" lon="5.0196">
        <ele>298</ele>
        <time>2022-04-14T13:44:24.709Z</time>
      </trkpt>
      <trkpt lat="47.37054" lon="5.01958">
        <ele>300</ele>
        <time>2022-04-14T13:44:29.675Z</time>
      </trkpt>
      <trkpt lat="47.37051" lon="5.01955">
        <ele>300</ele>
        <time>2022-04-14T13:44:33.717Z</time>
      </trkpt>
      <trkpt lat="47.3705" lon="5.0195">
        <ele>300</ele>
        <time>2022-04-14T13:44:37.757Z</time>
      </trkpt>
      <trkpt lat="47.37049" lon="5.01942">
        <ele>300</ele>
        <time>2022-04-14T13:44:42.726Z</time>
      </trkpt>
      <trkpt lat="47.37049" lon="5.01934">
        <ele>300</ele>
        <time>2022-04-14T13:44:47.744Z</time>
      </trkpt>
      <trkpt lat="47.37046" lon="5.01928">
        <ele>301</ele>
        <time>2022-04-14T13:44:52.698Z</time>
      </trkpt>
      <trkpt lat="47.37046" lon="5.01922">
        <ele>301</ele>
        <time>2022-04-14T13:44:56.729Z</time>
      </trkpt>
      <trkpt lat="47.37045" lon="5.01916">
        <ele>301</ele>
        <time>2022-04-14T13:45:01.698Z</time>
      </trkpt>
      <trkpt lat="47.37044" lon="5.01909">
        <ele>301</ele>
        <time>2022-04-14T13:45:06.693Z</time>
      </trkpt>
      <trkpt lat="47.37043" lon="5.01901">
        <ele>300</ele>
        <time>2022-04-14T13:45:11.708Z</time>
      </trkpt>
      <trkpt lat="47.37043" lon="5.019">
        <ele>300</ele>
        <time>2022-04-14T13:45:15.720Z</time>
      </trkpt>
    </trkseg>
  </trk>
</gpx>